<?xml version="1.0" encoding="UTF-8" standalone="no" ?>
<gpx xmlns="http://www.topografix.com/GPX/1/1" xmlns:xsi="http://www.w3.org/2001/XMLSchema-instance" xsi:schemaLocation="http://www.topografix.com/GPX/1/1 http://www.topografix.com/GPX/1/1/gpx.xsd" version="1.1" creator="VisuGPX - https://www.visugpx.com">
  <metadata>
    <name>Foret de Morières Montrieux</name>
    <desc><![CDATA[Rando facile.
Curiosités,Aiguilles de Valbelles.]]></desc>
  </metadata>
  <trk>
    <name><![CDATA[Foret de Morières Montrieux_1]]></name>
    <trkseg>
      <trkpt lat="43.26283" lon="5.96427">
        <ele>155.5</ele>
        <time>2013-12-11T07:56:08Z</time>
      </trkpt>
      <trkpt lat="43.26283" lon="5.96425">
        <ele>157.699996</ele>
        <time>2013-12-11T07:56:09Z</time>
      </trkpt>
      <trkpt lat="43.26288" lon="5.96421">
        <ele>162.6</ele>
        <time>2013-12-11T07:56:18Z</time>
      </trkpt>
      <trkpt lat="43.26289" lon="5.96416">
        <ele>168.6</ele>
        <time>2013-12-11T07:56:21Z</time>
      </trkpt>
      <trkpt lat="43.26287" lon="5.9641">
        <ele>173</ele>
        <time>2013-12-11T07:56:24Z</time>
      </trkpt>
      <trkpt lat="43.26287" lon="5.96409">
        <ele>174.3</ele>
        <time>2013-12-11T07:56:25Z</time>
      </trkpt>
      <trkpt lat="43.26286" lon="5.96404">
        <ele>178.6</ele>
        <time>2013-12-11T07:56:26Z</time>
      </trkpt>
      <trkpt lat="43.26285" lon="5.96399">
        <ele>182</ele>
        <time>2013-12-11T07:56:27Z</time>
      </trkpt>
      <trkpt lat="43.26284" lon="5.96393">
        <ele>187.8</ele>
        <time>2013-12-11T07:56:29Z</time>
      </trkpt>
      <trkpt lat="43.26283" lon="5.96389">
        <ele>191.8</ele>
        <time>2013-12-11T07:56:31Z</time>
      </trkpt>
      <trkpt lat="43.26284" lon="5.96386">
        <ele>194.8</ele>
        <time>2013-12-11T07:56:32Z</time>
      </trkpt>
      <trkpt lat="43.26284" lon="5.96381">
        <ele>200.6</ele>
        <time>2013-12-11T07:56:33Z</time>
      </trkpt>
      <trkpt lat="43.26284" lon="5.96368">
        <ele>215.1</ele>
        <time>2013-12-11T07:56:34Z</time>
      </trkpt>
      <trkpt lat="43.26283" lon="5.96364">
        <ele>218.1</ele>
        <time>2013-12-11T07:56:36Z</time>
      </trkpt>
      <trkpt lat="43.26283" lon="5.96358">
        <ele>222.6</ele>
        <time>2013-12-11T07:56:39Z</time>
      </trkpt>
      <trkpt lat="43.2628" lon="5.96355">
        <ele>229</ele>
        <time>2013-12-11T07:56:47Z</time>
      </trkpt>
      <trkpt lat="43.26276" lon="5.96355">
        <ele>227.5</ele>
        <time>2013-12-11T07:56:55Z</time>
      </trkpt>
      <trkpt lat="43.26279" lon="5.96351">
        <ele>230.3</ele>
        <time>2013-12-11T07:57:11Z</time>
      </trkpt>
      <trkpt lat="43.26279" lon="5.96351">
        <ele>231.3</ele>
        <time>2013-12-11T07:57:12Z</time>
      </trkpt>
      <trkpt lat="43.26279" lon="5.9634">
        <ele>242.8</ele>
        <time>2013-12-11T07:57:21Z</time>
      </trkpt>
      <trkpt lat="43.26283" lon="5.96338">
        <ele>244</ele>
        <time>2013-12-11T07:57:56Z</time>
      </trkpt>
      <trkpt lat="43.26281" lon="5.96333">
        <ele>249.1</ele>
        <time>2013-12-11T07:58:46Z</time>
      </trkpt>
      <trkpt lat="43.26281" lon="5.96333">
        <ele>249.3</ele>
        <time>2013-12-11T07:58:47Z</time>
      </trkpt>
      <trkpt lat="43.26279" lon="5.96342">
        <ele>240.1</ele>
        <time>2013-12-11T07:59:04Z</time>
      </trkpt>
      <trkpt lat="43.26277" lon="5.96347">
        <ele>235</ele>
        <time>2013-12-11T07:59:08Z</time>
      </trkpt>
      <trkpt lat="43.26275" lon="5.96353">
        <ele>231.6</ele>
        <time>2013-12-11T07:59:13Z</time>
      </trkpt>
      <trkpt lat="43.26272" lon="5.96356">
        <ele>233.1</ele>
        <time>2013-12-11T07:59:28Z</time>
      </trkpt>
      <trkpt lat="43.26269" lon="5.9636">
        <ele>231.3</ele>
        <time>2013-12-11T07:59:34Z</time>
      </trkpt>
      <trkpt lat="43.26265" lon="5.96363">
        <ele>232.6</ele>
        <time>2013-12-11T07:59:40Z</time>
      </trkpt>
      <trkpt lat="43.26263" lon="5.96367">
        <ele>232.6</ele>
        <time>2013-12-11T07:59:43Z</time>
      </trkpt>
      <trkpt lat="43.2626" lon="5.96369">
        <ele>230.1</ele>
        <time>2013-12-11T07:59:46Z</time>
      </trkpt>
      <trkpt lat="43.26257" lon="5.96374">
        <ele>223.6</ele>
        <time>2013-12-11T07:59:50Z</time>
      </trkpt>
      <trkpt lat="43.26257" lon="5.96375">
        <ele>222.3</ele>
        <time>2013-12-11T07:59:51Z</time>
      </trkpt>
      <trkpt lat="43.26253" lon="5.96384">
        <ele>214.1</ele>
        <time>2013-12-11T07:59:59Z</time>
      </trkpt>
      <trkpt lat="43.26252" lon="5.96389">
        <ele>212.8</ele>
        <time>2013-12-11T08:00:03Z</time>
      </trkpt>
      <trkpt lat="43.2625" lon="5.96394">
        <ele>210.1</ele>
        <time>2013-12-11T08:00:08Z</time>
      </trkpt>
      <trkpt lat="43.26247" lon="5.96399">
        <ele>211.8</ele>
        <time>2013-12-11T08:00:12Z</time>
      </trkpt>
      <trkpt lat="43.26245" lon="5.96402">
        <ele>208.8</ele>
        <time>2013-12-11T08:00:16Z</time>
      </trkpt>
      <trkpt lat="43.26243" lon="5.96405">
        <ele>208.3</ele>
        <time>2013-12-11T08:00:19Z</time>
      </trkpt>
      <trkpt lat="43.26241" lon="5.9641">
        <ele>220.6</ele>
        <time>2013-12-11T08:00:22Z</time>
      </trkpt>
      <trkpt lat="43.26237" lon="5.96413">
        <ele>222.1</ele>
        <time>2013-12-11T08:00:26Z</time>
      </trkpt>
      <trkpt lat="43.26234" lon="5.96416">
        <ele>225.6</ele>
        <time>2013-12-11T08:00:29Z</time>
      </trkpt>
      <trkpt lat="43.26231" lon="5.96419">
        <ele>225.8</ele>
        <time>2013-12-11T08:00:32Z</time>
      </trkpt>
      <trkpt lat="43.26228" lon="5.96421">
        <ele>222</ele>
        <time>2013-12-11T08:00:36Z</time>
      </trkpt>
      <trkpt lat="43.26225" lon="5.96423">
        <ele>217.1</ele>
        <time>2013-12-11T08:00:39Z</time>
      </trkpt>
      <trkpt lat="43.26222" lon="5.96427">
        <ele>216.1</ele>
        <time>2013-12-11T08:00:43Z</time>
      </trkpt>
      <trkpt lat="43.2622" lon="5.96432">
        <ele>210.8</ele>
        <time>2013-12-11T08:00:48Z</time>
      </trkpt>
      <trkpt lat="43.26219" lon="5.96437">
        <ele>213.6</ele>
        <time>2013-12-11T08:00:51Z</time>
      </trkpt>
      <trkpt lat="43.26218" lon="5.96439">
        <ele>214.3</ele>
        <time>2013-12-11T08:00:52Z</time>
      </trkpt>
      <trkpt lat="43.26214" lon="5.96446">
        <ele>218.1</ele>
        <time>2013-12-11T08:00:59Z</time>
      </trkpt>
      <trkpt lat="43.26214" lon="5.9645">
        <ele>223.3</ele>
        <time>2013-12-11T08:01:01Z</time>
      </trkpt>
      <trkpt lat="43.26213" lon="5.96454">
        <ele>228.8</ele>
        <time>2013-12-11T08:01:03Z</time>
      </trkpt>
      <trkpt lat="43.2621" lon="5.96459">
        <ele>234.8</ele>
        <time>2013-12-11T08:01:07Z</time>
      </trkpt>
      <trkpt lat="43.26207" lon="5.96462">
        <ele>230.6</ele>
        <time>2013-12-11T08:01:11Z</time>
      </trkpt>
      <trkpt lat="43.26203" lon="5.96465">
        <ele>231.8</ele>
        <time>2013-12-11T08:01:15Z</time>
      </trkpt>
      <trkpt lat="43.26202" lon="5.9647">
        <ele>228.1</ele>
        <time>2013-12-11T08:01:19Z</time>
      </trkpt>
      <trkpt lat="43.262" lon="5.96474">
        <ele>224.1</ele>
        <time>2013-12-11T08:01:23Z</time>
      </trkpt>
      <trkpt lat="43.26198" lon="5.9648">
        <ele>225.3</ele>
        <time>2013-12-11T08:01:27Z</time>
      </trkpt>
      <trkpt lat="43.26196" lon="5.96485">
        <ele>226.3</ele>
        <time>2013-12-11T08:01:31Z</time>
      </trkpt>
      <trkpt lat="43.26195" lon="5.96489">
        <ele>227.5</ele>
        <time>2013-12-11T08:01:34Z</time>
      </trkpt>
      <trkpt lat="43.26194" lon="5.96495">
        <ele>226.5</ele>
        <time>2013-12-11T08:01:38Z</time>
      </trkpt>
      <trkpt lat="43.26194" lon="5.965">
        <ele>226.3</ele>
        <time>2013-12-11T08:01:41Z</time>
      </trkpt>
      <trkpt lat="43.26194" lon="5.96505">
        <ele>235</ele>
        <time>2013-12-11T08:01:43Z</time>
      </trkpt>
      <trkpt lat="43.26194" lon="5.96511">
        <ele>241.3</ele>
        <time>2013-12-11T08:01:46Z</time>
      </trkpt>
      <trkpt lat="43.26194" lon="5.96515">
        <ele>247.3</ele>
        <time>2013-12-11T08:01:49Z</time>
      </trkpt>
      <trkpt lat="43.26195" lon="5.96521">
        <ele>249.6</ele>
        <time>2013-12-11T08:01:52Z</time>
      </trkpt>
      <trkpt lat="43.26197" lon="5.96527">
        <ele>247.3</ele>
        <time>2013-12-11T08:01:56Z</time>
      </trkpt>
      <trkpt lat="43.26197" lon="5.96528">
        <ele>246.6</ele>
        <time>2013-12-11T08:01:57Z</time>
      </trkpt>
      <trkpt lat="43.26199" lon="5.96536">
        <ele>245.8</ele>
        <time>2013-12-11T08:02:03Z</time>
      </trkpt>
      <trkpt lat="43.26198" lon="5.96542">
        <ele>256.2</ele>
        <time>2013-12-11T08:02:07Z</time>
      </trkpt>
      <trkpt lat="43.26195" lon="5.96546">
        <ele>259.2</ele>
        <time>2013-12-11T08:02:12Z</time>
      </trkpt>
      <trkpt lat="43.26191" lon="5.96548">
        <ele>259</ele>
        <time>2013-12-11T08:02:16Z</time>
      </trkpt>
      <trkpt lat="43.26187" lon="5.96549">
        <ele>252.6</ele>
        <time>2013-12-11T08:02:20Z</time>
      </trkpt>
      <trkpt lat="43.26183" lon="5.96551">
        <ele>248.8</ele>
        <time>2013-12-11T08:02:24Z</time>
      </trkpt>
      <trkpt lat="43.2618" lon="5.96552">
        <ele>246.8</ele>
        <time>2013-12-11T08:02:27Z</time>
      </trkpt>
      <trkpt lat="43.26176" lon="5.96553">
        <ele>245.3</ele>
        <time>2013-12-11T08:02:30Z</time>
      </trkpt>
      <trkpt lat="43.26172" lon="5.96555">
        <ele>244</ele>
        <time>2013-12-11T08:02:34Z</time>
      </trkpt>
      <trkpt lat="43.26167" lon="5.96556">
        <ele>243.1</ele>
        <time>2013-12-11T08:02:38Z</time>
      </trkpt>
      <trkpt lat="43.26164" lon="5.96556">
        <ele>244.3</ele>
        <time>2013-12-11T08:02:41Z</time>
      </trkpt>
      <trkpt lat="43.26159" lon="5.96555">
        <ele>242.1</ele>
        <time>2013-12-11T08:02:45Z</time>
      </trkpt>
      <trkpt lat="43.26156" lon="5.96559">
        <ele>245.6</ele>
        <time>2013-12-11T08:02:50Z</time>
      </trkpt>
      <trkpt lat="43.26154" lon="5.96562">
        <ele>247.3</ele>
        <time>2013-12-11T08:02:55Z</time>
      </trkpt>
      <trkpt lat="43.2615" lon="5.96565">
        <ele>249.8</ele>
        <time>2013-12-11T08:02:59Z</time>
      </trkpt>
      <trkpt lat="43.2615" lon="5.96565">
        <ele>249.6</ele>
        <time>2013-12-11T08:03:00Z</time>
      </trkpt>
      <trkpt lat="43.26144" lon="5.96568">
        <ele>252</ele>
        <time>2013-12-11T08:03:06Z</time>
      </trkpt>
      <trkpt lat="43.2614" lon="5.96569">
        <ele>248.3</ele>
        <time>2013-12-11T08:03:09Z</time>
      </trkpt>
      <trkpt lat="43.26136" lon="5.9657">
        <ele>246.3</ele>
        <time>2013-12-11T08:03:12Z</time>
      </trkpt>
      <trkpt lat="43.26133" lon="5.96574">
        <ele>248.6</ele>
        <time>2013-12-11T08:03:16Z</time>
      </trkpt>
      <trkpt lat="43.2613" lon="5.96578">
        <ele>244.3</ele>
        <time>2013-12-11T08:03:20Z</time>
      </trkpt>
      <trkpt lat="43.26127" lon="5.96583">
        <ele>241.3</ele>
        <time>2013-12-11T08:03:26Z</time>
      </trkpt>
      <trkpt lat="43.26126" lon="5.96588">
        <ele>239.3</ele>
        <time>2013-12-11T08:03:30Z</time>
      </trkpt>
      <trkpt lat="43.26124" lon="5.96592">
        <ele>242.8</ele>
        <time>2013-12-11T08:03:33Z</time>
      </trkpt>
      <trkpt lat="43.26122" lon="5.96597">
        <ele>240.8</ele>
        <time>2013-12-11T08:03:38Z</time>
      </trkpt>
      <trkpt lat="43.26122" lon="5.96603">
        <ele>251.3</ele>
        <time>2013-12-11T08:03:40Z</time>
      </trkpt>
      <trkpt lat="43.26121" lon="5.96608">
        <ele>252.1</ele>
        <time>2013-12-11T08:03:44Z</time>
      </trkpt>
      <trkpt lat="43.26118" lon="5.96611">
        <ele>251.1</ele>
        <time>2013-12-11T08:03:47Z</time>
      </trkpt>
      <trkpt lat="43.26117" lon="5.96616">
        <ele>249.6</ele>
        <time>2013-12-11T08:03:50Z</time>
      </trkpt>
      <trkpt lat="43.26117" lon="5.96622">
        <ele>253.6</ele>
        <time>2013-12-11T08:03:53Z</time>
      </trkpt>
      <trkpt lat="43.26116" lon="5.96627">
        <ele>250.8</ele>
        <time>2013-12-11T08:03:57Z</time>
      </trkpt>
      <trkpt lat="43.26115" lon="5.96632">
        <ele>247.8</ele>
        <time>2013-12-11T08:04:01Z</time>
      </trkpt>
      <trkpt lat="43.26115" lon="5.96633">
        <ele>250</ele>
        <time>2013-12-11T08:04:02Z</time>
      </trkpt>
      <trkpt lat="43.26113" lon="5.96641">
        <ele>247.8</ele>
        <time>2013-12-11T08:04:08Z</time>
      </trkpt>
      <trkpt lat="43.26112" lon="5.96647">
        <ele>248.5</ele>
        <time>2013-12-11T08:04:12Z</time>
      </trkpt>
      <trkpt lat="43.2611" lon="5.96651">
        <ele>246.3</ele>
        <time>2013-12-11T08:04:16Z</time>
      </trkpt>
      <trkpt lat="43.26108" lon="5.96656">
        <ele>243.8</ele>
        <time>2013-12-11T08:04:20Z</time>
      </trkpt>
      <trkpt lat="43.26104" lon="5.9666">
        <ele>246.3</ele>
        <time>2013-12-11T08:04:24Z</time>
      </trkpt>
      <trkpt lat="43.26102" lon="5.96663">
        <ele>255.8</ele>
        <time>2013-12-11T08:04:27Z</time>
      </trkpt>
      <trkpt lat="43.26101" lon="5.96667">
        <ele>258.2</ele>
        <time>2013-12-11T08:04:29Z</time>
      </trkpt>
      <trkpt lat="43.26101" lon="5.9667">
        <ele>265.2</ele>
        <time>2013-12-11T08:04:30Z</time>
      </trkpt>
      <trkpt lat="43.261" lon="5.96675">
        <ele>272.3</ele>
        <time>2013-12-11T08:04:32Z</time>
      </trkpt>
      <trkpt lat="43.26099" lon="5.9668">
        <ele>273.8</ele>
        <time>2013-12-11T08:04:35Z</time>
      </trkpt>
      <trkpt lat="43.26097" lon="5.96686">
        <ele>279.2</ele>
        <time>2013-12-11T08:04:38Z</time>
      </trkpt>
      <trkpt lat="43.26096" lon="5.96691">
        <ele>278.5</ele>
        <time>2013-12-11T08:04:42Z</time>
      </trkpt>
      <trkpt lat="43.26094" lon="5.96696">
        <ele>277.7</ele>
        <time>2013-12-11T08:04:46Z</time>
      </trkpt>
      <trkpt lat="43.26092" lon="5.96699">
        <ele>276.1</ele>
        <time>2013-12-11T08:04:50Z</time>
      </trkpt>
      <trkpt lat="43.2609" lon="5.96705">
        <ele>274.3</ele>
        <time>2013-12-11T08:04:54Z</time>
      </trkpt>
      <trkpt lat="43.26089" lon="5.9671">
        <ele>275.2</ele>
        <time>2013-12-11T08:04:57Z</time>
      </trkpt>
      <trkpt lat="43.26088" lon="5.96714">
        <ele>273.6</ele>
        <time>2013-12-11T08:05:00Z</time>
      </trkpt>
      <trkpt lat="43.26087" lon="5.96719">
        <ele>270.7</ele>
        <time>2013-12-11T08:05:03Z</time>
      </trkpt>
      <trkpt lat="43.26086" lon="5.9672">
        <ele>268.8</ele>
        <time>2013-12-11T08:05:04Z</time>
      </trkpt>
      <trkpt lat="43.26082" lon="5.96728">
        <ele>256.1</ele>
        <time>2013-12-11T08:05:11Z</time>
      </trkpt>
      <trkpt lat="43.26081" lon="5.96732">
        <ele>254.5</ele>
        <time>2013-12-11T08:05:14Z</time>
      </trkpt>
      <trkpt lat="43.2608" lon="5.96737">
        <ele>250</ele>
        <time>2013-12-11T08:05:18Z</time>
      </trkpt>
      <trkpt lat="43.26078" lon="5.96742">
        <ele>248.8</ele>
        <time>2013-12-11T08:05:22Z</time>
      </trkpt>
      <trkpt lat="43.26077" lon="5.96748">
        <ele>247.3</ele>
        <time>2013-12-11T08:05:26Z</time>
      </trkpt>
      <trkpt lat="43.26075" lon="5.96753">
        <ele>247.6</ele>
        <time>2013-12-11T08:05:30Z</time>
      </trkpt>
      <trkpt lat="43.26074" lon="5.96758">
        <ele>248</ele>
        <time>2013-12-11T08:05:33Z</time>
      </trkpt>
      <trkpt lat="43.26074" lon="5.96763">
        <ele>249.3</ele>
        <time>2013-12-11T08:05:36Z</time>
      </trkpt>
      <trkpt lat="43.26073" lon="5.96769">
        <ele>250.6</ele>
        <time>2013-12-11T08:05:39Z</time>
      </trkpt>
      <trkpt lat="43.26073" lon="5.96774">
        <ele>256.2</ele>
        <time>2013-12-11T08:05:41Z</time>
      </trkpt>
      <trkpt lat="43.26073" lon="5.96779">
        <ele>255.8</ele>
        <time>2013-12-11T08:05:44Z</time>
      </trkpt>
      <trkpt lat="43.26073" lon="5.96784">
        <ele>264</ele>
        <time>2013-12-11T08:05:46Z</time>
      </trkpt>
      <trkpt lat="43.26074" lon="5.96789">
        <ele>276.1</ele>
        <time>2013-12-11T08:05:48Z</time>
      </trkpt>
      <trkpt lat="43.26072" lon="5.96794">
        <ele>278.8</ele>
        <time>2013-12-11T08:05:51Z</time>
      </trkpt>
      <trkpt lat="43.26072" lon="5.96799">
        <ele>279.1</ele>
        <time>2013-12-11T08:05:54Z</time>
      </trkpt>
      <trkpt lat="43.26071" lon="5.96804">
        <ele>277.2</ele>
        <time>2013-12-11T08:05:58Z</time>
      </trkpt>
      <trkpt lat="43.2607" lon="5.96809">
        <ele>272.1</ele>
        <time>2013-12-11T08:06:02Z</time>
      </trkpt>
      <trkpt lat="43.2607" lon="5.96815">
        <ele>266.1</ele>
        <time>2013-12-11T08:06:06Z</time>
      </trkpt>
      <trkpt lat="43.2607" lon="5.96816">
        <ele>264.3</ele>
        <time>2013-12-11T08:06:07Z</time>
      </trkpt>
      <trkpt lat="43.26071" lon="5.96826">
        <ele>263.5</ele>
        <time>2013-12-11T08:06:14Z</time>
      </trkpt>
      <trkpt lat="43.2607" lon="5.96832">
        <ele>263.2</ele>
        <time>2013-12-11T08:06:18Z</time>
      </trkpt>
      <trkpt lat="43.2607" lon="5.96837">
        <ele>263</ele>
        <time>2013-12-11T08:06:21Z</time>
      </trkpt>
      <trkpt lat="43.2607" lon="5.96843">
        <ele>267.3</ele>
        <time>2013-12-11T08:06:25Z</time>
      </trkpt>
      <trkpt lat="43.26071" lon="5.96848">
        <ele>266.7</ele>
        <time>2013-12-11T08:06:29Z</time>
      </trkpt>
      <trkpt lat="43.26071" lon="5.96854">
        <ele>265</ele>
        <time>2013-12-11T08:06:33Z</time>
      </trkpt>
      <trkpt lat="43.26071" lon="5.96858">
        <ele>267.3</ele>
        <time>2013-12-11T08:06:36Z</time>
      </trkpt>
      <trkpt lat="43.26071" lon="5.96864">
        <ele>266.7</ele>
        <time>2013-12-11T08:06:40Z</time>
      </trkpt>
      <trkpt lat="43.2607" lon="5.96869">
        <ele>269.3</ele>
        <time>2013-12-11T08:06:43Z</time>
      </trkpt>
      <trkpt lat="43.26071" lon="5.96875">
        <ele>278</ele>
        <time>2013-12-11T08:06:47Z</time>
      </trkpt>
      <trkpt lat="43.2607" lon="5.9688">
        <ele>279.2</ele>
        <time>2013-12-11T08:06:51Z</time>
      </trkpt>
      <trkpt lat="43.2607" lon="5.96886">
        <ele>283.7</ele>
        <time>2013-12-11T08:06:55Z</time>
      </trkpt>
      <trkpt lat="43.2607" lon="5.96892">
        <ele>284.8</ele>
        <time>2013-12-11T08:06:59Z</time>
      </trkpt>
      <trkpt lat="43.2607" lon="5.96896">
        <ele>286.1</ele>
        <time>2013-12-11T08:07:02Z</time>
      </trkpt>
      <trkpt lat="43.26069" lon="5.96901">
        <ele>286.8</ele>
        <time>2013-12-11T08:07:06Z</time>
      </trkpt>
      <trkpt lat="43.26069" lon="5.96907">
        <ele>283.7</ele>
        <time>2013-12-11T08:07:10Z</time>
      </trkpt>
      <trkpt lat="43.26069" lon="5.96909">
        <ele>283.2</ele>
        <time>2013-12-11T08:07:11Z</time>
      </trkpt>
      <trkpt lat="43.26069" lon="5.96917">
        <ele>280</ele>
        <time>2013-12-11T08:07:16Z</time>
      </trkpt>
      <trkpt lat="43.26068" lon="5.96923">
        <ele>277.6</ele>
        <time>2013-12-11T08:07:20Z</time>
      </trkpt>
      <trkpt lat="43.26067" lon="5.96928">
        <ele>275.2</ele>
        <time>2013-12-11T08:07:24Z</time>
      </trkpt>
      <trkpt lat="43.26064" lon="5.96932">
        <ele>271.3</ele>
        <time>2013-12-11T08:07:29Z</time>
      </trkpt>
      <trkpt lat="43.2606" lon="5.96935">
        <ele>272.7</ele>
        <time>2013-12-11T08:07:33Z</time>
      </trkpt>
      <trkpt lat="43.26056" lon="5.96936">
        <ele>277.7</ele>
        <time>2013-12-11T08:07:37Z</time>
      </trkpt>
      <trkpt lat="43.26052" lon="5.96936">
        <ele>279.1</ele>
        <time>2013-12-11T08:07:41Z</time>
      </trkpt>
      <trkpt lat="43.26049" lon="5.96934">
        <ele>280.2</ele>
        <time>2013-12-11T08:07:44Z</time>
      </trkpt>
      <trkpt lat="43.26045" lon="5.96931">
        <ele>281.7</ele>
        <time>2013-12-11T08:07:47Z</time>
      </trkpt>
      <trkpt lat="43.26041" lon="5.96929">
        <ele>282.3</ele>
        <time>2013-12-11T08:07:51Z</time>
      </trkpt>
      <trkpt lat="43.26037" lon="5.96926">
        <ele>281.3</ele>
        <time>2013-12-11T08:07:55Z</time>
      </trkpt>
      <trkpt lat="43.26035" lon="5.96923">
        <ele>284.3</ele>
        <time>2013-12-11T08:07:57Z</time>
      </trkpt>
      <trkpt lat="43.26032" lon="5.9692">
        <ele>285.5</ele>
        <time>2013-12-11T08:08:01Z</time>
      </trkpt>
      <trkpt lat="43.26028" lon="5.96918">
        <ele>287.2</ele>
        <time>2013-12-11T08:08:05Z</time>
      </trkpt>
      <trkpt lat="43.26025" lon="5.96915">
        <ele>288.8</ele>
        <time>2013-12-11T08:08:08Z</time>
      </trkpt>
      <trkpt lat="43.26021" lon="5.96914">
        <ele>288.7</ele>
        <time>2013-12-11T08:08:12Z</time>
      </trkpt>
      <trkpt lat="43.2602" lon="5.96912">
        <ele>289.3</ele>
        <time>2013-12-11T08:08:13Z</time>
      </trkpt>
      <trkpt lat="43.26013" lon="5.96909">
        <ele>286.6</ele>
        <time>2013-12-11T08:08:20Z</time>
      </trkpt>
      <trkpt lat="43.2601" lon="5.96907">
        <ele>285.7</ele>
        <time>2013-12-11T08:08:23Z</time>
      </trkpt>
      <trkpt lat="43.26006" lon="5.96905">
        <ele>284</ele>
        <time>2013-12-11T08:08:26Z</time>
      </trkpt>
      <trkpt lat="43.26002" lon="5.96903">
        <ele>282.2</ele>
        <time>2013-12-11T08:08:30Z</time>
      </trkpt>
      <trkpt lat="43.25999" lon="5.969">
        <ele>281.7</ele>
        <time>2013-12-11T08:08:34Z</time>
      </trkpt>
      <trkpt lat="43.25995" lon="5.96897">
        <ele>282.5</ele>
        <time>2013-12-11T08:08:39Z</time>
      </trkpt>
      <trkpt lat="43.25993" lon="5.96895">
        <ele>282.6</ele>
        <time>2013-12-11T08:08:42Z</time>
      </trkpt>
      <trkpt lat="43.25991" lon="5.96892">
        <ele>285.2</ele>
        <time>2013-12-11T08:08:44Z</time>
      </trkpt>
      <trkpt lat="43.25987" lon="5.96889">
        <ele>284.3</ele>
        <time>2013-12-11T08:08:48Z</time>
      </trkpt>
      <trkpt lat="43.25984" lon="5.96885">
        <ele>283.7</ele>
        <time>2013-12-11T08:08:52Z</time>
      </trkpt>
      <trkpt lat="43.25981" lon="5.96882">
        <ele>283.2</ele>
        <time>2013-12-11T08:08:56Z</time>
      </trkpt>
      <trkpt lat="43.25978" lon="5.96878">
        <ele>285.8</ele>
        <time>2013-12-11T08:08:58Z</time>
      </trkpt>
      <trkpt lat="43.25976" lon="5.96876">
        <ele>285.2</ele>
        <time>2013-12-11T08:09:00Z</time>
      </trkpt>
      <trkpt lat="43.25975" lon="5.96873">
        <ele>287.3</ele>
        <time>2013-12-11T08:09:01Z</time>
      </trkpt>
      <trkpt lat="43.25972" lon="5.96868">
        <ele>288.6</ele>
        <time>2013-12-11T08:09:04Z</time>
      </trkpt>
      <trkpt lat="43.2597" lon="5.96864">
        <ele>289.1</ele>
        <time>2013-12-11T08:09:08Z</time>
      </trkpt>
      <trkpt lat="43.25968" lon="5.9686">
        <ele>290.3</ele>
        <time>2013-12-11T08:09:11Z</time>
      </trkpt>
      <trkpt lat="43.25966" lon="5.96855">
        <ele>292.2</ele>
        <time>2013-12-11T08:09:14Z</time>
      </trkpt>
      <trkpt lat="43.25965" lon="5.96854">
        <ele>292.1</ele>
        <time>2013-12-11T08:09:15Z</time>
      </trkpt>
      <trkpt lat="43.25959" lon="5.9685">
        <ele>292.5</ele>
        <time>2013-12-11T08:09:22Z</time>
      </trkpt>
      <trkpt lat="43.25961" lon="5.96855">
        <ele>289.7</ele>
        <time>2013-12-11T08:09:45Z</time>
      </trkpt>
      <trkpt lat="43.25961" lon="5.9686">
        <ele>292.7</ele>
        <time>2013-12-11T08:09:49Z</time>
      </trkpt>
      <trkpt lat="43.25963" lon="5.96866">
        <ele>292.6</ele>
        <time>2013-12-11T08:09:53Z</time>
      </trkpt>
      <trkpt lat="43.25965" lon="5.9687">
        <ele>291.5</ele>
        <time>2013-12-11T08:09:58Z</time>
      </trkpt>
      <trkpt lat="43.25966" lon="5.96875">
        <ele>288.2</ele>
        <time>2013-12-11T08:10:03Z</time>
      </trkpt>
      <trkpt lat="43.25968" lon="5.96881">
        <ele>288</ele>
        <time>2013-12-11T08:10:08Z</time>
      </trkpt>
      <trkpt lat="43.2597" lon="5.96885">
        <ele>289.3</ele>
        <time>2013-12-11T08:10:11Z</time>
      </trkpt>
      <trkpt lat="43.25972" lon="5.96888">
        <ele>290.3</ele>
        <time>2013-12-11T08:10:14Z</time>
      </trkpt>
      <trkpt lat="43.25975" lon="5.96892">
        <ele>291.1</ele>
        <time>2013-12-11T08:10:17Z</time>
      </trkpt>
      <trkpt lat="43.25976" lon="5.96893">
        <ele>290.8</ele>
        <time>2013-12-11T08:10:18Z</time>
      </trkpt>
      <trkpt lat="43.2598" lon="5.969">
        <ele>292.2</ele>
        <time>2013-12-11T08:10:24Z</time>
      </trkpt>
      <trkpt lat="43.25982" lon="5.96904">
        <ele>292.3</ele>
        <time>2013-12-11T08:10:27Z</time>
      </trkpt>
      <trkpt lat="43.25985" lon="5.96907">
        <ele>292.2</ele>
        <time>2013-12-11T08:10:30Z</time>
      </trkpt>
      <trkpt lat="43.25987" lon="5.96911">
        <ele>292.7</ele>
        <time>2013-12-11T08:10:33Z</time>
      </trkpt>
      <trkpt lat="43.2599" lon="5.96914">
        <ele>293.7</ele>
        <time>2013-12-11T08:10:36Z</time>
      </trkpt>
      <trkpt lat="43.25993" lon="5.96919">
        <ele>294.1</ele>
        <time>2013-12-11T08:10:41Z</time>
      </trkpt>
      <trkpt lat="43.25995" lon="5.96922">
        <ele>295.6</ele>
        <time>2013-12-11T08:10:44Z</time>
      </trkpt>
      <trkpt lat="43.25997" lon="5.96926">
        <ele>295.8</ele>
        <time>2013-12-11T08:10:47Z</time>
      </trkpt>
      <trkpt lat="43.25999" lon="5.96931">
        <ele>296.1</ele>
        <time>2013-12-11T08:10:50Z</time>
      </trkpt>
      <trkpt lat="43.26001" lon="5.96935">
        <ele>296.2</ele>
        <time>2013-12-11T08:10:53Z</time>
      </trkpt>
      <trkpt lat="43.26003" lon="5.96939">
        <ele>294.2</ele>
        <time>2013-12-11T08:10:56Z</time>
      </trkpt>
      <trkpt lat="43.26005" lon="5.96944">
        <ele>295.5</ele>
        <time>2013-12-11T08:11:00Z</time>
      </trkpt>
      <trkpt lat="43.26008" lon="5.96948">
        <ele>295</ele>
        <time>2013-12-11T08:11:03Z</time>
      </trkpt>
      <trkpt lat="43.26011" lon="5.96951">
        <ele>295.7</ele>
        <time>2013-12-11T08:11:06Z</time>
      </trkpt>
      <trkpt lat="43.26013" lon="5.96955">
        <ele>295.7</ele>
        <time>2013-12-11T08:11:09Z</time>
      </trkpt>
      <trkpt lat="43.26016" lon="5.9696">
        <ele>295.2</ele>
        <time>2013-12-11T08:11:13Z</time>
      </trkpt>
      <trkpt lat="43.26018" lon="5.96963">
        <ele>295.7</ele>
        <time>2013-12-11T08:11:16Z</time>
      </trkpt>
      <trkpt lat="43.2602" lon="5.96968">
        <ele>296.5</ele>
        <time>2013-12-11T08:11:20Z</time>
      </trkpt>
      <trkpt lat="43.26021" lon="5.96969">
        <ele>296.2</ele>
        <time>2013-12-11T08:11:21Z</time>
      </trkpt>
      <trkpt lat="43.26025" lon="5.96978">
        <ele>295.7</ele>
        <time>2013-12-11T08:11:28Z</time>
      </trkpt>
      <trkpt lat="43.26027" lon="5.96983">
        <ele>294.7</ele>
        <time>2013-12-11T08:11:32Z</time>
      </trkpt>
      <trkpt lat="43.26029" lon="5.96987">
        <ele>294.7</ele>
        <time>2013-12-11T08:11:35Z</time>
      </trkpt>
      <trkpt lat="43.26031" lon="5.96991">
        <ele>295.3</ele>
        <time>2013-12-11T08:11:38Z</time>
      </trkpt>
      <trkpt lat="43.26034" lon="5.96995">
        <ele>297.2</ele>
        <time>2013-12-11T08:11:41Z</time>
      </trkpt>
      <trkpt lat="43.26035" lon="5.96999">
        <ele>296.5</ele>
        <time>2013-12-11T08:11:44Z</time>
      </trkpt>
      <trkpt lat="43.26037" lon="5.97004">
        <ele>296.3</ele>
        <time>2013-12-11T08:11:47Z</time>
      </trkpt>
      <trkpt lat="43.2604" lon="5.97008">
        <ele>295.1</ele>
        <time>2013-12-11T08:11:51Z</time>
      </trkpt>
      <trkpt lat="43.26041" lon="5.97012">
        <ele>294.8</ele>
        <time>2013-12-11T08:11:54Z</time>
      </trkpt>
      <trkpt lat="43.26043" lon="5.97016">
        <ele>296.1</ele>
        <time>2013-12-11T08:11:57Z</time>
      </trkpt>
      <trkpt lat="43.26046" lon="5.97021">
        <ele>296.2</ele>
        <time>2013-12-11T08:12:01Z</time>
      </trkpt>
      <trkpt lat="43.26048" lon="5.97025">
        <ele>297.2</ele>
        <time>2013-12-11T08:12:04Z</time>
      </trkpt>
      <trkpt lat="43.2605" lon="5.97029">
        <ele>297.2</ele>
        <time>2013-12-11T08:12:07Z</time>
      </trkpt>
      <trkpt lat="43.26052" lon="5.97033">
        <ele>298</ele>
        <time>2013-12-11T08:12:10Z</time>
      </trkpt>
      <trkpt lat="43.26055" lon="5.97037">
        <ele>295.6</ele>
        <time>2013-12-11T08:12:14Z</time>
      </trkpt>
      <trkpt lat="43.26057" lon="5.97042">
        <ele>295.5</ele>
        <time>2013-12-11T08:12:18Z</time>
      </trkpt>
      <trkpt lat="43.26059" lon="5.97047">
        <ele>296.2</ele>
        <time>2013-12-11T08:12:22Z</time>
      </trkpt>
      <trkpt lat="43.2606" lon="5.97048">
        <ele>296.7</ele>
        <time>2013-12-11T08:12:23Z</time>
      </trkpt>
      <trkpt lat="43.26064" lon="5.97055">
        <ele>295.6</ele>
        <time>2013-12-11T08:12:30Z</time>
      </trkpt>
      <trkpt lat="43.26066" lon="5.9706">
        <ele>295.7</ele>
        <time>2013-12-11T08:12:34Z</time>
      </trkpt>
      <trkpt lat="43.26068" lon="5.97065">
        <ele>297.2</ele>
        <time>2013-12-11T08:12:38Z</time>
      </trkpt>
      <trkpt lat="43.26071" lon="5.97069">
        <ele>297.6</ele>
        <time>2013-12-11T08:12:42Z</time>
      </trkpt>
      <trkpt lat="43.26073" lon="5.97074">
        <ele>299.1</ele>
        <time>2013-12-11T08:12:46Z</time>
      </trkpt>
      <trkpt lat="43.26076" lon="5.97077">
        <ele>300.2</ele>
        <time>2013-12-11T08:12:50Z</time>
      </trkpt>
      <trkpt lat="43.26077" lon="5.97082">
        <ele>298.8</ele>
        <time>2013-12-11T08:12:54Z</time>
      </trkpt>
      <trkpt lat="43.26079" lon="5.97086">
        <ele>299.3</ele>
        <time>2013-12-11T08:12:58Z</time>
      </trkpt>
      <trkpt lat="43.26082" lon="5.9709">
        <ele>299.7</ele>
        <time>2013-12-11T08:13:02Z</time>
      </trkpt>
      <trkpt lat="43.26084" lon="5.97095">
        <ele>300.2</ele>
        <time>2013-12-11T08:13:06Z</time>
      </trkpt>
      <trkpt lat="43.26086" lon="5.97099">
        <ele>303.1</ele>
        <time>2013-12-11T08:13:10Z</time>
      </trkpt>
      <trkpt lat="43.26089" lon="5.97104">
        <ele>303.7</ele>
        <time>2013-12-11T08:13:15Z</time>
      </trkpt>
      <trkpt lat="43.26092" lon="5.97108">
        <ele>305</ele>
        <time>2013-12-11T08:13:19Z</time>
      </trkpt>
      <trkpt lat="43.26094" lon="5.97112">
        <ele>306.5</ele>
        <time>2013-12-11T08:13:23Z</time>
      </trkpt>
      <trkpt lat="43.26096" lon="5.97116">
        <ele>307.8</ele>
        <time>2013-12-11T08:13:26Z</time>
      </trkpt>
      <trkpt lat="43.26097" lon="5.97117">
        <ele>308.6</ele>
        <time>2013-12-11T08:13:27Z</time>
      </trkpt>
      <trkpt lat="43.26101" lon="5.97124">
        <ele>309.6</ele>
        <time>2013-12-11T08:13:33Z</time>
      </trkpt>
      <trkpt lat="43.26103" lon="5.97129">
        <ele>308.2</ele>
        <time>2013-12-11T08:13:38Z</time>
      </trkpt>
      <trkpt lat="43.26106" lon="5.97134">
        <ele>308</ele>
        <time>2013-12-11T08:13:42Z</time>
      </trkpt>
      <trkpt lat="43.26108" lon="5.97138">
        <ele>307.3</ele>
        <time>2013-12-11T08:13:46Z</time>
      </trkpt>
      <trkpt lat="43.26111" lon="5.97142">
        <ele>307.1</ele>
        <time>2013-12-11T08:13:50Z</time>
      </trkpt>
      <trkpt lat="43.26113" lon="5.97145">
        <ele>307.8</ele>
        <time>2013-12-11T08:13:53Z</time>
      </trkpt>
      <trkpt lat="43.26116" lon="5.9715">
        <ele>309.1</ele>
        <time>2013-12-11T08:13:57Z</time>
      </trkpt>
      <trkpt lat="43.26119" lon="5.97154">
        <ele>309.2</ele>
        <time>2013-12-11T08:14:02Z</time>
      </trkpt>
      <trkpt lat="43.26123" lon="5.97157">
        <ele>309.6</ele>
        <time>2013-12-11T08:14:10Z</time>
      </trkpt>
      <trkpt lat="43.26125" lon="5.97161">
        <ele>309.1</ele>
        <time>2013-12-11T08:14:15Z</time>
      </trkpt>
      <trkpt lat="43.26129" lon="5.97165">
        <ele>309.7</ele>
        <time>2013-12-11T08:14:19Z</time>
      </trkpt>
      <trkpt lat="43.26132" lon="5.97168">
        <ele>310</ele>
        <time>2013-12-11T08:14:23Z</time>
      </trkpt>
      <trkpt lat="43.26135" lon="5.97171">
        <ele>310.5</ele>
        <time>2013-12-11T08:14:26Z</time>
      </trkpt>
      <trkpt lat="43.26139" lon="5.97175">
        <ele>310.7</ele>
        <time>2013-12-11T08:14:30Z</time>
      </trkpt>
      <trkpt lat="43.2614" lon="5.97176">
        <ele>310.7</ele>
        <time>2013-12-11T08:14:31Z</time>
      </trkpt>
      <trkpt lat="43.26144" lon="5.97182">
        <ele>309.2</ele>
        <time>2013-12-11T08:14:38Z</time>
      </trkpt>
      <trkpt lat="43.26145" lon="5.97187">
        <ele>309.7</ele>
        <time>2013-12-11T08:14:42Z</time>
      </trkpt>
      <trkpt lat="43.26145" lon="5.97193">
        <ele>309.1</ele>
        <time>2013-12-11T08:14:46Z</time>
      </trkpt>
      <trkpt lat="43.26145" lon="5.97198">
        <ele>309.2</ele>
        <time>2013-12-11T08:14:50Z</time>
      </trkpt>
      <trkpt lat="43.26145" lon="5.97204">
        <ele>307.5</ele>
        <time>2013-12-11T08:14:54Z</time>
      </trkpt>
      <trkpt lat="43.26145" lon="5.97209">
        <ele>304.8</ele>
        <time>2013-12-11T08:14:59Z</time>
      </trkpt>
      <trkpt lat="43.26147" lon="5.97214">
        <ele>305.7</ele>
        <time>2013-12-11T08:15:03Z</time>
      </trkpt>
      <trkpt lat="43.26147" lon="5.9722">
        <ele>309</ele>
        <time>2013-12-11T08:15:06Z</time>
      </trkpt>
      <trkpt lat="43.26147" lon="5.97225">
        <ele>309.6</ele>
        <time>2013-12-11T08:15:10Z</time>
      </trkpt>
      <trkpt lat="43.26147" lon="5.97231">
        <ele>311.3</ele>
        <time>2013-12-11T08:15:14Z</time>
      </trkpt>
      <trkpt lat="43.26147" lon="5.97236">
        <ele>311.2</ele>
        <time>2013-12-11T08:15:18Z</time>
      </trkpt>
      <trkpt lat="43.26147" lon="5.97242">
        <ele>312.7</ele>
        <time>2013-12-11T08:15:22Z</time>
      </trkpt>
      <trkpt lat="43.26145" lon="5.97247">
        <ele>312.1</ele>
        <time>2013-12-11T08:15:28Z</time>
      </trkpt>
      <trkpt lat="43.26141" lon="5.97247">
        <ele>314.3</ele>
        <time>2013-12-11T08:15:34Z</time>
      </trkpt>
      <trkpt lat="43.2614" lon="5.97246">
        <ele>314.2</ele>
        <time>2013-12-11T08:15:35Z</time>
      </trkpt>
      <trkpt lat="43.26134" lon="5.97241">
        <ele>314.5</ele>
        <time>2013-12-11T08:15:44Z</time>
      </trkpt>
      <trkpt lat="43.26131" lon="5.97238">
        <ele>315.2</ele>
        <time>2013-12-11T08:15:49Z</time>
      </trkpt>
      <trkpt lat="43.26128" lon="5.97235">
        <ele>317.8</ele>
        <time>2013-12-11T08:15:53Z</time>
      </trkpt>
      <trkpt lat="43.26124" lon="5.97232">
        <ele>319.7</ele>
        <time>2013-12-11T08:15:57Z</time>
      </trkpt>
      <trkpt lat="43.26121" lon="5.9723">
        <ele>319.1</ele>
        <time>2013-12-11T08:16:01Z</time>
      </trkpt>
      <trkpt lat="43.26117" lon="5.97228">
        <ele>316.8</ele>
        <time>2013-12-11T08:16:06Z</time>
      </trkpt>
      <trkpt lat="43.26113" lon="5.97226">
        <ele>315.5</ele>
        <time>2013-12-11T08:16:10Z</time>
      </trkpt>
      <trkpt lat="43.2611" lon="5.97223">
        <ele>315.8</ele>
        <time>2013-12-11T08:16:14Z</time>
      </trkpt>
      <trkpt lat="43.26107" lon="5.9722">
        <ele>318.7</ele>
        <time>2013-12-11T08:16:18Z</time>
      </trkpt>
      <trkpt lat="43.26103" lon="5.97219">
        <ele>318.8</ele>
        <time>2013-12-11T08:16:23Z</time>
      </trkpt>
      <trkpt lat="43.26099" lon="5.97219">
        <ele>316.2</ele>
        <time>2013-12-11T08:16:28Z</time>
      </trkpt>
      <trkpt lat="43.26095" lon="5.97217">
        <ele>314.1</ele>
        <time>2013-12-11T08:16:34Z</time>
      </trkpt>
      <trkpt lat="43.26092" lon="5.97215">
        <ele>314.2</ele>
        <time>2013-12-11T08:16:39Z</time>
      </trkpt>
      <trkpt lat="43.26091" lon="5.97214">
        <ele>315</ele>
        <time>2013-12-11T08:16:40Z</time>
      </trkpt>
      <trkpt lat="43.26084" lon="5.9721">
        <ele>317.8</ele>
        <time>2013-12-11T08:16:48Z</time>
      </trkpt>
      <trkpt lat="43.2608" lon="5.9721">
        <ele>317.7</ele>
        <time>2013-12-11T08:16:53Z</time>
      </trkpt>
      <trkpt lat="43.26076" lon="5.9721">
        <ele>319.2</ele>
        <time>2013-12-11T08:17:00Z</time>
      </trkpt>
      <trkpt lat="43.26072" lon="5.97208">
        <ele>320</ele>
        <time>2013-12-11T08:17:06Z</time>
      </trkpt>
      <trkpt lat="43.26069" lon="5.97205">
        <ele>322.5</ele>
        <time>2013-12-11T08:17:11Z</time>
      </trkpt>
      <trkpt lat="43.26065" lon="5.97205">
        <ele>323.7</ele>
        <time>2013-12-11T08:17:16Z</time>
      </trkpt>
      <trkpt lat="43.2606" lon="5.97203">
        <ele>325.6</ele>
        <time>2013-12-11T08:17:22Z</time>
      </trkpt>
      <trkpt lat="43.26056" lon="5.97201">
        <ele>325</ele>
        <time>2013-12-11T08:17:29Z</time>
      </trkpt>
      <trkpt lat="43.26053" lon="5.97198">
        <ele>326</ele>
        <time>2013-12-11T08:17:36Z</time>
      </trkpt>
      <trkpt lat="43.26049" lon="5.97195">
        <ele>326.3</ele>
        <time>2013-12-11T08:17:41Z</time>
      </trkpt>
      <trkpt lat="43.26048" lon="5.97195">
        <ele>326.2</ele>
        <time>2013-12-11T08:17:42Z</time>
      </trkpt>
      <trkpt lat="43.26041" lon="5.97192">
        <ele>330.2</ele>
        <time>2013-12-11T08:17:50Z</time>
      </trkpt>
      <trkpt lat="43.26037" lon="5.97191">
        <ele>331</ele>
        <time>2013-12-11T08:17:55Z</time>
      </trkpt>
      <trkpt lat="43.26033" lon="5.97192">
        <ele>331.3</ele>
        <time>2013-12-11T08:18:00Z</time>
      </trkpt>
      <trkpt lat="43.26029" lon="5.97192">
        <ele>330.7</ele>
        <time>2013-12-11T08:18:05Z</time>
      </trkpt>
      <trkpt lat="43.26025" lon="5.97192">
        <ele>333.6</ele>
        <time>2013-12-11T08:18:09Z</time>
      </trkpt>
      <trkpt lat="43.26021" lon="5.97192">
        <ele>333.8</ele>
        <time>2013-12-11T08:18:13Z</time>
      </trkpt>
      <trkpt lat="43.26018" lon="5.97191">
        <ele>335</ele>
        <time>2013-12-11T08:18:17Z</time>
      </trkpt>
      <trkpt lat="43.26013" lon="5.97191">
        <ele>335.5</ele>
        <time>2013-12-11T08:18:22Z</time>
      </trkpt>
      <trkpt lat="43.26009" lon="5.9719">
        <ele>336.2</ele>
        <time>2013-12-11T08:18:27Z</time>
      </trkpt>
      <trkpt lat="43.26005" lon="5.9719">
        <ele>335.6</ele>
        <time>2013-12-11T08:18:32Z</time>
      </trkpt>
      <trkpt lat="43.26001" lon="5.97189">
        <ele>333.6</ele>
        <time>2013-12-11T08:18:37Z</time>
      </trkpt>
      <trkpt lat="43.25997" lon="5.97189">
        <ele>331.8</ele>
        <time>2013-12-11T08:18:42Z</time>
      </trkpt>
      <trkpt lat="43.25997" lon="5.97189">
        <ele>332.2</ele>
        <time>2013-12-11T08:18:43Z</time>
      </trkpt>
      <trkpt lat="43.25989" lon="5.97185">
        <ele>331.1</ele>
        <time>2013-12-11T08:18:53Z</time>
      </trkpt>
      <trkpt lat="43.25987" lon="5.97181">
        <ele>335.1</ele>
        <time>2013-12-11T08:18:56Z</time>
      </trkpt>
      <trkpt lat="43.25984" lon="5.97177">
        <ele>339.2</ele>
        <time>2013-12-11T08:19:00Z</time>
      </trkpt>
      <trkpt lat="43.2598" lon="5.97174">
        <ele>343.2</ele>
        <time>2013-12-11T08:19:04Z</time>
      </trkpt>
      <trkpt lat="43.25979" lon="5.9718">
        <ele>345.6</ele>
        <time>2013-12-11T08:19:19Z</time>
      </trkpt>
      <trkpt lat="43.25981" lon="5.97184">
        <ele>346.2</ele>
        <time>2013-12-11T08:19:23Z</time>
      </trkpt>
      <trkpt lat="43.25984" lon="5.97187">
        <ele>346.8</ele>
        <time>2013-12-11T08:19:26Z</time>
      </trkpt>
      <trkpt lat="43.25987" lon="5.97191">
        <ele>345.2</ele>
        <time>2013-12-11T08:19:29Z</time>
      </trkpt>
      <trkpt lat="43.25988" lon="5.97197">
        <ele>343.8</ele>
        <time>2013-12-11T08:19:34Z</time>
      </trkpt>
      <trkpt lat="43.25989" lon="5.97202">
        <ele>342.6</ele>
        <time>2013-12-11T08:19:39Z</time>
      </trkpt>
      <trkpt lat="43.2599" lon="5.97208">
        <ele>342.8</ele>
        <time>2013-12-11T08:19:44Z</time>
      </trkpt>
      <trkpt lat="43.2599" lon="5.97209">
        <ele>342.3</ele>
        <time>2013-12-11T08:19:45Z</time>
      </trkpt>
      <trkpt lat="43.25995" lon="5.97216">
        <ele>341</ele>
        <time>2013-12-11T08:19:54Z</time>
      </trkpt>
      <trkpt lat="43.25999" lon="5.9722">
        <ele>342.8</ele>
        <time>2013-12-11T08:19:59Z</time>
      </trkpt>
      <trkpt lat="43.26" lon="5.97222">
        <ele>343.2</ele>
        <time>2013-12-11T08:20:01Z</time>
      </trkpt>
      <trkpt lat="43.26004" lon="5.97225">
        <ele>344.7</ele>
        <time>2013-12-11T08:20:04Z</time>
      </trkpt>
      <trkpt lat="43.26007" lon="5.97229">
        <ele>344.2</ele>
        <time>2013-12-11T08:20:08Z</time>
      </trkpt>
      <trkpt lat="43.26008" lon="5.97233">
        <ele>343.1</ele>
        <time>2013-12-11T08:20:12Z</time>
      </trkpt>
      <trkpt lat="43.26011" lon="5.97238">
        <ele>343.2</ele>
        <time>2013-12-11T08:20:16Z</time>
      </trkpt>
      <trkpt lat="43.26012" lon="5.97244">
        <ele>345.2</ele>
        <time>2013-12-11T08:20:22Z</time>
      </trkpt>
      <trkpt lat="43.26015" lon="5.97248">
        <ele>345.5</ele>
        <time>2013-12-11T08:20:27Z</time>
      </trkpt>
      <trkpt lat="43.26017" lon="5.97252">
        <ele>345.7</ele>
        <time>2013-12-11T08:20:32Z</time>
      </trkpt>
      <trkpt lat="43.2602" lon="5.97257">
        <ele>346.2</ele>
        <time>2013-12-11T08:20:36Z</time>
      </trkpt>
      <trkpt lat="43.26023" lon="5.9726">
        <ele>347.7</ele>
        <time>2013-12-11T08:20:40Z</time>
      </trkpt>
      <trkpt lat="43.26025" lon="5.97265">
        <ele>347.6</ele>
        <time>2013-12-11T08:20:45Z</time>
      </trkpt>
      <trkpt lat="43.26027" lon="5.9727">
        <ele>348.6</ele>
        <time>2013-12-11T08:20:50Z</time>
      </trkpt>
      <trkpt lat="43.26027" lon="5.97271">
        <ele>348.8</ele>
        <time>2013-12-11T08:20:51Z</time>
      </trkpt>
      <trkpt lat="43.2603" lon="5.97279">
        <ele>349.7</ele>
        <time>2013-12-11T08:20:58Z</time>
      </trkpt>
      <trkpt lat="43.26033" lon="5.97283">
        <ele>350.7</ele>
        <time>2013-12-11T08:21:02Z</time>
      </trkpt>
      <trkpt lat="43.26036" lon="5.97287">
        <ele>352.7</ele>
        <time>2013-12-11T08:21:06Z</time>
      </trkpt>
      <trkpt lat="43.26038" lon="5.97291">
        <ele>351.8</ele>
        <time>2013-12-11T08:21:11Z</time>
      </trkpt>
      <trkpt lat="43.26039" lon="5.97297">
        <ele>353.2</ele>
        <time>2013-12-11T08:21:16Z</time>
      </trkpt>
      <trkpt lat="43.26041" lon="5.97303">
        <ele>351.6</ele>
        <time>2013-12-11T08:21:22Z</time>
      </trkpt>
      <trkpt lat="43.26043" lon="5.97308">
        <ele>352.2</ele>
        <time>2013-12-11T08:21:27Z</time>
      </trkpt>
      <trkpt lat="43.26043" lon="5.97313">
        <ele>352.8</ele>
        <time>2013-12-11T08:21:31Z</time>
      </trkpt>
      <trkpt lat="43.26043" lon="5.97318">
        <ele>353.7</ele>
        <time>2013-12-11T08:21:35Z</time>
      </trkpt>
      <trkpt lat="43.26043" lon="5.97324">
        <ele>357.3</ele>
        <time>2013-12-11T08:21:40Z</time>
      </trkpt>
      <trkpt lat="43.26043" lon="5.97329">
        <ele>356.8</ele>
        <time>2013-12-11T08:21:44Z</time>
      </trkpt>
      <trkpt lat="43.26045" lon="5.97335">
        <ele>357.8</ele>
        <time>2013-12-11T08:21:49Z</time>
      </trkpt>
      <trkpt lat="43.26046" lon="5.9734">
        <ele>358.2</ele>
        <time>2013-12-11T08:21:54Z</time>
      </trkpt>
      <trkpt lat="43.26046" lon="5.97342">
        <ele>359</ele>
        <time>2013-12-11T08:21:55Z</time>
      </trkpt>
      <trkpt lat="43.26046" lon="5.97351">
        <ele>360.2</ele>
        <time>2013-12-11T08:22:05Z</time>
      </trkpt>
      <trkpt lat="43.26043" lon="5.97353">
        <ele>359.8</ele>
        <time>2013-12-11T08:22:11Z</time>
      </trkpt>
      <trkpt lat="43.26039" lon="5.97354">
        <ele>359.2</ele>
        <time>2013-12-11T08:22:16Z</time>
      </trkpt>
      <trkpt lat="43.26035" lon="5.97352">
        <ele>360.2</ele>
        <time>2013-12-11T08:22:28Z</time>
      </trkpt>
      <trkpt lat="43.26031" lon="5.97351">
        <ele>360.7</ele>
        <time>2013-12-11T08:22:35Z</time>
      </trkpt>
      <trkpt lat="43.26027" lon="5.97349">
        <ele>362.5</ele>
        <time>2013-12-11T08:22:41Z</time>
      </trkpt>
      <trkpt lat="43.26022" lon="5.97347">
        <ele>366.5</ele>
        <time>2013-12-11T08:22:47Z</time>
      </trkpt>
      <trkpt lat="43.26019" lon="5.9735">
        <ele>367.5</ele>
        <time>2013-12-11T08:22:56Z</time>
      </trkpt>
      <trkpt lat="43.26019" lon="5.97351">
        <ele>367.2</ele>
        <time>2013-12-11T08:22:57Z</time>
      </trkpt>
      <trkpt lat="43.26019" lon="5.97361">
        <ele>362.5</ele>
        <time>2013-12-11T08:23:10Z</time>
      </trkpt>
      <trkpt lat="43.26019" lon="5.97367">
        <ele>360.7</ele>
        <time>2013-12-11T08:23:17Z</time>
      </trkpt>
      <trkpt lat="43.26017" lon="5.97371">
        <ele>359.2</ele>
        <time>2013-12-11T08:23:22Z</time>
      </trkpt>
      <trkpt lat="43.26015" lon="5.97376">
        <ele>360.1</ele>
        <time>2013-12-11T08:23:26Z</time>
      </trkpt>
      <trkpt lat="43.26013" lon="5.97381">
        <ele>361</ele>
        <time>2013-12-11T08:23:32Z</time>
      </trkpt>
      <trkpt lat="43.26011" lon="5.97386">
        <ele>362.3</ele>
        <time>2013-12-11T08:23:39Z</time>
      </trkpt>
      <trkpt lat="43.26009" lon="5.97391">
        <ele>362.8</ele>
        <time>2013-12-11T08:23:46Z</time>
      </trkpt>
      <trkpt lat="43.26006" lon="5.97395">
        <ele>363.5</ele>
        <time>2013-12-11T08:23:52Z</time>
      </trkpt>
      <trkpt lat="43.26005" lon="5.974">
        <ele>363.5</ele>
        <time>2013-12-11T08:23:57Z</time>
      </trkpt>
      <trkpt lat="43.26003" lon="5.97404">
        <ele>363.3</ele>
        <time>2013-12-11T08:24:01Z</time>
      </trkpt>
      <trkpt lat="43.26002" lon="5.97406">
        <ele>362.7</ele>
        <time>2013-12-11T08:24:02Z</time>
      </trkpt>
      <trkpt lat="43.25997" lon="5.97412">
        <ele>359.8</ele>
        <time>2013-12-11T08:24:07Z</time>
      </trkpt>
      <trkpt lat="43.25995" lon="5.97415">
        <ele>358.7</ele>
        <time>2013-12-11T08:24:10Z</time>
      </trkpt>
      <trkpt lat="43.25992" lon="5.97419">
        <ele>359.1</ele>
        <time>2013-12-11T08:24:14Z</time>
      </trkpt>
      <trkpt lat="43.25989" lon="5.97423">
        <ele>359.1</ele>
        <time>2013-12-11T08:24:19Z</time>
      </trkpt>
      <trkpt lat="43.25988" lon="5.97429">
        <ele>366.2</ele>
        <time>2013-12-11T08:24:28Z</time>
      </trkpt>
      <trkpt lat="43.25987" lon="5.97435">
        <ele>374.1</ele>
        <time>2013-12-11T08:24:51Z</time>
      </trkpt>
      <trkpt lat="43.25987" lon="5.97441">
        <ele>386.2</ele>
        <time>2013-12-11T08:26:20Z</time>
      </trkpt>
      <trkpt lat="43.25987" lon="5.97441">
        <ele>386.5</ele>
        <time>2013-12-11T08:26:21Z</time>
      </trkpt>
      <trkpt lat="43.25989" lon="5.97446">
        <ele>393.2</ele>
        <time>2013-12-11T08:27:23Z</time>
      </trkpt>
      <trkpt lat="43.25981" lon="5.97444">
        <ele>396</ele>
        <time>2013-12-11T08:28:59Z</time>
      </trkpt>
      <trkpt lat="43.25981" lon="5.97444">
        <ele>395.6</ele>
        <time>2013-12-11T08:29:00Z</time>
      </trkpt>
      <trkpt lat="43.25974" lon="5.9745">
        <ele>385.6</ele>
        <time>2013-12-11T08:29:13Z</time>
      </trkpt>
      <trkpt lat="43.25972" lon="5.97455">
        <ele>380</ele>
        <time>2013-12-11T08:29:18Z</time>
      </trkpt>
      <trkpt lat="43.2597" lon="5.9746">
        <ele>374.7</ele>
        <time>2013-12-11T08:29:25Z</time>
      </trkpt>
      <trkpt lat="43.25969" lon="5.97465">
        <ele>368.5</ele>
        <time>2013-12-11T08:29:31Z</time>
      </trkpt>
      <trkpt lat="43.25967" lon="5.9747">
        <ele>363.3</ele>
        <time>2013-12-11T08:29:37Z</time>
      </trkpt>
      <trkpt lat="43.25964" lon="5.97474">
        <ele>361</ele>
        <time>2013-12-11T08:29:41Z</time>
      </trkpt>
      <trkpt lat="43.25961" lon="5.97477">
        <ele>360.7</ele>
        <time>2013-12-11T08:29:44Z</time>
      </trkpt>
      <trkpt lat="43.25957" lon="5.97478">
        <ele>360.1</ele>
        <time>2013-12-11T08:29:48Z</time>
      </trkpt>
      <trkpt lat="43.25953" lon="5.97479">
        <ele>358.5</ele>
        <time>2013-12-11T08:29:52Z</time>
      </trkpt>
      <trkpt lat="43.25949" lon="5.97481">
        <ele>356.3</ele>
        <time>2013-12-11T08:29:58Z</time>
      </trkpt>
      <trkpt lat="43.25945" lon="5.97479">
        <ele>357.3</ele>
        <time>2013-12-11T08:30:03Z</time>
      </trkpt>
      <trkpt lat="43.25945" lon="5.97478">
        <ele>357.7</ele>
        <time>2013-12-11T08:30:04Z</time>
      </trkpt>
      <trkpt lat="43.25941" lon="5.97469">
        <ele>360.6</ele>
        <time>2013-12-11T08:30:11Z</time>
      </trkpt>
      <trkpt lat="43.25939" lon="5.97467">
        <ele>360.3</ele>
        <time>2013-12-11T08:30:14Z</time>
      </trkpt>
      <trkpt lat="43.25936" lon="5.97464">
        <ele>363.7</ele>
        <time>2013-12-11T08:30:16Z</time>
      </trkpt>
      <trkpt lat="43.25932" lon="5.97461">
        <ele>363.8</ele>
        <time>2013-12-11T08:30:21Z</time>
      </trkpt>
      <trkpt lat="43.25929" lon="5.97457">
        <ele>363.2</ele>
        <time>2013-12-11T08:30:25Z</time>
      </trkpt>
      <trkpt lat="43.25926" lon="5.97453">
        <ele>362.3</ele>
        <time>2013-12-11T08:30:29Z</time>
      </trkpt>
      <trkpt lat="43.25923" lon="5.97449">
        <ele>362.2</ele>
        <time>2013-12-11T08:30:33Z</time>
      </trkpt>
      <trkpt lat="43.2592" lon="5.97445">
        <ele>360.1</ele>
        <time>2013-12-11T08:30:37Z</time>
      </trkpt>
      <trkpt lat="43.25917" lon="5.97442">
        <ele>354.8</ele>
        <time>2013-12-11T08:30:43Z</time>
      </trkpt>
      <trkpt lat="43.25914" lon="5.97438">
        <ele>353.5</ele>
        <time>2013-12-11T08:30:47Z</time>
      </trkpt>
      <trkpt lat="43.25911" lon="5.97434">
        <ele>351.5</ele>
        <time>2013-12-11T08:30:51Z</time>
      </trkpt>
      <trkpt lat="43.25908" lon="5.97432">
        <ele>348.5</ele>
        <time>2013-12-11T08:30:55Z</time>
      </trkpt>
      <trkpt lat="43.25905" lon="5.97428">
        <ele>348.7</ele>
        <time>2013-12-11T08:30:58Z</time>
      </trkpt>
      <trkpt lat="43.25902" lon="5.97425">
        <ele>348.6</ele>
        <time>2013-12-11T08:31:02Z</time>
      </trkpt>
      <trkpt lat="43.25899" lon="5.97422">
        <ele>347.7</ele>
        <time>2013-12-11T08:31:05Z</time>
      </trkpt>
      <trkpt lat="43.25898" lon="5.97421">
        <ele>347.2</ele>
        <time>2013-12-11T08:31:06Z</time>
      </trkpt>
      <trkpt lat="43.25894" lon="5.97413">
        <ele>344.6</ele>
        <time>2013-12-11T08:31:12Z</time>
      </trkpt>
      <trkpt lat="43.25891" lon="5.97409">
        <ele>344.2</ele>
        <time>2013-12-11T08:31:16Z</time>
      </trkpt>
      <trkpt lat="43.25887" lon="5.97407">
        <ele>341.8</ele>
        <time>2013-12-11T08:31:20Z</time>
      </trkpt>
      <trkpt lat="43.25884" lon="5.97403">
        <ele>340.3</ele>
        <time>2013-12-11T08:31:24Z</time>
      </trkpt>
      <trkpt lat="43.25882" lon="5.97399">
        <ele>340.7</ele>
        <time>2013-12-11T08:31:27Z</time>
      </trkpt>
      <trkpt lat="43.25878" lon="5.97397">
        <ele>338.8</ele>
        <time>2013-12-11T08:31:31Z</time>
      </trkpt>
      <trkpt lat="43.25875" lon="5.97393">
        <ele>337.2</ele>
        <time>2013-12-11T08:31:35Z</time>
      </trkpt>
      <trkpt lat="43.25871" lon="5.9739">
        <ele>336.2</ele>
        <time>2013-12-11T08:31:39Z</time>
      </trkpt>
      <trkpt lat="43.25868" lon="5.97386">
        <ele>335.5</ele>
        <time>2013-12-11T08:31:43Z</time>
      </trkpt>
      <trkpt lat="43.25865" lon="5.97383">
        <ele>334.5</ele>
        <time>2013-12-11T08:31:47Z</time>
      </trkpt>
      <trkpt lat="43.25863" lon="5.97379">
        <ele>333.3</ele>
        <time>2013-12-11T08:31:51Z</time>
      </trkpt>
      <trkpt lat="43.2586" lon="5.97375">
        <ele>333.6</ele>
        <time>2013-12-11T08:31:55Z</time>
      </trkpt>
      <trkpt lat="43.25858" lon="5.97369">
        <ele>334.5</ele>
        <time>2013-12-11T08:31:58Z</time>
      </trkpt>
      <trkpt lat="43.25859" lon="5.97364">
        <ele>336.3</ele>
        <time>2013-12-11T08:32:01Z</time>
      </trkpt>
      <trkpt lat="43.25858" lon="5.97358">
        <ele>337.7</ele>
        <time>2013-12-11T08:32:04Z</time>
      </trkpt>
      <trkpt lat="43.25857" lon="5.97353">
        <ele>339.2</ele>
        <time>2013-12-11T08:32:07Z</time>
      </trkpt>
      <trkpt lat="43.25856" lon="5.97352">
        <ele>339.7</ele>
        <time>2013-12-11T08:32:08Z</time>
      </trkpt>
      <trkpt lat="43.25853" lon="5.97344">
        <ele>341.7</ele>
        <time>2013-12-11T08:32:13Z</time>
      </trkpt>
      <trkpt lat="43.25851" lon="5.97339">
        <ele>343.2</ele>
        <time>2013-12-11T08:32:16Z</time>
      </trkpt>
      <trkpt lat="43.2585" lon="5.97335">
        <ele>345</ele>
        <time>2013-12-11T08:32:18Z</time>
      </trkpt>
      <trkpt lat="43.25847" lon="5.9733">
        <ele>346.2</ele>
        <time>2013-12-11T08:32:21Z</time>
      </trkpt>
      <trkpt lat="43.25845" lon="5.97325">
        <ele>347.6</ele>
        <time>2013-12-11T08:32:24Z</time>
      </trkpt>
      <trkpt lat="43.25843" lon="5.9732">
        <ele>347.8</ele>
        <time>2013-12-11T08:32:27Z</time>
      </trkpt>
      <trkpt lat="43.25841" lon="5.97315">
        <ele>347.7</ele>
        <time>2013-12-11T08:32:30Z</time>
      </trkpt>
      <trkpt lat="43.25839" lon="5.97309">
        <ele>348.2</ele>
        <time>2013-12-11T08:32:33Z</time>
      </trkpt>
      <trkpt lat="43.25837" lon="5.97305">
        <ele>348.7</ele>
        <time>2013-12-11T08:32:36Z</time>
      </trkpt>
      <trkpt lat="43.25836" lon="5.973">
        <ele>349.2</ele>
        <time>2013-12-11T08:32:39Z</time>
      </trkpt>
      <trkpt lat="43.25834" lon="5.97295">
        <ele>349.7</ele>
        <time>2013-12-11T08:32:43Z</time>
      </trkpt>
      <trkpt lat="43.25831" lon="5.97291">
        <ele>349.8</ele>
        <time>2013-12-11T08:32:46Z</time>
      </trkpt>
      <trkpt lat="43.25829" lon="5.97287">
        <ele>349.7</ele>
        <time>2013-12-11T08:32:49Z</time>
      </trkpt>
      <trkpt lat="43.25826" lon="5.97284">
        <ele>349.6</ele>
        <time>2013-12-11T08:32:52Z</time>
      </trkpt>
      <trkpt lat="43.25823" lon="5.97281">
        <ele>349.2</ele>
        <time>2013-12-11T08:32:55Z</time>
      </trkpt>
      <trkpt lat="43.2582" lon="5.97278">
        <ele>348.3</ele>
        <time>2013-12-11T08:32:58Z</time>
      </trkpt>
      <trkpt lat="43.25817" lon="5.97277">
        <ele>347.6</ele>
        <time>2013-12-11T08:33:01Z</time>
      </trkpt>
      <trkpt lat="43.25813" lon="5.97274">
        <ele>346.5</ele>
        <time>2013-12-11T08:33:05Z</time>
      </trkpt>
      <trkpt lat="43.25809" lon="5.97271">
        <ele>345.3</ele>
        <time>2013-12-11T08:33:09Z</time>
      </trkpt>
      <trkpt lat="43.25808" lon="5.97271">
        <ele>345</ele>
        <time>2013-12-11T08:33:10Z</time>
      </trkpt>
      <trkpt lat="43.25801" lon="5.97269">
        <ele>344</ele>
        <time>2013-12-11T08:33:17Z</time>
      </trkpt>
      <trkpt lat="43.25798" lon="5.97269">
        <ele>344.2</ele>
        <time>2013-12-11T08:33:20Z</time>
      </trkpt>
      <trkpt lat="43.25794" lon="5.97268">
        <ele>344.2</ele>
        <time>2013-12-11T08:33:23Z</time>
      </trkpt>
      <trkpt lat="43.25791" lon="5.97266">
        <ele>347.5</ele>
        <time>2013-12-11T08:33:25Z</time>
      </trkpt>
      <trkpt lat="43.25788" lon="5.97263">
        <ele>351.7</ele>
        <time>2013-12-11T08:33:27Z</time>
      </trkpt>
      <trkpt lat="43.25784" lon="5.9726">
        <ele>355.2</ele>
        <time>2013-12-11T08:33:30Z</time>
      </trkpt>
      <trkpt lat="43.2578" lon="5.97259">
        <ele>356.1</ele>
        <time>2013-12-11T08:33:33Z</time>
      </trkpt>
      <trkpt lat="43.25776" lon="5.9726">
        <ele>355.5</ele>
        <time>2013-12-11T08:33:37Z</time>
      </trkpt>
      <trkpt lat="43.25772" lon="5.97259">
        <ele>353.6</ele>
        <time>2013-12-11T08:33:41Z</time>
      </trkpt>
      <trkpt lat="43.25768" lon="5.97259">
        <ele>352.8</ele>
        <time>2013-12-11T08:33:45Z</time>
      </trkpt>
      <trkpt lat="43.25764" lon="5.97259">
        <ele>352.8</ele>
        <time>2013-12-11T08:33:48Z</time>
      </trkpt>
      <trkpt lat="43.2576" lon="5.97259">
        <ele>351.7</ele>
        <time>2013-12-11T08:33:51Z</time>
      </trkpt>
      <trkpt lat="43.25756" lon="5.97258">
        <ele>350.7</ele>
        <time>2013-12-11T08:33:55Z</time>
      </trkpt>
      <trkpt lat="43.25752" lon="5.97257">
        <ele>351.7</ele>
        <time>2013-12-11T08:33:59Z</time>
      </trkpt>
      <trkpt lat="43.25748" lon="5.97255">
        <ele>352.8</ele>
        <time>2013-12-11T08:34:02Z</time>
      </trkpt>
      <trkpt lat="43.25744" lon="5.97255">
        <ele>353.2</ele>
        <time>2013-12-11T08:34:06Z</time>
      </trkpt>
      <trkpt lat="43.2574" lon="5.97254">
        <ele>355.7</ele>
        <time>2013-12-11T08:34:11Z</time>
      </trkpt>
      <trkpt lat="43.25739" lon="5.97255">
        <ele>355.8</ele>
        <time>2013-12-11T08:34:12Z</time>
      </trkpt>
      <trkpt lat="43.25733" lon="5.97259">
        <ele>361.2</ele>
        <time>2013-12-11T08:34:21Z</time>
      </trkpt>
      <trkpt lat="43.2573" lon="5.97262">
        <ele>364.1</ele>
        <time>2013-12-11T08:34:25Z</time>
      </trkpt>
      <trkpt lat="43.25726" lon="5.97264">
        <ele>366</ele>
        <time>2013-12-11T08:34:29Z</time>
      </trkpt>
      <trkpt lat="43.25723" lon="5.97267">
        <ele>365.8</ele>
        <time>2013-12-11T08:34:33Z</time>
      </trkpt>
      <trkpt lat="43.25719" lon="5.97269">
        <ele>365.1</ele>
        <time>2013-12-11T08:34:38Z</time>
      </trkpt>
      <trkpt lat="43.25716" lon="5.97271">
        <ele>365.2</ele>
        <time>2013-12-11T08:34:42Z</time>
      </trkpt>
      <trkpt lat="43.25711" lon="5.97272">
        <ele>364.1</ele>
        <time>2013-12-11T08:34:46Z</time>
      </trkpt>
      <trkpt lat="43.25707" lon="5.97272">
        <ele>364.8</ele>
        <time>2013-12-11T08:34:49Z</time>
      </trkpt>
      <trkpt lat="43.25704" lon="5.97273">
        <ele>364.7</ele>
        <time>2013-12-11T08:34:52Z</time>
      </trkpt>
      <trkpt lat="43.257" lon="5.97273">
        <ele>362.8</ele>
        <time>2013-12-11T08:34:56Z</time>
      </trkpt>
      <trkpt lat="43.25696" lon="5.97272">
        <ele>363.2</ele>
        <time>2013-12-11T08:34:59Z</time>
      </trkpt>
      <trkpt lat="43.25692" lon="5.97269">
        <ele>365.3</ele>
        <time>2013-12-11T08:35:02Z</time>
      </trkpt>
      <trkpt lat="43.25689" lon="5.97267">
        <ele>366.3</ele>
        <time>2013-12-11T08:35:05Z</time>
      </trkpt>
      <trkpt lat="43.25685" lon="5.97267">
        <ele>365.2</ele>
        <time>2013-12-11T08:35:09Z</time>
      </trkpt>
      <trkpt lat="43.2568" lon="5.97267">
        <ele>363.7</ele>
        <time>2013-12-11T08:35:13Z</time>
      </trkpt>
      <trkpt lat="43.25679" lon="5.97267">
        <ele>363.6</ele>
        <time>2013-12-11T08:35:14Z</time>
      </trkpt>
      <trkpt lat="43.25674" lon="5.97264">
        <ele>361.5</ele>
        <time>2013-12-11T08:35:20Z</time>
      </trkpt>
      <trkpt lat="43.25671" lon="5.97262">
        <ele>363.1</ele>
        <time>2013-12-11T08:35:22Z</time>
      </trkpt>
      <trkpt lat="43.25667" lon="5.97259">
        <ele>364</ele>
        <time>2013-12-11T08:35:26Z</time>
      </trkpt>
      <trkpt lat="43.25664" lon="5.97257">
        <ele>362.5</ele>
        <time>2013-12-11T08:35:30Z</time>
      </trkpt>
      <trkpt lat="43.25659" lon="5.97257">
        <ele>362.2</ele>
        <time>2013-12-11T08:35:34Z</time>
      </trkpt>
      <trkpt lat="43.25655" lon="5.97256">
        <ele>360.2</ele>
        <time>2013-12-11T08:35:38Z</time>
      </trkpt>
      <trkpt lat="43.25652" lon="5.97253">
        <ele>358.6</ele>
        <time>2013-12-11T08:35:42Z</time>
      </trkpt>
      <trkpt lat="43.25648" lon="5.9725">
        <ele>357.7</ele>
        <time>2013-12-11T08:35:47Z</time>
      </trkpt>
      <trkpt lat="43.25645" lon="5.97247">
        <ele>357.2</ele>
        <time>2013-12-11T08:35:51Z</time>
      </trkpt>
      <trkpt lat="43.25644" lon="5.97242">
        <ele>356.6</ele>
        <time>2013-12-11T08:35:57Z</time>
      </trkpt>
      <trkpt lat="43.25643" lon="5.97236">
        <ele>356.8</ele>
        <time>2013-12-11T08:36:02Z</time>
      </trkpt>
      <trkpt lat="43.25641" lon="5.9723">
        <ele>359.2</ele>
        <time>2013-12-11T08:36:06Z</time>
      </trkpt>
      <trkpt lat="43.2564" lon="5.97225">
        <ele>359.8</ele>
        <time>2013-12-11T08:36:11Z</time>
      </trkpt>
      <trkpt lat="43.25638" lon="5.9722">
        <ele>360.6</ele>
        <time>2013-12-11T08:36:16Z</time>
      </trkpt>
      <trkpt lat="43.25637" lon="5.97219">
        <ele>360.7</ele>
        <time>2013-12-11T08:36:17Z</time>
      </trkpt>
      <trkpt lat="43.25634" lon="5.9721">
        <ele>362.3</ele>
        <time>2013-12-11T08:36:26Z</time>
      </trkpt>
      <trkpt lat="43.25632" lon="5.97206">
        <ele>366.1</ele>
        <time>2013-12-11T08:36:30Z</time>
      </trkpt>
      <trkpt lat="43.2563" lon="5.97201">
        <ele>372.1</ele>
        <time>2013-12-11T08:36:34Z</time>
      </trkpt>
      <trkpt lat="43.25629" lon="5.97195">
        <ele>375</ele>
        <time>2013-12-11T08:36:39Z</time>
      </trkpt>
      <trkpt lat="43.25627" lon="5.97189">
        <ele>379.2</ele>
        <time>2013-12-11T08:36:46Z</time>
      </trkpt>
      <trkpt lat="43.25625" lon="5.97184">
        <ele>379.7</ele>
        <time>2013-12-11T08:36:54Z</time>
      </trkpt>
      <trkpt lat="43.25622" lon="5.97181">
        <ele>377.2</ele>
        <time>2013-12-11T08:37:01Z</time>
      </trkpt>
      <trkpt lat="43.25619" lon="5.97177">
        <ele>374.8</ele>
        <time>2013-12-11T08:37:06Z</time>
      </trkpt>
      <trkpt lat="43.25616" lon="5.97173">
        <ele>376.8</ele>
        <time>2013-12-11T08:37:10Z</time>
      </trkpt>
      <trkpt lat="43.25612" lon="5.9717">
        <ele>377.5</ele>
        <time>2013-12-11T08:37:15Z</time>
      </trkpt>
      <trkpt lat="43.25608" lon="5.97168">
        <ele>377.3</ele>
        <time>2013-12-11T08:37:21Z</time>
      </trkpt>
      <trkpt lat="43.25607" lon="5.97168">
        <ele>377.2</ele>
        <time>2013-12-11T08:37:22Z</time>
      </trkpt>
      <trkpt lat="43.25605" lon="5.97158">
        <ele>380.2</ele>
        <time>2013-12-11T08:37:30Z</time>
      </trkpt>
      <trkpt lat="43.25606" lon="5.97153">
        <ele>384.6</ele>
        <time>2013-12-11T08:37:36Z</time>
      </trkpt>
      <trkpt lat="43.2561" lon="5.97149">
        <ele>384.7</ele>
        <time>2013-12-11T08:37:45Z</time>
      </trkpt>
      <trkpt lat="43.25614" lon="5.97147">
        <ele>383.8</ele>
        <time>2013-12-11T08:37:55Z</time>
      </trkpt>
      <trkpt lat="43.25617" lon="5.97147">
        <ele>386.7</ele>
        <time>2013-12-11T08:37:56Z</time>
      </trkpt>
      <trkpt lat="43.2562" lon="5.97147">
        <ele>389.2</ele>
        <time>2013-12-11T08:37:58Z</time>
      </trkpt>
      <trkpt lat="43.25624" lon="5.97147">
        <ele>391.2</ele>
        <time>2013-12-11T08:38:01Z</time>
      </trkpt>
      <trkpt lat="43.25628" lon="5.97146">
        <ele>393.2</ele>
        <time>2013-12-11T08:38:04Z</time>
      </trkpt>
      <trkpt lat="43.25631" lon="5.97143">
        <ele>394.1</ele>
        <time>2013-12-11T08:38:09Z</time>
      </trkpt>
      <trkpt lat="43.25635" lon="5.9714">
        <ele>393.1</ele>
        <time>2013-12-11T08:38:14Z</time>
      </trkpt>
      <trkpt lat="43.25638" lon="5.97137">
        <ele>393.7</ele>
        <time>2013-12-11T08:38:18Z</time>
      </trkpt>
      <trkpt lat="43.25641" lon="5.97134">
        <ele>395.7</ele>
        <time>2013-12-11T08:38:21Z</time>
      </trkpt>
      <trkpt lat="43.25644" lon="5.97131">
        <ele>396.7</ele>
        <time>2013-12-11T08:38:24Z</time>
      </trkpt>
      <trkpt lat="43.25644" lon="5.9713">
        <ele>397.1</ele>
        <time>2013-12-11T08:38:25Z</time>
      </trkpt>
      <trkpt lat="43.25648" lon="5.97122">
        <ele>396.8</ele>
        <time>2013-12-11T08:38:31Z</time>
      </trkpt>
      <trkpt lat="43.25648" lon="5.97117">
        <ele>398.3</ele>
        <time>2013-12-11T08:38:35Z</time>
      </trkpt>
      <trkpt lat="43.25645" lon="5.97114">
        <ele>398.3</ele>
        <time>2013-12-11T08:38:40Z</time>
      </trkpt>
      <trkpt lat="43.25641" lon="5.97113">
        <ele>397.2</ele>
        <time>2013-12-11T08:38:45Z</time>
      </trkpt>
      <trkpt lat="43.25636" lon="5.97114">
        <ele>394.7</ele>
        <time>2013-12-11T08:38:50Z</time>
      </trkpt>
      <trkpt lat="43.25633" lon="5.97114">
        <ele>393.2</ele>
        <time>2013-12-11T08:38:56Z</time>
      </trkpt>
      <trkpt lat="43.25629" lon="5.97113">
        <ele>393.1</ele>
        <time>2013-12-11T08:39:01Z</time>
      </trkpt>
      <trkpt lat="43.25625" lon="5.97111">
        <ele>393.3</ele>
        <time>2013-12-11T08:39:06Z</time>
      </trkpt>
      <trkpt lat="43.25621" lon="5.97112">
        <ele>392.6</ele>
        <time>2013-12-11T08:39:10Z</time>
      </trkpt>
      <trkpt lat="43.25618" lon="5.97112">
        <ele>391.7</ele>
        <time>2013-12-11T08:39:12Z</time>
      </trkpt>
      <trkpt lat="43.25615" lon="5.97115">
        <ele>393.7</ele>
        <time>2013-12-11T08:39:14Z</time>
      </trkpt>
      <trkpt lat="43.25611" lon="5.97117">
        <ele>394.1</ele>
        <time>2013-12-11T08:39:17Z</time>
      </trkpt>
      <trkpt lat="43.25606" lon="5.97118">
        <ele>393.3</ele>
        <time>2013-12-11T08:39:21Z</time>
      </trkpt>
      <trkpt lat="43.25602" lon="5.97117">
        <ele>393.2</ele>
        <time>2013-12-11T08:39:25Z</time>
      </trkpt>
      <trkpt lat="43.25601" lon="5.97117">
        <ele>393.2</ele>
        <time>2013-12-11T08:39:26Z</time>
      </trkpt>
      <trkpt lat="43.25594" lon="5.97118">
        <ele>393.7</ele>
        <time>2013-12-11T08:39:31Z</time>
      </trkpt>
      <trkpt lat="43.25591" lon="5.97119">
        <ele>392.7</ele>
        <time>2013-12-11T08:39:34Z</time>
      </trkpt>
      <trkpt lat="43.25586" lon="5.9712">
        <ele>392.1</ele>
        <time>2013-12-11T08:39:38Z</time>
      </trkpt>
      <trkpt lat="43.25582" lon="5.97119">
        <ele>390.3</ele>
        <time>2013-12-11T08:39:42Z</time>
      </trkpt>
      <trkpt lat="43.25579" lon="5.97116">
        <ele>388.8</ele>
        <time>2013-12-11T08:39:46Z</time>
      </trkpt>
      <trkpt lat="43.25575" lon="5.97114">
        <ele>384.6</ele>
        <time>2013-12-11T08:39:52Z</time>
      </trkpt>
      <trkpt lat="43.25573" lon="5.9711">
        <ele>384</ele>
        <time>2013-12-11T08:39:56Z</time>
      </trkpt>
      <trkpt lat="43.25571" lon="5.97105">
        <ele>384.1</ele>
        <time>2013-12-11T08:40:00Z</time>
      </trkpt>
      <trkpt lat="43.25568" lon="5.97101">
        <ele>383.8</ele>
        <time>2013-12-11T08:40:05Z</time>
      </trkpt>
      <trkpt lat="43.25566" lon="5.97097">
        <ele>385.1</ele>
        <time>2013-12-11T08:40:08Z</time>
      </trkpt>
      <trkpt lat="43.25563" lon="5.97094">
        <ele>385.1</ele>
        <time>2013-12-11T08:40:12Z</time>
      </trkpt>
      <trkpt lat="43.25558" lon="5.97092">
        <ele>384.7</ele>
        <time>2013-12-11T08:40:16Z</time>
      </trkpt>
      <trkpt lat="43.25555" lon="5.9709">
        <ele>385.5</ele>
        <time>2013-12-11T08:40:19Z</time>
      </trkpt>
      <trkpt lat="43.25551" lon="5.97089">
        <ele>384.7</ele>
        <time>2013-12-11T08:40:22Z</time>
      </trkpt>
      <trkpt lat="43.25547" lon="5.97087">
        <ele>385.2</ele>
        <time>2013-12-11T08:40:25Z</time>
      </trkpt>
      <trkpt lat="43.25546" lon="5.97086">
        <ele>386.3</ele>
        <time>2013-12-11T08:40:26Z</time>
      </trkpt>
      <trkpt lat="43.25543" lon="5.97082">
        <ele>390.2</ele>
        <time>2013-12-11T08:40:28Z</time>
      </trkpt>
      <trkpt lat="43.25541" lon="5.97082">
        <ele>390.3</ele>
        <time>2013-12-11T08:40:29Z</time>
      </trkpt>
      <trkpt lat="43.25535" lon="5.97081">
        <ele>389.6</ele>
        <time>2013-12-11T08:40:34Z</time>
      </trkpt>
      <trkpt lat="43.25532" lon="5.9708">
        <ele>389.2</ele>
        <time>2013-12-11T08:40:36Z</time>
      </trkpt>
      <trkpt lat="43.25528" lon="5.9708">
        <ele>390.3</ele>
        <time>2013-12-11T08:40:39Z</time>
      </trkpt>
      <trkpt lat="43.25525" lon="5.9708">
        <ele>388.7</ele>
        <time>2013-12-11T08:40:42Z</time>
      </trkpt>
      <trkpt lat="43.25521" lon="5.9708">
        <ele>386.3</ele>
        <time>2013-12-11T08:40:46Z</time>
      </trkpt>
      <trkpt lat="43.25517" lon="5.97077">
        <ele>386.5</ele>
        <time>2013-12-11T08:40:50Z</time>
      </trkpt>
      <trkpt lat="43.25514" lon="5.97074">
        <ele>389.5</ele>
        <time>2013-12-11T08:40:58Z</time>
      </trkpt>
      <trkpt lat="43.25513" lon="5.97068">
        <ele>397</ele>
        <time>2013-12-11T08:41:14Z</time>
      </trkpt>
      <trkpt lat="43.25512" lon="5.97062">
        <ele>405.1</ele>
        <time>2013-12-11T08:41:21Z</time>
      </trkpt>
      <trkpt lat="43.25508" lon="5.9706">
        <ele>408.1</ele>
        <time>2013-12-11T08:42:14Z</time>
      </trkpt>
      <trkpt lat="43.25508" lon="5.9706">
        <ele>408.2</ele>
        <time>2013-12-11T08:42:15Z</time>
      </trkpt>
      <trkpt lat="43.25504" lon="5.97056">
        <ele>404.7</ele>
        <time>2013-12-11T08:44:03Z</time>
      </trkpt>
      <trkpt lat="43.25498" lon="5.9705">
        <ele>400.2</ele>
        <time>2013-12-11T08:44:14Z</time>
      </trkpt>
      <trkpt lat="43.25497" lon="5.97044">
        <ele>399</ele>
        <time>2013-12-11T08:44:19Z</time>
      </trkpt>
      <trkpt lat="43.25496" lon="5.9704">
        <ele>397.7</ele>
        <time>2013-12-11T08:44:24Z</time>
      </trkpt>
      <trkpt lat="43.25496" lon="5.97034">
        <ele>399.5</ele>
        <time>2013-12-11T08:44:28Z</time>
      </trkpt>
      <trkpt lat="43.25495" lon="5.97029">
        <ele>399.7</ele>
        <time>2013-12-11T08:44:33Z</time>
      </trkpt>
      <trkpt lat="43.25493" lon="5.97024">
        <ele>399.8</ele>
        <time>2013-12-11T08:44:36Z</time>
      </trkpt>
      <trkpt lat="43.25489" lon="5.97021">
        <ele>398</ele>
        <time>2013-12-11T08:44:40Z</time>
      </trkpt>
      <trkpt lat="43.25486" lon="5.97019">
        <ele>394.6</ele>
        <time>2013-12-11T08:44:45Z</time>
      </trkpt>
      <trkpt lat="43.25481" lon="5.97017">
        <ele>390.8</ele>
        <time>2013-12-11T08:44:50Z</time>
      </trkpt>
      <trkpt lat="43.25477" lon="5.97017">
        <ele>387.3</ele>
        <time>2013-12-11T08:44:54Z</time>
      </trkpt>
      <trkpt lat="43.25474" lon="5.97016">
        <ele>384.2</ele>
        <time>2013-12-11T08:44:58Z</time>
      </trkpt>
      <trkpt lat="43.2547" lon="5.97017">
        <ele>380.6</ele>
        <time>2013-12-11T08:45:02Z</time>
      </trkpt>
      <trkpt lat="43.25465" lon="5.97015">
        <ele>379.3</ele>
        <time>2013-12-11T08:45:06Z</time>
      </trkpt>
      <trkpt lat="43.25464" lon="5.97015">
        <ele>379.2</ele>
        <time>2013-12-11T08:45:07Z</time>
      </trkpt>
      <trkpt lat="43.25458" lon="5.97011">
        <ele>379.7</ele>
        <time>2013-12-11T08:45:13Z</time>
      </trkpt>
      <trkpt lat="43.25454" lon="5.9701">
        <ele>379.1</ele>
        <time>2013-12-11T08:45:17Z</time>
      </trkpt>
      <trkpt lat="43.2545" lon="5.9701">
        <ele>378.7</ele>
        <time>2013-12-11T08:45:21Z</time>
      </trkpt>
      <trkpt lat="43.25446" lon="5.97009">
        <ele>377.7</ele>
        <time>2013-12-11T08:45:25Z</time>
      </trkpt>
      <trkpt lat="43.25442" lon="5.9701">
        <ele>377.5</ele>
        <time>2013-12-11T08:45:28Z</time>
      </trkpt>
      <trkpt lat="43.25438" lon="5.97011">
        <ele>376.5</ele>
        <time>2013-12-11T08:45:31Z</time>
      </trkpt>
      <trkpt lat="43.25435" lon="5.97011">
        <ele>377.2</ele>
        <time>2013-12-11T08:45:34Z</time>
      </trkpt>
      <trkpt lat="43.25431" lon="5.97011">
        <ele>375.6</ele>
        <time>2013-12-11T08:45:38Z</time>
      </trkpt>
      <trkpt lat="43.25427" lon="5.97008">
        <ele>377.1</ele>
        <time>2013-12-11T08:45:42Z</time>
      </trkpt>
      <trkpt lat="43.25424" lon="5.97005">
        <ele>378.7</ele>
        <time>2013-12-11T08:45:45Z</time>
      </trkpt>
      <trkpt lat="43.25421" lon="5.97002">
        <ele>380.2</ele>
        <time>2013-12-11T08:45:48Z</time>
      </trkpt>
      <trkpt lat="43.25417" lon="5.97">
        <ele>380.7</ele>
        <time>2013-12-11T08:45:51Z</time>
      </trkpt>
      <trkpt lat="43.25414" lon="5.96998">
        <ele>381.2</ele>
        <time>2013-12-11T08:45:54Z</time>
      </trkpt>
      <trkpt lat="43.2541" lon="5.96996">
        <ele>381.3</ele>
        <time>2013-12-11T08:45:57Z</time>
      </trkpt>
      <trkpt lat="43.25407" lon="5.96994">
        <ele>382.3</ele>
        <time>2013-12-11T08:46:00Z</time>
      </trkpt>
      <trkpt lat="43.25404" lon="5.96991">
        <ele>383.5</ele>
        <time>2013-12-11T08:46:03Z</time>
      </trkpt>
      <trkpt lat="43.25401" lon="5.96988">
        <ele>386.1</ele>
        <time>2013-12-11T08:46:06Z</time>
      </trkpt>
      <trkpt lat="43.25397" lon="5.96986">
        <ele>388</ele>
        <time>2013-12-11T08:46:09Z</time>
      </trkpt>
      <trkpt lat="43.25396" lon="5.96985">
        <ele>388.1</ele>
        <time>2013-12-11T08:46:10Z</time>
      </trkpt>
      <trkpt lat="43.25391" lon="5.9698">
        <ele>389.7</ele>
        <time>2013-12-11T08:46:16Z</time>
      </trkpt>
      <trkpt lat="43.25388" lon="5.96977">
        <ele>389.1</ele>
        <time>2013-12-11T08:46:20Z</time>
      </trkpt>
      <trkpt lat="43.25384" lon="5.96974">
        <ele>389.5</ele>
        <time>2013-12-11T08:46:24Z</time>
      </trkpt>
      <trkpt lat="43.25381" lon="5.96972">
        <ele>389.7</ele>
        <time>2013-12-11T08:46:27Z</time>
      </trkpt>
      <trkpt lat="43.25377" lon="5.9697">
        <ele>389.6</ele>
        <time>2013-12-11T08:46:31Z</time>
      </trkpt>
      <trkpt lat="43.25374" lon="5.96968">
        <ele>389.8</ele>
        <time>2013-12-11T08:46:34Z</time>
      </trkpt>
      <trkpt lat="43.2537" lon="5.96968">
        <ele>389</ele>
        <time>2013-12-11T08:46:38Z</time>
      </trkpt>
      <trkpt lat="43.25366" lon="5.96967">
        <ele>388.8</ele>
        <time>2013-12-11T08:46:43Z</time>
      </trkpt>
      <trkpt lat="43.25362" lon="5.96965">
        <ele>390.1</ele>
        <time>2013-12-11T08:46:47Z</time>
      </trkpt>
      <trkpt lat="43.25359" lon="5.96962">
        <ele>395.1</ele>
        <time>2013-12-11T08:46:50Z</time>
      </trkpt>
      <trkpt lat="43.25354" lon="5.96963">
        <ele>398.1</ele>
        <time>2013-12-11T08:46:55Z</time>
      </trkpt>
      <trkpt lat="43.25351" lon="5.96966">
        <ele>398.6</ele>
        <time>2013-12-11T08:46:59Z</time>
      </trkpt>
      <trkpt lat="43.25348" lon="5.9697">
        <ele>400.3</ele>
        <time>2013-12-11T08:47:04Z</time>
      </trkpt>
      <trkpt lat="43.25346" lon="5.96975">
        <ele>401.3</ele>
        <time>2013-12-11T08:47:10Z</time>
      </trkpt>
      <trkpt lat="43.25345" lon="5.96976">
        <ele>401.3</ele>
        <time>2013-12-11T08:47:11Z</time>
      </trkpt>
      <trkpt lat="43.25341" lon="5.96984">
        <ele>402.3</ele>
        <time>2013-12-11T08:47:19Z</time>
      </trkpt>
      <trkpt lat="43.25337" lon="5.96985">
        <ele>404.8</ele>
        <time>2013-12-11T08:47:23Z</time>
      </trkpt>
      <trkpt lat="43.25333" lon="5.96988">
        <ele>407.7</ele>
        <time>2013-12-11T08:47:27Z</time>
      </trkpt>
      <trkpt lat="43.25329" lon="5.96991">
        <ele>407.6</ele>
        <time>2013-12-11T08:47:30Z</time>
      </trkpt>
      <trkpt lat="43.25325" lon="5.96993">
        <ele>407.3</ele>
        <time>2013-12-11T08:47:34Z</time>
      </trkpt>
      <trkpt lat="43.25321" lon="5.96995">
        <ele>406.2</ele>
        <time>2013-12-11T08:47:38Z</time>
      </trkpt>
      <trkpt lat="43.25317" lon="5.96996">
        <ele>404.7</ele>
        <time>2013-12-11T08:47:43Z</time>
      </trkpt>
      <trkpt lat="43.25313" lon="5.96998">
        <ele>402.6</ele>
        <time>2013-12-11T08:47:47Z</time>
      </trkpt>
      <trkpt lat="43.25309" lon="5.96995">
        <ele>405.5</ele>
        <time>2013-12-11T08:47:51Z</time>
      </trkpt>
      <trkpt lat="43.25305" lon="5.96993">
        <ele>409</ele>
        <time>2013-12-11T08:47:57Z</time>
      </trkpt>
      <trkpt lat="43.25301" lon="5.96995">
        <ele>409</ele>
        <time>2013-12-11T08:48:02Z</time>
      </trkpt>
      <trkpt lat="43.25298" lon="5.96998">
        <ele>409.5</ele>
        <time>2013-12-11T08:48:06Z</time>
      </trkpt>
      <trkpt lat="43.25294" lon="5.97">
        <ele>409.1</ele>
        <time>2013-12-11T08:48:10Z</time>
      </trkpt>
      <trkpt lat="43.2529" lon="5.97">
        <ele>408</ele>
        <time>2013-12-11T08:48:18Z</time>
      </trkpt>
      <trkpt lat="43.2529" lon="5.97">
        <ele>407.2</ele>
        <time>2013-12-11T08:48:19Z</time>
      </trkpt>
      <trkpt lat="43.25286" lon="5.96994">
        <ele>406.8</ele>
        <time>2013-12-11T08:48:30Z</time>
      </trkpt>
      <trkpt lat="43.25285" lon="5.96988">
        <ele>411.7</ele>
        <time>2013-12-11T08:48:32Z</time>
      </trkpt>
      <trkpt lat="43.25284" lon="5.96984">
        <ele>415.3</ele>
        <time>2013-12-11T08:48:34Z</time>
      </trkpt>
      <trkpt lat="43.25283" lon="5.9698">
        <ele>418.3</ele>
        <time>2013-12-11T08:48:36Z</time>
      </trkpt>
      <trkpt lat="43.25283" lon="5.96975">
        <ele>421.6</ele>
        <time>2013-12-11T08:48:39Z</time>
      </trkpt>
      <trkpt lat="43.25284" lon="5.9697">
        <ele>425.2</ele>
        <time>2013-12-11T08:48:43Z</time>
      </trkpt>
      <trkpt lat="43.25284" lon="5.96964">
        <ele>426.7</ele>
        <time>2013-12-11T08:48:47Z</time>
      </trkpt>
      <trkpt lat="43.25284" lon="5.96959">
        <ele>427.8</ele>
        <time>2013-12-11T08:48:51Z</time>
      </trkpt>
      <trkpt lat="43.25284" lon="5.96954">
        <ele>428.7</ele>
        <time>2013-12-11T08:48:55Z</time>
      </trkpt>
      <trkpt lat="43.25284" lon="5.96948">
        <ele>430.3</ele>
        <time>2013-12-11T08:49:00Z</time>
      </trkpt>
      <trkpt lat="43.25284" lon="5.96942">
        <ele>429.8</ele>
        <time>2013-12-11T08:49:05Z</time>
      </trkpt>
      <trkpt lat="43.25283" lon="5.96937">
        <ele>428.7</ele>
        <time>2013-12-11T08:49:11Z</time>
      </trkpt>
      <trkpt lat="43.2528" lon="5.96934">
        <ele>427.6</ele>
        <time>2013-12-11T08:49:16Z</time>
      </trkpt>
      <trkpt lat="43.25276" lon="5.96933">
        <ele>429.2</ele>
        <time>2013-12-11T08:49:22Z</time>
      </trkpt>
      <trkpt lat="43.25276" lon="5.96933">
        <ele>429.6</ele>
        <time>2013-12-11T08:49:23Z</time>
      </trkpt>
      <trkpt lat="43.25272" lon="5.96943">
        <ele>428.5</ele>
        <time>2013-12-11T08:49:43Z</time>
      </trkpt>
      <trkpt lat="43.25268" lon="5.96946">
        <ele>428.1</ele>
        <time>2013-12-11T08:49:49Z</time>
      </trkpt>
      <trkpt lat="43.25264" lon="5.96948">
        <ele>427.7</ele>
        <time>2013-12-11T08:49:54Z</time>
      </trkpt>
      <trkpt lat="43.2526" lon="5.9695">
        <ele>428.7</ele>
        <time>2013-12-11T08:49:58Z</time>
      </trkpt>
      <trkpt lat="43.25258" lon="5.96952">
        <ele>429.7</ele>
        <time>2013-12-11T08:50:00Z</time>
      </trkpt>
      <trkpt lat="43.25254" lon="5.96954">
        <ele>429.3</ele>
        <time>2013-12-11T08:50:04Z</time>
      </trkpt>
      <trkpt lat="43.25251" lon="5.96956">
        <ele>430.3</ele>
        <time>2013-12-11T08:50:08Z</time>
      </trkpt>
      <trkpt lat="43.25247" lon="5.96958">
        <ele>431.2</ele>
        <time>2013-12-11T08:50:12Z</time>
      </trkpt>
      <trkpt lat="43.25243" lon="5.96957">
        <ele>430</ele>
        <time>2013-12-11T08:50:18Z</time>
      </trkpt>
      <trkpt lat="43.25239" lon="5.96955">
        <ele>430.3</ele>
        <time>2013-12-11T08:50:23Z</time>
      </trkpt>
      <trkpt lat="43.25238" lon="5.96955">
        <ele>430.2</ele>
        <time>2013-12-11T08:50:24Z</time>
      </trkpt>
      <trkpt lat="43.25231" lon="5.96955">
        <ele>431.3</ele>
        <time>2013-12-11T08:50:33Z</time>
      </trkpt>
      <trkpt lat="43.25227" lon="5.96954">
        <ele>433.2</ele>
        <time>2013-12-11T08:50:38Z</time>
      </trkpt>
      <trkpt lat="43.25223" lon="5.96956">
        <ele>434.8</ele>
        <time>2013-12-11T08:50:42Z</time>
      </trkpt>
      <trkpt lat="43.2522" lon="5.96959">
        <ele>436.1</ele>
        <time>2013-12-11T08:50:48Z</time>
      </trkpt>
      <trkpt lat="43.25216" lon="5.96961">
        <ele>436.6</ele>
        <time>2013-12-11T08:50:56Z</time>
      </trkpt>
      <trkpt lat="43.25213" lon="5.96965">
        <ele>444.1</ele>
        <time>2013-12-11T08:52:19Z</time>
      </trkpt>
      <trkpt lat="43.25212" lon="5.96965">
        <ele>444</ele>
        <time>2013-12-11T08:52:20Z</time>
      </trkpt>
      <trkpt lat="43.25216" lon="5.96959">
        <ele>450.3</ele>
        <time>2013-12-11T08:53:42Z</time>
      </trkpt>
      <trkpt lat="43.2522" lon="5.96961">
        <ele>452.3</ele>
        <time>2013-12-11T08:58:14Z</time>
      </trkpt>
      <trkpt lat="43.25222" lon="5.96971">
        <ele>448</ele>
        <time>2013-12-11T08:59:01Z</time>
      </trkpt>
      <trkpt lat="43.25222" lon="5.96977">
        <ele>448</ele>
        <time>2013-12-11T08:59:09Z</time>
      </trkpt>
      <trkpt lat="43.2522" lon="5.96982">
        <ele>447.2</ele>
        <time>2013-12-11T08:59:18Z</time>
      </trkpt>
      <trkpt lat="43.2522" lon="5.96982">
        <ele>447.5</ele>
        <time>2013-12-11T08:59:19Z</time>
      </trkpt>
      <trkpt lat="43.25212" lon="5.96985">
        <ele>446.2</ele>
        <time>2013-12-11T08:59:36Z</time>
      </trkpt>
      <trkpt lat="43.25208" lon="5.96984">
        <ele>447.7</ele>
        <time>2013-12-11T08:59:42Z</time>
      </trkpt>
      <trkpt lat="43.25204" lon="5.96987">
        <ele>444.7</ele>
        <time>2013-12-11T08:59:49Z</time>
      </trkpt>
      <trkpt lat="43.252" lon="5.96987">
        <ele>446.1</ele>
        <time>2013-12-11T08:59:58Z</time>
      </trkpt>
      <trkpt lat="43.25196" lon="5.96988">
        <ele>449.7</ele>
        <time>2013-12-11T09:00:07Z</time>
      </trkpt>
      <trkpt lat="43.25193" lon="5.96992">
        <ele>450.7</ele>
        <time>2013-12-11T09:00:18Z</time>
      </trkpt>
      <trkpt lat="43.25189" lon="5.96994">
        <ele>453.6</ele>
        <time>2013-12-11T09:00:27Z</time>
      </trkpt>
      <trkpt lat="43.25188" lon="5.96993">
        <ele>455</ele>
        <time>2013-12-11T09:00:28Z</time>
      </trkpt>
      <trkpt lat="43.25181" lon="5.96996">
        <ele>457.7</ele>
        <time>2013-12-11T09:00:44Z</time>
      </trkpt>
      <trkpt lat="43.25178" lon="5.96998">
        <ele>457.7</ele>
        <time>2013-12-11T09:00:53Z</time>
      </trkpt>
      <trkpt lat="43.25173" lon="5.96999">
        <ele>460.6</ele>
        <time>2013-12-11T09:01:01Z</time>
      </trkpt>
      <trkpt lat="43.2517" lon="5.97003">
        <ele>460</ele>
        <time>2013-12-11T09:01:08Z</time>
      </trkpt>
      <trkpt lat="43.25174" lon="5.97007">
        <ele>461</ele>
        <time>2013-12-11T09:01:17Z</time>
      </trkpt>
      <trkpt lat="43.25176" lon="5.97012">
        <ele>460.7</ele>
        <time>2013-12-11T09:01:23Z</time>
      </trkpt>
      <trkpt lat="43.25176" lon="5.97017">
        <ele>460.2</ele>
        <time>2013-12-11T09:01:31Z</time>
      </trkpt>
      <trkpt lat="43.25176" lon="5.97018">
        <ele>460.2</ele>
        <time>2013-12-11T09:01:32Z</time>
      </trkpt>
      <trkpt lat="43.25172" lon="5.97027">
        <ele>462</ele>
        <time>2013-12-11T09:01:43Z</time>
      </trkpt>
      <trkpt lat="43.2517" lon="5.97032">
        <ele>463.7</ele>
        <time>2013-12-11T09:01:48Z</time>
      </trkpt>
      <trkpt lat="43.25167" lon="5.97037">
        <ele>465.6</ele>
        <time>2013-12-11T09:01:53Z</time>
      </trkpt>
      <trkpt lat="43.25165" lon="5.97043">
        <ele>467.8</ele>
        <time>2013-12-11T09:02:01Z</time>
      </trkpt>
      <trkpt lat="43.25163" lon="5.97048">
        <ele>468.6</ele>
        <time>2013-12-11T09:02:13Z</time>
      </trkpt>
      <trkpt lat="43.2516" lon="5.97052">
        <ele>469.7</ele>
        <time>2013-12-11T09:02:25Z</time>
      </trkpt>
      <trkpt lat="43.25158" lon="5.97058">
        <ele>471.2</ele>
        <time>2013-12-11T09:02:33Z</time>
      </trkpt>
      <trkpt lat="43.25157" lon="5.97058">
        <ele>471.5</ele>
        <time>2013-12-11T09:02:34Z</time>
      </trkpt>
      <trkpt lat="43.2515" lon="5.9706">
        <ele>479.5</ele>
        <time>2013-12-11T09:02:56Z</time>
      </trkpt>
      <trkpt lat="43.25146" lon="5.97063">
        <ele>480.2</ele>
        <time>2013-12-11T09:03:08Z</time>
      </trkpt>
      <trkpt lat="43.25144" lon="5.97068">
        <ele>479.2</ele>
        <time>2013-12-11T09:03:19Z</time>
      </trkpt>
      <trkpt lat="43.25142" lon="5.97073">
        <ele>480.2</ele>
        <time>2013-12-11T09:03:34Z</time>
      </trkpt>
      <trkpt lat="43.25141" lon="5.97074">
        <ele>480.8</ele>
        <time>2013-12-11T09:03:35Z</time>
      </trkpt>
      <trkpt lat="43.25136" lon="5.97082">
        <ele>480.6</ele>
        <time>2013-12-11T09:03:56Z</time>
      </trkpt>
      <trkpt lat="43.25134" lon="5.97087">
        <ele>479.2</ele>
        <time>2013-12-11T09:04:04Z</time>
      </trkpt>
      <trkpt lat="43.25133" lon="5.97092">
        <ele>478.5</ele>
        <time>2013-12-11T09:04:15Z</time>
      </trkpt>
      <trkpt lat="43.25129" lon="5.97094">
        <ele>487.7</ele>
        <time>2013-12-11T09:04:34Z</time>
      </trkpt>
      <trkpt lat="43.25127" lon="5.97099">
        <ele>489.8</ele>
        <time>2013-12-11T09:04:46Z</time>
      </trkpt>
      <trkpt lat="43.25127" lon="5.97099">
        <ele>489.5</ele>
        <time>2013-12-11T09:04:47Z</time>
      </trkpt>
      <trkpt lat="43.2512" lon="5.97099">
        <ele>493.8</ele>
        <time>2013-12-11T09:05:05Z</time>
      </trkpt>
      <trkpt lat="43.25117" lon="5.97094">
        <ele>495</ele>
        <time>2013-12-11T09:05:11Z</time>
      </trkpt>
      <trkpt lat="43.25116" lon="5.97088">
        <ele>498.2</ele>
        <time>2013-12-11T09:05:19Z</time>
      </trkpt>
      <trkpt lat="43.25115" lon="5.97083">
        <ele>500.6</ele>
        <time>2013-12-11T09:05:39Z</time>
      </trkpt>
      <trkpt lat="43.25111" lon="5.9708">
        <ele>501.6</ele>
        <time>2013-12-11T09:05:49Z</time>
      </trkpt>
      <trkpt lat="43.2511" lon="5.9708">
        <ele>500.2</ele>
        <time>2013-12-11T09:05:50Z</time>
      </trkpt>
      <trkpt lat="43.25104" lon="5.97077">
        <ele>497.3</ele>
        <time>2013-12-11T09:06:00Z</time>
      </trkpt>
      <trkpt lat="43.25101" lon="5.97073">
        <ele>499.7</ele>
        <time>2013-12-11T09:06:05Z</time>
      </trkpt>
      <trkpt lat="43.25098" lon="5.97069">
        <ele>501.7</ele>
        <time>2013-12-11T09:06:10Z</time>
      </trkpt>
      <trkpt lat="43.25097" lon="5.97063">
        <ele>501.2</ele>
        <time>2013-12-11T09:06:27Z</time>
      </trkpt>
      <trkpt lat="43.25095" lon="5.97058">
        <ele>501.2</ele>
        <time>2013-12-11T09:06:35Z</time>
      </trkpt>
      <trkpt lat="43.25092" lon="5.97054">
        <ele>501.5</ele>
        <time>2013-12-11T09:06:41Z</time>
      </trkpt>
      <trkpt lat="43.25089" lon="5.97049">
        <ele>502.2</ele>
        <time>2013-12-11T09:06:47Z</time>
      </trkpt>
      <trkpt lat="43.25086" lon="5.97045">
        <ele>503</ele>
        <time>2013-12-11T09:06:53Z</time>
      </trkpt>
      <trkpt lat="43.25086" lon="5.97043">
        <ele>504.5</ele>
        <time>2013-12-11T09:06:54Z</time>
      </trkpt>
      <trkpt lat="43.25082" lon="5.97037">
        <ele>507.2</ele>
        <time>2013-12-11T09:07:00Z</time>
      </trkpt>
      <trkpt lat="43.25078" lon="5.97035">
        <ele>504.7</ele>
        <time>2013-12-11T09:07:06Z</time>
      </trkpt>
      <trkpt lat="43.25075" lon="5.97031">
        <ele>504.3</ele>
        <time>2013-12-11T09:07:13Z</time>
      </trkpt>
      <trkpt lat="43.25072" lon="5.97027">
        <ele>505.3</ele>
        <time>2013-12-11T09:07:19Z</time>
      </trkpt>
      <trkpt lat="43.25069" lon="5.97023">
        <ele>506.7</ele>
        <time>2013-12-11T09:07:24Z</time>
      </trkpt>
      <trkpt lat="43.25066" lon="5.97019">
        <ele>508.3</ele>
        <time>2013-12-11T09:07:31Z</time>
      </trkpt>
      <trkpt lat="43.25062" lon="5.97017">
        <ele>505.5</ele>
        <time>2013-12-11T09:07:38Z</time>
      </trkpt>
      <trkpt lat="43.2506" lon="5.97013">
        <ele>505.5</ele>
        <time>2013-12-11T09:07:44Z</time>
      </trkpt>
      <trkpt lat="43.25058" lon="5.97008">
        <ele>507.7</ele>
        <time>2013-12-11T09:07:48Z</time>
      </trkpt>
      <trkpt lat="43.25054" lon="5.97007">
        <ele>506.8</ele>
        <time>2013-12-11T09:07:55Z</time>
      </trkpt>
      <trkpt lat="43.25054" lon="5.97007">
        <ele>506.7</ele>
        <time>2013-12-11T09:07:56Z</time>
      </trkpt>
      <trkpt lat="43.2505" lon="5.96999">
        <ele>510.7</ele>
        <time>2013-12-11T09:08:06Z</time>
      </trkpt>
      <trkpt lat="43.25046" lon="5.96997">
        <ele>511.7</ele>
        <time>2013-12-11T09:08:12Z</time>
      </trkpt>
      <trkpt lat="43.25042" lon="5.96996">
        <ele>511.2</ele>
        <time>2013-12-11T09:08:22Z</time>
      </trkpt>
      <trkpt lat="43.25039" lon="5.96993">
        <ele>512.7</ele>
        <time>2013-12-11T09:08:31Z</time>
      </trkpt>
      <trkpt lat="43.25035" lon="5.96991">
        <ele>511.5</ele>
        <time>2013-12-11T09:08:40Z</time>
      </trkpt>
      <trkpt lat="43.25031" lon="5.96988">
        <ele>513.2</ele>
        <time>2013-12-11T09:08:57Z</time>
      </trkpt>
      <trkpt lat="43.25031" lon="5.96987">
        <ele>513.5</ele>
        <time>2013-12-11T09:08:58Z</time>
      </trkpt>
      <trkpt lat="43.25026" lon="5.96983">
        <ele>519.5</ele>
        <time>2013-12-11T09:09:26Z</time>
      </trkpt>
      <trkpt lat="43.25023" lon="5.9698">
        <ele>520.7</ele>
        <time>2013-12-11T09:09:39Z</time>
      </trkpt>
      <trkpt lat="43.2502" lon="5.96975">
        <ele>520.5</ele>
        <time>2013-12-11T09:09:47Z</time>
      </trkpt>
      <trkpt lat="43.25017" lon="5.96973">
        <ele>520</ele>
        <time>2013-12-11T09:09:52Z</time>
      </trkpt>
      <trkpt lat="43.25013" lon="5.96969">
        <ele>522.2</ele>
        <time>2013-12-11T09:09:59Z</time>
      </trkpt>
      <trkpt lat="43.25013" lon="5.96969">
        <ele>522.2</ele>
        <time>2013-12-11T09:10:00Z</time>
      </trkpt>
      <trkpt lat="43.25007" lon="5.96961">
        <ele>522.2</ele>
        <time>2013-12-11T09:10:17Z</time>
      </trkpt>
      <trkpt lat="43.25003" lon="5.9696">
        <ele>531.2</ele>
        <time>2013-12-11T09:10:38Z</time>
      </trkpt>
      <trkpt lat="43.25001" lon="5.96955">
        <ele>532</ele>
        <time>2013-12-11T09:10:48Z</time>
      </trkpt>
      <trkpt lat="43.25" lon="5.96949">
        <ele>536.2</ele>
        <time>2013-12-11T09:10:58Z</time>
      </trkpt>
      <trkpt lat="43.24998" lon="5.96944">
        <ele>535.7</ele>
        <time>2013-12-11T09:11:10Z</time>
      </trkpt>
      <trkpt lat="43.24998" lon="5.96943">
        <ele>535.7</ele>
        <time>2013-12-11T09:11:11Z</time>
      </trkpt>
      <trkpt lat="43.2499" lon="5.96942">
        <ele>533.4</ele>
        <time>2013-12-11T09:11:37Z</time>
      </trkpt>
      <trkpt lat="43.24987" lon="5.96938">
        <ele>532.7</ele>
        <time>2013-12-11T09:11:43Z</time>
      </trkpt>
      <trkpt lat="43.24984" lon="5.96935">
        <ele>531</ele>
        <time>2013-12-11T09:11:51Z</time>
      </trkpt>
      <trkpt lat="43.2498" lon="5.96933">
        <ele>529.5</ele>
        <time>2013-12-11T09:12:00Z</time>
      </trkpt>
      <trkpt lat="43.24976" lon="5.96931">
        <ele>534</ele>
        <time>2013-12-11T09:12:06Z</time>
      </trkpt>
      <trkpt lat="43.24973" lon="5.96927">
        <ele>535.5</ele>
        <time>2013-12-11T09:12:13Z</time>
      </trkpt>
      <trkpt lat="43.24972" lon="5.96926">
        <ele>536.5</ele>
        <time>2013-12-11T09:12:14Z</time>
      </trkpt>
      <trkpt lat="43.24968" lon="5.96917">
        <ele>539</ele>
        <time>2013-12-11T09:12:30Z</time>
      </trkpt>
      <trkpt lat="43.24965" lon="5.96914">
        <ele>538.2</ele>
        <time>2013-12-11T09:12:40Z</time>
      </trkpt>
      <trkpt lat="43.24962" lon="5.96909">
        <ele>538.7</ele>
        <time>2013-12-11T09:12:49Z</time>
      </trkpt>
      <trkpt lat="43.2496" lon="5.96905">
        <ele>538.4</ele>
        <time>2013-12-11T09:12:56Z</time>
      </trkpt>
      <trkpt lat="43.24958" lon="5.96899">
        <ele>537.7</ele>
        <time>2013-12-11T09:13:05Z</time>
      </trkpt>
      <trkpt lat="43.24956" lon="5.96894">
        <ele>538.4</ele>
        <time>2013-12-11T09:13:10Z</time>
      </trkpt>
      <trkpt lat="43.24954" lon="5.96889">
        <ele>540</ele>
        <time>2013-12-11T09:13:13Z</time>
      </trkpt>
      <trkpt lat="43.24954" lon="5.96884">
        <ele>541.4</ele>
        <time>2013-12-11T09:13:17Z</time>
      </trkpt>
      <trkpt lat="43.24953" lon="5.96883">
        <ele>541.7</ele>
        <time>2013-12-11T09:13:18Z</time>
      </trkpt>
      <trkpt lat="43.24951" lon="5.96874">
        <ele>542.2</ele>
        <time>2013-12-11T09:13:26Z</time>
      </trkpt>
      <trkpt lat="43.24949" lon="5.96869">
        <ele>545</ele>
        <time>2013-12-11T09:13:29Z</time>
      </trkpt>
      <trkpt lat="43.24947" lon="5.96865">
        <ele>548.7</ele>
        <time>2013-12-11T09:13:31Z</time>
      </trkpt>
      <trkpt lat="43.24945" lon="5.9686">
        <ele>549.2</ele>
        <time>2013-12-11T09:13:38Z</time>
      </trkpt>
      <trkpt lat="43.24943" lon="5.96855">
        <ele>548.7</ele>
        <time>2013-12-11T09:13:44Z</time>
      </trkpt>
      <trkpt lat="43.24941" lon="5.9685">
        <ele>548.7</ele>
        <time>2013-12-11T09:13:49Z</time>
      </trkpt>
      <trkpt lat="43.24939" lon="5.96847">
        <ele>547.2</ele>
        <time>2013-12-11T09:13:55Z</time>
      </trkpt>
      <trkpt lat="43.24935" lon="5.96847">
        <ele>544</ele>
        <time>2013-12-11T09:13:57Z</time>
      </trkpt>
      <trkpt lat="43.24931" lon="5.96846">
        <ele>540.2</ele>
        <time>2013-12-11T09:14:04Z</time>
      </trkpt>
      <trkpt lat="43.24928" lon="5.96842">
        <ele>539.5</ele>
        <time>2013-12-11T09:14:10Z</time>
      </trkpt>
      <trkpt lat="43.24926" lon="5.96837">
        <ele>541.4</ele>
        <time>2013-12-11T09:14:13Z</time>
      </trkpt>
      <trkpt lat="43.24924" lon="5.96832">
        <ele>544.4</ele>
        <time>2013-12-11T09:14:16Z</time>
      </trkpt>
      <trkpt lat="43.24921" lon="5.96827">
        <ele>544.5</ele>
        <time>2013-12-11T09:14:22Z</time>
      </trkpt>
      <trkpt lat="43.24921" lon="5.96827">
        <ele>544.5</ele>
        <time>2013-12-11T09:14:23Z</time>
      </trkpt>
      <trkpt lat="43.24916" lon="5.96822">
        <ele>543.5</ele>
        <time>2013-12-11T09:14:30Z</time>
      </trkpt>
      <trkpt lat="43.24914" lon="5.96819">
        <ele>547</ele>
        <time>2013-12-11T09:14:31Z</time>
      </trkpt>
      <trkpt lat="43.24912" lon="5.96813">
        <ele>549.2</ele>
        <time>2013-12-11T09:14:36Z</time>
      </trkpt>
      <trkpt lat="43.24911" lon="5.9681">
        <ele>550.4</ele>
        <time>2013-12-11T09:14:40Z</time>
      </trkpt>
      <trkpt lat="43.24909" lon="5.96805">
        <ele>552.2</ele>
        <time>2013-12-11T09:14:45Z</time>
      </trkpt>
      <trkpt lat="43.24907" lon="5.968">
        <ele>554</ele>
        <time>2013-12-11T09:14:48Z</time>
      </trkpt>
      <trkpt lat="43.24904" lon="5.96795">
        <ele>554</ele>
        <time>2013-12-11T09:14:53Z</time>
      </trkpt>
      <trkpt lat="43.24901" lon="5.96792">
        <ele>554</ele>
        <time>2013-12-11T09:14:59Z</time>
      </trkpt>
      <trkpt lat="43.24899" lon="5.96788">
        <ele>554.7</ele>
        <time>2013-12-11T09:15:04Z</time>
      </trkpt>
      <trkpt lat="43.24896" lon="5.96783">
        <ele>554.5</ele>
        <time>2013-12-11T09:15:09Z</time>
      </trkpt>
      <trkpt lat="43.24894" lon="5.96778">
        <ele>556.4</ele>
        <time>2013-12-11T09:15:13Z</time>
      </trkpt>
      <trkpt lat="43.24893" lon="5.96773">
        <ele>557.2</ele>
        <time>2013-12-11T09:15:19Z</time>
      </trkpt>
      <trkpt lat="43.24891" lon="5.96769">
        <ele>557</ele>
        <time>2013-12-11T09:15:23Z</time>
      </trkpt>
      <trkpt lat="43.24891" lon="5.96768">
        <ele>557.2</ele>
        <time>2013-12-11T09:15:24Z</time>
      </trkpt>
      <trkpt lat="43.24885" lon="5.96761">
        <ele>556.5</ele>
        <time>2013-12-11T09:15:32Z</time>
      </trkpt>
      <trkpt lat="43.24882" lon="5.96757">
        <ele>557.7</ele>
        <time>2013-12-11T09:15:38Z</time>
      </trkpt>
      <trkpt lat="43.24879" lon="5.96752">
        <ele>561</ele>
        <time>2013-12-11T09:15:45Z</time>
      </trkpt>
      <trkpt lat="43.24875" lon="5.96749">
        <ele>560.4</ele>
        <time>2013-12-11T09:16:05Z</time>
      </trkpt>
      <trkpt lat="43.24871" lon="5.9675">
        <ele>558.9</ele>
        <time>2013-12-11T09:16:39Z</time>
      </trkpt>
      <trkpt lat="43.2487" lon="5.9675">
        <ele>558.4</ele>
        <time>2013-12-11T09:16:40Z</time>
      </trkpt>
      <trkpt lat="43.24864" lon="5.96744">
        <ele>563</ele>
        <time>2013-12-11T09:17:04Z</time>
      </trkpt>
      <trkpt lat="43.24861" lon="5.9674">
        <ele>563.9</ele>
        <time>2013-12-11T09:17:11Z</time>
      </trkpt>
      <trkpt lat="43.24859" lon="5.96735">
        <ele>566</ele>
        <time>2013-12-11T09:17:19Z</time>
      </trkpt>
      <trkpt lat="43.24857" lon="5.9673">
        <ele>566.9</ele>
        <time>2013-12-11T09:17:27Z</time>
      </trkpt>
      <trkpt lat="43.24854" lon="5.96727">
        <ele>567</ele>
        <time>2013-12-11T09:17:33Z</time>
      </trkpt>
      <trkpt lat="43.24853" lon="5.96721">
        <ele>569.5</ele>
        <time>2013-12-11T09:17:41Z</time>
      </trkpt>
      <trkpt lat="43.24853" lon="5.96721">
        <ele>569.2</ele>
        <time>2013-12-11T09:17:42Z</time>
      </trkpt>
      <trkpt lat="43.24846" lon="5.96724">
        <ele>567</ele>
        <time>2013-12-11T09:17:57Z</time>
      </trkpt>
      <trkpt lat="43.24846" lon="5.96729">
        <ele>566.5</ele>
        <time>2013-12-11T09:18:04Z</time>
      </trkpt>
      <trkpt lat="43.24847" lon="5.96734">
        <ele>568.9</ele>
        <time>2013-12-11T09:18:10Z</time>
      </trkpt>
      <trkpt lat="43.24848" lon="5.9674">
        <ele>571.2</ele>
        <time>2013-12-11T09:18:19Z</time>
      </trkpt>
      <trkpt lat="43.24848" lon="5.96746">
        <ele>573.2</ele>
        <time>2013-12-11T09:18:27Z</time>
      </trkpt>
      <trkpt lat="43.24844" lon="5.96749">
        <ele>574</ele>
        <time>2013-12-11T09:18:38Z</time>
      </trkpt>
      <trkpt lat="43.24841" lon="5.96753">
        <ele>578.9</ele>
        <time>2013-12-11T09:18:55Z</time>
      </trkpt>
      <trkpt lat="43.24841" lon="5.96753">
        <ele>579.7</ele>
        <time>2013-12-11T09:18:56Z</time>
      </trkpt>
      <trkpt lat="43.2484" lon="5.96764">
        <ele>577.5</ele>
        <time>2013-12-11T09:19:14Z</time>
      </trkpt>
      <trkpt lat="43.2484" lon="5.96769">
        <ele>579.4</ele>
        <time>2013-12-11T09:19:21Z</time>
      </trkpt>
      <trkpt lat="43.24836" lon="5.96769">
        <ele>581.2</ele>
        <time>2013-12-11T09:19:39Z</time>
      </trkpt>
      <trkpt lat="43.24833" lon="5.96764">
        <ele>579.7</ele>
        <time>2013-12-11T09:19:51Z</time>
      </trkpt>
      <trkpt lat="43.24831" lon="5.96759">
        <ele>580.7</ele>
        <time>2013-12-11T09:19:58Z</time>
      </trkpt>
      <trkpt lat="43.2483" lon="5.96759">
        <ele>581</ele>
        <time>2013-12-11T09:19:59Z</time>
      </trkpt>
      <trkpt lat="43.24827" lon="5.96749">
        <ele>586</ele>
        <time>2013-12-11T09:20:09Z</time>
      </trkpt>
      <trkpt lat="43.24826" lon="5.96744">
        <ele>590.5</ele>
        <time>2013-12-11T09:20:20Z</time>
      </trkpt>
      <trkpt lat="43.24824" lon="5.9674">
        <ele>591.2</ele>
        <time>2013-12-11T09:20:27Z</time>
      </trkpt>
      <trkpt lat="43.24821" lon="5.96735">
        <ele>592.4</ele>
        <time>2013-12-11T09:20:34Z</time>
      </trkpt>
      <trkpt lat="43.24818" lon="5.96731">
        <ele>591.7</ele>
        <time>2013-12-11T09:20:42Z</time>
      </trkpt>
      <trkpt lat="43.24816" lon="5.96726">
        <ele>590.7</ele>
        <time>2013-12-11T09:20:52Z</time>
      </trkpt>
      <trkpt lat="43.24814" lon="5.96721">
        <ele>591.7</ele>
        <time>2013-12-11T09:20:59Z</time>
      </trkpt>
      <trkpt lat="43.24814" lon="5.9672">
        <ele>592</ele>
        <time>2013-12-11T09:21:00Z</time>
      </trkpt>
      <trkpt lat="43.24808" lon="5.96714">
        <ele>593.7</ele>
        <time>2013-12-11T09:21:19Z</time>
      </trkpt>
      <trkpt lat="43.24804" lon="5.96716">
        <ele>593.5</ele>
        <time>2013-12-11T09:21:28Z</time>
      </trkpt>
      <trkpt lat="43.24801" lon="5.9672">
        <ele>592.7</ele>
        <time>2013-12-11T09:21:37Z</time>
      </trkpt>
      <trkpt lat="43.24802" lon="5.96726">
        <ele>593.7</ele>
        <time>2013-12-11T09:21:43Z</time>
      </trkpt>
      <trkpt lat="43.24801" lon="5.96731">
        <ele>593.7</ele>
        <time>2013-12-11T09:21:48Z</time>
      </trkpt>
      <trkpt lat="43.248" lon="5.96737">
        <ele>594.2</ele>
        <time>2013-12-11T09:21:54Z</time>
      </trkpt>
      <trkpt lat="43.24799" lon="5.96742">
        <ele>595.4</ele>
        <time>2013-12-11T09:21:59Z</time>
      </trkpt>
      <trkpt lat="43.24798" lon="5.96748">
        <ele>595.4</ele>
        <time>2013-12-11T09:22:04Z</time>
      </trkpt>
      <trkpt lat="43.24798" lon="5.96749">
        <ele>595.4</ele>
        <time>2013-12-11T09:22:05Z</time>
      </trkpt>
      <trkpt lat="43.24795" lon="5.96759">
        <ele>596.2</ele>
        <time>2013-12-11T09:22:18Z</time>
      </trkpt>
      <trkpt lat="43.24794" lon="5.96764">
        <ele>597.2</ele>
        <time>2013-12-11T09:22:24Z</time>
      </trkpt>
      <trkpt lat="43.24793" lon="5.9677">
        <ele>598.5</ele>
        <time>2013-12-11T09:22:30Z</time>
      </trkpt>
      <trkpt lat="43.24792" lon="5.96775">
        <ele>599</ele>
        <time>2013-12-11T09:22:37Z</time>
      </trkpt>
      <trkpt lat="43.24791" lon="5.96781">
        <ele>598.2</ele>
        <time>2013-12-11T09:22:42Z</time>
      </trkpt>
      <trkpt lat="43.2479" lon="5.96787">
        <ele>598.5</ele>
        <time>2013-12-11T09:22:48Z</time>
      </trkpt>
      <trkpt lat="43.24789" lon="5.96791">
        <ele>599.2</ele>
        <time>2013-12-11T09:22:53Z</time>
      </trkpt>
      <trkpt lat="43.24787" lon="5.96797">
        <ele>599.2</ele>
        <time>2013-12-11T09:22:58Z</time>
      </trkpt>
      <trkpt lat="43.24786" lon="5.96802">
        <ele>600.2</ele>
        <time>2013-12-11T09:23:03Z</time>
      </trkpt>
      <trkpt lat="43.24783" lon="5.96805">
        <ele>600.2</ele>
        <time>2013-12-11T09:23:09Z</time>
      </trkpt>
      <trkpt lat="43.24782" lon="5.96806">
        <ele>599.4</ele>
        <time>2013-12-11T09:23:10Z</time>
      </trkpt>
      <trkpt lat="43.24778" lon="5.96814">
        <ele>600.5</ele>
        <time>2013-12-11T09:23:21Z</time>
      </trkpt>
      <trkpt lat="43.24775" lon="5.96817">
        <ele>602</ele>
        <time>2013-12-11T09:23:26Z</time>
      </trkpt>
      <trkpt lat="43.24771" lon="5.9682">
        <ele>600.9</ele>
        <time>2013-12-11T09:23:30Z</time>
      </trkpt>
      <trkpt lat="43.24769" lon="5.96816">
        <ele>602</ele>
        <time>2013-12-11T09:23:39Z</time>
      </trkpt>
      <trkpt lat="43.24765" lon="5.96815">
        <ele>610.5</ele>
        <time>2013-12-11T09:23:58Z</time>
      </trkpt>
      <trkpt lat="43.24765" lon="5.96821">
        <ele>611.7</ele>
        <time>2013-12-11T09:24:16Z</time>
      </trkpt>
      <trkpt lat="43.24765" lon="5.96822">
        <ele>611.5</ele>
        <time>2013-12-11T09:24:17Z</time>
      </trkpt>
      <trkpt lat="43.2476" lon="5.96829">
        <ele>607.5</ele>
        <time>2013-12-11T09:24:26Z</time>
      </trkpt>
      <trkpt lat="43.24756" lon="5.96831">
        <ele>600.9</ele>
        <time>2013-12-11T09:24:36Z</time>
      </trkpt>
      <trkpt lat="43.24752" lon="5.96834">
        <ele>598</ele>
        <time>2013-12-11T09:24:41Z</time>
      </trkpt>
      <trkpt lat="43.24748" lon="5.96833">
        <ele>598.7</ele>
        <time>2013-12-11T09:24:50Z</time>
      </trkpt>
      <trkpt lat="43.24744" lon="5.96832">
        <ele>605.2</ele>
        <time>2013-12-11T09:25:02Z</time>
      </trkpt>
      <trkpt lat="43.24741" lon="5.96836">
        <ele>606.7</ele>
        <time>2013-12-11T09:25:30Z</time>
      </trkpt>
      <trkpt lat="43.2474" lon="5.96836">
        <ele>606.7</ele>
        <time>2013-12-11T09:25:31Z</time>
      </trkpt>
      <trkpt lat="43.24745" lon="5.96827">
        <ele>618</ele>
        <time>2013-12-11T09:26:11Z</time>
      </trkpt>
      <trkpt lat="43.24741" lon="5.9683">
        <ele>610.5</ele>
        <time>2013-12-11T09:28:52Z</time>
      </trkpt>
      <trkpt lat="43.24741" lon="5.9683">
        <ele>610.9</ele>
        <time>2013-12-11T09:28:53Z</time>
      </trkpt>
      <trkpt lat="43.24732" lon="5.96828">
        <ele>608.5</ele>
        <time>2013-12-11T09:29:29Z</time>
      </trkpt>
      <trkpt lat="43.24728" lon="5.96826">
        <ele>604.5</ele>
        <time>2013-12-11T09:29:37Z</time>
      </trkpt>
      <trkpt lat="43.24725" lon="5.96824">
        <ele>604.2</ele>
        <time>2013-12-11T09:29:41Z</time>
      </trkpt>
      <trkpt lat="43.24721" lon="5.96826">
        <ele>602.5</ele>
        <time>2013-12-11T09:29:48Z</time>
      </trkpt>
      <trkpt lat="43.24718" lon="5.96824">
        <ele>600</ele>
        <time>2013-12-11T09:29:56Z</time>
      </trkpt>
      <trkpt lat="43.24716" lon="5.96823">
        <ele>601.7</ele>
        <time>2013-12-11T09:29:57Z</time>
      </trkpt>
      <trkpt lat="43.24711" lon="5.9682">
        <ele>605.2</ele>
        <time>2013-12-11T09:30:03Z</time>
      </trkpt>
      <trkpt lat="43.24707" lon="5.96817">
        <ele>607.2</ele>
        <time>2013-12-11T09:30:08Z</time>
      </trkpt>
      <trkpt lat="43.24703" lon="5.96814">
        <ele>610</ele>
        <time>2013-12-11T09:30:13Z</time>
      </trkpt>
      <trkpt lat="43.247" lon="5.9681">
        <ele>611</ele>
        <time>2013-12-11T09:30:18Z</time>
      </trkpt>
      <trkpt lat="43.24696" lon="5.96807">
        <ele>611.5</ele>
        <time>2013-12-11T09:30:28Z</time>
      </trkpt>
      <trkpt lat="43.24694" lon="5.96803">
        <ele>612.2</ele>
        <time>2013-12-11T09:30:33Z</time>
      </trkpt>
      <trkpt lat="43.24691" lon="5.96799">
        <ele>610.7</ele>
        <time>2013-12-11T09:30:38Z</time>
      </trkpt>
      <trkpt lat="43.24689" lon="5.96794">
        <ele>610.9</ele>
        <time>2013-12-11T09:30:44Z</time>
      </trkpt>
      <trkpt lat="43.24687" lon="5.9679">
        <ele>610.9</ele>
        <time>2013-12-11T09:30:49Z</time>
      </trkpt>
      <trkpt lat="43.24685" lon="5.96784">
        <ele>609.9</ele>
        <time>2013-12-11T09:30:55Z</time>
      </trkpt>
      <trkpt lat="43.24684" lon="5.96778">
        <ele>610</ele>
        <time>2013-12-11T09:31:01Z</time>
      </trkpt>
      <trkpt lat="43.24684" lon="5.96778">
        <ele>610.2</ele>
        <time>2013-12-11T09:31:02Z</time>
      </trkpt>
      <trkpt lat="43.24682" lon="5.96768">
        <ele>613.5</ele>
        <time>2013-12-11T09:31:12Z</time>
      </trkpt>
      <trkpt lat="43.2468" lon="5.96763">
        <ele>613.7</ele>
        <time>2013-12-11T09:31:17Z</time>
      </trkpt>
      <trkpt lat="43.24679" lon="5.96758">
        <ele>614.9</ele>
        <time>2013-12-11T09:31:23Z</time>
      </trkpt>
      <trkpt lat="43.24677" lon="5.96752">
        <ele>611.2</ele>
        <time>2013-12-11T09:31:30Z</time>
      </trkpt>
      <trkpt lat="43.24676" lon="5.96748">
        <ele>609.7</ele>
        <time>2013-12-11T09:31:34Z</time>
      </trkpt>
      <trkpt lat="43.24674" lon="5.96743">
        <ele>612.5</ele>
        <time>2013-12-11T09:31:38Z</time>
      </trkpt>
      <trkpt lat="43.24672" lon="5.96739">
        <ele>613.5</ele>
        <time>2013-12-11T09:31:42Z</time>
      </trkpt>
      <trkpt lat="43.24668" lon="5.96737">
        <ele>619</ele>
        <time>2013-12-11T09:31:49Z</time>
      </trkpt>
      <trkpt lat="43.24664" lon="5.96738">
        <ele>621.5</ele>
        <time>2013-12-11T09:31:55Z</time>
      </trkpt>
      <trkpt lat="43.2466" lon="5.96739">
        <ele>623.7</ele>
        <time>2013-12-11T09:32:00Z</time>
      </trkpt>
      <trkpt lat="43.24656" lon="5.96742">
        <ele>623.5</ele>
        <time>2013-12-11T09:32:06Z</time>
      </trkpt>
      <trkpt lat="43.24655" lon="5.96742">
        <ele>623.5</ele>
        <time>2013-12-11T09:32:07Z</time>
      </trkpt>
      <trkpt lat="43.2465" lon="5.96749">
        <ele>624.7</ele>
        <time>2013-12-11T09:32:16Z</time>
      </trkpt>
      <trkpt lat="43.24647" lon="5.96754">
        <ele>624.4</ele>
        <time>2013-12-11T09:32:21Z</time>
      </trkpt>
      <trkpt lat="43.24644" lon="5.96758">
        <ele>625.7</ele>
        <time>2013-12-11T09:32:26Z</time>
      </trkpt>
      <trkpt lat="43.24641" lon="5.96761">
        <ele>626.5</ele>
        <time>2013-12-11T09:32:31Z</time>
      </trkpt>
      <trkpt lat="43.24637" lon="5.96764">
        <ele>623.2</ele>
        <time>2013-12-11T09:32:36Z</time>
      </trkpt>
      <trkpt lat="43.24634" lon="5.96766">
        <ele>620.4</ele>
        <time>2013-12-11T09:32:41Z</time>
      </trkpt>
      <trkpt lat="43.2463" lon="5.96768">
        <ele>620.5</ele>
        <time>2013-12-11T09:32:45Z</time>
      </trkpt>
      <trkpt lat="43.24627" lon="5.9677">
        <ele>620.5</ele>
        <time>2013-12-11T09:32:49Z</time>
      </trkpt>
      <trkpt lat="43.24623" lon="5.96768">
        <ele>623.5</ele>
        <time>2013-12-11T09:32:54Z</time>
      </trkpt>
      <trkpt lat="43.24619" lon="5.96767">
        <ele>622.2</ele>
        <time>2013-12-11T09:33:01Z</time>
      </trkpt>
      <trkpt lat="43.24614" lon="5.96767">
        <ele>621.5</ele>
        <time>2013-12-11T09:33:07Z</time>
      </trkpt>
      <trkpt lat="43.24611" lon="5.96765">
        <ele>617.4</ele>
        <time>2013-12-11T09:33:19Z</time>
      </trkpt>
      <trkpt lat="43.24611" lon="5.96764">
        <ele>618.2</ele>
        <time>2013-12-11T09:33:20Z</time>
      </trkpt>
      <trkpt lat="43.24606" lon="5.96757">
        <ele>620.5</ele>
        <time>2013-12-11T09:33:27Z</time>
      </trkpt>
      <trkpt lat="43.24604" lon="5.96752">
        <ele>626</ele>
        <time>2013-12-11T09:33:34Z</time>
      </trkpt>
      <trkpt lat="43.24603" lon="5.96747">
        <ele>627</ele>
        <time>2013-12-11T09:33:49Z</time>
      </trkpt>
      <trkpt lat="43.246" lon="5.96743">
        <ele>631.4</ele>
        <time>2013-12-11T09:34:53Z</time>
      </trkpt>
      <trkpt lat="43.246" lon="5.96742">
        <ele>631</ele>
        <time>2013-12-11T09:34:54Z</time>
      </trkpt>
      <trkpt lat="43.24598" lon="5.96732">
        <ele>626.2</ele>
        <time>2013-12-11T09:35:06Z</time>
      </trkpt>
      <trkpt lat="43.24598" lon="5.96726">
        <ele>624.2</ele>
        <time>2013-12-11T09:35:13Z</time>
      </trkpt>
      <trkpt lat="43.24599" lon="5.9672">
        <ele>622</ele>
        <time>2013-12-11T09:35:19Z</time>
      </trkpt>
      <trkpt lat="43.24599" lon="5.96714">
        <ele>621.5</ele>
        <time>2013-12-11T09:35:24Z</time>
      </trkpt>
      <trkpt lat="43.24599" lon="5.96709">
        <ele>621.5</ele>
        <time>2013-12-11T09:35:28Z</time>
      </trkpt>
      <trkpt lat="43.24599" lon="5.96704">
        <ele>621.5</ele>
        <time>2013-12-11T09:35:32Z</time>
      </trkpt>
      <trkpt lat="43.24599" lon="5.96698">
        <ele>621.2</ele>
        <time>2013-12-11T09:35:37Z</time>
      </trkpt>
      <trkpt lat="43.246" lon="5.96692">
        <ele>621.2</ele>
        <time>2013-12-11T09:35:42Z</time>
      </trkpt>
      <trkpt lat="43.246" lon="5.96686">
        <ele>621.5</ele>
        <time>2013-12-11T09:35:46Z</time>
      </trkpt>
      <trkpt lat="43.246" lon="5.9668">
        <ele>621.7</ele>
        <time>2013-12-11T09:35:50Z</time>
      </trkpt>
      <trkpt lat="43.24602" lon="5.96675">
        <ele>618.7</ele>
        <time>2013-12-11T09:35:55Z</time>
      </trkpt>
      <trkpt lat="43.24603" lon="5.96674">
        <ele>618</ele>
        <time>2013-12-11T09:35:56Z</time>
      </trkpt>
      <trkpt lat="43.24606" lon="5.96667">
        <ele>613.2</ele>
        <time>2013-12-11T09:36:03Z</time>
      </trkpt>
      <trkpt lat="43.24608" lon="5.96662">
        <ele>610</ele>
        <time>2013-12-11T09:36:07Z</time>
      </trkpt>
      <trkpt lat="43.24611" lon="5.96658">
        <ele>605</ele>
        <time>2013-12-11T09:36:12Z</time>
      </trkpt>
      <trkpt lat="43.24613" lon="5.96654">
        <ele>599.7</ele>
        <time>2013-12-11T09:36:17Z</time>
      </trkpt>
      <trkpt lat="43.24615" lon="5.96649">
        <ele>595.4</ele>
        <time>2013-12-11T09:36:22Z</time>
      </trkpt>
      <trkpt lat="43.24618" lon="5.96644">
        <ele>589</ele>
        <time>2013-12-11T09:36:28Z</time>
      </trkpt>
      <trkpt lat="43.2462" lon="5.96639">
        <ele>584.5</ele>
        <time>2013-12-11T09:36:33Z</time>
      </trkpt>
      <trkpt lat="43.24621" lon="5.96633">
        <ele>581.5</ele>
        <time>2013-12-11T09:36:38Z</time>
      </trkpt>
      <trkpt lat="43.24622" lon="5.96628">
        <ele>579.5</ele>
        <time>2013-12-11T09:36:42Z</time>
      </trkpt>
      <trkpt lat="43.24624" lon="5.96623">
        <ele>572.5</ele>
        <time>2013-12-11T09:36:48Z</time>
      </trkpt>
      <trkpt lat="43.24626" lon="5.96618">
        <ele>566.2</ele>
        <time>2013-12-11T09:36:55Z</time>
      </trkpt>
      <trkpt lat="43.24626" lon="5.96612">
        <ele>564.4</ele>
        <time>2013-12-11T09:37:01Z</time>
      </trkpt>
      <trkpt lat="43.24625" lon="5.96611">
        <ele>564.2</ele>
        <time>2013-12-11T09:37:02Z</time>
      </trkpt>
      <trkpt lat="43.24628" lon="5.96602">
        <ele>553.5</ele>
        <time>2013-12-11T09:37:15Z</time>
      </trkpt>
      <trkpt lat="43.24629" lon="5.96596">
        <ele>551</ele>
        <time>2013-12-11T09:37:20Z</time>
      </trkpt>
      <trkpt lat="43.2463" lon="5.9659">
        <ele>549</ele>
        <time>2013-12-11T09:37:25Z</time>
      </trkpt>
      <trkpt lat="43.24631" lon="5.96586">
        <ele>546.7</ele>
        <time>2013-12-11T09:37:30Z</time>
      </trkpt>
      <trkpt lat="43.24632" lon="5.9658">
        <ele>540.2</ele>
        <time>2013-12-11T09:37:38Z</time>
      </trkpt>
      <trkpt lat="43.24631" lon="5.96575">
        <ele>534</ele>
        <time>2013-12-11T09:37:46Z</time>
      </trkpt>
      <trkpt lat="43.2463" lon="5.96569">
        <ele>531.5</ele>
        <time>2013-12-11T09:37:51Z</time>
      </trkpt>
      <trkpt lat="43.24629" lon="5.96566">
        <ele>532.5</ele>
        <time>2013-12-11T09:37:53Z</time>
      </trkpt>
      <trkpt lat="43.24627" lon="5.9656">
        <ele>533.2</ele>
        <time>2013-12-11T09:37:56Z</time>
      </trkpt>
      <trkpt lat="43.24626" lon="5.96555">
        <ele>533.9</ele>
        <time>2013-12-11T09:37:59Z</time>
      </trkpt>
      <trkpt lat="43.24624" lon="5.9655">
        <ele>534</ele>
        <time>2013-12-11T09:38:02Z</time>
      </trkpt>
      <trkpt lat="43.24623" lon="5.96546">
        <ele>534.2</ele>
        <time>2013-12-11T09:38:05Z</time>
      </trkpt>
      <trkpt lat="43.24622" lon="5.96544">
        <ele>534.7</ele>
        <time>2013-12-11T09:38:06Z</time>
      </trkpt>
      <trkpt lat="43.2462" lon="5.96535">
        <ele>533.2</ele>
        <time>2013-12-11T09:38:12Z</time>
      </trkpt>
      <trkpt lat="43.24618" lon="5.9653">
        <ele>533.2</ele>
        <time>2013-12-11T09:38:16Z</time>
      </trkpt>
      <trkpt lat="43.24617" lon="5.96525">
        <ele>533</ele>
        <time>2013-12-11T09:38:19Z</time>
      </trkpt>
      <trkpt lat="43.24616" lon="5.9652">
        <ele>535</ele>
        <time>2013-12-11T09:38:21Z</time>
      </trkpt>
      <trkpt lat="43.24615" lon="5.96515">
        <ele>536.9</ele>
        <time>2013-12-11T09:38:23Z</time>
      </trkpt>
      <trkpt lat="43.24614" lon="5.9651">
        <ele>536.5</ele>
        <time>2013-12-11T09:38:27Z</time>
      </trkpt>
      <trkpt lat="43.24614" lon="5.96506">
        <ele>537.7</ele>
        <time>2013-12-11T09:38:29Z</time>
      </trkpt>
      <trkpt lat="43.24613" lon="5.965">
        <ele>539.2</ele>
        <time>2013-12-11T09:38:32Z</time>
      </trkpt>
      <trkpt lat="43.24613" lon="5.96495">
        <ele>540.5</ele>
        <time>2013-12-11T09:38:35Z</time>
      </trkpt>
      <trkpt lat="43.24612" lon="5.9649">
        <ele>540.5</ele>
        <time>2013-12-11T09:38:38Z</time>
      </trkpt>
      <trkpt lat="43.24612" lon="5.96484">
        <ele>540.2</ele>
        <time>2013-12-11T09:38:42Z</time>
      </trkpt>
      <trkpt lat="43.24611" lon="5.96479">
        <ele>539.5</ele>
        <time>2013-12-11T09:38:46Z</time>
      </trkpt>
      <trkpt lat="43.24611" lon="5.96474">
        <ele>538</ele>
        <time>2013-12-11T09:38:50Z</time>
      </trkpt>
      <trkpt lat="43.24611" lon="5.96468">
        <ele>535.9</ele>
        <time>2013-12-11T09:38:55Z</time>
      </trkpt>
      <trkpt lat="43.2461" lon="5.96463">
        <ele>536.7</ele>
        <time>2013-12-11T09:38:58Z</time>
      </trkpt>
      <trkpt lat="43.2461" lon="5.96457">
        <ele>533</ele>
        <time>2013-12-11T09:39:04Z</time>
      </trkpt>
      <trkpt lat="43.2461" lon="5.96453">
        <ele>532.5</ele>
        <time>2013-12-11T09:39:07Z</time>
      </trkpt>
      <trkpt lat="43.24609" lon="5.96451">
        <ele>532.5</ele>
        <time>2013-12-11T09:39:08Z</time>
      </trkpt>
      <trkpt lat="43.24608" lon="5.96442">
        <ele>529.2</ele>
        <time>2013-12-11T09:39:16Z</time>
      </trkpt>
      <trkpt lat="43.24607" lon="5.96437">
        <ele>529.4</ele>
        <time>2013-12-11T09:39:19Z</time>
      </trkpt>
      <trkpt lat="43.24606" lon="5.96432">
        <ele>530.2</ele>
        <time>2013-12-11T09:39:22Z</time>
      </trkpt>
      <trkpt lat="43.24605" lon="5.96428">
        <ele>530.2</ele>
        <time>2013-12-11T09:39:25Z</time>
      </trkpt>
      <trkpt lat="43.24603" lon="5.96422">
        <ele>529.4</ele>
        <time>2013-12-11T09:39:29Z</time>
      </trkpt>
      <trkpt lat="43.24604" lon="5.96416">
        <ele>521</ele>
        <time>2013-12-11T09:39:38Z</time>
      </trkpt>
      <trkpt lat="43.24605" lon="5.9641">
        <ele>516.2</ele>
        <time>2013-12-11T09:39:45Z</time>
      </trkpt>
      <trkpt lat="43.24605" lon="5.96405">
        <ele>512.2</ele>
        <time>2013-12-11T09:39:51Z</time>
      </trkpt>
      <trkpt lat="43.24605" lon="5.96399">
        <ele>507.2</ele>
        <time>2013-12-11T09:39:58Z</time>
      </trkpt>
      <trkpt lat="43.24605" lon="5.96395">
        <ele>505.8</ele>
        <time>2013-12-11T09:40:02Z</time>
      </trkpt>
      <trkpt lat="43.24603" lon="5.96389">
        <ele>508.1</ele>
        <time>2013-12-11T09:40:04Z</time>
      </trkpt>
      <trkpt lat="43.24602" lon="5.96384">
        <ele>509.5</ele>
        <time>2013-12-11T09:40:06Z</time>
      </trkpt>
      <trkpt lat="43.24601" lon="5.9638">
        <ele>511.2</ele>
        <time>2013-12-11T09:40:08Z</time>
      </trkpt>
      <trkpt lat="43.246" lon="5.96374">
        <ele>510.2</ele>
        <time>2013-12-11T09:40:13Z</time>
      </trkpt>
      <trkpt lat="43.246" lon="5.96373">
        <ele>509.7</ele>
        <time>2013-12-11T09:40:14Z</time>
      </trkpt>
      <trkpt lat="43.246" lon="5.96363">
        <ele>504.6</ele>
        <time>2013-12-11T09:40:24Z</time>
      </trkpt>
      <trkpt lat="43.246" lon="5.96357">
        <ele>503</ele>
        <time>2013-12-11T09:40:28Z</time>
      </trkpt>
      <trkpt lat="43.24598" lon="5.96353">
        <ele>503.1</ele>
        <time>2013-12-11T09:40:30Z</time>
      </trkpt>
      <trkpt lat="43.24597" lon="5.96349">
        <ele>503.7</ele>
        <time>2013-12-11T09:40:32Z</time>
      </trkpt>
      <trkpt lat="43.24595" lon="5.96345">
        <ele>504.6</ele>
        <time>2013-12-11T09:40:34Z</time>
      </trkpt>
      <trkpt lat="43.24594" lon="5.96341">
        <ele>505.5</ele>
        <time>2013-12-11T09:40:36Z</time>
      </trkpt>
      <trkpt lat="43.24593" lon="5.96338">
        <ele>507</ele>
        <time>2013-12-11T09:40:37Z</time>
      </trkpt>
      <trkpt lat="43.24591" lon="5.96335">
        <ele>508.7</ele>
        <time>2013-12-11T09:40:38Z</time>
      </trkpt>
      <trkpt lat="43.2459" lon="5.96331">
        <ele>511.1</ele>
        <time>2013-12-11T09:40:39Z</time>
      </trkpt>
      <trkpt lat="43.24588" lon="5.96328">
        <ele>513</ele>
        <time>2013-12-11T09:40:40Z</time>
      </trkpt>
      <trkpt lat="43.24587" lon="5.96324">
        <ele>515.2</ele>
        <time>2013-12-11T09:40:41Z</time>
      </trkpt>
      <trkpt lat="43.24585" lon="5.96321">
        <ele>517.5</ele>
        <time>2013-12-11T09:40:42Z</time>
      </trkpt>
      <trkpt lat="43.24583" lon="5.96316">
        <ele>519.9</ele>
        <time>2013-12-11T09:40:44Z</time>
      </trkpt>
      <trkpt lat="43.24581" lon="5.96311">
        <ele>519.9</ele>
        <time>2013-12-11T09:40:48Z</time>
      </trkpt>
      <trkpt lat="43.24579" lon="5.96307">
        <ele>519.5</ele>
        <time>2013-12-11T09:40:52Z</time>
      </trkpt>
      <trkpt lat="43.24577" lon="5.96301">
        <ele>519.7</ele>
        <time>2013-12-11T09:40:56Z</time>
      </trkpt>
      <trkpt lat="43.24576" lon="5.96296">
        <ele>517.7</ele>
        <time>2013-12-11T09:41:01Z</time>
      </trkpt>
      <trkpt lat="43.24574" lon="5.96291">
        <ele>516.7</ele>
        <time>2013-12-11T09:41:06Z</time>
      </trkpt>
      <trkpt lat="43.24573" lon="5.96287">
        <ele>517.5</ele>
        <time>2013-12-11T09:41:09Z</time>
      </trkpt>
      <trkpt lat="43.24572" lon="5.96283">
        <ele>518.2</ele>
        <time>2013-12-11T09:41:11Z</time>
      </trkpt>
      <trkpt lat="43.2457" lon="5.96279">
        <ele>520.7</ele>
        <time>2013-12-11T09:41:13Z</time>
      </trkpt>
      <trkpt lat="43.24568" lon="5.96273">
        <ele>521.7</ele>
        <time>2013-12-11T09:41:16Z</time>
      </trkpt>
      <trkpt lat="43.24568" lon="5.96272">
        <ele>521.9</ele>
        <time>2013-12-11T09:41:17Z</time>
      </trkpt>
      <trkpt lat="43.24566" lon="5.96263">
        <ele>524.2</ele>
        <time>2013-12-11T09:41:21Z</time>
      </trkpt>
      <trkpt lat="43.24564" lon="5.96258">
        <ele>526.4</ele>
        <time>2013-12-11T09:41:23Z</time>
      </trkpt>
      <trkpt lat="43.24563" lon="5.96254">
        <ele>528.4</ele>
        <time>2013-12-11T09:41:25Z</time>
      </trkpt>
      <trkpt lat="43.24562" lon="5.9625">
        <ele>529.9</ele>
        <time>2013-12-11T09:41:27Z</time>
      </trkpt>
      <trkpt lat="43.2456" lon="5.96245">
        <ele>530.5</ele>
        <time>2013-12-11T09:41:30Z</time>
      </trkpt>
      <trkpt lat="43.24558" lon="5.9624">
        <ele>530</ele>
        <time>2013-12-11T09:41:34Z</time>
      </trkpt>
      <trkpt lat="43.24557" lon="5.96235">
        <ele>529.5</ele>
        <time>2013-12-11T09:41:38Z</time>
      </trkpt>
      <trkpt lat="43.24555" lon="5.9623">
        <ele>528.5</ele>
        <time>2013-12-11T09:41:42Z</time>
      </trkpt>
      <trkpt lat="43.24554" lon="5.96224">
        <ele>526.7</ele>
        <time>2013-12-11T09:41:47Z</time>
      </trkpt>
      <trkpt lat="43.24555" lon="5.9622">
        <ele>524.2</ele>
        <time>2013-12-11T09:41:52Z</time>
      </trkpt>
      <trkpt lat="43.24555" lon="5.96214">
        <ele>524.2</ele>
        <time>2013-12-11T09:41:55Z</time>
      </trkpt>
      <trkpt lat="43.24555" lon="5.96209">
        <ele>524.5</ele>
        <time>2013-12-11T09:41:58Z</time>
      </trkpt>
      <trkpt lat="43.24556" lon="5.96203">
        <ele>522.5</ele>
        <time>2013-12-11T09:42:03Z</time>
      </trkpt>
      <trkpt lat="43.24555" lon="5.96197">
        <ele>521</ele>
        <time>2013-12-11T09:42:08Z</time>
      </trkpt>
      <trkpt lat="43.24555" lon="5.96191">
        <ele>517.7</ele>
        <time>2013-12-11T09:42:14Z</time>
      </trkpt>
      <trkpt lat="43.24554" lon="5.96186">
        <ele>516.5</ele>
        <time>2013-12-11T09:42:19Z</time>
      </trkpt>
      <trkpt lat="43.24554" lon="5.96185">
        <ele>515.7</ele>
        <time>2013-12-11T09:42:20Z</time>
      </trkpt>
      <trkpt lat="43.24553" lon="5.96174">
        <ele>508.1</ele>
        <time>2013-12-11T09:42:32Z</time>
      </trkpt>
      <trkpt lat="43.24552" lon="5.96169">
        <ele>506.7</ele>
        <time>2013-12-11T09:42:36Z</time>
      </trkpt>
      <trkpt lat="43.24552" lon="5.96163">
        <ele>505.7</ele>
        <time>2013-12-11T09:42:40Z</time>
      </trkpt>
      <trkpt lat="43.24551" lon="5.96157">
        <ele>503.7</ele>
        <time>2013-12-11T09:42:45Z</time>
      </trkpt>
      <trkpt lat="43.2455" lon="5.96153">
        <ele>501.6</ele>
        <time>2013-12-11T09:42:49Z</time>
      </trkpt>
      <trkpt lat="43.24547" lon="5.96149">
        <ele>502.6</ele>
        <time>2013-12-11T09:42:52Z</time>
      </trkpt>
      <trkpt lat="43.24545" lon="5.96144">
        <ele>501.3</ele>
        <time>2013-12-11T09:42:57Z</time>
      </trkpt>
      <trkpt lat="43.24543" lon="5.9614">
        <ele>501.2</ele>
        <time>2013-12-11T09:43:01Z</time>
      </trkpt>
      <trkpt lat="43.24541" lon="5.96136">
        <ele>500.5</ele>
        <time>2013-12-11T09:43:05Z</time>
      </trkpt>
      <trkpt lat="43.24539" lon="5.96131">
        <ele>500.2</ele>
        <time>2013-12-11T09:43:09Z</time>
      </trkpt>
      <trkpt lat="43.24538" lon="5.96126">
        <ele>499.5</ele>
        <time>2013-12-11T09:43:13Z</time>
      </trkpt>
      <trkpt lat="43.24536" lon="5.96122">
        <ele>499.5</ele>
        <time>2013-12-11T09:43:16Z</time>
      </trkpt>
      <trkpt lat="43.24535" lon="5.96118">
        <ele>500.2</ele>
        <time>2013-12-11T09:43:18Z</time>
      </trkpt>
      <trkpt lat="43.24533" lon="5.96113">
        <ele>503.2</ele>
        <time>2013-12-11T09:43:20Z</time>
      </trkpt>
      <trkpt lat="43.24532" lon="5.96111">
        <ele>504.6</ele>
        <time>2013-12-11T09:43:21Z</time>
      </trkpt>
      <trkpt lat="43.24528" lon="5.96106">
        <ele>505.3</ele>
        <time>2013-12-11T09:43:26Z</time>
      </trkpt>
      <trkpt lat="43.24525" lon="5.96102">
        <ele>504.7</ele>
        <time>2013-12-11T09:43:31Z</time>
      </trkpt>
      <trkpt lat="43.24522" lon="5.96099">
        <ele>507</ele>
        <time>2013-12-11T09:43:33Z</time>
      </trkpt>
      <trkpt lat="43.2452" lon="5.96097">
        <ele>507.2</ele>
        <time>2013-12-11T09:43:35Z</time>
      </trkpt>
      <trkpt lat="43.24516" lon="5.96091">
        <ele>516.2</ele>
        <time>2013-12-11T09:43:36Z</time>
      </trkpt>
      <trkpt lat="43.24512" lon="5.96088">
        <ele>517.9</ele>
        <time>2013-12-11T09:43:39Z</time>
      </trkpt>
      <trkpt lat="43.24508" lon="5.96086">
        <ele>518</ele>
        <time>2013-12-11T09:43:43Z</time>
      </trkpt>
      <trkpt lat="43.24504" lon="5.96085">
        <ele>518</ele>
        <time>2013-12-11T09:43:46Z</time>
      </trkpt>
      <trkpt lat="43.245" lon="5.96082">
        <ele>519.7</ele>
        <time>2013-12-11T09:43:49Z</time>
      </trkpt>
      <trkpt lat="43.24497" lon="5.9608">
        <ele>521.7</ele>
        <time>2013-12-11T09:43:51Z</time>
      </trkpt>
      <trkpt lat="43.24494" lon="5.96079">
        <ele>522.2</ele>
        <time>2013-12-11T09:43:54Z</time>
      </trkpt>
      <trkpt lat="43.24489" lon="5.96078">
        <ele>522.2</ele>
        <time>2013-12-11T09:43:58Z</time>
      </trkpt>
      <trkpt lat="43.24485" lon="5.96077">
        <ele>522.9</ele>
        <time>2013-12-11T09:44:03Z</time>
      </trkpt>
      <trkpt lat="43.24482" lon="5.96075">
        <ele>527</ele>
        <time>2013-12-11T09:44:09Z</time>
      </trkpt>
      <trkpt lat="43.2448" lon="5.96069">
        <ele>530.7</ele>
        <time>2013-12-11T09:44:20Z</time>
      </trkpt>
      <trkpt lat="43.24477" lon="5.96067">
        <ele>528.9</ele>
        <time>2013-12-11T09:44:27Z</time>
      </trkpt>
      <trkpt lat="43.24476" lon="5.96067">
        <ele>528.7</ele>
        <time>2013-12-11T09:44:28Z</time>
      </trkpt>
      <trkpt lat="43.24469" lon="5.96066">
        <ele>526.5</ele>
        <time>2013-12-11T09:44:34Z</time>
      </trkpt>
      <trkpt lat="43.24466" lon="5.96062">
        <ele>521.9</ele>
        <time>2013-12-11T09:44:41Z</time>
      </trkpt>
      <trkpt lat="43.24463" lon="5.96057">
        <ele>520.7</ele>
        <time>2013-12-11T09:44:47Z</time>
      </trkpt>
      <trkpt lat="43.2446" lon="5.96053">
        <ele>516.4</ele>
        <time>2013-12-11T09:44:55Z</time>
      </trkpt>
      <trkpt lat="43.24458" lon="5.96049">
        <ele>518.7</ele>
        <time>2013-12-11T09:44:58Z</time>
      </trkpt>
      <trkpt lat="43.24456" lon="5.96044">
        <ele>518.2</ele>
        <time>2013-12-11T09:45:03Z</time>
      </trkpt>
      <trkpt lat="43.24454" lon="5.96039">
        <ele>518.5</ele>
        <time>2013-12-11T09:45:08Z</time>
      </trkpt>
      <trkpt lat="43.24453" lon="5.96037">
        <ele>515.7</ele>
        <time>2013-12-11T09:45:13Z</time>
      </trkpt>
      <trkpt lat="43.24449" lon="5.96032">
        <ele>521.5</ele>
        <time>2013-12-11T09:45:14Z</time>
      </trkpt>
      <trkpt lat="43.24446" lon="5.96028">
        <ele>526.7</ele>
        <time>2013-12-11T09:45:15Z</time>
      </trkpt>
      <trkpt lat="43.24445" lon="5.96022">
        <ele>522.9</ele>
        <time>2013-12-11T09:45:22Z</time>
      </trkpt>
      <trkpt lat="43.24442" lon="5.96019">
        <ele>518.5</ele>
        <time>2013-12-11T09:45:29Z</time>
      </trkpt>
      <trkpt lat="43.24442" lon="5.96018">
        <ele>518</ele>
        <time>2013-12-11T09:45:30Z</time>
      </trkpt>
      <trkpt lat="43.24436" lon="5.96013">
        <ele>515.2</ele>
        <time>2013-12-11T09:45:38Z</time>
      </trkpt>
      <trkpt lat="43.24435" lon="5.96011">
        <ele>518</ele>
        <time>2013-12-11T09:45:39Z</time>
      </trkpt>
      <trkpt lat="43.24433" lon="5.96009">
        <ele>521.2</ele>
        <time>2013-12-11T09:45:40Z</time>
      </trkpt>
      <trkpt lat="43.2443" lon="5.96005">
        <ele>522.5</ele>
        <time>2013-12-11T09:45:44Z</time>
      </trkpt>
      <trkpt lat="43.24427" lon="5.96">
        <ele>516.7</ele>
        <time>2013-12-11T09:45:51Z</time>
      </trkpt>
      <trkpt lat="43.24426" lon="5.95994">
        <ele>512.2</ele>
        <time>2013-12-11T09:45:58Z</time>
      </trkpt>
      <trkpt lat="43.24424" lon="5.95992">
        <ele>510.2</ele>
        <time>2013-12-11T09:46:04Z</time>
      </trkpt>
      <trkpt lat="43.24421" lon="5.95988">
        <ele>515.9</ele>
        <time>2013-12-11T09:46:06Z</time>
      </trkpt>
      <trkpt lat="43.2442" lon="5.95985">
        <ele>518.2</ele>
        <time>2013-12-11T09:46:12Z</time>
      </trkpt>
      <trkpt lat="43.24418" lon="5.95981">
        <ele>523.2</ele>
        <time>2013-12-11T09:46:13Z</time>
      </trkpt>
      <trkpt lat="43.24415" lon="5.95977">
        <ele>529.7</ele>
        <time>2013-12-11T09:46:15Z</time>
      </trkpt>
      <trkpt lat="43.24412" lon="5.95973">
        <ele>536.9</ele>
        <time>2013-12-11T09:46:19Z</time>
      </trkpt>
      <trkpt lat="43.24412" lon="5.95967">
        <ele>551</ele>
        <time>2013-12-11T09:46:38Z</time>
      </trkpt>
      <trkpt lat="43.24412" lon="5.95967">
        <ele>551.7</ele>
        <time>2013-12-11T09:46:39Z</time>
      </trkpt>
      <trkpt lat="43.24404" lon="5.95962">
        <ele>556</ele>
        <time>2013-12-11T09:47:33Z</time>
      </trkpt>
      <trkpt lat="43.244" lon="5.9596">
        <ele>557.2</ele>
        <time>2013-12-11T09:48:23Z</time>
      </trkpt>
      <trkpt lat="43.24399" lon="5.9596">
        <ele>556.7</ele>
        <time>2013-12-11T09:48:24Z</time>
      </trkpt>
      <trkpt lat="43.24401" lon="5.95959">
        <ele>559.7</ele>
        <time>2013-12-11T09:48:47Z</time>
      </trkpt>
      <trkpt lat="43.24404" lon="5.95964">
        <ele>555.5</ele>
        <time>2013-12-11T09:49:31Z</time>
      </trkpt>
      <trkpt lat="43.24404" lon="5.95964">
        <ele>555.5</ele>
        <time>2013-12-11T09:49:32Z</time>
      </trkpt>
      <trkpt lat="43.24403" lon="5.95956">
        <ele>559</ele>
        <time>2013-12-11T09:51:20Z</time>
      </trkpt>
      <trkpt lat="43.24403" lon="5.95954">
        <ele>559</ele>
        <time>2013-12-11T09:51:21Z</time>
      </trkpt>
      <trkpt lat="43.24405" lon="5.95946">
        <ele>553.5</ele>
        <time>2013-12-11T09:51:28Z</time>
      </trkpt>
      <trkpt lat="43.24407" lon="5.95941">
        <ele>551.4</ele>
        <time>2013-12-11T09:51:32Z</time>
      </trkpt>
      <trkpt lat="43.24408" lon="5.95936">
        <ele>547.9</ele>
        <time>2013-12-11T09:51:37Z</time>
      </trkpt>
      <trkpt lat="43.24412" lon="5.95933">
        <ele>546.5</ele>
        <time>2013-12-11T09:51:40Z</time>
      </trkpt>
      <trkpt lat="43.24414" lon="5.95928">
        <ele>545.9</ele>
        <time>2013-12-11T09:51:44Z</time>
      </trkpt>
      <trkpt lat="43.24415" lon="5.95924">
        <ele>545.9</ele>
        <time>2013-12-11T09:51:47Z</time>
      </trkpt>
      <trkpt lat="43.24418" lon="5.95919">
        <ele>542.7</ele>
        <time>2013-12-11T09:51:51Z</time>
      </trkpt>
      <trkpt lat="43.24419" lon="5.95915">
        <ele>541.2</ele>
        <time>2013-12-11T09:51:54Z</time>
      </trkpt>
      <trkpt lat="43.24419" lon="5.9591">
        <ele>540</ele>
        <time>2013-12-11T09:51:57Z</time>
      </trkpt>
      <trkpt lat="43.24418" lon="5.95905">
        <ele>540.9</ele>
        <time>2013-12-11T09:52:00Z</time>
      </trkpt>
      <trkpt lat="43.2442" lon="5.959">
        <ele>540.5</ele>
        <time>2013-12-11T09:52:03Z</time>
      </trkpt>
      <trkpt lat="43.2442" lon="5.95895">
        <ele>540.5</ele>
        <time>2013-12-11T09:52:06Z</time>
      </trkpt>
      <trkpt lat="43.2442" lon="5.9589">
        <ele>541.2</ele>
        <time>2013-12-11T09:52:09Z</time>
      </trkpt>
      <trkpt lat="43.2442" lon="5.95884">
        <ele>541</ele>
        <time>2013-12-11T09:52:13Z</time>
      </trkpt>
      <trkpt lat="43.2442" lon="5.95879">
        <ele>540.2</ele>
        <time>2013-12-11T09:52:17Z</time>
      </trkpt>
      <trkpt lat="43.24421" lon="5.95873">
        <ele>543.2</ele>
        <time>2013-12-11T09:52:21Z</time>
      </trkpt>
      <trkpt lat="43.24421" lon="5.95872">
        <ele>543.4</ele>
        <time>2013-12-11T09:52:22Z</time>
      </trkpt>
      <trkpt lat="43.24423" lon="5.95862">
        <ele>543.2</ele>
        <time>2013-12-11T09:52:29Z</time>
      </trkpt>
      <trkpt lat="43.24425" lon="5.95857">
        <ele>541.9</ele>
        <time>2013-12-11T09:52:32Z</time>
      </trkpt>
      <trkpt lat="43.24428" lon="5.95854">
        <ele>537.7</ele>
        <time>2013-12-11T09:52:35Z</time>
      </trkpt>
      <trkpt lat="43.2443" lon="5.9585">
        <ele>534.2</ele>
        <time>2013-12-11T09:52:38Z</time>
      </trkpt>
      <trkpt lat="43.24433" lon="5.95846">
        <ele>529.7</ele>
        <time>2013-12-11T09:52:42Z</time>
      </trkpt>
      <trkpt lat="43.24436" lon="5.95842">
        <ele>523</ele>
        <time>2013-12-11T09:52:47Z</time>
      </trkpt>
      <trkpt lat="43.2444" lon="5.95839">
        <ele>517.5</ele>
        <time>2013-12-11T09:52:51Z</time>
      </trkpt>
      <trkpt lat="43.24442" lon="5.95835">
        <ele>514.4</ele>
        <time>2013-12-11T09:52:54Z</time>
      </trkpt>
      <trkpt lat="43.24445" lon="5.95833">
        <ele>512</ele>
        <time>2013-12-11T09:52:57Z</time>
      </trkpt>
      <trkpt lat="43.24447" lon="5.95829">
        <ele>511.1</ele>
        <time>2013-12-11T09:53:00Z</time>
      </trkpt>
      <trkpt lat="43.2445" lon="5.95826">
        <ele>508.3</ele>
        <time>2013-12-11T09:53:04Z</time>
      </trkpt>
      <trkpt lat="43.24452" lon="5.95821">
        <ele>507.8</ele>
        <time>2013-12-11T09:53:07Z</time>
      </trkpt>
      <trkpt lat="43.24454" lon="5.95817">
        <ele>507.7</ele>
        <time>2013-12-11T09:53:11Z</time>
      </trkpt>
      <trkpt lat="43.24456" lon="5.95813">
        <ele>505.7</ele>
        <time>2013-12-11T09:53:14Z</time>
      </trkpt>
      <trkpt lat="43.24459" lon="5.95809">
        <ele>504.5</ele>
        <time>2013-12-11T09:53:18Z</time>
      </trkpt>
      <trkpt lat="43.24461" lon="5.95804">
        <ele>501.5</ele>
        <time>2013-12-11T09:53:22Z</time>
      </trkpt>
      <trkpt lat="43.24462" lon="5.95799">
        <ele>501</ele>
        <time>2013-12-11T09:53:25Z</time>
      </trkpt>
      <trkpt lat="43.24462" lon="5.95798">
        <ele>500.6</ele>
        <time>2013-12-11T09:53:26Z</time>
      </trkpt>
      <trkpt lat="43.24465" lon="5.95789">
        <ele>499.7</ele>
        <time>2013-12-11T09:53:33Z</time>
      </trkpt>
      <trkpt lat="43.24467" lon="5.95786">
        <ele>499.6</ele>
        <time>2013-12-11T09:53:36Z</time>
      </trkpt>
      <trkpt lat="43.24469" lon="5.95781">
        <ele>498.3</ele>
        <time>2013-12-11T09:53:40Z</time>
      </trkpt>
      <trkpt lat="43.2447" lon="5.95775">
        <ele>498.3</ele>
        <time>2013-12-11T09:53:43Z</time>
      </trkpt>
      <trkpt lat="43.24472" lon="5.9577">
        <ele>495.2</ele>
        <time>2013-12-11T09:53:47Z</time>
      </trkpt>
      <trkpt lat="43.24474" lon="5.95765">
        <ele>492.1</ele>
        <time>2013-12-11T09:53:51Z</time>
      </trkpt>
      <trkpt lat="43.24476" lon="5.9576">
        <ele>489.2</ele>
        <time>2013-12-11T09:53:56Z</time>
      </trkpt>
      <trkpt lat="43.24478" lon="5.95755">
        <ele>488.7</ele>
        <time>2013-12-11T09:53:59Z</time>
      </trkpt>
      <trkpt lat="43.2448" lon="5.9575">
        <ele>486.7</ele>
        <time>2013-12-11T09:54:03Z</time>
      </trkpt>
      <trkpt lat="43.24482" lon="5.95747">
        <ele>484.7</ele>
        <time>2013-12-11T09:54:07Z</time>
      </trkpt>
      <trkpt lat="43.24485" lon="5.95742">
        <ele>483.2</ele>
        <time>2013-12-11T09:54:11Z</time>
      </trkpt>
      <trkpt lat="43.24486" lon="5.95736">
        <ele>480.2</ele>
        <time>2013-12-11T09:54:16Z</time>
      </trkpt>
      <trkpt lat="43.24488" lon="5.95732">
        <ele>477</ele>
        <time>2013-12-11T09:54:20Z</time>
      </trkpt>
      <trkpt lat="43.24489" lon="5.95726">
        <ele>475.7</ele>
        <time>2013-12-11T09:54:24Z</time>
      </trkpt>
      <trkpt lat="43.24489" lon="5.95723">
        <ele>475.8</ele>
        <time>2013-12-11T09:54:26Z</time>
      </trkpt>
      <trkpt lat="43.24488" lon="5.95719">
        <ele>479.2</ele>
        <time>2013-12-11T09:54:27Z</time>
      </trkpt>
      <trkpt lat="43.24488" lon="5.95712">
        <ele>482.6</ele>
        <time>2013-12-11T09:54:30Z</time>
      </trkpt>
      <trkpt lat="43.24489" lon="5.95706">
        <ele>482.2</ele>
        <time>2013-12-11T09:54:33Z</time>
      </trkpt>
      <trkpt lat="43.2449" lon="5.95701">
        <ele>477.8</ele>
        <time>2013-12-11T09:54:38Z</time>
      </trkpt>
      <trkpt lat="43.24492" lon="5.95696">
        <ele>474.6</ele>
        <time>2013-12-11T09:54:43Z</time>
      </trkpt>
      <trkpt lat="43.24494" lon="5.95692">
        <ele>470.6</ele>
        <time>2013-12-11T09:54:48Z</time>
      </trkpt>
      <trkpt lat="43.24498" lon="5.95688">
        <ele>466</ele>
        <time>2013-12-11T09:54:53Z</time>
      </trkpt>
      <trkpt lat="43.245" lon="5.95683">
        <ele>463</ele>
        <time>2013-12-11T09:54:57Z</time>
      </trkpt>
      <trkpt lat="43.24501" lon="5.95678">
        <ele>461</ele>
        <time>2013-12-11T09:55:01Z</time>
      </trkpt>
      <trkpt lat="43.24503" lon="5.95672">
        <ele>457.8</ele>
        <time>2013-12-11T09:55:07Z</time>
      </trkpt>
      <trkpt lat="43.24503" lon="5.95667">
        <ele>458.1</ele>
        <time>2013-12-11T09:55:11Z</time>
      </trkpt>
      <trkpt lat="43.24503" lon="5.95662">
        <ele>457.1</ele>
        <time>2013-12-11T09:55:15Z</time>
      </trkpt>
      <trkpt lat="43.24505" lon="5.95656">
        <ele>450.8</ele>
        <time>2013-12-11T09:55:21Z</time>
      </trkpt>
      <trkpt lat="43.24508" lon="5.95654">
        <ele>445.8</ele>
        <time>2013-12-11T09:55:25Z</time>
      </trkpt>
      <trkpt lat="43.24511" lon="5.9565">
        <ele>440.7</ele>
        <time>2013-12-11T09:55:30Z</time>
      </trkpt>
      <trkpt lat="43.24512" lon="5.95649">
        <ele>439.2</ele>
        <time>2013-12-11T09:55:31Z</time>
      </trkpt>
      <trkpt lat="43.24517" lon="5.95642">
        <ele>428.6</ele>
        <time>2013-12-11T09:55:40Z</time>
      </trkpt>
      <trkpt lat="43.2452" lon="5.95639">
        <ele>424.5</ele>
        <time>2013-12-11T09:55:44Z</time>
      </trkpt>
      <trkpt lat="43.24523" lon="5.95634">
        <ele>420.1</ele>
        <time>2013-12-11T09:55:49Z</time>
      </trkpt>
      <trkpt lat="43.24525" lon="5.95629">
        <ele>416.6</ele>
        <time>2013-12-11T09:55:54Z</time>
      </trkpt>
      <trkpt lat="43.24527" lon="5.95624">
        <ele>413.1</ele>
        <time>2013-12-11T09:55:59Z</time>
      </trkpt>
      <trkpt lat="43.2453" lon="5.9562">
        <ele>409.1</ele>
        <time>2013-12-11T09:56:04Z</time>
      </trkpt>
      <trkpt lat="43.24532" lon="5.95615">
        <ele>406.2</ele>
        <time>2013-12-11T09:56:08Z</time>
      </trkpt>
      <trkpt lat="43.24533" lon="5.9561">
        <ele>404.1</ele>
        <time>2013-12-11T09:56:12Z</time>
      </trkpt>
      <trkpt lat="43.24533" lon="5.95604">
        <ele>405.7</ele>
        <time>2013-12-11T09:56:15Z</time>
      </trkpt>
      <trkpt lat="43.24534" lon="5.95601">
        <ele>405.2</ele>
        <time>2013-12-11T09:56:17Z</time>
      </trkpt>
      <trkpt lat="43.24532" lon="5.95595">
        <ele>410.6</ele>
        <time>2013-12-11T09:56:18Z</time>
      </trkpt>
      <trkpt lat="43.24532" lon="5.95594">
        <ele>410.5</ele>
        <time>2013-12-11T09:56:19Z</time>
      </trkpt>
      <trkpt lat="43.24531" lon="5.95589">
        <ele>415.7</ele>
        <time>2013-12-11T09:56:20Z</time>
      </trkpt>
      <trkpt lat="43.24531" lon="5.95584">
        <ele>415.2</ele>
        <time>2013-12-11T09:56:23Z</time>
      </trkpt>
      <trkpt lat="43.2453" lon="5.95579">
        <ele>420.3</ele>
        <time>2013-12-11T09:56:24Z</time>
      </trkpt>
      <trkpt lat="43.2453" lon="5.95578">
        <ele>420.2</ele>
        <time>2013-12-11T09:56:25Z</time>
      </trkpt>
      <trkpt lat="43.24528" lon="5.95573">
        <ele>425.7</ele>
        <time>2013-12-11T09:56:26Z</time>
      </trkpt>
      <trkpt lat="43.24531" lon="5.95569">
        <ele>424</ele>
        <time>2013-12-11T09:56:29Z</time>
      </trkpt>
      <trkpt lat="43.24533" lon="5.95564">
        <ele>422.1</ele>
        <time>2013-12-11T09:56:33Z</time>
      </trkpt>
      <trkpt lat="43.24534" lon="5.95563">
        <ele>421.3</ele>
        <time>2013-12-11T09:56:34Z</time>
      </trkpt>
      <trkpt lat="43.24532" lon="5.95556">
        <ele>426.6</ele>
        <time>2013-12-11T09:56:36Z</time>
      </trkpt>
      <trkpt lat="43.24535" lon="5.95551">
        <ele>424.7</ele>
        <time>2013-12-11T09:56:40Z</time>
      </trkpt>
      <trkpt lat="43.24537" lon="5.95546">
        <ele>422.3</ele>
        <time>2013-12-11T09:56:44Z</time>
      </trkpt>
      <trkpt lat="43.24538" lon="5.95544">
        <ele>421.7</ele>
        <time>2013-12-11T09:56:46Z</time>
      </trkpt>
      <trkpt lat="43.24536" lon="5.95539">
        <ele>426.8</ele>
        <time>2013-12-11T09:56:47Z</time>
      </trkpt>
      <trkpt lat="43.24538" lon="5.95535">
        <ele>424</ele>
        <time>2013-12-11T09:56:51Z</time>
      </trkpt>
      <trkpt lat="43.24537" lon="5.95529">
        <ele>428.3</ele>
        <time>2013-12-11T09:56:53Z</time>
      </trkpt>
      <trkpt lat="43.2454" lon="5.95525">
        <ele>427.1</ele>
        <time>2013-12-11T09:56:57Z</time>
      </trkpt>
      <trkpt lat="43.24542" lon="5.95521">
        <ele>425.2</ele>
        <time>2013-12-11T09:57:01Z</time>
      </trkpt>
      <trkpt lat="43.24544" lon="5.95517">
        <ele>422.7</ele>
        <time>2013-12-11T09:57:05Z</time>
      </trkpt>
      <trkpt lat="43.24528" lon="5.95485">
        <ele>464.2</ele>
        <time>2013-12-11T09:57:06Z</time>
      </trkpt>
      <trkpt lat="43.24526" lon="5.95479">
        <ele>470.5</ele>
        <time>2013-12-11T09:57:07Z</time>
      </trkpt>
      <trkpt lat="43.24526" lon="5.95474">
        <ele>472.1</ele>
        <time>2013-12-11T09:57:09Z</time>
      </trkpt>
      <trkpt lat="43.24528" lon="5.9547">
        <ele>471.1</ele>
        <time>2013-12-11T09:57:12Z</time>
      </trkpt>
      <trkpt lat="43.24529" lon="5.95464">
        <ele>473.7</ele>
        <time>2013-12-11T09:57:15Z</time>
      </trkpt>
      <trkpt lat="43.24531" lon="5.95459">
        <ele>472.3</ele>
        <time>2013-12-11T09:57:19Z</time>
      </trkpt>
      <trkpt lat="43.24531" lon="5.95455">
        <ele>472.8</ele>
        <time>2013-12-11T09:57:21Z</time>
      </trkpt>
      <trkpt lat="43.24532" lon="5.95449">
        <ele>473.2</ele>
        <time>2013-12-11T09:57:24Z</time>
      </trkpt>
      <trkpt lat="43.24532" lon="5.95444">
        <ele>473.7</ele>
        <time>2013-12-11T09:57:27Z</time>
      </trkpt>
      <trkpt lat="43.24533" lon="5.9544">
        <ele>473</ele>
        <time>2013-12-11T09:57:30Z</time>
      </trkpt>
      <trkpt lat="43.24533" lon="5.95434">
        <ele>474</ele>
        <time>2013-12-11T09:57:33Z</time>
      </trkpt>
      <trkpt lat="43.24536" lon="5.95429">
        <ele>473.2</ele>
        <time>2013-12-11T09:57:37Z</time>
      </trkpt>
      <trkpt lat="43.24537" lon="5.95429">
        <ele>472.5</ele>
        <time>2013-12-11T09:57:38Z</time>
      </trkpt>
      <trkpt lat="43.24537" lon="5.9542">
        <ele>474.2</ele>
        <time>2013-12-11T09:57:43Z</time>
      </trkpt>
      <trkpt lat="43.24538" lon="5.95415">
        <ele>472.5</ele>
        <time>2013-12-11T09:57:46Z</time>
      </trkpt>
      <trkpt lat="43.2454" lon="5.9541">
        <ele>471.1</ele>
        <time>2013-12-11T09:57:49Z</time>
      </trkpt>
      <trkpt lat="43.24541" lon="5.95405">
        <ele>472.1</ele>
        <time>2013-12-11T09:57:52Z</time>
      </trkpt>
      <trkpt lat="43.24542" lon="5.954">
        <ele>472.2</ele>
        <time>2013-12-11T09:57:55Z</time>
      </trkpt>
      <trkpt lat="43.24544" lon="5.95396">
        <ele>471</ele>
        <time>2013-12-11T09:57:58Z</time>
      </trkpt>
      <trkpt lat="43.24544" lon="5.95392">
        <ele>472.2</ele>
        <time>2013-12-11T09:58:00Z</time>
      </trkpt>
      <trkpt lat="43.24545" lon="5.95388">
        <ele>471.5</ele>
        <time>2013-12-11T09:58:03Z</time>
      </trkpt>
      <trkpt lat="43.24544" lon="5.95382">
        <ele>474.7</ele>
        <time>2013-12-11T09:58:05Z</time>
      </trkpt>
      <trkpt lat="43.24545" lon="5.95377">
        <ele>474.7</ele>
        <time>2013-12-11T09:58:08Z</time>
      </trkpt>
      <trkpt lat="43.24545" lon="5.95371">
        <ele>475.3</ele>
        <time>2013-12-11T09:58:11Z</time>
      </trkpt>
      <trkpt lat="43.24544" lon="5.95366">
        <ele>477.3</ele>
        <time>2013-12-11T09:58:13Z</time>
      </trkpt>
      <trkpt lat="43.24546" lon="5.95361">
        <ele>476.2</ele>
        <time>2013-12-11T09:58:17Z</time>
      </trkpt>
      <trkpt lat="43.2455" lon="5.95358">
        <ele>471.7</ele>
        <time>2013-12-11T09:58:21Z</time>
      </trkpt>
      <trkpt lat="43.24552" lon="5.95354">
        <ele>466.1</ele>
        <time>2013-12-11T09:58:26Z</time>
      </trkpt>
      <trkpt lat="43.24553" lon="5.95348">
        <ele>464</ele>
        <time>2013-12-11T09:58:31Z</time>
      </trkpt>
      <trkpt lat="43.24556" lon="5.95344">
        <ele>459.8</ele>
        <time>2013-12-11T09:58:37Z</time>
      </trkpt>
      <trkpt lat="43.24559" lon="5.9534">
        <ele>453</ele>
        <time>2013-12-11T09:58:42Z</time>
      </trkpt>
      <trkpt lat="43.2456" lon="5.95339">
        <ele>451.2</ele>
        <time>2013-12-11T09:58:43Z</time>
      </trkpt>
      <trkpt lat="43.24563" lon="5.95332">
        <ele>447</ele>
        <time>2013-12-11T09:58:49Z</time>
      </trkpt>
      <trkpt lat="43.24566" lon="5.95328">
        <ele>443.3</ele>
        <time>2013-12-11T09:58:54Z</time>
      </trkpt>
      <trkpt lat="43.24567" lon="5.95323">
        <ele>441.6</ele>
        <time>2013-12-11T09:58:57Z</time>
      </trkpt>
      <trkpt lat="43.24566" lon="5.95318">
        <ele>443.2</ele>
        <time>2013-12-11T09:58:59Z</time>
      </trkpt>
      <trkpt lat="43.24565" lon="5.95313">
        <ele>446.1</ele>
        <time>2013-12-11T09:59:01Z</time>
      </trkpt>
      <trkpt lat="43.24565" lon="5.95307">
        <ele>446.7</ele>
        <time>2013-12-11T09:59:04Z</time>
      </trkpt>
      <trkpt lat="43.24565" lon="5.95302">
        <ele>448.1</ele>
        <time>2013-12-11T09:59:07Z</time>
      </trkpt>
      <trkpt lat="43.24566" lon="5.95296">
        <ele>448.2</ele>
        <time>2013-12-11T09:59:11Z</time>
      </trkpt>
      <trkpt lat="43.24568" lon="5.95291">
        <ele>443.1</ele>
        <time>2013-12-11T09:59:17Z</time>
      </trkpt>
      <trkpt lat="43.24567" lon="5.95286">
        <ele>445.1</ele>
        <time>2013-12-11T09:59:19Z</time>
      </trkpt>
      <trkpt lat="43.24569" lon="5.95281">
        <ele>440.7</ele>
        <time>2013-12-11T09:59:24Z</time>
      </trkpt>
      <trkpt lat="43.24572" lon="5.95276">
        <ele>435</ele>
        <time>2013-12-11T09:59:30Z</time>
      </trkpt>
      <trkpt lat="43.24574" lon="5.95271">
        <ele>430.2</ele>
        <time>2013-12-11T09:59:36Z</time>
      </trkpt>
      <trkpt lat="43.24576" lon="5.95266">
        <ele>426.2</ele>
        <time>2013-12-11T09:59:41Z</time>
      </trkpt>
      <trkpt lat="43.24578" lon="5.95264">
        <ele>425</ele>
        <time>2013-12-11T09:59:43Z</time>
      </trkpt>
      <trkpt lat="43.24576" lon="5.9526">
        <ele>428.8</ele>
        <time>2013-12-11T09:59:44Z</time>
      </trkpt>
      <trkpt lat="43.24578" lon="5.95254">
        <ele>426</ele>
        <time>2013-12-11T09:59:49Z</time>
      </trkpt>
      <trkpt lat="43.24581" lon="5.95249">
        <ele>423.1</ele>
        <time>2013-12-11T09:59:54Z</time>
      </trkpt>
      <trkpt lat="43.24582" lon="5.95244">
        <ele>419.7</ele>
        <time>2013-12-11T09:59:59Z</time>
      </trkpt>
      <trkpt lat="43.24584" lon="5.95239">
        <ele>417.8</ele>
        <time>2013-12-11T10:00:03Z</time>
      </trkpt>
      <trkpt lat="43.24583" lon="5.95233">
        <ele>422.2</ele>
        <time>2013-12-11T10:00:05Z</time>
      </trkpt>
      <trkpt lat="43.24585" lon="5.9523">
        <ele>419.7</ele>
        <time>2013-12-11T10:00:09Z</time>
      </trkpt>
      <trkpt lat="43.24584" lon="5.95225">
        <ele>424.7</ele>
        <time>2013-12-11T10:00:10Z</time>
      </trkpt>
      <trkpt lat="43.24583" lon="5.95221">
        <ele>428.6</ele>
        <time>2013-12-11T10:00:11Z</time>
      </trkpt>
      <trkpt lat="43.24582" lon="5.95216">
        <ele>431.5</ele>
        <time>2013-12-11T10:00:13Z</time>
      </trkpt>
      <trkpt lat="43.24582" lon="5.95214">
        <ele>431.1</ele>
        <time>2013-12-11T10:00:14Z</time>
      </trkpt>
      <trkpt lat="43.2458" lon="5.9521">
        <ele>435.3</ele>
        <time>2013-12-11T10:00:15Z</time>
      </trkpt>
      <trkpt lat="43.24579" lon="5.95205">
        <ele>432.2</ele>
        <time>2013-12-11T10:00:19Z</time>
      </trkpt>
      <trkpt lat="43.24577" lon="5.95201">
        <ele>436.2</ele>
        <time>2013-12-11T10:00:20Z</time>
      </trkpt>
      <trkpt lat="43.24576" lon="5.95197">
        <ele>439.6</ele>
        <time>2013-12-11T10:00:21Z</time>
      </trkpt>
      <trkpt lat="43.24574" lon="5.95191">
        <ele>442.2</ele>
        <time>2013-12-11T10:00:23Z</time>
      </trkpt>
      <trkpt lat="43.24573" lon="5.95187">
        <ele>445.7</ele>
        <time>2013-12-11T10:00:24Z</time>
      </trkpt>
      <trkpt lat="43.24571" lon="5.95182">
        <ele>447.7</ele>
        <time>2013-12-11T10:00:26Z</time>
      </trkpt>
      <trkpt lat="43.24572" lon="5.95176">
        <ele>445.1</ele>
        <time>2013-12-11T10:00:31Z</time>
      </trkpt>
      <trkpt lat="43.24575" lon="5.95173">
        <ele>442.2</ele>
        <time>2013-12-11T10:00:35Z</time>
      </trkpt>
      <trkpt lat="43.24575" lon="5.95167">
        <ele>444.1</ele>
        <time>2013-12-11T10:00:38Z</time>
      </trkpt>
      <trkpt lat="43.24578" lon="5.95163">
        <ele>440.2</ele>
        <time>2013-12-11T10:00:42Z</time>
      </trkpt>
      <trkpt lat="43.24578" lon="5.95158">
        <ele>438.2</ele>
        <time>2013-12-11T10:00:45Z</time>
      </trkpt>
      <trkpt lat="43.24577" lon="5.95155">
        <ele>441</ele>
        <time>2013-12-11T10:00:46Z</time>
      </trkpt>
      <trkpt lat="43.24579" lon="5.95146">
        <ele>440.1</ele>
        <time>2013-12-11T10:00:53Z</time>
      </trkpt>
      <trkpt lat="43.2458" lon="5.95141">
        <ele>437.2</ele>
        <time>2013-12-11T10:00:57Z</time>
      </trkpt>
      <trkpt lat="43.24582" lon="5.95136">
        <ele>435.5</ele>
        <time>2013-12-11T10:01:01Z</time>
      </trkpt>
      <trkpt lat="43.24583" lon="5.9513">
        <ele>433.3</ele>
        <time>2013-12-11T10:01:06Z</time>
      </trkpt>
      <trkpt lat="43.24582" lon="5.95125">
        <ele>437.2</ele>
        <time>2013-12-11T10:01:08Z</time>
      </trkpt>
      <trkpt lat="43.24581" lon="5.95119">
        <ele>441.3</ele>
        <time>2013-12-11T10:01:10Z</time>
      </trkpt>
      <trkpt lat="43.2458" lon="5.95113">
        <ele>445.7</ele>
        <time>2013-12-11T10:01:12Z</time>
      </trkpt>
      <trkpt lat="43.2458" lon="5.95108">
        <ele>446.3</ele>
        <time>2013-12-11T10:01:15Z</time>
      </trkpt>
      <trkpt lat="43.24581" lon="5.95102">
        <ele>448.7</ele>
        <time>2013-12-11T10:01:18Z</time>
      </trkpt>
      <trkpt lat="43.24584" lon="5.95097">
        <ele>446.3</ele>
        <time>2013-12-11T10:01:22Z</time>
      </trkpt>
      <trkpt lat="43.24585" lon="5.95092">
        <ele>448.6</ele>
        <time>2013-12-11T10:01:25Z</time>
      </trkpt>
      <trkpt lat="43.24585" lon="5.95087">
        <ele>452.1</ele>
        <time>2013-12-11T10:01:28Z</time>
      </trkpt>
      <trkpt lat="43.24587" lon="5.95083">
        <ele>451.2</ele>
        <time>2013-12-11T10:01:31Z</time>
      </trkpt>
      <trkpt lat="43.24589" lon="5.95078">
        <ele>451.5</ele>
        <time>2013-12-11T10:01:35Z</time>
      </trkpt>
      <trkpt lat="43.24589" lon="5.95072">
        <ele>453.2</ele>
        <time>2013-12-11T10:01:38Z</time>
      </trkpt>
      <trkpt lat="43.24589" lon="5.95068">
        <ele>455.6</ele>
        <time>2013-12-11T10:01:40Z</time>
      </trkpt>
      <trkpt lat="43.2459" lon="5.95063">
        <ele>458.1</ele>
        <time>2013-12-11T10:01:42Z</time>
      </trkpt>
      <trkpt lat="43.24591" lon="5.95057">
        <ele>462.5</ele>
        <time>2013-12-11T10:01:45Z</time>
      </trkpt>
      <trkpt lat="43.24592" lon="5.95054">
        <ele>462.6</ele>
        <time>2013-12-11T10:01:47Z</time>
      </trkpt>
      <trkpt lat="43.24591" lon="5.95051">
        <ele>465.1</ele>
        <time>2013-12-11T10:01:48Z</time>
      </trkpt>
      <trkpt lat="43.24592" lon="5.95045">
        <ele>466.3</ele>
        <time>2013-12-11T10:01:51Z</time>
      </trkpt>
      <trkpt lat="43.24594" lon="5.9504">
        <ele>467.3</ele>
        <time>2013-12-11T10:01:54Z</time>
      </trkpt>
      <trkpt lat="43.24595" lon="5.95036">
        <ele>467.1</ele>
        <time>2013-12-11T10:01:57Z</time>
      </trkpt>
      <trkpt lat="43.24595" lon="5.95032">
        <ele>469.7</ele>
        <time>2013-12-11T10:01:59Z</time>
      </trkpt>
      <trkpt lat="43.24596" lon="5.95026">
        <ele>473.6</ele>
        <time>2013-12-11T10:02:02Z</time>
      </trkpt>
      <trkpt lat="43.24597" lon="5.95022">
        <ele>474.7</ele>
        <time>2013-12-11T10:02:05Z</time>
      </trkpt>
      <trkpt lat="43.24588" lon="5.95004">
        <ele>496.7</ele>
        <time>2013-12-11T10:02:06Z</time>
      </trkpt>
      <trkpt lat="43.24589" lon="5.94999">
        <ele>498.8</ele>
        <time>2013-12-11T10:02:08Z</time>
      </trkpt>
      <trkpt lat="43.24589" lon="5.94996">
        <ele>500.7</ele>
        <time>2013-12-11T10:02:09Z</time>
      </trkpt>
      <trkpt lat="43.2459" lon="5.9499">
        <ele>505.1</ele>
        <time>2013-12-11T10:02:11Z</time>
      </trkpt>
      <trkpt lat="43.2459" lon="5.94985">
        <ele>508</ele>
        <time>2013-12-11T10:02:13Z</time>
      </trkpt>
      <trkpt lat="43.24589" lon="5.9498">
        <ele>510.8</ele>
        <time>2013-12-11T10:02:15Z</time>
      </trkpt>
      <trkpt lat="43.24589" lon="5.94975">
        <ele>513.9</ele>
        <time>2013-12-11T10:02:17Z</time>
      </trkpt>
      <trkpt lat="43.24589" lon="5.9497">
        <ele>516.7</ele>
        <time>2013-12-11T10:02:19Z</time>
      </trkpt>
      <trkpt lat="43.24588" lon="5.94964">
        <ele>520.9</ele>
        <time>2013-12-11T10:02:21Z</time>
      </trkpt>
      <trkpt lat="43.24588" lon="5.9496">
        <ele>524.2</ele>
        <time>2013-12-11T10:02:23Z</time>
      </trkpt>
      <trkpt lat="43.24587" lon="5.94955">
        <ele>527.7</ele>
        <time>2013-12-11T10:02:25Z</time>
      </trkpt>
      <trkpt lat="43.24589" lon="5.9495">
        <ele>529</ele>
        <time>2013-12-11T10:02:29Z</time>
      </trkpt>
      <trkpt lat="43.24591" lon="5.94946">
        <ele>527.5</ele>
        <time>2013-12-11T10:02:33Z</time>
      </trkpt>
      <trkpt lat="43.24593" lon="5.94942">
        <ele>528</ele>
        <time>2013-12-11T10:02:36Z</time>
      </trkpt>
      <trkpt lat="43.24595" lon="5.94937">
        <ele>529</ele>
        <time>2013-12-11T10:02:39Z</time>
      </trkpt>
      <trkpt lat="43.24597" lon="5.94933">
        <ele>530.7</ele>
        <time>2013-12-11T10:02:43Z</time>
      </trkpt>
      <trkpt lat="43.24601" lon="5.9493">
        <ele>528.5</ele>
        <time>2013-12-11T10:02:47Z</time>
      </trkpt>
      <trkpt lat="43.24603" lon="5.94926">
        <ele>526.5</ele>
        <time>2013-12-11T10:02:51Z</time>
      </trkpt>
      <trkpt lat="43.24601" lon="5.94923">
        <ele>529.2</ele>
        <time>2013-12-11T10:02:52Z</time>
      </trkpt>
      <trkpt lat="43.246" lon="5.94917">
        <ele>536.7</ele>
        <time>2013-12-11T10:02:55Z</time>
      </trkpt>
      <trkpt lat="43.246" lon="5.94913">
        <ele>538</ele>
        <time>2013-12-11T10:02:58Z</time>
      </trkpt>
      <trkpt lat="43.24599" lon="5.94907">
        <ele>539</ele>
        <time>2013-12-11T10:03:01Z</time>
      </trkpt>
      <trkpt lat="43.24599" lon="5.94902">
        <ele>537.5</ele>
        <time>2013-12-11T10:03:04Z</time>
      </trkpt>
      <trkpt lat="43.24603" lon="5.949">
        <ele>536.2</ele>
        <time>2013-12-11T10:03:07Z</time>
      </trkpt>
      <trkpt lat="43.24604" lon="5.94895">
        <ele>536.7</ele>
        <time>2013-12-11T10:03:10Z</time>
      </trkpt>
      <trkpt lat="43.24604" lon="5.94889">
        <ele>538</ele>
        <time>2013-12-11T10:03:13Z</time>
      </trkpt>
      <trkpt lat="43.24604" lon="5.94884">
        <ele>540.2</ele>
        <time>2013-12-11T10:03:16Z</time>
      </trkpt>
      <trkpt lat="43.24605" lon="5.94878">
        <ele>541.2</ele>
        <time>2013-12-11T10:03:20Z</time>
      </trkpt>
      <trkpt lat="43.24608" lon="5.94874">
        <ele>541.5</ele>
        <time>2013-12-11T10:03:23Z</time>
      </trkpt>
      <trkpt lat="43.24608" lon="5.94869">
        <ele>544.2</ele>
        <time>2013-12-11T10:03:26Z</time>
      </trkpt>
      <trkpt lat="43.24609" lon="5.94864">
        <ele>545.2</ele>
        <time>2013-12-11T10:03:30Z</time>
      </trkpt>
      <trkpt lat="43.24611" lon="5.94859">
        <ele>546.2</ele>
        <time>2013-12-11T10:03:34Z</time>
      </trkpt>
      <trkpt lat="43.24612" lon="5.94854">
        <ele>547.2</ele>
        <time>2013-12-11T10:03:37Z</time>
      </trkpt>
      <trkpt lat="43.24613" lon="5.94849">
        <ele>548</ele>
        <time>2013-12-11T10:03:40Z</time>
      </trkpt>
      <trkpt lat="43.24613" lon="5.94843">
        <ele>549.7</ele>
        <time>2013-12-11T10:03:44Z</time>
      </trkpt>
      <trkpt lat="43.24613" lon="5.94838">
        <ele>548.2</ele>
        <time>2013-12-11T10:03:48Z</time>
      </trkpt>
      <trkpt lat="43.24613" lon="5.94832">
        <ele>543.7</ele>
        <time>2013-12-11T10:03:54Z</time>
      </trkpt>
      <trkpt lat="43.24613" lon="5.94831">
        <ele>542.9</ele>
        <time>2013-12-11T10:03:55Z</time>
      </trkpt>
      <trkpt lat="43.24612" lon="5.9482">
        <ele>536.5</ele>
        <time>2013-12-11T10:04:06Z</time>
      </trkpt>
      <trkpt lat="43.24611" lon="5.94815">
        <ele>534</ele>
        <time>2013-12-11T10:04:12Z</time>
      </trkpt>
      <trkpt lat="43.2461" lon="5.9481">
        <ele>530.4</ele>
        <time>2013-12-11T10:04:17Z</time>
      </trkpt>
      <trkpt lat="43.24609" lon="5.94805">
        <ele>528.9</ele>
        <time>2013-12-11T10:04:22Z</time>
      </trkpt>
      <trkpt lat="43.24607" lon="5.94799">
        <ele>526.7</ele>
        <time>2013-12-11T10:04:28Z</time>
      </trkpt>
      <trkpt lat="43.24605" lon="5.94795">
        <ele>526.2</ele>
        <time>2013-12-11T10:04:31Z</time>
      </trkpt>
      <trkpt lat="43.24603" lon="5.9479">
        <ele>525</ele>
        <time>2013-12-11T10:04:35Z</time>
      </trkpt>
      <trkpt lat="43.24603" lon="5.94785">
        <ele>523</ele>
        <time>2013-12-11T10:04:40Z</time>
      </trkpt>
      <trkpt lat="43.24602" lon="5.9478">
        <ele>522.7</ele>
        <time>2013-12-11T10:04:44Z</time>
      </trkpt>
      <trkpt lat="43.24601" lon="5.94774">
        <ele>520.7</ele>
        <time>2013-12-11T10:04:49Z</time>
      </trkpt>
      <trkpt lat="43.24599" lon="5.94769">
        <ele>518.9</ele>
        <time>2013-12-11T10:04:53Z</time>
      </trkpt>
      <trkpt lat="43.24598" lon="5.94764">
        <ele>517.5</ele>
        <time>2013-12-11T10:04:57Z</time>
      </trkpt>
      <trkpt lat="43.24598" lon="5.94762">
        <ele>517.4</ele>
        <time>2013-12-11T10:04:58Z</time>
      </trkpt>
      <trkpt lat="43.24596" lon="5.94754">
        <ele>516</ele>
        <time>2013-12-11T10:05:03Z</time>
      </trkpt>
      <trkpt lat="43.24596" lon="5.94749">
        <ele>514.9</ele>
        <time>2013-12-11T10:05:07Z</time>
      </trkpt>
      <trkpt lat="43.24595" lon="5.94744">
        <ele>515.9</ele>
        <time>2013-12-11T10:05:10Z</time>
      </trkpt>
      <trkpt lat="43.24595" lon="5.94739">
        <ele>513.5</ele>
        <time>2013-12-11T10:05:14Z</time>
      </trkpt>
      <trkpt lat="43.24595" lon="5.94734">
        <ele>513.5</ele>
        <time>2013-12-11T10:05:18Z</time>
      </trkpt>
      <trkpt lat="43.24595" lon="5.94729">
        <ele>515</ele>
        <time>2013-12-11T10:05:21Z</time>
      </trkpt>
      <trkpt lat="43.24595" lon="5.94723">
        <ele>516</ele>
        <time>2013-12-11T10:05:24Z</time>
      </trkpt>
      <trkpt lat="43.24595" lon="5.94718">
        <ele>516.7</ele>
        <time>2013-12-11T10:05:28Z</time>
      </trkpt>
      <trkpt lat="43.24596" lon="5.94713">
        <ele>517.9</ele>
        <time>2013-12-11T10:05:31Z</time>
      </trkpt>
      <trkpt lat="43.24595" lon="5.94707">
        <ele>518.9</ele>
        <time>2013-12-11T10:05:35Z</time>
      </trkpt>
      <trkpt lat="43.24596" lon="5.94702">
        <ele>518.5</ele>
        <time>2013-12-11T10:05:38Z</time>
      </trkpt>
      <trkpt lat="43.24596" lon="5.94698">
        <ele>519.7</ele>
        <time>2013-12-11T10:05:41Z</time>
      </trkpt>
      <trkpt lat="43.24597" lon="5.94693">
        <ele>520.4</ele>
        <time>2013-12-11T10:05:44Z</time>
      </trkpt>
      <trkpt lat="43.24597" lon="5.94688">
        <ele>520.5</ele>
        <time>2013-12-11T10:05:47Z</time>
      </trkpt>
      <trkpt lat="43.24597" lon="5.94683">
        <ele>521.7</ele>
        <time>2013-12-11T10:05:50Z</time>
      </trkpt>
      <trkpt lat="43.24597" lon="5.94678">
        <ele>524.5</ele>
        <time>2013-12-11T10:05:52Z</time>
      </trkpt>
      <trkpt lat="43.24596" lon="5.94672">
        <ele>527.4</ele>
        <time>2013-12-11T10:05:55Z</time>
      </trkpt>
      <trkpt lat="43.24595" lon="5.94668">
        <ele>529.5</ele>
        <time>2013-12-11T10:05:57Z</time>
      </trkpt>
      <trkpt lat="43.24595" lon="5.94663">
        <ele>531.7</ele>
        <time>2013-12-11T10:06:00Z</time>
      </trkpt>
      <trkpt lat="43.24595" lon="5.94661">
        <ele>531.7</ele>
        <time>2013-12-11T10:06:01Z</time>
      </trkpt>
      <trkpt lat="43.24596" lon="5.94655">
        <ele>531.2</ele>
        <time>2013-12-11T10:06:06Z</time>
      </trkpt>
      <trkpt lat="43.24595" lon="5.94651">
        <ele>535.4</ele>
        <time>2013-12-11T10:06:07Z</time>
      </trkpt>
      <trkpt lat="43.24594" lon="5.94647">
        <ele>538.7</ele>
        <time>2013-12-11T10:06:09Z</time>
      </trkpt>
      <trkpt lat="43.24592" lon="5.94643">
        <ele>542.7</ele>
        <time>2013-12-11T10:06:11Z</time>
      </trkpt>
      <trkpt lat="43.2459" lon="5.94638">
        <ele>548.2</ele>
        <time>2013-12-11T10:06:15Z</time>
      </trkpt>
      <trkpt lat="43.24588" lon="5.94633">
        <ele>552.5</ele>
        <time>2013-12-11T10:06:33Z</time>
      </trkpt>
      <trkpt lat="43.24587" lon="5.94628">
        <ele>554.7</ele>
        <time>2013-12-11T10:06:48Z</time>
      </trkpt>
      <trkpt lat="43.24583" lon="5.94627">
        <ele>557.7</ele>
        <time>2013-12-11T10:07:02Z</time>
      </trkpt>
      <trkpt lat="43.24583" lon="5.94627">
        <ele>557.5</ele>
        <time>2013-12-11T10:07:03Z</time>
      </trkpt>
      <trkpt lat="43.24583" lon="5.94629">
        <ele>556.5</ele>
        <time>2013-12-11T10:08:51Z</time>
      </trkpt>
      <trkpt lat="43.24583" lon="5.94629">
        <ele>556.4</ele>
        <time>2013-12-11T10:08:52Z</time>
      </trkpt>
      <trkpt lat="43.24588" lon="5.9462">
        <ele>556</ele>
        <time>2013-12-11T10:09:42Z</time>
      </trkpt>
      <trkpt lat="43.2459" lon="5.94615">
        <ele>555.5</ele>
        <time>2013-12-11T10:09:47Z</time>
      </trkpt>
      <trkpt lat="43.24592" lon="5.9461">
        <ele>555.7</ele>
        <time>2013-12-11T10:09:52Z</time>
      </trkpt>
      <trkpt lat="43.24593" lon="5.94609">
        <ele>556</ele>
        <time>2013-12-11T10:09:53Z</time>
      </trkpt>
      <trkpt lat="43.24598" lon="5.94602">
        <ele>556.9</ele>
        <time>2013-12-11T10:10:00Z</time>
      </trkpt>
      <trkpt lat="43.24601" lon="5.94598">
        <ele>557</ele>
        <time>2013-12-11T10:10:04Z</time>
      </trkpt>
      <trkpt lat="43.24603" lon="5.94594">
        <ele>557.7</ele>
        <time>2013-12-11T10:10:07Z</time>
      </trkpt>
      <trkpt lat="43.24605" lon="5.9459">
        <ele>557.5</ele>
        <time>2013-12-11T10:10:10Z</time>
      </trkpt>
      <trkpt lat="43.24607" lon="5.94586">
        <ele>557.5</ele>
        <time>2013-12-11T10:10:14Z</time>
      </trkpt>
      <trkpt lat="43.24609" lon="5.94581">
        <ele>557.5</ele>
        <time>2013-12-11T10:10:18Z</time>
      </trkpt>
      <trkpt lat="43.24612" lon="5.94576">
        <ele>558.2</ele>
        <time>2013-12-11T10:10:22Z</time>
      </trkpt>
      <trkpt lat="43.24614" lon="5.94571">
        <ele>557.7</ele>
        <time>2013-12-11T10:10:26Z</time>
      </trkpt>
      <trkpt lat="43.24616" lon="5.94567">
        <ele>557</ele>
        <time>2013-12-11T10:10:30Z</time>
      </trkpt>
      <trkpt lat="43.24619" lon="5.94564">
        <ele>556.5</ele>
        <time>2013-12-11T10:10:33Z</time>
      </trkpt>
      <trkpt lat="43.24621" lon="5.94561">
        <ele>556</ele>
        <time>2013-12-11T10:10:36Z</time>
      </trkpt>
      <trkpt lat="43.24623" lon="5.94557">
        <ele>556</ele>
        <time>2013-12-11T10:10:39Z</time>
      </trkpt>
      <trkpt lat="43.24627" lon="5.94554">
        <ele>556</ele>
        <time>2013-12-11T10:10:42Z</time>
      </trkpt>
      <trkpt lat="43.24629" lon="5.94551">
        <ele>556.2</ele>
        <time>2013-12-11T10:10:45Z</time>
      </trkpt>
      <trkpt lat="43.24632" lon="5.94547">
        <ele>556.7</ele>
        <time>2013-12-11T10:10:49Z</time>
      </trkpt>
      <trkpt lat="43.24635" lon="5.94542">
        <ele>557</ele>
        <time>2013-12-11T10:10:53Z</time>
      </trkpt>
      <trkpt lat="43.24635" lon="5.94541">
        <ele>557.2</ele>
        <time>2013-12-11T10:10:54Z</time>
      </trkpt>
      <trkpt lat="43.24638" lon="5.94532">
        <ele>556.4</ele>
        <time>2013-12-11T10:11:01Z</time>
      </trkpt>
      <trkpt lat="43.24639" lon="5.94527">
        <ele>554.7</ele>
        <time>2013-12-11T10:11:05Z</time>
      </trkpt>
      <trkpt lat="43.2464" lon="5.94521">
        <ele>552.2</ele>
        <time>2013-12-11T10:11:10Z</time>
      </trkpt>
      <trkpt lat="43.24641" lon="5.94516">
        <ele>551.7</ele>
        <time>2013-12-11T10:11:14Z</time>
      </trkpt>
      <trkpt lat="43.24641" lon="5.9451">
        <ele>550.5</ele>
        <time>2013-12-11T10:11:19Z</time>
      </trkpt>
      <trkpt lat="43.24642" lon="5.94505">
        <ele>549.2</ele>
        <time>2013-12-11T10:11:24Z</time>
      </trkpt>
      <trkpt lat="43.24642" lon="5.94499">
        <ele>548.4</ele>
        <time>2013-12-11T10:11:28Z</time>
      </trkpt>
      <trkpt lat="43.24643" lon="5.94494">
        <ele>546.5</ele>
        <time>2013-12-11T10:11:32Z</time>
      </trkpt>
      <trkpt lat="43.24644" lon="5.94489">
        <ele>545</ele>
        <time>2013-12-11T10:11:36Z</time>
      </trkpt>
      <trkpt lat="43.24645" lon="5.94483">
        <ele>544.2</ele>
        <time>2013-12-11T10:11:40Z</time>
      </trkpt>
      <trkpt lat="43.24645" lon="5.94478">
        <ele>543.4</ele>
        <time>2013-12-11T10:11:44Z</time>
      </trkpt>
      <trkpt lat="43.24646" lon="5.94472">
        <ele>542.2</ele>
        <time>2013-12-11T10:11:48Z</time>
      </trkpt>
      <trkpt lat="43.24646" lon="5.94467">
        <ele>542.2</ele>
        <time>2013-12-11T10:11:51Z</time>
      </trkpt>
      <trkpt lat="43.24646" lon="5.94463">
        <ele>543</ele>
        <time>2013-12-11T10:11:53Z</time>
      </trkpt>
      <trkpt lat="43.24646" lon="5.94457">
        <ele>542</ele>
        <time>2013-12-11T10:11:57Z</time>
      </trkpt>
      <trkpt lat="43.24646" lon="5.94456">
        <ele>541.5</ele>
        <time>2013-12-11T10:11:58Z</time>
      </trkpt>
      <trkpt lat="43.24648" lon="5.94446">
        <ele>538.9</ele>
        <time>2013-12-11T10:12:05Z</time>
      </trkpt>
      <trkpt lat="43.2465" lon="5.94442">
        <ele>538.4</ele>
        <time>2013-12-11T10:12:08Z</time>
      </trkpt>
      <trkpt lat="43.24653" lon="5.94439">
        <ele>537.9</ele>
        <time>2013-12-11T10:12:11Z</time>
      </trkpt>
      <trkpt lat="43.24655" lon="5.94434">
        <ele>539.2</ele>
        <time>2013-12-11T10:12:14Z</time>
      </trkpt>
      <trkpt lat="43.24655" lon="5.94429">
        <ele>541.4</ele>
        <time>2013-12-11T10:12:16Z</time>
      </trkpt>
      <trkpt lat="43.24657" lon="5.94425">
        <ele>542.4</ele>
        <time>2013-12-11T10:12:19Z</time>
      </trkpt>
      <trkpt lat="43.2466" lon="5.94421">
        <ele>542</ele>
        <time>2013-12-11T10:12:24Z</time>
      </trkpt>
      <trkpt lat="43.24664" lon="5.94419">
        <ele>541.2</ele>
        <time>2013-12-11T10:12:30Z</time>
      </trkpt>
      <trkpt lat="43.24668" lon="5.94419">
        <ele>541.7</ele>
        <time>2013-12-11T10:12:34Z</time>
      </trkpt>
      <trkpt lat="43.24673" lon="5.94418">
        <ele>542.7</ele>
        <time>2013-12-11T10:12:38Z</time>
      </trkpt>
      <trkpt lat="43.24676" lon="5.94417">
        <ele>542.5</ele>
        <time>2013-12-11T10:12:41Z</time>
      </trkpt>
      <trkpt lat="43.2468" lon="5.94417">
        <ele>542.2</ele>
        <time>2013-12-11T10:12:45Z</time>
      </trkpt>
      <trkpt lat="43.24684" lon="5.94416">
        <ele>543</ele>
        <time>2013-12-11T10:12:48Z</time>
      </trkpt>
      <trkpt lat="43.24687" lon="5.94415">
        <ele>543.5</ele>
        <time>2013-12-11T10:12:51Z</time>
      </trkpt>
      <trkpt lat="43.24691" lon="5.94414">
        <ele>543.5</ele>
        <time>2013-12-11T10:12:54Z</time>
      </trkpt>
      <trkpt lat="43.24694" lon="5.94413">
        <ele>543.7</ele>
        <time>2013-12-11T10:12:57Z</time>
      </trkpt>
      <trkpt lat="43.24698" lon="5.94411">
        <ele>543.7</ele>
        <time>2013-12-11T10:13:00Z</time>
      </trkpt>
      <trkpt lat="43.24699" lon="5.94411">
        <ele>543.5</ele>
        <time>2013-12-11T10:13:01Z</time>
      </trkpt>
      <trkpt lat="43.24706" lon="5.94408">
        <ele>541.4</ele>
        <time>2013-12-11T10:13:09Z</time>
      </trkpt>
      <trkpt lat="43.2471" lon="5.94408">
        <ele>538.9</ele>
        <time>2013-12-11T10:13:14Z</time>
      </trkpt>
      <trkpt lat="43.24714" lon="5.94408">
        <ele>538.7</ele>
        <time>2013-12-11T10:13:18Z</time>
      </trkpt>
      <trkpt lat="43.24718" lon="5.94409">
        <ele>538.7</ele>
        <time>2013-12-11T10:13:21Z</time>
      </trkpt>
      <trkpt lat="43.24722" lon="5.94412">
        <ele>538.7</ele>
        <time>2013-12-11T10:13:25Z</time>
      </trkpt>
      <trkpt lat="43.24725" lon="5.94414">
        <ele>538.2</ele>
        <time>2013-12-11T10:13:29Z</time>
      </trkpt>
      <trkpt lat="43.24729" lon="5.94416">
        <ele>537.5</ele>
        <time>2013-12-11T10:13:33Z</time>
      </trkpt>
      <trkpt lat="43.24733" lon="5.94415">
        <ele>537.2</ele>
        <time>2013-12-11T10:13:37Z</time>
      </trkpt>
      <trkpt lat="43.24736" lon="5.94414">
        <ele>537.5</ele>
        <time>2013-12-11T10:13:39Z</time>
      </trkpt>
      <trkpt lat="43.24739" lon="5.94413">
        <ele>539</ele>
        <time>2013-12-11T10:13:41Z</time>
      </trkpt>
      <trkpt lat="43.24742" lon="5.94411">
        <ele>540.2</ele>
        <time>2013-12-11T10:13:43Z</time>
      </trkpt>
      <trkpt lat="43.24745" lon="5.94409">
        <ele>540.9</ele>
        <time>2013-12-11T10:13:45Z</time>
      </trkpt>
      <trkpt lat="43.24748" lon="5.94406">
        <ele>541.4</ele>
        <time>2013-12-11T10:13:48Z</time>
      </trkpt>
      <trkpt lat="43.24751" lon="5.94403">
        <ele>540.5</ele>
        <time>2013-12-11T10:13:51Z</time>
      </trkpt>
      <trkpt lat="43.24755" lon="5.94399">
        <ele>538.7</ele>
        <time>2013-12-11T10:13:55Z</time>
      </trkpt>
      <trkpt lat="43.24758" lon="5.94395">
        <ele>535.7</ele>
        <time>2013-12-11T10:14:00Z</time>
      </trkpt>
      <trkpt lat="43.2476" lon="5.94391">
        <ele>533</ele>
        <time>2013-12-11T10:14:04Z</time>
      </trkpt>
      <trkpt lat="43.24761" lon="5.9439">
        <ele>532.7</ele>
        <time>2013-12-11T10:14:05Z</time>
      </trkpt>
      <trkpt lat="43.24765" lon="5.94382">
        <ele>530</ele>
        <time>2013-12-11T10:14:12Z</time>
      </trkpt>
      <trkpt lat="43.24766" lon="5.94377">
        <ele>528.7</ele>
        <time>2013-12-11T10:14:16Z</time>
      </trkpt>
      <trkpt lat="43.24768" lon="5.94372">
        <ele>527.4</ele>
        <time>2013-12-11T10:14:20Z</time>
      </trkpt>
      <trkpt lat="43.24769" lon="5.94367">
        <ele>526.2</ele>
        <time>2013-12-11T10:14:24Z</time>
      </trkpt>
      <trkpt lat="43.2477" lon="5.94361">
        <ele>525.2</ele>
        <time>2013-12-11T10:14:28Z</time>
      </trkpt>
      <trkpt lat="43.24772" lon="5.94357">
        <ele>524.7</ele>
        <time>2013-12-11T10:14:32Z</time>
      </trkpt>
      <trkpt lat="43.24774" lon="5.94353">
        <ele>525.5</ele>
        <time>2013-12-11T10:14:35Z</time>
      </trkpt>
      <trkpt lat="43.24776" lon="5.94349">
        <ele>525.5</ele>
        <time>2013-12-11T10:14:38Z</time>
      </trkpt>
      <trkpt lat="43.24777" lon="5.94344">
        <ele>527.5</ele>
        <time>2013-12-11T10:14:41Z</time>
      </trkpt>
      <trkpt lat="43.24779" lon="5.94339">
        <ele>529</ele>
        <time>2013-12-11T10:14:44Z</time>
      </trkpt>
      <trkpt lat="43.24779" lon="5.94334">
        <ele>530.5</ele>
        <time>2013-12-11T10:14:46Z</time>
      </trkpt>
      <trkpt lat="43.2478" lon="5.94329">
        <ele>532.5</ele>
        <time>2013-12-11T10:14:49Z</time>
      </trkpt>
      <trkpt lat="43.24782" lon="5.94325">
        <ele>533</ele>
        <time>2013-12-11T10:14:52Z</time>
      </trkpt>
      <trkpt lat="43.24784" lon="5.9432">
        <ele>532.7</ele>
        <time>2013-12-11T10:14:56Z</time>
      </trkpt>
      <trkpt lat="43.24788" lon="5.94316">
        <ele>531.5</ele>
        <time>2013-12-11T10:15:01Z</time>
      </trkpt>
      <trkpt lat="43.24791" lon="5.94315">
        <ele>531.9</ele>
        <time>2013-12-11T10:15:05Z</time>
      </trkpt>
      <trkpt lat="43.24793" lon="5.94314">
        <ele>532.2</ele>
        <time>2013-12-11T10:15:06Z</time>
      </trkpt>
      <trkpt lat="43.248" lon="5.94311">
        <ele>533.5</ele>
        <time>2013-12-11T10:15:12Z</time>
      </trkpt>
      <trkpt lat="43.24803" lon="5.9431">
        <ele>533.7</ele>
        <time>2013-12-11T10:15:15Z</time>
      </trkpt>
      <trkpt lat="43.24808" lon="5.94309">
        <ele>534.9</ele>
        <time>2013-12-11T10:15:18Z</time>
      </trkpt>
      <trkpt lat="43.24812" lon="5.94308">
        <ele>535.9</ele>
        <time>2013-12-11T10:15:21Z</time>
      </trkpt>
      <trkpt lat="43.24816" lon="5.94307">
        <ele>534.9</ele>
        <time>2013-12-11T10:15:25Z</time>
      </trkpt>
      <trkpt lat="43.24819" lon="5.94306">
        <ele>533.5</ele>
        <time>2013-12-11T10:15:29Z</time>
      </trkpt>
      <trkpt lat="43.24823" lon="5.94304">
        <ele>532</ele>
        <time>2013-12-11T10:15:33Z</time>
      </trkpt>
      <trkpt lat="43.24826" lon="5.94302">
        <ele>530.7</ele>
        <time>2013-12-11T10:15:37Z</time>
      </trkpt>
      <trkpt lat="43.2483" lon="5.94299">
        <ele>531</ele>
        <time>2013-12-11T10:15:40Z</time>
      </trkpt>
      <trkpt lat="43.24834" lon="5.94297">
        <ele>531.7</ele>
        <time>2013-12-11T10:15:43Z</time>
      </trkpt>
      <trkpt lat="43.24838" lon="5.94295">
        <ele>532.4</ele>
        <time>2013-12-11T10:15:46Z</time>
      </trkpt>
      <trkpt lat="43.24841" lon="5.94292">
        <ele>532.2</ele>
        <time>2013-12-11T10:15:49Z</time>
      </trkpt>
      <trkpt lat="43.24844" lon="5.94289">
        <ele>532.5</ele>
        <time>2013-12-11T10:15:52Z</time>
      </trkpt>
      <trkpt lat="43.24847" lon="5.94286">
        <ele>532.7</ele>
        <time>2013-12-11T10:15:55Z</time>
      </trkpt>
      <trkpt lat="43.2485" lon="5.94283">
        <ele>533</ele>
        <time>2013-12-11T10:15:58Z</time>
      </trkpt>
      <trkpt lat="43.24853" lon="5.9428">
        <ele>531.9</ele>
        <time>2013-12-11T10:16:02Z</time>
      </trkpt>
      <trkpt lat="43.24857" lon="5.94276">
        <ele>532.2</ele>
        <time>2013-12-11T10:16:05Z</time>
      </trkpt>
      <trkpt lat="43.24859" lon="5.94273">
        <ele>531.9</ele>
        <time>2013-12-11T10:16:08Z</time>
      </trkpt>
      <trkpt lat="43.2486" lon="5.94272">
        <ele>532</ele>
        <time>2013-12-11T10:16:09Z</time>
      </trkpt>
      <trkpt lat="43.24864" lon="5.94265">
        <ele>532.7</ele>
        <time>2013-12-11T10:16:14Z</time>
      </trkpt>
      <trkpt lat="43.24867" lon="5.94261">
        <ele>532.7</ele>
        <time>2013-12-11T10:16:17Z</time>
      </trkpt>
      <trkpt lat="43.24869" lon="5.94256">
        <ele>533</ele>
        <time>2013-12-11T10:16:20Z</time>
      </trkpt>
      <trkpt lat="43.24871" lon="5.94251">
        <ele>532.2</ele>
        <time>2013-12-11T10:16:24Z</time>
      </trkpt>
      <trkpt lat="43.24871" lon="5.94245">
        <ele>531.5</ele>
        <time>2013-12-11T10:16:28Z</time>
      </trkpt>
      <trkpt lat="43.2487" lon="5.9424">
        <ele>530</ele>
        <time>2013-12-11T10:16:33Z</time>
      </trkpt>
      <trkpt lat="43.24869" lon="5.94234">
        <ele>529.5</ele>
        <time>2013-12-11T10:16:37Z</time>
      </trkpt>
      <trkpt lat="43.24866" lon="5.94229">
        <ele>528.2</ele>
        <time>2013-12-11T10:16:41Z</time>
      </trkpt>
      <trkpt lat="43.24862" lon="5.94227">
        <ele>527</ele>
        <time>2013-12-11T10:16:45Z</time>
      </trkpt>
      <trkpt lat="43.24857" lon="5.94227">
        <ele>526</ele>
        <time>2013-12-11T10:16:49Z</time>
      </trkpt>
      <trkpt lat="43.24854" lon="5.94226">
        <ele>526</ele>
        <time>2013-12-11T10:16:52Z</time>
      </trkpt>
      <trkpt lat="43.2485" lon="5.94226">
        <ele>527.2</ele>
        <time>2013-12-11T10:16:55Z</time>
      </trkpt>
      <trkpt lat="43.24847" lon="5.94227">
        <ele>527.5</ele>
        <time>2013-12-11T10:16:58Z</time>
      </trkpt>
      <trkpt lat="43.24843" lon="5.94227">
        <ele>528</ele>
        <time>2013-12-11T10:17:01Z</time>
      </trkpt>
      <trkpt lat="43.2484" lon="5.94227">
        <ele>529.2</ele>
        <time>2013-12-11T10:17:03Z</time>
      </trkpt>
      <trkpt lat="43.24836" lon="5.94228">
        <ele>530.2</ele>
        <time>2013-12-11T10:17:05Z</time>
      </trkpt>
      <trkpt lat="43.24833" lon="5.94228">
        <ele>530.9</ele>
        <time>2013-12-11T10:17:07Z</time>
      </trkpt>
      <trkpt lat="43.24829" lon="5.9423">
        <ele>531</ele>
        <time>2013-12-11T10:17:10Z</time>
      </trkpt>
      <trkpt lat="43.24828" lon="5.9423">
        <ele>531.2</ele>
        <time>2013-12-11T10:17:11Z</time>
      </trkpt>
      <trkpt lat="43.24821" lon="5.94232">
        <ele>529.9</ele>
        <time>2013-12-11T10:17:17Z</time>
      </trkpt>
      <trkpt lat="43.24818" lon="5.94232">
        <ele>526.7</ele>
        <time>2013-12-11T10:17:21Z</time>
      </trkpt>
      <trkpt lat="43.24814" lon="5.94231">
        <ele>522.2</ele>
        <time>2013-12-11T10:17:26Z</time>
      </trkpt>
      <trkpt lat="43.2481" lon="5.94229">
        <ele>517.5</ele>
        <time>2013-12-11T10:17:31Z</time>
      </trkpt>
      <trkpt lat="43.24806" lon="5.94228">
        <ele>513.9</ele>
        <time>2013-12-11T10:17:35Z</time>
      </trkpt>
      <trkpt lat="43.24802" lon="5.94225">
        <ele>512.5</ele>
        <time>2013-12-11T10:17:39Z</time>
      </trkpt>
      <trkpt lat="43.24799" lon="5.94224">
        <ele>509.8</ele>
        <time>2013-12-11T10:17:43Z</time>
      </trkpt>
      <trkpt lat="43.24795" lon="5.94222">
        <ele>508.1</ele>
        <time>2013-12-11T10:17:47Z</time>
      </trkpt>
      <trkpt lat="43.24791" lon="5.94219">
        <ele>507</ele>
        <time>2013-12-11T10:17:51Z</time>
      </trkpt>
      <trkpt lat="43.24788" lon="5.94218">
        <ele>505.2</ele>
        <time>2013-12-11T10:17:55Z</time>
      </trkpt>
      <trkpt lat="43.24783" lon="5.94218">
        <ele>503.1</ele>
        <time>2013-12-11T10:17:59Z</time>
      </trkpt>
      <trkpt lat="43.24779" lon="5.94217">
        <ele>501.1</ele>
        <time>2013-12-11T10:18:03Z</time>
      </trkpt>
      <trkpt lat="43.24776" lon="5.94214">
        <ele>500.8</ele>
        <time>2013-12-11T10:18:06Z</time>
      </trkpt>
      <trkpt lat="43.24772" lon="5.94212">
        <ele>500.7</ele>
        <time>2013-12-11T10:18:10Z</time>
      </trkpt>
      <trkpt lat="43.24769" lon="5.94209">
        <ele>499</ele>
        <time>2013-12-11T10:18:14Z</time>
      </trkpt>
      <trkpt lat="43.24768" lon="5.94208">
        <ele>498.6</ele>
        <time>2013-12-11T10:18:15Z</time>
      </trkpt>
      <trkpt lat="43.24764" lon="5.94199">
        <ele>497.6</ele>
        <time>2013-12-11T10:18:23Z</time>
      </trkpt>
      <trkpt lat="43.24763" lon="5.94193">
        <ele>498.7</ele>
        <time>2013-12-11T10:18:27Z</time>
      </trkpt>
      <trkpt lat="43.24763" lon="5.94187">
        <ele>499.3</ele>
        <time>2013-12-11T10:18:31Z</time>
      </trkpt>
      <trkpt lat="43.24762" lon="5.94183">
        <ele>502.1</ele>
        <time>2013-12-11T10:18:32Z</time>
      </trkpt>
      <trkpt lat="43.24762" lon="5.94177">
        <ele>502</ele>
        <time>2013-12-11T10:18:36Z</time>
      </trkpt>
      <trkpt lat="43.24763" lon="5.94172">
        <ele>499.8</ele>
        <time>2013-12-11T10:18:40Z</time>
      </trkpt>
      <trkpt lat="43.24764" lon="5.94166">
        <ele>499</ele>
        <time>2013-12-11T10:18:44Z</time>
      </trkpt>
      <trkpt lat="43.24763" lon="5.9416">
        <ele>499</ele>
        <time>2013-12-11T10:18:48Z</time>
      </trkpt>
      <trkpt lat="43.24764" lon="5.94156">
        <ele>498.7</ele>
        <time>2013-12-11T10:18:51Z</time>
      </trkpt>
      <trkpt lat="43.24765" lon="5.94151">
        <ele>497.8</ele>
        <time>2013-12-11T10:18:54Z</time>
      </trkpt>
      <trkpt lat="43.24765" lon="5.94146">
        <ele>496.6</ele>
        <time>2013-12-11T10:18:57Z</time>
      </trkpt>
      <trkpt lat="43.24766" lon="5.9414">
        <ele>494.5</ele>
        <time>2013-12-11T10:19:01Z</time>
      </trkpt>
      <trkpt lat="43.24767" lon="5.94135">
        <ele>492.5</ele>
        <time>2013-12-11T10:19:05Z</time>
      </trkpt>
      <trkpt lat="43.24767" lon="5.9413">
        <ele>491.2</ele>
        <time>2013-12-11T10:19:08Z</time>
      </trkpt>
      <trkpt lat="43.24768" lon="5.94124">
        <ele>488.8</ele>
        <time>2013-12-11T10:19:12Z</time>
      </trkpt>
      <trkpt lat="43.24767" lon="5.94119">
        <ele>487.1</ele>
        <time>2013-12-11T10:19:16Z</time>
      </trkpt>
      <trkpt lat="43.24767" lon="5.94118">
        <ele>486.1</ele>
        <time>2013-12-11T10:19:17Z</time>
      </trkpt>
      <trkpt lat="43.24765" lon="5.94109">
        <ele>484.1</ele>
        <time>2013-12-11T10:19:23Z</time>
      </trkpt>
      <trkpt lat="43.24764" lon="5.94104">
        <ele>482</ele>
        <time>2013-12-11T10:19:26Z</time>
      </trkpt>
      <trkpt lat="43.24762" lon="5.941">
        <ele>480.6</ele>
        <time>2013-12-11T10:19:29Z</time>
      </trkpt>
      <trkpt lat="43.2476" lon="5.94094">
        <ele>478.2</ele>
        <time>2013-12-11T10:19:33Z</time>
      </trkpt>
      <trkpt lat="43.24759" lon="5.94091">
        <ele>478.2</ele>
        <time>2013-12-11T10:19:36Z</time>
      </trkpt>
      <trkpt lat="43.24756" lon="5.94086">
        <ele>478.7</ele>
        <time>2013-12-11T10:19:39Z</time>
      </trkpt>
      <trkpt lat="43.24754" lon="5.94082">
        <ele>479.6</ele>
        <time>2013-12-11T10:19:42Z</time>
      </trkpt>
      <trkpt lat="43.24752" lon="5.94078">
        <ele>480.2</ele>
        <time>2013-12-11T10:19:45Z</time>
      </trkpt>
      <trkpt lat="43.2475" lon="5.94074">
        <ele>480.7</ele>
        <time>2013-12-11T10:19:48Z</time>
      </trkpt>
      <trkpt lat="43.24748" lon="5.94069">
        <ele>481.6</ele>
        <time>2013-12-11T10:19:51Z</time>
      </trkpt>
      <trkpt lat="43.24746" lon="5.94066">
        <ele>482</ele>
        <time>2013-12-11T10:19:54Z</time>
      </trkpt>
      <trkpt lat="43.24744" lon="5.94062">
        <ele>483.7</ele>
        <time>2013-12-11T10:19:56Z</time>
      </trkpt>
      <trkpt lat="43.24742" lon="5.94057">
        <ele>483.8</ele>
        <time>2013-12-11T10:19:59Z</time>
      </trkpt>
      <trkpt lat="43.2474" lon="5.94052">
        <ele>482.6</ele>
        <time>2013-12-11T10:20:03Z</time>
      </trkpt>
      <trkpt lat="43.24739" lon="5.94048">
        <ele>481.6</ele>
        <time>2013-12-11T10:20:06Z</time>
      </trkpt>
      <trkpt lat="43.24737" lon="5.94043">
        <ele>481.2</ele>
        <time>2013-12-11T10:20:09Z</time>
      </trkpt>
      <trkpt lat="43.24735" lon="5.94038">
        <ele>480.3</ele>
        <time>2013-12-11T10:20:13Z</time>
      </trkpt>
      <trkpt lat="43.24733" lon="5.94034">
        <ele>481.1</ele>
        <time>2013-12-11T10:20:16Z</time>
      </trkpt>
      <trkpt lat="43.24731" lon="5.9403">
        <ele>481.8</ele>
        <time>2013-12-11T10:20:19Z</time>
      </trkpt>
      <trkpt lat="43.2473" lon="5.94028">
        <ele>483</ele>
        <time>2013-12-11T10:20:20Z</time>
      </trkpt>
      <trkpt lat="43.24728" lon="5.9402">
        <ele>483.2</ele>
        <time>2013-12-11T10:20:26Z</time>
      </trkpt>
      <trkpt lat="43.24726" lon="5.94016">
        <ele>483.6</ele>
        <time>2013-12-11T10:20:29Z</time>
      </trkpt>
      <trkpt lat="43.24724" lon="5.94011">
        <ele>484.6</ele>
        <time>2013-12-11T10:20:32Z</time>
      </trkpt>
      <trkpt lat="43.24722" lon="5.94006">
        <ele>484.8</ele>
        <time>2013-12-11T10:20:36Z</time>
      </trkpt>
      <trkpt lat="43.24719" lon="5.94002">
        <ele>485.8</ele>
        <time>2013-12-11T10:20:40Z</time>
      </trkpt>
      <trkpt lat="43.24717" lon="5.93997">
        <ele>484.8</ele>
        <time>2013-12-11T10:20:44Z</time>
      </trkpt>
      <trkpt lat="43.24715" lon="5.93993">
        <ele>484.6</ele>
        <time>2013-12-11T10:20:48Z</time>
      </trkpt>
      <trkpt lat="43.24712" lon="5.93989">
        <ele>486.1</ele>
        <time>2013-12-11T10:20:52Z</time>
      </trkpt>
      <trkpt lat="43.24709" lon="5.93985">
        <ele>492</ele>
        <time>2013-12-11T10:20:55Z</time>
      </trkpt>
      <trkpt lat="43.24706" lon="5.93982">
        <ele>490.6</ele>
        <time>2013-12-11T10:21:02Z</time>
      </trkpt>
      <trkpt lat="43.24705" lon="5.93978">
        <ele>493.2</ele>
        <time>2013-12-11T10:21:06Z</time>
      </trkpt>
      <trkpt lat="43.24701" lon="5.93976">
        <ele>499.2</ele>
        <time>2013-12-11T10:21:08Z</time>
      </trkpt>
      <trkpt lat="43.24697" lon="5.93975">
        <ele>506.6</ele>
        <time>2013-12-11T10:21:13Z</time>
      </trkpt>
      <trkpt lat="43.24695" lon="5.93969">
        <ele>503.3</ele>
        <time>2013-12-11T10:21:28Z</time>
      </trkpt>
      <trkpt lat="43.24694" lon="5.93969">
        <ele>504.2</ele>
        <time>2013-12-11T10:21:29Z</time>
      </trkpt>
      <trkpt lat="43.2469" lon="5.93977">
        <ele>518.7</ele>
        <time>2013-12-11T10:22:38Z</time>
      </trkpt>
      <trkpt lat="43.2469" lon="5.93977">
        <ele>519</ele>
        <time>2013-12-11T10:22:39Z</time>
      </trkpt>
      <trkpt lat="43.24688" lon="5.93983">
        <ele>515</ele>
        <time>2013-12-11T10:24:43Z</time>
      </trkpt>
      <trkpt lat="43.24691" lon="5.93977">
        <ele>513.7</ele>
        <time>2013-12-11T10:26:14Z</time>
      </trkpt>
      <trkpt lat="43.24695" lon="5.9397">
        <ele>490.2</ele>
        <time>2013-12-11T11:01:33Z</time>
      </trkpt>
      <trkpt lat="43.24695" lon="5.9397">
        <ele>490.2</ele>
        <time>2013-12-11T11:01:34Z</time>
      </trkpt>
      <trkpt lat="43.24691" lon="5.93967">
        <ele>492.7</ele>
        <time>2013-12-11T11:03:14Z</time>
      </trkpt>
      <trkpt lat="43.24696" lon="5.93968">
        <ele>489.7</ele>
        <time>2013-12-11T11:05:04Z</time>
      </trkpt>
      <trkpt lat="43.24695" lon="5.93968">
        <ele>491.7</ele>
        <time>2013-12-11T11:06:23Z</time>
      </trkpt>
      <trkpt lat="43.24695" lon="5.93968">
        <ele>492</ele>
        <time>2013-12-11T11:06:24Z</time>
      </trkpt>
      <trkpt lat="43.24687" lon="5.93967">
        <ele>500</ele>
        <time>2013-12-11T11:07:46Z</time>
      </trkpt>
      <trkpt lat="43.24687" lon="5.93966">
        <ele>500.2</ele>
        <time>2013-12-11T11:07:47Z</time>
      </trkpt>
      <trkpt lat="43.24687" lon="5.9397">
        <ele>500.2</ele>
        <time>2013-12-11T11:08:08Z</time>
      </trkpt>
      <trkpt lat="43.2469" lon="5.93966">
        <ele>495.5</ele>
        <time>2013-12-11T11:12:20Z</time>
      </trkpt>
      <trkpt lat="43.24691" lon="5.93967">
        <ele>495</ele>
        <time>2013-12-11T11:12:21Z</time>
      </trkpt>
      <trkpt lat="43.24691" lon="5.9396">
        <ele>491.7</ele>
        <time>2013-12-11T11:16:06Z</time>
      </trkpt>
      <trkpt lat="43.24692" lon="5.93967">
        <ele>491.7</ele>
        <time>2013-12-11T11:20:35Z</time>
      </trkpt>
      <trkpt lat="43.24688" lon="5.93969">
        <ele>499.6</ele>
        <time>2013-12-11T11:32:13Z</time>
      </trkpt>
      <trkpt lat="43.24692" lon="5.93969">
        <ele>495.2</ele>
        <time>2013-12-11T11:37:11Z</time>
      </trkpt>
      <trkpt lat="43.24692" lon="5.9397">
        <ele>495.2</ele>
        <time>2013-12-11T11:37:12Z</time>
      </trkpt>
      <trkpt lat="43.24691" lon="5.9397">
        <ele>497.8</ele>
        <time>2013-12-11T11:37:37Z</time>
      </trkpt>
      <trkpt lat="43.24694" lon="5.93974">
        <ele>495.1</ele>
        <time>2013-12-11T11:37:41Z</time>
      </trkpt>
      <trkpt lat="43.24692" lon="5.93969">
        <ele>495.1</ele>
        <time>2013-12-11T11:38:22Z</time>
      </trkpt>
      <trkpt lat="43.24692" lon="5.93968">
        <ele>495.3</ele>
        <time>2013-12-11T11:38:23Z</time>
      </trkpt>
      <trkpt lat="43.24693" lon="5.93962">
        <ele>485.7</ele>
        <time>2013-12-11T11:44:10Z</time>
      </trkpt>
      <trkpt lat="43.24693" lon="5.93971">
        <ele>496.7</ele>
        <time>2013-12-11T11:46:43Z</time>
      </trkpt>
      <trkpt lat="43.24692" lon="5.93962">
        <ele>491.7</ele>
        <time>2013-12-11T11:48:01Z</time>
      </trkpt>
      <trkpt lat="43.24688" lon="5.9396">
        <ele>499.3</ele>
        <time>2013-12-11T11:49:07Z</time>
      </trkpt>
      <trkpt lat="43.24687" lon="5.93954">
        <ele>499.7</ele>
        <time>2013-12-11T11:52:31Z</time>
      </trkpt>
      <trkpt lat="43.24693" lon="5.93961">
        <ele>487.1</ele>
        <time>2013-12-11T11:54:30Z</time>
      </trkpt>
      <trkpt lat="43.24694" lon="5.93963">
        <ele>487.3</ele>
        <time>2013-12-11T11:54:31Z</time>
      </trkpt>
      <trkpt lat="43.24693" lon="5.93968">
        <ele>493.8</ele>
        <time>2013-12-11T11:55:40Z</time>
      </trkpt>
      <trkpt lat="43.24691" lon="5.93979">
        <ele>499.6</ele>
        <time>2013-12-11T11:56:20Z</time>
      </trkpt>
      <trkpt lat="43.24695" lon="5.93977">
        <ele>502.6</ele>
        <time>2013-12-11T11:56:37Z</time>
      </trkpt>
      <trkpt lat="43.24692" lon="5.93982">
        <ele>499.3</ele>
        <time>2013-12-11T11:58:56Z</time>
      </trkpt>
      <trkpt lat="43.24692" lon="5.93983">
        <ele>499.7</ele>
        <time>2013-12-11T11:58:57Z</time>
      </trkpt>
      <trkpt lat="43.24693" lon="5.93976">
        <ele>495</ele>
        <time>2013-12-11T12:00:04Z</time>
      </trkpt>
      <trkpt lat="43.24693" lon="5.93983">
        <ele>497.8</ele>
        <time>2013-12-11T12:01:07Z</time>
      </trkpt>
      <trkpt lat="43.24696" lon="5.93993">
        <ele>495.2</ele>
        <time>2013-12-11T12:01:21Z</time>
      </trkpt>
      <trkpt lat="43.24698" lon="5.93997">
        <ele>494.2</ele>
        <time>2013-12-11T12:01:28Z</time>
      </trkpt>
      <trkpt lat="43.247" lon="5.94002">
        <ele>494</ele>
        <time>2013-12-11T12:01:34Z</time>
      </trkpt>
      <trkpt lat="43.24703" lon="5.94007">
        <ele>493.3</ele>
        <time>2013-12-11T12:01:39Z</time>
      </trkpt>
      <trkpt lat="43.24706" lon="5.94011">
        <ele>492.7</ele>
        <time>2013-12-11T12:01:45Z</time>
      </trkpt>
      <trkpt lat="43.24708" lon="5.94017">
        <ele>493.2</ele>
        <time>2013-12-11T12:01:51Z</time>
      </trkpt>
      <trkpt lat="43.24709" lon="5.94022">
        <ele>492.7</ele>
        <time>2013-12-11T12:01:57Z</time>
      </trkpt>
      <trkpt lat="43.24711" lon="5.94028">
        <ele>493.2</ele>
        <time>2013-12-11T12:02:02Z</time>
      </trkpt>
      <trkpt lat="43.24713" lon="5.94032">
        <ele>492.8</ele>
        <time>2013-12-11T12:02:06Z</time>
      </trkpt>
      <trkpt lat="43.24714" lon="5.94037">
        <ele>493.3</ele>
        <time>2013-12-11T12:02:09Z</time>
      </trkpt>
      <trkpt lat="43.24714" lon="5.94039">
        <ele>493.2</ele>
        <time>2013-12-11T12:02:10Z</time>
      </trkpt>
      <trkpt lat="43.24717" lon="5.94047">
        <ele>492.7</ele>
        <time>2013-12-11T12:02:17Z</time>
      </trkpt>
      <trkpt lat="43.24719" lon="5.94052">
        <ele>491.7</ele>
        <time>2013-12-11T12:02:21Z</time>
      </trkpt>
      <trkpt lat="43.2472" lon="5.94058">
        <ele>491.3</ele>
        <time>2013-12-11T12:02:26Z</time>
      </trkpt>
      <trkpt lat="43.24719" lon="5.94063">
        <ele>490.7</ele>
        <time>2013-12-11T12:02:31Z</time>
      </trkpt>
      <trkpt lat="43.24719" lon="5.94069">
        <ele>490.1</ele>
        <time>2013-12-11T12:02:35Z</time>
      </trkpt>
      <trkpt lat="43.24717" lon="5.94074">
        <ele>489.5</ele>
        <time>2013-12-11T12:02:39Z</time>
      </trkpt>
      <trkpt lat="43.24716" lon="5.94079">
        <ele>491.2</ele>
        <time>2013-12-11T12:02:42Z</time>
      </trkpt>
      <trkpt lat="43.24715" lon="5.94084">
        <ele>493.6</ele>
        <time>2013-12-11T12:02:45Z</time>
      </trkpt>
      <trkpt lat="43.24716" lon="5.94089">
        <ele>493.7</ele>
        <time>2013-12-11T12:02:50Z</time>
      </trkpt>
      <trkpt lat="43.24717" lon="5.94094">
        <ele>491.5</ele>
        <time>2013-12-11T12:02:54Z</time>
      </trkpt>
      <trkpt lat="43.24713" lon="5.94095">
        <ele>495.6</ele>
        <time>2013-12-11T12:03:04Z</time>
      </trkpt>
      <trkpt lat="43.24709" lon="5.94095">
        <ele>495.6</ele>
        <time>2013-12-11T12:03:10Z</time>
      </trkpt>
      <trkpt lat="43.24708" lon="5.94096">
        <ele>495.7</ele>
        <time>2013-12-11T12:03:11Z</time>
      </trkpt>
      <trkpt lat="43.24702" lon="5.94101">
        <ele>491.7</ele>
        <time>2013-12-11T12:03:20Z</time>
      </trkpt>
      <trkpt lat="43.24698" lon="5.94104">
        <ele>489.6</ele>
        <time>2013-12-11T12:03:26Z</time>
      </trkpt>
      <trkpt lat="43.24695" lon="5.94107">
        <ele>490.5</ele>
        <time>2013-12-11T12:03:31Z</time>
      </trkpt>
      <trkpt lat="43.24692" lon="5.94112">
        <ele>491.1</ele>
        <time>2013-12-11T12:03:37Z</time>
      </trkpt>
      <trkpt lat="43.2469" lon="5.94116">
        <ele>490.3</ele>
        <time>2013-12-11T12:03:43Z</time>
      </trkpt>
      <trkpt lat="43.24688" lon="5.9412">
        <ele>488.7</ele>
        <time>2013-12-11T12:03:48Z</time>
      </trkpt>
      <trkpt lat="43.24684" lon="5.94123">
        <ele>489.1</ele>
        <time>2013-12-11T12:03:53Z</time>
      </trkpt>
      <trkpt lat="43.2468" lon="5.94121">
        <ele>488.5</ele>
        <time>2013-12-11T12:04:00Z</time>
      </trkpt>
      <trkpt lat="43.24679" lon="5.94115">
        <ele>488.2</ele>
        <time>2013-12-11T12:04:08Z</time>
      </trkpt>
      <trkpt lat="43.24679" lon="5.94109">
        <ele>488.8</ele>
        <time>2013-12-11T12:04:14Z</time>
      </trkpt>
      <trkpt lat="43.24679" lon="5.94108">
        <ele>488.7</ele>
        <time>2013-12-11T12:04:15Z</time>
      </trkpt>
      <trkpt lat="43.24682" lon="5.941">
        <ele>487.8</ele>
        <time>2013-12-11T12:04:20Z</time>
      </trkpt>
      <trkpt lat="43.24683" lon="5.94095">
        <ele>487.8</ele>
        <time>2013-12-11T12:04:24Z</time>
      </trkpt>
      <trkpt lat="43.24684" lon="5.94089">
        <ele>489.6</ele>
        <time>2013-12-11T12:04:27Z</time>
      </trkpt>
      <trkpt lat="43.24685" lon="5.94084">
        <ele>489.2</ele>
        <time>2013-12-11T12:04:30Z</time>
      </trkpt>
      <trkpt lat="43.24687" lon="5.94079">
        <ele>488.6</ele>
        <time>2013-12-11T12:04:34Z</time>
      </trkpt>
      <trkpt lat="43.24686" lon="5.94073">
        <ele>485.7</ele>
        <time>2013-12-11T12:04:39Z</time>
      </trkpt>
      <trkpt lat="43.24684" lon="5.94068">
        <ele>481.3</ele>
        <time>2013-12-11T12:04:45Z</time>
      </trkpt>
      <trkpt lat="43.24683" lon="5.94063">
        <ele>479</ele>
        <time>2013-12-11T12:04:50Z</time>
      </trkpt>
      <trkpt lat="43.24681" lon="5.94058">
        <ele>476.8</ele>
        <time>2013-12-11T12:04:54Z</time>
      </trkpt>
      <trkpt lat="43.24677" lon="5.94055">
        <ele>474.5</ele>
        <time>2013-12-11T12:04:58Z</time>
      </trkpt>
      <trkpt lat="43.24674" lon="5.94052">
        <ele>471.2</ele>
        <time>2013-12-11T12:05:03Z</time>
      </trkpt>
      <trkpt lat="43.24669" lon="5.9405">
        <ele>470.2</ele>
        <time>2013-12-11T12:05:07Z</time>
      </trkpt>
      <trkpt lat="43.24665" lon="5.94048">
        <ele>469.7</ele>
        <time>2013-12-11T12:05:11Z</time>
      </trkpt>
      <trkpt lat="43.24662" lon="5.94046">
        <ele>468.8</ele>
        <time>2013-12-11T12:05:15Z</time>
      </trkpt>
      <trkpt lat="43.24661" lon="5.94046">
        <ele>468.6</ele>
        <time>2013-12-11T12:05:16Z</time>
      </trkpt>
      <trkpt lat="43.24655" lon="5.94041">
        <ele>467.6</ele>
        <time>2013-12-11T12:05:23Z</time>
      </trkpt>
      <trkpt lat="43.24651" lon="5.94038">
        <ele>467.1</ele>
        <time>2013-12-11T12:05:27Z</time>
      </trkpt>
      <trkpt lat="43.24648" lon="5.94035">
        <ele>467</ele>
        <time>2013-12-11T12:05:31Z</time>
      </trkpt>
      <trkpt lat="43.24645" lon="5.94032">
        <ele>466.7</ele>
        <time>2013-12-11T12:05:35Z</time>
      </trkpt>
      <trkpt lat="43.24643" lon="5.94028">
        <ele>467.6</ele>
        <time>2013-12-11T12:05:38Z</time>
      </trkpt>
      <trkpt lat="43.2464" lon="5.94026">
        <ele>469.6</ele>
        <time>2013-12-11T12:05:40Z</time>
      </trkpt>
      <trkpt lat="43.24637" lon="5.94023">
        <ele>474.2</ele>
        <time>2013-12-11T12:05:41Z</time>
      </trkpt>
      <trkpt lat="43.24634" lon="5.94019">
        <ele>478</ele>
        <time>2013-12-11T12:05:43Z</time>
      </trkpt>
      <trkpt lat="43.2463" lon="5.94016">
        <ele>480.2</ele>
        <time>2013-12-11T12:05:47Z</time>
      </trkpt>
      <trkpt lat="43.24627" lon="5.94012">
        <ele>481.8</ele>
        <time>2013-12-11T12:05:52Z</time>
      </trkpt>
      <trkpt lat="43.24623" lon="5.94011">
        <ele>484.7</ele>
        <time>2013-12-11T12:05:56Z</time>
      </trkpt>
      <trkpt lat="43.24619" lon="5.94011">
        <ele>484.8</ele>
        <time>2013-12-11T12:05:58Z</time>
      </trkpt>
      <trkpt lat="43.24616" lon="5.9401">
        <ele>484.8</ele>
        <time>2013-12-11T12:06:00Z</time>
      </trkpt>
      <trkpt lat="43.24612" lon="5.94007">
        <ele>483.7</ele>
        <time>2013-12-11T12:06:04Z</time>
      </trkpt>
      <trkpt lat="43.24609" lon="5.94003">
        <ele>480.7</ele>
        <time>2013-12-11T12:06:08Z</time>
      </trkpt>
      <trkpt lat="43.24606" lon="5.93999">
        <ele>477.2</ele>
        <time>2013-12-11T12:06:13Z</time>
      </trkpt>
      <trkpt lat="43.24604" lon="5.93995">
        <ele>474.6</ele>
        <time>2013-12-11T12:06:17Z</time>
      </trkpt>
      <trkpt lat="43.24603" lon="5.93994">
        <ele>473.8</ele>
        <time>2013-12-11T12:06:18Z</time>
      </trkpt>
      <trkpt lat="43.24599" lon="5.93986">
        <ele>470.2</ele>
        <time>2013-12-11T12:06:25Z</time>
      </trkpt>
      <trkpt lat="43.24598" lon="5.93981">
        <ele>468.8</ele>
        <time>2013-12-11T12:06:29Z</time>
      </trkpt>
      <trkpt lat="43.24597" lon="5.93976">
        <ele>468.2</ele>
        <time>2013-12-11T12:06:33Z</time>
      </trkpt>
      <trkpt lat="43.24597" lon="5.93972">
        <ele>467.5</ele>
        <time>2013-12-11T12:06:37Z</time>
      </trkpt>
      <trkpt lat="43.24596" lon="5.93966">
        <ele>466.8</ele>
        <time>2013-12-11T12:06:41Z</time>
      </trkpt>
      <trkpt lat="43.24596" lon="5.93961">
        <ele>467.2</ele>
        <time>2013-12-11T12:06:45Z</time>
      </trkpt>
      <trkpt lat="43.24596" lon="5.93955">
        <ele>467.7</ele>
        <time>2013-12-11T12:06:49Z</time>
      </trkpt>
      <trkpt lat="43.24595" lon="5.93951">
        <ele>468.7</ele>
        <time>2013-12-11T12:06:52Z</time>
      </trkpt>
      <trkpt lat="43.24595" lon="5.93948">
        <ele>469.7</ele>
        <time>2013-12-11T12:06:54Z</time>
      </trkpt>
      <trkpt lat="43.24592" lon="5.93943">
        <ele>472.7</ele>
        <time>2013-12-11T12:06:56Z</time>
      </trkpt>
      <trkpt lat="43.24592" lon="5.93938">
        <ele>475.3</ele>
        <time>2013-12-11T12:07:00Z</time>
      </trkpt>
      <trkpt lat="43.2459" lon="5.93932">
        <ele>477.7</ele>
        <time>2013-12-11T12:07:03Z</time>
      </trkpt>
      <trkpt lat="43.24592" lon="5.93927">
        <ele>475.1</ele>
        <time>2013-12-11T12:07:07Z</time>
      </trkpt>
      <trkpt lat="43.24593" lon="5.93922">
        <ele>471.3</ele>
        <time>2013-12-11T12:07:12Z</time>
      </trkpt>
      <trkpt lat="43.24594" lon="5.93916">
        <ele>469.2</ele>
        <time>2013-12-11T12:07:17Z</time>
      </trkpt>
      <trkpt lat="43.24594" lon="5.9391">
        <ele>466.7</ele>
        <time>2013-12-11T12:07:22Z</time>
      </trkpt>
      <trkpt lat="43.24594" lon="5.93909">
        <ele>466.6</ele>
        <time>2013-12-11T12:07:23Z</time>
      </trkpt>
      <trkpt lat="43.24595" lon="5.939">
        <ele>463.5</ele>
        <time>2013-12-11T12:07:31Z</time>
      </trkpt>
      <trkpt lat="43.24596" lon="5.93894">
        <ele>464.5</ele>
        <time>2013-12-11T12:07:40Z</time>
      </trkpt>
      <trkpt lat="43.24598" lon="5.93888">
        <ele>466</ele>
        <time>2013-12-11T12:07:51Z</time>
      </trkpt>
      <trkpt lat="43.24597" lon="5.93882">
        <ele>463.1</ele>
        <time>2013-12-11T12:07:59Z</time>
      </trkpt>
      <trkpt lat="43.24597" lon="5.93877">
        <ele>461</ele>
        <time>2013-12-11T12:08:05Z</time>
      </trkpt>
      <trkpt lat="43.24598" lon="5.93871">
        <ele>462.5</ele>
        <time>2013-12-11T12:08:10Z</time>
      </trkpt>
      <trkpt lat="43.24598" lon="5.93866">
        <ele>462.3</ele>
        <time>2013-12-11T12:08:16Z</time>
      </trkpt>
      <trkpt lat="43.24598" lon="5.93861">
        <ele>463.1</ele>
        <time>2013-12-11T12:08:20Z</time>
      </trkpt>
      <trkpt lat="43.24598" lon="5.93855">
        <ele>462.6</ele>
        <time>2013-12-11T12:08:25Z</time>
      </trkpt>
      <trkpt lat="43.24598" lon="5.93854">
        <ele>462.3</ele>
        <time>2013-12-11T12:08:26Z</time>
      </trkpt>
      <trkpt lat="43.24596" lon="5.93845">
        <ele>465.8</ele>
        <time>2013-12-11T12:08:34Z</time>
      </trkpt>
      <trkpt lat="43.24596" lon="5.9384">
        <ele>471.1</ele>
        <time>2013-12-11T12:08:54Z</time>
      </trkpt>
      <trkpt lat="43.24597" lon="5.93835">
        <ele>470</ele>
        <time>2013-12-11T12:09:04Z</time>
      </trkpt>
      <trkpt lat="43.24597" lon="5.9383">
        <ele>470.7</ele>
        <time>2013-12-11T12:09:11Z</time>
      </trkpt>
      <trkpt lat="43.24595" lon="5.93825">
        <ele>468.7</ele>
        <time>2013-12-11T12:09:15Z</time>
      </trkpt>
      <trkpt lat="43.24594" lon="5.93821">
        <ele>468.8</ele>
        <time>2013-12-11T12:09:18Z</time>
      </trkpt>
      <trkpt lat="43.24592" lon="5.93816">
        <ele>467.6</ele>
        <time>2013-12-11T12:09:23Z</time>
      </trkpt>
      <trkpt lat="43.24591" lon="5.93811">
        <ele>465.6</ele>
        <time>2013-12-11T12:09:28Z</time>
      </trkpt>
      <trkpt lat="43.24591" lon="5.93809">
        <ele>466.6</ele>
        <time>2013-12-11T12:09:29Z</time>
      </trkpt>
      <trkpt lat="43.2459" lon="5.938">
        <ele>465.6</ele>
        <time>2013-12-11T12:09:36Z</time>
      </trkpt>
      <trkpt lat="43.2459" lon="5.93795">
        <ele>464.7</ele>
        <time>2013-12-11T12:09:41Z</time>
      </trkpt>
      <trkpt lat="43.24591" lon="5.93789">
        <ele>464.3</ele>
        <time>2013-12-11T12:10:27Z</time>
      </trkpt>
      <trkpt lat="43.24593" lon="5.93784">
        <ele>462.7</ele>
        <time>2013-12-11T12:10:35Z</time>
      </trkpt>
      <trkpt lat="43.24593" lon="5.93783">
        <ele>462.8</ele>
        <time>2013-12-11T12:10:36Z</time>
      </trkpt>
      <trkpt lat="43.24594" lon="5.93773">
        <ele>461.7</ele>
        <time>2013-12-11T12:10:50Z</time>
      </trkpt>
      <trkpt lat="43.24595" lon="5.93767">
        <ele>462.7</ele>
        <time>2013-12-11T12:11:00Z</time>
      </trkpt>
      <trkpt lat="43.24596" lon="5.93763">
        <ele>461.7</ele>
        <time>2013-12-11T12:11:07Z</time>
      </trkpt>
      <trkpt lat="43.246" lon="5.93761">
        <ele>463.8</ele>
        <time>2013-12-11T12:11:11Z</time>
      </trkpt>
      <trkpt lat="43.24603" lon="5.93759">
        <ele>468.6</ele>
        <time>2013-12-11T12:11:13Z</time>
      </trkpt>
      <trkpt lat="43.24601" lon="5.93755">
        <ele>459.6</ele>
        <time>2013-12-11T12:11:39Z</time>
      </trkpt>
      <trkpt lat="43.24601" lon="5.93753">
        <ele>459.2</ele>
        <time>2013-12-11T12:11:40Z</time>
      </trkpt>
      <trkpt lat="43.24599" lon="5.93743">
        <ele>454.8</ele>
        <time>2013-12-11T12:11:50Z</time>
      </trkpt>
      <trkpt lat="43.24599" lon="5.93737">
        <ele>456</ele>
        <time>2013-12-11T12:11:55Z</time>
      </trkpt>
      <trkpt lat="43.246" lon="5.93732">
        <ele>456.8</ele>
        <time>2013-12-11T12:12:05Z</time>
      </trkpt>
      <trkpt lat="43.24601" lon="5.93726">
        <ele>459.2</ele>
        <time>2013-12-11T12:12:19Z</time>
      </trkpt>
      <trkpt lat="43.24602" lon="5.93721">
        <ele>459.6</ele>
        <time>2013-12-11T12:12:25Z</time>
      </trkpt>
      <trkpt lat="43.24604" lon="5.93716">
        <ele>459.1</ele>
        <time>2013-12-11T12:12:31Z</time>
      </trkpt>
      <trkpt lat="43.24606" lon="5.93711">
        <ele>459.2</ele>
        <time>2013-12-11T12:12:37Z</time>
      </trkpt>
      <trkpt lat="43.24609" lon="5.93706">
        <ele>458.5</ele>
        <time>2013-12-11T12:12:43Z</time>
      </trkpt>
      <trkpt lat="43.24609" lon="5.93705">
        <ele>458.3</ele>
        <time>2013-12-11T12:12:44Z</time>
      </trkpt>
      <trkpt lat="43.2461" lon="5.93696">
        <ele>458.5</ele>
        <time>2013-12-11T12:12:53Z</time>
      </trkpt>
      <trkpt lat="43.24611" lon="5.93691">
        <ele>459.7</ele>
        <time>2013-12-11T12:12:56Z</time>
      </trkpt>
      <trkpt lat="43.24611" lon="5.93685">
        <ele>460</ele>
        <time>2013-12-11T12:13:01Z</time>
      </trkpt>
      <trkpt lat="43.24612" lon="5.93679">
        <ele>459.1</ele>
        <time>2013-12-11T12:13:07Z</time>
      </trkpt>
      <trkpt lat="43.24612" lon="5.93674">
        <ele>457.6</ele>
        <time>2013-12-11T12:13:13Z</time>
      </trkpt>
      <trkpt lat="43.24613" lon="5.93669">
        <ele>457.1</ele>
        <time>2013-12-11T12:13:18Z</time>
      </trkpt>
      <trkpt lat="43.24613" lon="5.93664">
        <ele>456.6</ele>
        <time>2013-12-11T12:13:23Z</time>
      </trkpt>
      <trkpt lat="43.24615" lon="5.93659">
        <ele>458</ele>
        <time>2013-12-11T12:13:26Z</time>
      </trkpt>
      <trkpt lat="43.24616" lon="5.93653">
        <ele>457.2</ele>
        <time>2013-12-11T12:13:32Z</time>
      </trkpt>
      <trkpt lat="43.24617" lon="5.93648">
        <ele>460</ele>
        <time>2013-12-11T12:13:36Z</time>
      </trkpt>
      <trkpt lat="43.24618" lon="5.93642">
        <ele>458.7</ele>
        <time>2013-12-11T12:13:43Z</time>
      </trkpt>
      <trkpt lat="43.24619" lon="5.93637">
        <ele>458.2</ele>
        <time>2013-12-11T12:13:48Z</time>
      </trkpt>
      <trkpt lat="43.24619" lon="5.93636">
        <ele>458.1</ele>
        <time>2013-12-11T12:13:49Z</time>
      </trkpt>
      <trkpt lat="43.24622" lon="5.93626">
        <ele>456.3</ele>
        <time>2013-12-11T12:14:01Z</time>
      </trkpt>
      <trkpt lat="43.24624" lon="5.93621">
        <ele>455.7</ele>
        <time>2013-12-11T12:14:05Z</time>
      </trkpt>
      <trkpt lat="43.24626" lon="5.93616">
        <ele>455.2</ele>
        <time>2013-12-11T12:14:09Z</time>
      </trkpt>
      <trkpt lat="43.24629" lon="5.93612">
        <ele>455</ele>
        <time>2013-12-11T12:14:13Z</time>
      </trkpt>
      <trkpt lat="43.24632" lon="5.93608">
        <ele>455</ele>
        <time>2013-12-11T12:14:17Z</time>
      </trkpt>
      <trkpt lat="43.24634" lon="5.93603">
        <ele>454.2</ele>
        <time>2013-12-11T12:14:22Z</time>
      </trkpt>
      <trkpt lat="43.24636" lon="5.93597">
        <ele>454.1</ele>
        <time>2013-12-11T12:14:27Z</time>
      </trkpt>
      <trkpt lat="43.24637" lon="5.93592">
        <ele>452.7</ele>
        <time>2013-12-11T12:14:32Z</time>
      </trkpt>
      <trkpt lat="43.24639" lon="5.93588">
        <ele>452.3</ele>
        <time>2013-12-11T12:14:36Z</time>
      </trkpt>
      <trkpt lat="43.24641" lon="5.93583">
        <ele>452.3</ele>
        <time>2013-12-11T12:14:40Z</time>
      </trkpt>
      <trkpt lat="43.24642" lon="5.93578">
        <ele>451.7</ele>
        <time>2013-12-11T12:14:45Z</time>
      </trkpt>
      <trkpt lat="43.24643" lon="5.93573">
        <ele>453</ele>
        <time>2013-12-11T12:14:49Z</time>
      </trkpt>
      <trkpt lat="43.24644" lon="5.93571">
        <ele>453.1</ele>
        <time>2013-12-11T12:14:50Z</time>
      </trkpt>
      <trkpt lat="43.24647" lon="5.93563">
        <ele>453.5</ele>
        <time>2013-12-11T12:14:58Z</time>
      </trkpt>
      <trkpt lat="43.24649" lon="5.93559">
        <ele>453</ele>
        <time>2013-12-11T12:15:02Z</time>
      </trkpt>
      <trkpt lat="43.24652" lon="5.93554">
        <ele>453.5</ele>
        <time>2013-12-11T12:15:06Z</time>
      </trkpt>
      <trkpt lat="43.24653" lon="5.93549">
        <ele>453.1</ele>
        <time>2013-12-11T12:15:10Z</time>
      </trkpt>
      <trkpt lat="43.24655" lon="5.93544">
        <ele>453</ele>
        <time>2013-12-11T12:15:14Z</time>
      </trkpt>
      <trkpt lat="43.24657" lon="5.9354">
        <ele>453.3</ele>
        <time>2013-12-11T12:15:18Z</time>
      </trkpt>
      <trkpt lat="43.24659" lon="5.93536">
        <ele>455.2</ele>
        <time>2013-12-11T12:15:21Z</time>
      </trkpt>
      <trkpt lat="43.24661" lon="5.93531">
        <ele>456.2</ele>
        <time>2013-12-11T12:15:25Z</time>
      </trkpt>
      <trkpt lat="43.24664" lon="5.93527">
        <ele>457.2</ele>
        <time>2013-12-11T12:15:29Z</time>
      </trkpt>
      <trkpt lat="43.24666" lon="5.93522">
        <ele>457.1</ele>
        <time>2013-12-11T12:15:34Z</time>
      </trkpt>
      <trkpt lat="43.24668" lon="5.93516">
        <ele>453.2</ele>
        <time>2013-12-11T12:15:40Z</time>
      </trkpt>
      <trkpt lat="43.2467" lon="5.93511">
        <ele>452.5</ele>
        <time>2013-12-11T12:15:45Z</time>
      </trkpt>
      <trkpt lat="43.24671" lon="5.93506">
        <ele>449</ele>
        <time>2013-12-11T12:15:49Z</time>
      </trkpt>
      <trkpt lat="43.24673" lon="5.93501">
        <ele>448.1</ele>
        <time>2013-12-11T12:15:53Z</time>
      </trkpt>
      <trkpt lat="43.24674" lon="5.935">
        <ele>448.1</ele>
        <time>2013-12-11T12:15:54Z</time>
      </trkpt>
      <trkpt lat="43.24677" lon="5.93494">
        <ele>447.7</ele>
        <time>2013-12-11T12:15:59Z</time>
      </trkpt>
      <trkpt lat="43.2468" lon="5.93489">
        <ele>448.5</ele>
        <time>2013-12-11T12:16:02Z</time>
      </trkpt>
      <trkpt lat="43.24682" lon="5.93485">
        <ele>449.5</ele>
        <time>2013-12-11T12:16:05Z</time>
      </trkpt>
      <trkpt lat="43.24685" lon="5.9348">
        <ele>449.7</ele>
        <time>2013-12-11T12:16:10Z</time>
      </trkpt>
      <trkpt lat="43.24686" lon="5.93475">
        <ele>449.7</ele>
        <time>2013-12-11T12:16:15Z</time>
      </trkpt>
      <trkpt lat="43.24688" lon="5.9347">
        <ele>450.7</ele>
        <time>2013-12-11T12:16:19Z</time>
      </trkpt>
      <trkpt lat="43.24691" lon="5.93466">
        <ele>450.8</ele>
        <time>2013-12-11T12:16:23Z</time>
      </trkpt>
      <trkpt lat="43.24693" lon="5.93461">
        <ele>450.3</ele>
        <time>2013-12-11T12:16:27Z</time>
      </trkpt>
      <trkpt lat="43.24694" lon="5.93456">
        <ele>449.8</ele>
        <time>2013-12-11T12:16:31Z</time>
      </trkpt>
      <trkpt lat="43.24696" lon="5.93451">
        <ele>449.7</ele>
        <time>2013-12-11T12:16:35Z</time>
      </trkpt>
      <trkpt lat="43.24699" lon="5.93447">
        <ele>449.8</ele>
        <time>2013-12-11T12:16:39Z</time>
      </trkpt>
      <trkpt lat="43.24701" lon="5.93443">
        <ele>449.7</ele>
        <time>2013-12-11T12:16:43Z</time>
      </trkpt>
      <trkpt lat="43.24704" lon="5.93438">
        <ele>450.1</ele>
        <time>2013-12-11T12:16:47Z</time>
      </trkpt>
      <trkpt lat="43.24705" lon="5.93432">
        <ele>449.7</ele>
        <time>2013-12-11T12:16:52Z</time>
      </trkpt>
      <trkpt lat="43.24708" lon="5.93428">
        <ele>449.8</ele>
        <time>2013-12-11T12:16:55Z</time>
      </trkpt>
      <trkpt lat="43.24709" lon="5.93427">
        <ele>450.1</ele>
        <time>2013-12-11T12:16:56Z</time>
      </trkpt>
      <trkpt lat="43.24713" lon="5.9342">
        <ele>450.3</ele>
        <time>2013-12-11T12:17:01Z</time>
      </trkpt>
      <trkpt lat="43.24715" lon="5.93416">
        <ele>450.6</ele>
        <time>2013-12-11T12:17:04Z</time>
      </trkpt>
      <trkpt lat="43.24717" lon="5.93412">
        <ele>450.3</ele>
        <time>2013-12-11T12:17:07Z</time>
      </trkpt>
      <trkpt lat="43.24719" lon="5.93408">
        <ele>450.3</ele>
        <time>2013-12-11T12:17:10Z</time>
      </trkpt>
      <trkpt lat="43.24721" lon="5.93404">
        <ele>450.6</ele>
        <time>2013-12-11T12:17:13Z</time>
      </trkpt>
      <trkpt lat="43.24723" lon="5.93399">
        <ele>451</ele>
        <time>2013-12-11T12:17:16Z</time>
      </trkpt>
      <trkpt lat="43.24724" lon="5.93394">
        <ele>450.5</ele>
        <time>2013-12-11T12:17:20Z</time>
      </trkpt>
      <trkpt lat="43.24725" lon="5.93388">
        <ele>449</ele>
        <time>2013-12-11T12:17:24Z</time>
      </trkpt>
      <trkpt lat="43.24727" lon="5.93383">
        <ele>448.3</ele>
        <time>2013-12-11T12:17:28Z</time>
      </trkpt>
      <trkpt lat="43.24727" lon="5.93378">
        <ele>446.6</ele>
        <time>2013-12-11T12:17:32Z</time>
      </trkpt>
      <trkpt lat="43.24727" lon="5.93373">
        <ele>445.1</ele>
        <time>2013-12-11T12:17:36Z</time>
      </trkpt>
      <trkpt lat="43.24728" lon="5.93367">
        <ele>442.7</ele>
        <time>2013-12-11T12:17:41Z</time>
      </trkpt>
      <trkpt lat="43.24728" lon="5.93362">
        <ele>441.2</ele>
        <time>2013-12-11T12:17:45Z</time>
      </trkpt>
      <trkpt lat="43.24729" lon="5.93356">
        <ele>440.2</ele>
        <time>2013-12-11T12:17:49Z</time>
      </trkpt>
      <trkpt lat="43.2473" lon="5.93351">
        <ele>439.2</ele>
        <time>2013-12-11T12:17:53Z</time>
      </trkpt>
      <trkpt lat="43.24731" lon="5.93345">
        <ele>438.2</ele>
        <time>2013-12-11T12:17:57Z</time>
      </trkpt>
      <trkpt lat="43.24731" lon="5.93343">
        <ele>438.2</ele>
        <time>2013-12-11T12:17:58Z</time>
      </trkpt>
      <trkpt lat="43.24733" lon="5.93334">
        <ele>436.7</ele>
        <time>2013-12-11T12:18:05Z</time>
      </trkpt>
      <trkpt lat="43.24734" lon="5.93328">
        <ele>436.1</ele>
        <time>2013-12-11T12:18:09Z</time>
      </trkpt>
      <trkpt lat="43.24735" lon="5.93322">
        <ele>435.3</ele>
        <time>2013-12-11T12:18:13Z</time>
      </trkpt>
      <trkpt lat="43.24735" lon="5.93317">
        <ele>434.1</ele>
        <time>2013-12-11T12:18:17Z</time>
      </trkpt>
      <trkpt lat="43.24736" lon="5.93312">
        <ele>432.5</ele>
        <time>2013-12-11T12:18:21Z</time>
      </trkpt>
      <trkpt lat="43.24737" lon="5.93306">
        <ele>433.6</ele>
        <time>2013-12-11T12:18:24Z</time>
      </trkpt>
      <trkpt lat="43.24737" lon="5.93301">
        <ele>433.5</ele>
        <time>2013-12-11T12:18:27Z</time>
      </trkpt>
      <trkpt lat="43.24737" lon="5.93296">
        <ele>433.3</ele>
        <time>2013-12-11T12:18:30Z</time>
      </trkpt>
      <trkpt lat="43.24738" lon="5.93291">
        <ele>434.3</ele>
        <time>2013-12-11T12:18:33Z</time>
      </trkpt>
      <trkpt lat="43.24738" lon="5.93285">
        <ele>434.3</ele>
        <time>2013-12-11T12:18:37Z</time>
      </trkpt>
      <trkpt lat="43.24738" lon="5.93279">
        <ele>434.3</ele>
        <time>2013-12-11T12:18:41Z</time>
      </trkpt>
      <trkpt lat="43.2474" lon="5.93273">
        <ele>436</ele>
        <time>2013-12-11T12:18:44Z</time>
      </trkpt>
      <trkpt lat="43.24742" lon="5.93269">
        <ele>436.2</ele>
        <time>2013-12-11T12:18:47Z</time>
      </trkpt>
      <trkpt lat="43.24744" lon="5.93264">
        <ele>436.2</ele>
        <time>2013-12-11T12:18:51Z</time>
      </trkpt>
      <trkpt lat="43.24748" lon="5.9326">
        <ele>436.8</ele>
        <time>2013-12-11T12:18:54Z</time>
      </trkpt>
      <trkpt lat="43.2475" lon="5.93257">
        <ele>437.6</ele>
        <time>2013-12-11T12:18:56Z</time>
      </trkpt>
      <trkpt lat="43.24753" lon="5.93254">
        <ele>438.8</ele>
        <time>2013-12-11T12:18:58Z</time>
      </trkpt>
      <trkpt lat="43.24754" lon="5.93252">
        <ele>439.2</ele>
        <time>2013-12-11T12:18:59Z</time>
      </trkpt>
      <trkpt lat="43.24757" lon="5.93247">
        <ele>439.2</ele>
        <time>2013-12-11T12:19:03Z</time>
      </trkpt>
      <trkpt lat="43.2476" lon="5.93243">
        <ele>439.5</ele>
        <time>2013-12-11T12:19:06Z</time>
      </trkpt>
      <trkpt lat="43.24762" lon="5.93239">
        <ele>438.2</ele>
        <time>2013-12-11T12:19:10Z</time>
      </trkpt>
      <trkpt lat="43.24765" lon="5.93235">
        <ele>438.3</ele>
        <time>2013-12-11T12:19:13Z</time>
      </trkpt>
      <trkpt lat="43.24767" lon="5.93232">
        <ele>439.2</ele>
        <time>2013-12-11T12:19:15Z</time>
      </trkpt>
      <trkpt lat="43.2477" lon="5.93229">
        <ele>439.8</ele>
        <time>2013-12-11T12:19:17Z</time>
      </trkpt>
      <trkpt lat="43.24773" lon="5.93225">
        <ele>440.5</ele>
        <time>2013-12-11T12:19:20Z</time>
      </trkpt>
      <trkpt lat="43.24775" lon="5.9322">
        <ele>440.7</ele>
        <time>2013-12-11T12:19:23Z</time>
      </trkpt>
      <trkpt lat="43.24777" lon="5.93216">
        <ele>440.5</ele>
        <time>2013-12-11T12:19:26Z</time>
      </trkpt>
      <trkpt lat="43.24779" lon="5.93212">
        <ele>440.2</ele>
        <time>2013-12-11T12:19:29Z</time>
      </trkpt>
      <trkpt lat="43.24781" lon="5.93207">
        <ele>440.3</ele>
        <time>2013-12-11T12:19:32Z</time>
      </trkpt>
      <trkpt lat="43.24782" lon="5.93202">
        <ele>440.2</ele>
        <time>2013-12-11T12:19:35Z</time>
      </trkpt>
      <trkpt lat="43.24784" lon="5.93197">
        <ele>439.7</ele>
        <time>2013-12-11T12:19:39Z</time>
      </trkpt>
      <trkpt lat="43.24785" lon="5.93193">
        <ele>440.3</ele>
        <time>2013-12-11T12:19:41Z</time>
      </trkpt>
      <trkpt lat="43.24788" lon="5.93189">
        <ele>442</ele>
        <time>2013-12-11T12:19:43Z</time>
      </trkpt>
      <trkpt lat="43.24789" lon="5.93185">
        <ele>441.2</ele>
        <time>2013-12-11T12:19:46Z</time>
      </trkpt>
      <trkpt lat="43.2479" lon="5.9318">
        <ele>442.5</ele>
        <time>2013-12-11T12:19:49Z</time>
      </trkpt>
      <trkpt lat="43.2479" lon="5.93174">
        <ele>440.7</ele>
        <time>2013-12-11T12:19:53Z</time>
      </trkpt>
      <trkpt lat="43.2479" lon="5.93169">
        <ele>439.8</ele>
        <time>2013-12-11T12:19:56Z</time>
      </trkpt>
      <trkpt lat="43.24791" lon="5.93164">
        <ele>440.3</ele>
        <time>2013-12-11T12:19:59Z</time>
      </trkpt>
      <trkpt lat="43.24791" lon="5.93163">
        <ele>440.3</ele>
        <time>2013-12-11T12:20:00Z</time>
      </trkpt>
      <trkpt lat="43.24793" lon="5.93153">
        <ele>439.7</ele>
        <time>2013-12-11T12:20:07Z</time>
      </trkpt>
      <trkpt lat="43.24797" lon="5.9315">
        <ele>438.2</ele>
        <time>2013-12-11T12:20:13Z</time>
      </trkpt>
      <trkpt lat="43.248" lon="5.93154">
        <ele>437.3</ele>
        <time>2013-12-11T12:20:17Z</time>
      </trkpt>
      <trkpt lat="43.24801" lon="5.93158">
        <ele>436.6</ele>
        <time>2013-12-11T12:20:21Z</time>
      </trkpt>
      <trkpt lat="43.24802" lon="5.93163">
        <ele>436.5</ele>
        <time>2013-12-11T12:20:25Z</time>
      </trkpt>
      <trkpt lat="43.24802" lon="5.93169">
        <ele>436.7</ele>
        <time>2013-12-11T12:20:29Z</time>
      </trkpt>
      <trkpt lat="43.24802" lon="5.93174">
        <ele>436.7</ele>
        <time>2013-12-11T12:20:32Z</time>
      </trkpt>
      <trkpt lat="43.24802" lon="5.9318">
        <ele>437</ele>
        <time>2013-12-11T12:20:36Z</time>
      </trkpt>
      <trkpt lat="43.24802" lon="5.93185">
        <ele>437.2</ele>
        <time>2013-12-11T12:20:40Z</time>
      </trkpt>
      <trkpt lat="43.24802" lon="5.9319">
        <ele>437.3</ele>
        <time>2013-12-11T12:20:43Z</time>
      </trkpt>
      <trkpt lat="43.24802" lon="5.93196">
        <ele>436.1</ele>
        <time>2013-12-11T12:20:48Z</time>
      </trkpt>
      <trkpt lat="43.24801" lon="5.93201">
        <ele>436.2</ele>
        <time>2013-12-11T12:20:51Z</time>
      </trkpt>
      <trkpt lat="43.24801" lon="5.93207">
        <ele>435.6</ele>
        <time>2013-12-11T12:20:55Z</time>
      </trkpt>
      <trkpt lat="43.24801" lon="5.93212">
        <ele>434.8</ele>
        <time>2013-12-11T12:20:59Z</time>
      </trkpt>
      <trkpt lat="43.248" lon="5.93217">
        <ele>435.3</ele>
        <time>2013-12-11T12:21:02Z</time>
      </trkpt>
      <trkpt lat="43.248" lon="5.93219">
        <ele>435.7</ele>
        <time>2013-12-11T12:21:03Z</time>
      </trkpt>
      <trkpt lat="43.24799" lon="5.93228">
        <ele>434.6</ele>
        <time>2013-12-11T12:21:09Z</time>
      </trkpt>
      <trkpt lat="43.24799" lon="5.93234">
        <ele>434.7</ele>
        <time>2013-12-11T12:21:12Z</time>
      </trkpt>
      <trkpt lat="43.24799" lon="5.93238">
        <ele>433.7</ele>
        <time>2013-12-11T12:21:15Z</time>
      </trkpt>
      <trkpt lat="43.24799" lon="5.93244">
        <ele>433.7</ele>
        <time>2013-12-11T12:21:18Z</time>
      </trkpt>
      <trkpt lat="43.24799" lon="5.9325">
        <ele>433.8</ele>
        <time>2013-12-11T12:21:22Z</time>
      </trkpt>
      <trkpt lat="43.24799" lon="5.93256">
        <ele>434</ele>
        <time>2013-12-11T12:21:26Z</time>
      </trkpt>
      <trkpt lat="43.24799" lon="5.9326">
        <ele>433.3</ele>
        <time>2013-12-11T12:21:29Z</time>
      </trkpt>
      <trkpt lat="43.24799" lon="5.93265">
        <ele>434</ele>
        <time>2013-12-11T12:21:32Z</time>
      </trkpt>
      <trkpt lat="43.24798" lon="5.9327">
        <ele>433.5</ele>
        <time>2013-12-11T12:21:35Z</time>
      </trkpt>
      <trkpt lat="43.24798" lon="5.93274">
        <ele>432.7</ele>
        <time>2013-12-11T12:21:38Z</time>
      </trkpt>
      <trkpt lat="43.24798" lon="5.93279">
        <ele>432.3</ele>
        <time>2013-12-11T12:21:41Z</time>
      </trkpt>
      <trkpt lat="43.24797" lon="5.93284">
        <ele>432.2</ele>
        <time>2013-12-11T12:21:44Z</time>
      </trkpt>
      <trkpt lat="43.24797" lon="5.93288">
        <ele>431.1</ele>
        <time>2013-12-11T12:21:47Z</time>
      </trkpt>
      <trkpt lat="43.24796" lon="5.93293">
        <ele>430.3</ele>
        <time>2013-12-11T12:21:50Z</time>
      </trkpt>
      <trkpt lat="43.24796" lon="5.93299">
        <ele>430.2</ele>
        <time>2013-12-11T12:21:54Z</time>
      </trkpt>
      <trkpt lat="43.24793" lon="5.93303">
        <ele>428.7</ele>
        <time>2013-12-11T12:21:58Z</time>
      </trkpt>
      <trkpt lat="43.24791" lon="5.93305">
        <ele>428</ele>
        <time>2013-12-11T12:22:01Z</time>
      </trkpt>
      <trkpt lat="43.24788" lon="5.9331">
        <ele>428.1</ele>
        <time>2013-12-11T12:22:04Z</time>
      </trkpt>
      <trkpt lat="43.24788" lon="5.93312">
        <ele>428.2</ele>
        <time>2013-12-11T12:22:05Z</time>
      </trkpt>
      <trkpt lat="43.24783" lon="5.93318">
        <ele>431.2</ele>
        <time>2013-12-11T12:22:10Z</time>
      </trkpt>
      <trkpt lat="43.2478" lon="5.9332">
        <ele>433.2</ele>
        <time>2013-12-11T12:22:14Z</time>
      </trkpt>
      <trkpt lat="43.24777" lon="5.93325">
        <ele>435.7</ele>
        <time>2013-12-11T12:22:18Z</time>
      </trkpt>
      <trkpt lat="43.24774" lon="5.93329">
        <ele>437.2</ele>
        <time>2013-12-11T12:22:22Z</time>
      </trkpt>
      <trkpt lat="43.24773" lon="5.93334">
        <ele>437.5</ele>
        <time>2013-12-11T12:22:25Z</time>
      </trkpt>
      <trkpt lat="43.24771" lon="5.93338">
        <ele>436.2</ele>
        <time>2013-12-11T12:22:28Z</time>
      </trkpt>
      <trkpt lat="43.24771" lon="5.93344">
        <ele>436</ele>
        <time>2013-12-11T12:22:31Z</time>
      </trkpt>
      <trkpt lat="43.24772" lon="5.93349">
        <ele>437.2</ele>
        <time>2013-12-11T12:22:34Z</time>
      </trkpt>
      <trkpt lat="43.24773" lon="5.93354">
        <ele>437.6</ele>
        <time>2013-12-11T12:22:37Z</time>
      </trkpt>
      <trkpt lat="43.24774" lon="5.93359">
        <ele>436.6</ele>
        <time>2013-12-11T12:22:40Z</time>
      </trkpt>
      <trkpt lat="43.24774" lon="5.93365">
        <ele>435.1</ele>
        <time>2013-12-11T12:22:43Z</time>
      </trkpt>
      <trkpt lat="43.24776" lon="5.9337">
        <ele>433.1</ele>
        <time>2013-12-11T12:22:46Z</time>
      </trkpt>
      <trkpt lat="43.24779" lon="5.93374">
        <ele>433.2</ele>
        <time>2013-12-11T12:22:49Z</time>
      </trkpt>
      <trkpt lat="43.2478" lon="5.93379">
        <ele>431.7</ele>
        <time>2013-12-11T12:22:52Z</time>
      </trkpt>
      <trkpt lat="43.24783" lon="5.93383">
        <ele>429.2</ele>
        <time>2013-12-11T12:22:57Z</time>
      </trkpt>
      <trkpt lat="43.24785" lon="5.93387">
        <ele>426.6</ele>
        <time>2013-12-11T12:23:01Z</time>
      </trkpt>
      <trkpt lat="43.24787" lon="5.9339">
        <ele>424.3</ele>
        <time>2013-12-11T12:23:05Z</time>
      </trkpt>
      <trkpt lat="43.24789" lon="5.93391">
        <ele>426.2</ele>
        <time>2013-12-11T12:23:06Z</time>
      </trkpt>
      <trkpt lat="43.24795" lon="5.93391">
        <ele>430.3</ele>
        <time>2013-12-11T12:23:11Z</time>
      </trkpt>
      <trkpt lat="43.24799" lon="5.93393">
        <ele>433</ele>
        <time>2013-12-11T12:23:15Z</time>
      </trkpt>
      <trkpt lat="43.24803" lon="5.93396">
        <ele>433.2</ele>
        <time>2013-12-11T12:23:19Z</time>
      </trkpt>
      <trkpt lat="43.24806" lon="5.93397">
        <ele>432.5</ele>
        <time>2013-12-11T12:23:21Z</time>
      </trkpt>
      <trkpt lat="43.2481" lon="5.93399">
        <ele>432</ele>
        <time>2013-12-11T12:23:24Z</time>
      </trkpt>
      <trkpt lat="43.24813" lon="5.93399">
        <ele>430.2</ele>
        <time>2013-12-11T12:23:27Z</time>
      </trkpt>
      <trkpt lat="43.24817" lon="5.93398">
        <ele>429.6</ele>
        <time>2013-12-11T12:23:30Z</time>
      </trkpt>
      <trkpt lat="43.24821" lon="5.93396">
        <ele>430.1</ele>
        <time>2013-12-11T12:23:33Z</time>
      </trkpt>
      <trkpt lat="43.24824" lon="5.93394">
        <ele>429</ele>
        <time>2013-12-11T12:23:36Z</time>
      </trkpt>
      <trkpt lat="43.24826" lon="5.9339">
        <ele>427</ele>
        <time>2013-12-11T12:23:40Z</time>
      </trkpt>
      <trkpt lat="43.24828" lon="5.93384">
        <ele>426.1</ele>
        <time>2013-12-11T12:23:44Z</time>
      </trkpt>
      <trkpt lat="43.2483" lon="5.93379">
        <ele>426.6</ele>
        <time>2013-12-11T12:23:48Z</time>
      </trkpt>
      <trkpt lat="43.24831" lon="5.93373">
        <ele>425.7</ele>
        <time>2013-12-11T12:23:52Z</time>
      </trkpt>
      <trkpt lat="43.24833" lon="5.93369">
        <ele>425.7</ele>
        <time>2013-12-11T12:23:55Z</time>
      </trkpt>
      <trkpt lat="43.24835" lon="5.93364">
        <ele>425.6</ele>
        <time>2013-12-11T12:23:58Z</time>
      </trkpt>
      <trkpt lat="43.24838" lon="5.93363">
        <ele>425.7</ele>
        <time>2013-12-11T12:24:00Z</time>
      </trkpt>
      <trkpt lat="43.2484" lon="5.93359">
        <ele>427</ele>
        <time>2013-12-11T12:24:03Z</time>
      </trkpt>
      <trkpt lat="43.24842" lon="5.93355">
        <ele>426.5</ele>
        <time>2013-12-11T12:24:06Z</time>
      </trkpt>
      <trkpt lat="43.24843" lon="5.93354">
        <ele>427</ele>
        <time>2013-12-11T12:24:07Z</time>
      </trkpt>
      <trkpt lat="43.24845" lon="5.93346">
        <ele>427.7</ele>
        <time>2013-12-11T12:24:12Z</time>
      </trkpt>
      <trkpt lat="43.24849" lon="5.93343">
        <ele>429.8</ele>
        <time>2013-12-11T12:24:15Z</time>
      </trkpt>
      <trkpt lat="43.24853" lon="5.93342">
        <ele>431.3</ele>
        <time>2013-12-11T12:24:17Z</time>
      </trkpt>
      <trkpt lat="43.24857" lon="5.93341">
        <ele>432.3</ele>
        <time>2013-12-11T12:24:21Z</time>
      </trkpt>
      <trkpt lat="43.24861" lon="5.93343">
        <ele>431</ele>
        <time>2013-12-11T12:24:26Z</time>
      </trkpt>
      <trkpt lat="43.24865" lon="5.93342">
        <ele>430.1</ele>
        <time>2013-12-11T12:24:30Z</time>
      </trkpt>
      <trkpt lat="43.24868" lon="5.93341">
        <ele>430.7</ele>
        <time>2013-12-11T12:24:33Z</time>
      </trkpt>
      <trkpt lat="43.24872" lon="5.93343">
        <ele>429.8</ele>
        <time>2013-12-11T12:24:37Z</time>
      </trkpt>
      <trkpt lat="43.24876" lon="5.93346">
        <ele>427.3</ele>
        <time>2013-12-11T12:24:42Z</time>
      </trkpt>
      <trkpt lat="43.2488" lon="5.93349">
        <ele>426.8</ele>
        <time>2013-12-11T12:24:46Z</time>
      </trkpt>
      <trkpt lat="43.24882" lon="5.93353">
        <ele>426.5</ele>
        <time>2013-12-11T12:24:50Z</time>
      </trkpt>
      <trkpt lat="43.24885" lon="5.93357">
        <ele>427</ele>
        <time>2013-12-11T12:24:54Z</time>
      </trkpt>
      <trkpt lat="43.24888" lon="5.93361">
        <ele>426.8</ele>
        <time>2013-12-11T12:24:57Z</time>
      </trkpt>
      <trkpt lat="43.2489" lon="5.93365">
        <ele>427</ele>
        <time>2013-12-11T12:25:00Z</time>
      </trkpt>
      <trkpt lat="43.24892" lon="5.9337">
        <ele>426.7</ele>
        <time>2013-12-11T12:25:03Z</time>
      </trkpt>
      <trkpt lat="43.24895" lon="5.93373">
        <ele>426.2</ele>
        <time>2013-12-11T12:25:05Z</time>
      </trkpt>
      <trkpt lat="43.24897" lon="5.93377">
        <ele>425.5</ele>
        <time>2013-12-11T12:25:07Z</time>
      </trkpt>
      <trkpt lat="43.24898" lon="5.93377">
        <ele>426</ele>
        <time>2013-12-11T12:25:08Z</time>
      </trkpt>
      <trkpt lat="43.24904" lon="5.93379">
        <ele>427.8</ele>
        <time>2013-12-11T12:25:13Z</time>
      </trkpt>
      <trkpt lat="43.24908" lon="5.9338">
        <ele>429.1</ele>
        <time>2013-12-11T12:25:16Z</time>
      </trkpt>
      <trkpt lat="43.24911" lon="5.9338">
        <ele>429.6</ele>
        <time>2013-12-11T12:25:18Z</time>
      </trkpt>
      <trkpt lat="43.24914" lon="5.93379">
        <ele>430.5</ele>
        <time>2013-12-11T12:25:20Z</time>
      </trkpt>
      <trkpt lat="43.24918" lon="5.93377">
        <ele>432.2</ele>
        <time>2013-12-11T12:25:23Z</time>
      </trkpt>
      <trkpt lat="43.24922" lon="5.93376">
        <ele>433</ele>
        <time>2013-12-11T12:25:26Z</time>
      </trkpt>
      <trkpt lat="43.24926" lon="5.93378">
        <ele>430.3</ele>
        <time>2013-12-11T12:25:31Z</time>
      </trkpt>
      <trkpt lat="43.24931" lon="5.93378">
        <ele>428.6</ele>
        <time>2013-12-11T12:25:36Z</time>
      </trkpt>
      <trkpt lat="43.24934" lon="5.93378">
        <ele>429</ele>
        <time>2013-12-11T12:25:40Z</time>
      </trkpt>
      <trkpt lat="43.24937" lon="5.93378">
        <ele>429.7</ele>
        <time>2013-12-11T12:25:42Z</time>
      </trkpt>
      <trkpt lat="43.24941" lon="5.9338">
        <ele>429.5</ele>
        <time>2013-12-11T12:25:44Z</time>
      </trkpt>
      <trkpt lat="43.24945" lon="5.9338">
        <ele>432.2</ele>
        <time>2013-12-11T12:25:47Z</time>
      </trkpt>
      <trkpt lat="43.24949" lon="5.93381">
        <ele>431.5</ele>
        <time>2013-12-11T12:25:51Z</time>
      </trkpt>
      <trkpt lat="43.24952" lon="5.93382">
        <ele>430.7</ele>
        <time>2013-12-11T12:25:54Z</time>
      </trkpt>
      <trkpt lat="43.24956" lon="5.93382">
        <ele>429.7</ele>
        <time>2013-12-11T12:25:58Z</time>
      </trkpt>
      <trkpt lat="43.24961" lon="5.93383">
        <ele>428.7</ele>
        <time>2013-12-11T12:26:02Z</time>
      </trkpt>
      <trkpt lat="43.24964" lon="5.93385">
        <ele>426.7</ele>
        <time>2013-12-11T12:26:04Z</time>
      </trkpt>
      <trkpt lat="43.24968" lon="5.93385">
        <ele>424.2</ele>
        <time>2013-12-11T12:26:07Z</time>
      </trkpt>
      <trkpt lat="43.24971" lon="5.93385">
        <ele>422.1</ele>
        <time>2013-12-11T12:26:10Z</time>
      </trkpt>
      <trkpt lat="43.24972" lon="5.93384">
        <ele>422</ele>
        <time>2013-12-11T12:26:11Z</time>
      </trkpt>
      <trkpt lat="43.24978" lon="5.93381">
        <ele>421.7</ele>
        <time>2013-12-11T12:26:15Z</time>
      </trkpt>
      <trkpt lat="43.24981" lon="5.93378">
        <ele>423.3</ele>
        <time>2013-12-11T12:26:17Z</time>
      </trkpt>
      <trkpt lat="43.24984" lon="5.93375">
        <ele>422.7</ele>
        <time>2013-12-11T12:26:20Z</time>
      </trkpt>
      <trkpt lat="43.24987" lon="5.93372">
        <ele>424.5</ele>
        <time>2013-12-11T12:26:23Z</time>
      </trkpt>
      <trkpt lat="43.24989" lon="5.93369">
        <ele>424.2</ele>
        <time>2013-12-11T12:26:26Z</time>
      </trkpt>
      <trkpt lat="43.24992" lon="5.93366">
        <ele>423.5</ele>
        <time>2013-12-11T12:26:29Z</time>
      </trkpt>
      <trkpt lat="43.24995" lon="5.93362">
        <ele>424.5</ele>
        <time>2013-12-11T12:26:32Z</time>
      </trkpt>
      <trkpt lat="43.24997" lon="5.93357">
        <ele>424.1</ele>
        <time>2013-12-11T12:26:36Z</time>
      </trkpt>
      <trkpt lat="43.25" lon="5.93353">
        <ele>423.2</ele>
        <time>2013-12-11T12:26:40Z</time>
      </trkpt>
      <trkpt lat="43.25003" lon="5.93348">
        <ele>423.3</ele>
        <time>2013-12-11T12:26:43Z</time>
      </trkpt>
      <trkpt lat="43.25005" lon="5.93345">
        <ele>424.8</ele>
        <time>2013-12-11T12:26:45Z</time>
      </trkpt>
      <trkpt lat="43.25007" lon="5.93341">
        <ele>424.2</ele>
        <time>2013-12-11T12:26:48Z</time>
      </trkpt>
      <trkpt lat="43.25009" lon="5.93336">
        <ele>422.2</ele>
        <time>2013-12-11T12:26:52Z</time>
      </trkpt>
      <trkpt lat="43.25011" lon="5.93331">
        <ele>422.6</ele>
        <time>2013-12-11T12:26:56Z</time>
      </trkpt>
      <trkpt lat="43.25013" lon="5.93327">
        <ele>422</ele>
        <time>2013-12-11T12:27:00Z</time>
      </trkpt>
      <trkpt lat="43.25015" lon="5.93322">
        <ele>420.7</ele>
        <time>2013-12-11T12:27:04Z</time>
      </trkpt>
      <trkpt lat="43.25017" lon="5.93317">
        <ele>421.1</ele>
        <time>2013-12-11T12:27:07Z</time>
      </trkpt>
      <trkpt lat="43.25019" lon="5.93312">
        <ele>421.5</ele>
        <time>2013-12-11T12:27:10Z</time>
      </trkpt>
      <trkpt lat="43.25021" lon="5.93307">
        <ele>420.7</ele>
        <time>2013-12-11T12:27:14Z</time>
      </trkpt>
      <trkpt lat="43.25022" lon="5.93306">
        <ele>421</ele>
        <time>2013-12-11T12:27:15Z</time>
      </trkpt>
      <trkpt lat="43.25026" lon="5.93298">
        <ele>419.7</ele>
        <time>2013-12-11T12:27:21Z</time>
      </trkpt>
      <trkpt lat="43.25028" lon="5.93293">
        <ele>418.6</ele>
        <time>2013-12-11T12:27:25Z</time>
      </trkpt>
      <trkpt lat="43.25031" lon="5.93289">
        <ele>417.7</ele>
        <time>2013-12-11T12:27:29Z</time>
      </trkpt>
      <trkpt lat="43.25034" lon="5.93286">
        <ele>417.3</ele>
        <time>2013-12-11T12:27:33Z</time>
      </trkpt>
      <trkpt lat="43.25037" lon="5.93283">
        <ele>417.5</ele>
        <time>2013-12-11T12:27:36Z</time>
      </trkpt>
      <trkpt lat="43.2504" lon="5.9328">
        <ele>419.6</ele>
        <time>2013-12-11T12:27:39Z</time>
      </trkpt>
      <trkpt lat="43.25043" lon="5.93276">
        <ele>421.6</ele>
        <time>2013-12-11T12:27:42Z</time>
      </trkpt>
      <trkpt lat="43.25046" lon="5.93274">
        <ele>422.7</ele>
        <time>2013-12-11T12:27:44Z</time>
      </trkpt>
      <trkpt lat="43.2505" lon="5.93272">
        <ele>423.2</ele>
        <time>2013-12-11T12:27:47Z</time>
      </trkpt>
      <trkpt lat="43.25053" lon="5.9327">
        <ele>422.6</ele>
        <time>2013-12-11T12:27:50Z</time>
      </trkpt>
      <trkpt lat="43.25056" lon="5.93268">
        <ele>422.5</ele>
        <time>2013-12-11T12:27:53Z</time>
      </trkpt>
      <trkpt lat="43.2506" lon="5.93266">
        <ele>422.2</ele>
        <time>2013-12-11T12:27:56Z</time>
      </trkpt>
      <trkpt lat="43.25063" lon="5.93264">
        <ele>422.2</ele>
        <time>2013-12-11T12:27:59Z</time>
      </trkpt>
      <trkpt lat="43.25067" lon="5.93262">
        <ele>423</ele>
        <time>2013-12-11T12:28:02Z</time>
      </trkpt>
      <trkpt lat="43.2507" lon="5.9326">
        <ele>420.7</ele>
        <time>2013-12-11T12:28:06Z</time>
      </trkpt>
      <trkpt lat="43.25073" lon="5.93257">
        <ele>417.6</ele>
        <time>2013-12-11T12:28:10Z</time>
      </trkpt>
      <trkpt lat="43.25076" lon="5.93254">
        <ele>414.6</ele>
        <time>2013-12-11T12:28:14Z</time>
      </trkpt>
      <trkpt lat="43.2508" lon="5.93251">
        <ele>411.8</ele>
        <time>2013-12-11T12:28:18Z</time>
      </trkpt>
      <trkpt lat="43.25081" lon="5.9325">
        <ele>411.3</ele>
        <time>2013-12-11T12:28:19Z</time>
      </trkpt>
      <trkpt lat="43.25086" lon="5.93244">
        <ele>407.7</ele>
        <time>2013-12-11T12:28:26Z</time>
      </trkpt>
      <trkpt lat="43.2509" lon="5.93241">
        <ele>406.6</ele>
        <time>2013-12-11T12:28:30Z</time>
      </trkpt>
      <trkpt lat="43.25093" lon="5.93237">
        <ele>405.6</ele>
        <time>2013-12-11T12:28:34Z</time>
      </trkpt>
      <trkpt lat="43.25096" lon="5.93233">
        <ele>404.2</ele>
        <time>2013-12-11T12:28:38Z</time>
      </trkpt>
      <trkpt lat="43.25099" lon="5.9323">
        <ele>403.7</ele>
        <time>2013-12-11T12:28:41Z</time>
      </trkpt>
      <trkpt lat="43.25102" lon="5.93227">
        <ele>402.7</ele>
        <time>2013-12-11T12:28:45Z</time>
      </trkpt>
      <trkpt lat="43.25106" lon="5.93224">
        <ele>404.7</ele>
        <time>2013-12-11T12:28:48Z</time>
      </trkpt>
      <trkpt lat="43.25108" lon="5.93222">
        <ele>405.8</ele>
        <time>2013-12-11T12:28:50Z</time>
      </trkpt>
      <trkpt lat="43.25112" lon="5.93219">
        <ele>406.7</ele>
        <time>2013-12-11T12:28:53Z</time>
      </trkpt>
      <trkpt lat="43.25115" lon="5.93217">
        <ele>406.1</ele>
        <time>2013-12-11T12:28:56Z</time>
      </trkpt>
      <trkpt lat="43.25119" lon="5.93214">
        <ele>407.2</ele>
        <time>2013-12-11T12:28:59Z</time>
      </trkpt>
      <trkpt lat="43.25122" lon="5.93211">
        <ele>406.2</ele>
        <time>2013-12-11T12:29:03Z</time>
      </trkpt>
      <trkpt lat="43.25126" lon="5.9321">
        <ele>404.7</ele>
        <time>2013-12-11T12:29:08Z</time>
      </trkpt>
      <trkpt lat="43.2513" lon="5.9321">
        <ele>403.3</ele>
        <time>2013-12-11T12:29:13Z</time>
      </trkpt>
      <trkpt lat="43.25134" lon="5.93212">
        <ele>401.2</ele>
        <time>2013-12-11T12:29:18Z</time>
      </trkpt>
      <trkpt lat="43.25138" lon="5.93212">
        <ele>399.6</ele>
        <time>2013-12-11T12:29:22Z</time>
      </trkpt>
      <trkpt lat="43.25139" lon="5.93212">
        <ele>399.6</ele>
        <time>2013-12-11T12:29:23Z</time>
      </trkpt>
      <trkpt lat="43.25146" lon="5.93214">
        <ele>395.5</ele>
        <time>2013-12-11T12:29:32Z</time>
      </trkpt>
      <trkpt lat="43.25149" lon="5.93215">
        <ele>393.7</ele>
        <time>2013-12-11T12:29:36Z</time>
      </trkpt>
      <trkpt lat="43.25153" lon="5.93215">
        <ele>392.8</ele>
        <time>2013-12-11T12:29:40Z</time>
      </trkpt>
      <trkpt lat="43.25157" lon="5.93216">
        <ele>392.5</ele>
        <time>2013-12-11T12:29:44Z</time>
      </trkpt>
      <trkpt lat="43.25161" lon="5.93217">
        <ele>392.3</ele>
        <time>2013-12-11T12:29:47Z</time>
      </trkpt>
      <trkpt lat="43.25164" lon="5.93219">
        <ele>392.2</ele>
        <time>2013-12-11T12:29:50Z</time>
      </trkpt>
      <trkpt lat="43.25168" lon="5.93222">
        <ele>391.8</ele>
        <time>2013-12-11T12:29:53Z</time>
      </trkpt>
      <trkpt lat="43.25171" lon="5.93225">
        <ele>391.5</ele>
        <time>2013-12-11T12:29:56Z</time>
      </trkpt>
      <trkpt lat="43.25174" lon="5.93228">
        <ele>391.1</ele>
        <time>2013-12-11T12:29:59Z</time>
      </trkpt>
      <trkpt lat="43.25177" lon="5.9323">
        <ele>390.5</ele>
        <time>2013-12-11T12:30:02Z</time>
      </trkpt>
      <trkpt lat="43.2518" lon="5.93231">
        <ele>390.5</ele>
        <time>2013-12-11T12:30:05Z</time>
      </trkpt>
      <trkpt lat="43.25185" lon="5.93232">
        <ele>390.3</ele>
        <time>2013-12-11T12:30:08Z</time>
      </trkpt>
      <trkpt lat="43.25188" lon="5.93232">
        <ele>391.3</ele>
        <time>2013-12-11T12:30:10Z</time>
      </trkpt>
      <trkpt lat="43.25191" lon="5.93232">
        <ele>392.1</ele>
        <time>2013-12-11T12:30:12Z</time>
      </trkpt>
      <trkpt lat="43.25195" lon="5.93231">
        <ele>394.2</ele>
        <time>2013-12-11T12:30:14Z</time>
      </trkpt>
      <trkpt lat="43.25199" lon="5.9323">
        <ele>394.2</ele>
        <time>2013-12-11T12:30:17Z</time>
      </trkpt>
      <trkpt lat="43.25203" lon="5.93229">
        <ele>395.7</ele>
        <time>2013-12-11T12:30:19Z</time>
      </trkpt>
      <trkpt lat="43.25207" lon="5.93227">
        <ele>397.2</ele>
        <time>2013-12-11T12:30:21Z</time>
      </trkpt>
      <trkpt lat="43.25209" lon="5.93226">
        <ele>397.2</ele>
        <time>2013-12-11T12:30:23Z</time>
      </trkpt>
      <trkpt lat="43.25211" lon="5.93225">
        <ele>398.2</ele>
        <time>2013-12-11T12:30:24Z</time>
      </trkpt>
      <trkpt lat="43.25216" lon="5.93222">
        <ele>400.8</ele>
        <time>2013-12-11T12:30:27Z</time>
      </trkpt>
      <trkpt lat="43.2522" lon="5.9322">
        <ele>401.3</ele>
        <time>2013-12-11T12:30:30Z</time>
      </trkpt>
      <trkpt lat="43.25224" lon="5.93218">
        <ele>401.2</ele>
        <time>2013-12-11T12:30:33Z</time>
      </trkpt>
      <trkpt lat="43.25227" lon="5.93215">
        <ele>400.7</ele>
        <time>2013-12-11T12:30:36Z</time>
      </trkpt>
      <trkpt lat="43.2523" lon="5.93212">
        <ele>399.7</ele>
        <time>2013-12-11T12:30:40Z</time>
      </trkpt>
      <trkpt lat="43.25234" lon="5.93209">
        <ele>398.6</ele>
        <time>2013-12-11T12:30:44Z</time>
      </trkpt>
      <trkpt lat="43.25238" lon="5.93207">
        <ele>397.2</ele>
        <time>2013-12-11T12:30:48Z</time>
      </trkpt>
      <trkpt lat="43.25242" lon="5.93206">
        <ele>396.2</ele>
        <time>2013-12-11T12:30:52Z</time>
      </trkpt>
      <trkpt lat="43.25246" lon="5.93205">
        <ele>396.5</ele>
        <time>2013-12-11T12:30:55Z</time>
      </trkpt>
      <trkpt lat="43.25249" lon="5.93204">
        <ele>395.7</ele>
        <time>2013-12-11T12:30:59Z</time>
      </trkpt>
      <trkpt lat="43.25254" lon="5.93204">
        <ele>395.2</ele>
        <time>2013-12-11T12:31:03Z</time>
      </trkpt>
      <trkpt lat="43.25258" lon="5.93203">
        <ele>394.1</ele>
        <time>2013-12-11T12:31:08Z</time>
      </trkpt>
      <trkpt lat="43.25262" lon="5.93203">
        <ele>394.1</ele>
        <time>2013-12-11T12:31:11Z</time>
      </trkpt>
      <trkpt lat="43.25266" lon="5.93203">
        <ele>393</ele>
        <time>2013-12-11T12:31:15Z</time>
      </trkpt>
      <trkpt lat="43.2527" lon="5.93202">
        <ele>393.6</ele>
        <time>2013-12-11T12:31:18Z</time>
      </trkpt>
      <trkpt lat="43.25274" lon="5.93202">
        <ele>392.3</ele>
        <time>2013-12-11T12:31:22Z</time>
      </trkpt>
      <trkpt lat="43.25278" lon="5.93201">
        <ele>391.7</ele>
        <time>2013-12-11T12:31:26Z</time>
      </trkpt>
      <trkpt lat="43.25279" lon="5.93201">
        <ele>391.7</ele>
        <time>2013-12-11T12:31:27Z</time>
      </trkpt>
      <trkpt lat="43.25285" lon="5.932">
        <ele>392.2</ele>
        <time>2013-12-11T12:31:31Z</time>
      </trkpt>
      <trkpt lat="43.25289" lon="5.932">
        <ele>391.8</ele>
        <time>2013-12-11T12:31:34Z</time>
      </trkpt>
      <trkpt lat="43.25293" lon="5.93199">
        <ele>391.3</ele>
        <time>2013-12-11T12:31:37Z</time>
      </trkpt>
      <trkpt lat="43.25296" lon="5.93199">
        <ele>390.7</ele>
        <time>2013-12-11T12:31:40Z</time>
      </trkpt>
      <trkpt lat="43.253" lon="5.93198">
        <ele>392.6</ele>
        <time>2013-12-11T12:31:42Z</time>
      </trkpt>
      <trkpt lat="43.25304" lon="5.93197">
        <ele>392.6</ele>
        <time>2013-12-11T12:31:45Z</time>
      </trkpt>
      <trkpt lat="43.25307" lon="5.93195">
        <ele>392.1</ele>
        <time>2013-12-11T12:31:48Z</time>
      </trkpt>
      <trkpt lat="43.2531" lon="5.93192">
        <ele>390.7</ele>
        <time>2013-12-11T12:31:52Z</time>
      </trkpt>
      <trkpt lat="43.25313" lon="5.93189">
        <ele>389.3</ele>
        <time>2013-12-11T12:31:56Z</time>
      </trkpt>
      <trkpt lat="43.25316" lon="5.93186">
        <ele>387</ele>
        <time>2013-12-11T12:32:01Z</time>
      </trkpt>
      <trkpt lat="43.25319" lon="5.93184">
        <ele>388.1</ele>
        <time>2013-12-11T12:32:03Z</time>
      </trkpt>
      <trkpt lat="43.25323" lon="5.93182">
        <ele>389.3</ele>
        <time>2013-12-11T12:32:06Z</time>
      </trkpt>
      <trkpt lat="43.25327" lon="5.93181">
        <ele>390.2</ele>
        <time>2013-12-11T12:32:09Z</time>
      </trkpt>
      <trkpt lat="43.25331" lon="5.93179">
        <ele>388.1</ele>
        <time>2013-12-11T12:32:14Z</time>
      </trkpt>
      <trkpt lat="43.25335" lon="5.93178">
        <ele>388</ele>
        <time>2013-12-11T12:32:18Z</time>
      </trkpt>
      <trkpt lat="43.25339" lon="5.93178">
        <ele>387.1</ele>
        <time>2013-12-11T12:32:22Z</time>
      </trkpt>
      <trkpt lat="43.25342" lon="5.93177">
        <ele>386.5</ele>
        <time>2013-12-11T12:32:26Z</time>
      </trkpt>
      <trkpt lat="43.25347" lon="5.93177">
        <ele>385.8</ele>
        <time>2013-12-11T12:32:31Z</time>
      </trkpt>
      <trkpt lat="43.25347" lon="5.93177">
        <ele>385.5</ele>
        <time>2013-12-11T12:32:32Z</time>
      </trkpt>
      <trkpt lat="43.25354" lon="5.93177">
        <ele>384.2</ele>
        <time>2013-12-11T12:32:39Z</time>
      </trkpt>
      <trkpt lat="43.25357" lon="5.93178">
        <ele>385.1</ele>
        <time>2013-12-11T12:32:42Z</time>
      </trkpt>
      <trkpt lat="43.25361" lon="5.93179">
        <ele>384.8</ele>
        <time>2013-12-11T12:32:45Z</time>
      </trkpt>
      <trkpt lat="43.25365" lon="5.93181">
        <ele>384.7</ele>
        <time>2013-12-11T12:32:48Z</time>
      </trkpt>
      <trkpt lat="43.25368" lon="5.93182">
        <ele>385</ele>
        <time>2013-12-11T12:32:51Z</time>
      </trkpt>
      <trkpt lat="43.25372" lon="5.93182">
        <ele>385.7</ele>
        <time>2013-12-11T12:32:54Z</time>
      </trkpt>
      <trkpt lat="43.25376" lon="5.93184">
        <ele>384.8</ele>
        <time>2013-12-11T12:32:58Z</time>
      </trkpt>
      <trkpt lat="43.2538" lon="5.93186">
        <ele>384.1</ele>
        <time>2013-12-11T12:33:01Z</time>
      </trkpt>
      <trkpt lat="43.25383" lon="5.93188">
        <ele>383.6</ele>
        <time>2013-12-11T12:33:04Z</time>
      </trkpt>
      <trkpt lat="43.25387" lon="5.9319">
        <ele>383.3</ele>
        <time>2013-12-11T12:33:07Z</time>
      </trkpt>
      <trkpt lat="43.2539" lon="5.93191">
        <ele>383</ele>
        <time>2013-12-11T12:33:10Z</time>
      </trkpt>
      <trkpt lat="43.25394" lon="5.93192">
        <ele>383.5</ele>
        <time>2013-12-11T12:33:13Z</time>
      </trkpt>
      <trkpt lat="43.25397" lon="5.93194">
        <ele>383.7</ele>
        <time>2013-12-11T12:33:16Z</time>
      </trkpt>
      <trkpt lat="43.25401" lon="5.93195">
        <ele>384</ele>
        <time>2013-12-11T12:33:19Z</time>
      </trkpt>
      <trkpt lat="43.25406" lon="5.93197">
        <ele>384.5</ele>
        <time>2013-12-11T12:33:22Z</time>
      </trkpt>
      <trkpt lat="43.2541" lon="5.93198">
        <ele>386.2</ele>
        <time>2013-12-11T12:33:24Z</time>
      </trkpt>
      <trkpt lat="43.25414" lon="5.93199">
        <ele>386.2</ele>
        <time>2013-12-11T12:33:27Z</time>
      </trkpt>
      <trkpt lat="43.25417" lon="5.93201">
        <ele>386.1</ele>
        <time>2013-12-11T12:33:30Z</time>
      </trkpt>
      <trkpt lat="43.25421" lon="5.93203">
        <ele>384.8</ele>
        <time>2013-12-11T12:33:34Z</time>
      </trkpt>
      <trkpt lat="43.25422" lon="5.93203">
        <ele>384.7</ele>
        <time>2013-12-11T12:33:35Z</time>
      </trkpt>
      <trkpt lat="43.25428" lon="5.93206">
        <ele>386.1</ele>
        <time>2013-12-11T12:33:40Z</time>
      </trkpt>
      <trkpt lat="43.25432" lon="5.93208">
        <ele>385.2</ele>
        <time>2013-12-11T12:33:44Z</time>
      </trkpt>
      <trkpt lat="43.25436" lon="5.93209">
        <ele>383.8</ele>
        <time>2013-12-11T12:33:48Z</time>
      </trkpt>
      <trkpt lat="43.25441" lon="5.9321">
        <ele>383.2</ele>
        <time>2013-12-11T12:33:52Z</time>
      </trkpt>
      <trkpt lat="43.25445" lon="5.93211">
        <ele>383.1</ele>
        <time>2013-12-11T12:33:55Z</time>
      </trkpt>
      <trkpt lat="43.25449" lon="5.93211">
        <ele>382.8</ele>
        <time>2013-12-11T12:33:58Z</time>
      </trkpt>
      <trkpt lat="43.25453" lon="5.93212">
        <ele>383.3</ele>
        <time>2013-12-11T12:34:01Z</time>
      </trkpt>
      <trkpt lat="43.25456" lon="5.93212">
        <ele>384.1</ele>
        <time>2013-12-11T12:34:03Z</time>
      </trkpt>
      <trkpt lat="43.2546" lon="5.93211">
        <ele>385.2</ele>
        <time>2013-12-11T12:34:05Z</time>
      </trkpt>
      <trkpt lat="43.25464" lon="5.93211">
        <ele>386.2</ele>
        <time>2013-12-11T12:34:08Z</time>
      </trkpt>
      <trkpt lat="43.25465" lon="5.9321">
        <ele>386.5</ele>
        <time>2013-12-11T12:34:09Z</time>
      </trkpt>
      <trkpt lat="43.25469" lon="5.9321">
        <ele>390</ele>
        <time>2013-12-11T12:34:10Z</time>
      </trkpt>
      <trkpt lat="43.25473" lon="5.9321">
        <ele>392.1</ele>
        <time>2013-12-11T12:34:12Z</time>
      </trkpt>
      <trkpt lat="43.25476" lon="5.93209">
        <ele>391.8</ele>
        <time>2013-12-11T12:34:15Z</time>
      </trkpt>
      <trkpt lat="43.25479" lon="5.93209">
        <ele>391.7</ele>
        <time>2013-12-11T12:34:17Z</time>
      </trkpt>
      <trkpt lat="43.25483" lon="5.93209">
        <ele>393.3</ele>
        <time>2013-12-11T12:34:20Z</time>
      </trkpt>
      <trkpt lat="43.25488" lon="5.93209">
        <ele>392.5</ele>
        <time>2013-12-11T12:34:24Z</time>
      </trkpt>
      <trkpt lat="43.25492" lon="5.93209">
        <ele>391.3</ele>
        <time>2013-12-11T12:34:28Z</time>
      </trkpt>
      <trkpt lat="43.25495" lon="5.9321">
        <ele>389.7</ele>
        <time>2013-12-11T12:34:32Z</time>
      </trkpt>
      <trkpt lat="43.25499" lon="5.9321">
        <ele>388.8</ele>
        <time>2013-12-11T12:34:36Z</time>
      </trkpt>
      <trkpt lat="43.255" lon="5.93211">
        <ele>388.3</ele>
        <time>2013-12-11T12:34:37Z</time>
      </trkpt>
      <trkpt lat="43.25507" lon="5.93212">
        <ele>389</ele>
        <time>2013-12-11T12:34:43Z</time>
      </trkpt>
      <trkpt lat="43.2551" lon="5.93213">
        <ele>388.6</ele>
        <time>2013-12-11T12:34:46Z</time>
      </trkpt>
      <trkpt lat="43.25514" lon="5.93216">
        <ele>387.6</ele>
        <time>2013-12-11T12:34:49Z</time>
      </trkpt>
      <trkpt lat="43.25518" lon="5.93217">
        <ele>387.2</ele>
        <time>2013-12-11T12:34:52Z</time>
      </trkpt>
      <trkpt lat="43.25521" lon="5.93218">
        <ele>387.2</ele>
        <time>2013-12-11T12:34:56Z</time>
      </trkpt>
      <trkpt lat="43.25525" lon="5.93218">
        <ele>387.2</ele>
        <time>2013-12-11T12:35:00Z</time>
      </trkpt>
      <trkpt lat="43.25529" lon="5.9322">
        <ele>387.2</ele>
        <time>2013-12-11T12:35:05Z</time>
      </trkpt>
      <trkpt lat="43.25533" lon="5.9322">
        <ele>387.3</ele>
        <time>2013-12-11T12:35:11Z</time>
      </trkpt>
      <trkpt lat="43.25537" lon="5.9322">
        <ele>388.2</ele>
        <time>2013-12-11T12:35:19Z</time>
      </trkpt>
      <trkpt lat="43.25541" lon="5.93222">
        <ele>388.6</ele>
        <time>2013-12-11T12:35:27Z</time>
      </trkpt>
      <trkpt lat="43.25545" lon="5.93224">
        <ele>388.7</ele>
        <time>2013-12-11T12:35:34Z</time>
      </trkpt>
      <trkpt lat="43.25548" lon="5.93226">
        <ele>387.2</ele>
        <time>2013-12-11T12:35:40Z</time>
      </trkpt>
      <trkpt lat="43.25549" lon="5.93227">
        <ele>387.3</ele>
        <time>2013-12-11T12:35:41Z</time>
      </trkpt>
      <trkpt lat="43.25555" lon="5.93233">
        <ele>387.7</ele>
        <time>2013-12-11T12:35:51Z</time>
      </trkpt>
      <trkpt lat="43.25559" lon="5.9323">
        <ele>389.1</ele>
        <time>2013-12-11T12:36:20Z</time>
      </trkpt>
      <trkpt lat="43.25555" lon="5.93234">
        <ele>389</ele>
        <time>2013-12-11T12:36:53Z</time>
      </trkpt>
      <trkpt lat="43.25555" lon="5.93234">
        <ele>389</ele>
        <time>2013-12-11T12:36:54Z</time>
      </trkpt>
      <trkpt lat="43.2556" lon="5.93231">
        <ele>390.5</ele>
        <time>2013-12-11T12:38:03Z</time>
      </trkpt>
      <trkpt lat="43.25567" lon="5.93235">
        <ele>390.5</ele>
        <time>2013-12-11T12:38:45Z</time>
      </trkpt>
      <trkpt lat="43.25571" lon="5.93237">
        <ele>392.2</ele>
        <time>2013-12-11T12:39:13Z</time>
      </trkpt>
      <trkpt lat="43.25572" lon="5.93237">
        <ele>392.5</ele>
        <time>2013-12-11T12:39:14Z</time>
      </trkpt>
      <trkpt lat="43.25578" lon="5.93244">
        <ele>392.7</ele>
        <time>2013-12-11T12:39:27Z</time>
      </trkpt>
      <trkpt lat="43.25581" lon="5.93248">
        <ele>391.7</ele>
        <time>2013-12-11T12:39:32Z</time>
      </trkpt>
      <trkpt lat="43.25585" lon="5.93251">
        <ele>393.1</ele>
        <time>2013-12-11T12:39:39Z</time>
      </trkpt>
      <trkpt lat="43.25588" lon="5.93255">
        <ele>393.2</ele>
        <time>2013-12-11T12:39:44Z</time>
      </trkpt>
      <trkpt lat="43.25591" lon="5.93259">
        <ele>392.6</ele>
        <time>2013-12-11T12:39:48Z</time>
      </trkpt>
      <trkpt lat="43.25594" lon="5.93262">
        <ele>393</ele>
        <time>2013-12-11T12:39:52Z</time>
      </trkpt>
      <trkpt lat="43.25598" lon="5.93264">
        <ele>394.1</ele>
        <time>2013-12-11T12:39:57Z</time>
      </trkpt>
      <trkpt lat="43.25602" lon="5.93268">
        <ele>393.7</ele>
        <time>2013-12-11T12:40:04Z</time>
      </trkpt>
      <trkpt lat="43.25605" lon="5.9327">
        <ele>393.1</ele>
        <time>2013-12-11T12:40:09Z</time>
      </trkpt>
      <trkpt lat="43.25609" lon="5.93272">
        <ele>389.7</ele>
        <time>2013-12-11T12:40:16Z</time>
      </trkpt>
      <trkpt lat="43.2561" lon="5.93272">
        <ele>390.1</ele>
        <time>2013-12-11T12:40:17Z</time>
      </trkpt>
      <trkpt lat="43.25616" lon="5.93274">
        <ele>391.1</ele>
        <time>2013-12-11T12:40:23Z</time>
      </trkpt>
      <trkpt lat="43.25621" lon="5.93275">
        <ele>393</ele>
        <time>2013-12-11T12:40:27Z</time>
      </trkpt>
      <trkpt lat="43.25625" lon="5.93275">
        <ele>393.5</ele>
        <time>2013-12-11T12:40:31Z</time>
      </trkpt>
      <trkpt lat="43.25629" lon="5.93276">
        <ele>394.5</ele>
        <time>2013-12-11T12:40:34Z</time>
      </trkpt>
      <trkpt lat="43.25632" lon="5.93276">
        <ele>393.8</ele>
        <time>2013-12-11T12:40:38Z</time>
      </trkpt>
      <trkpt lat="43.25636" lon="5.93277">
        <ele>393.7</ele>
        <time>2013-12-11T12:40:42Z</time>
      </trkpt>
      <trkpt lat="43.2564" lon="5.93278">
        <ele>392.8</ele>
        <time>2013-12-11T12:40:46Z</time>
      </trkpt>
      <trkpt lat="43.25643" lon="5.93278">
        <ele>393.6</ele>
        <time>2013-12-11T12:40:49Z</time>
      </trkpt>
      <trkpt lat="43.25647" lon="5.93278">
        <ele>394.6</ele>
        <time>2013-12-11T12:40:52Z</time>
      </trkpt>
      <trkpt lat="43.25651" lon="5.93277">
        <ele>396</ele>
        <time>2013-12-11T12:40:56Z</time>
      </trkpt>
      <trkpt lat="43.25655" lon="5.93277">
        <ele>397.7</ele>
        <time>2013-12-11T12:41:00Z</time>
      </trkpt>
      <trkpt lat="43.25659" lon="5.93275">
        <ele>399.1</ele>
        <time>2013-12-11T12:41:04Z</time>
      </trkpt>
      <trkpt lat="43.25663" lon="5.93275">
        <ele>399.7</ele>
        <time>2013-12-11T12:41:08Z</time>
      </trkpt>
      <trkpt lat="43.25667" lon="5.93276">
        <ele>399.2</ele>
        <time>2013-12-11T12:41:12Z</time>
      </trkpt>
      <trkpt lat="43.25671" lon="5.93277">
        <ele>399</ele>
        <time>2013-12-11T12:41:15Z</time>
      </trkpt>
      <trkpt lat="43.25674" lon="5.93277">
        <ele>399.7</ele>
        <time>2013-12-11T12:41:18Z</time>
      </trkpt>
      <trkpt lat="43.25675" lon="5.93277">
        <ele>399.7</ele>
        <time>2013-12-11T12:41:19Z</time>
      </trkpt>
      <trkpt lat="43.25682" lon="5.93277">
        <ele>402.3</ele>
        <time>2013-12-11T12:41:28Z</time>
      </trkpt>
      <trkpt lat="43.25685" lon="5.93278">
        <ele>400.7</ele>
        <time>2013-12-11T12:41:31Z</time>
      </trkpt>
      <trkpt lat="43.2569" lon="5.93279">
        <ele>398.1</ele>
        <time>2013-12-11T12:41:35Z</time>
      </trkpt>
      <trkpt lat="43.25694" lon="5.93279">
        <ele>398.2</ele>
        <time>2013-12-11T12:41:39Z</time>
      </trkpt>
      <trkpt lat="43.25698" lon="5.93278">
        <ele>398.2</ele>
        <time>2013-12-11T12:41:42Z</time>
      </trkpt>
      <trkpt lat="43.25702" lon="5.93278">
        <ele>398.2</ele>
        <time>2013-12-11T12:41:46Z</time>
      </trkpt>
      <trkpt lat="43.25706" lon="5.93276">
        <ele>400.8</ele>
        <time>2013-12-11T12:41:50Z</time>
      </trkpt>
      <trkpt lat="43.25711" lon="5.93276">
        <ele>402.5</ele>
        <time>2013-12-11T12:41:54Z</time>
      </trkpt>
      <trkpt lat="43.25715" lon="5.93277">
        <ele>403.7</ele>
        <time>2013-12-11T12:41:58Z</time>
      </trkpt>
      <trkpt lat="43.25718" lon="5.93279">
        <ele>402.6</ele>
        <time>2013-12-11T12:42:01Z</time>
      </trkpt>
      <trkpt lat="43.25722" lon="5.93281">
        <ele>402.5</ele>
        <time>2013-12-11T12:42:03Z</time>
      </trkpt>
      <trkpt lat="43.25726" lon="5.93283">
        <ele>401.2</ele>
        <time>2013-12-11T12:42:07Z</time>
      </trkpt>
      <trkpt lat="43.2573" lon="5.93286">
        <ele>397.3</ele>
        <time>2013-12-11T12:42:11Z</time>
      </trkpt>
      <trkpt lat="43.25733" lon="5.93288">
        <ele>394.8</ele>
        <time>2013-12-11T12:42:14Z</time>
      </trkpt>
      <trkpt lat="43.25736" lon="5.93289">
        <ele>394.7</ele>
        <time>2013-12-11T12:42:16Z</time>
      </trkpt>
      <trkpt lat="43.25739" lon="5.9329">
        <ele>396.2</ele>
        <time>2013-12-11T12:42:18Z</time>
      </trkpt>
      <trkpt lat="43.25743" lon="5.93292">
        <ele>398</ele>
        <time>2013-12-11T12:42:22Z</time>
      </trkpt>
      <trkpt lat="43.25744" lon="5.93292">
        <ele>398.5</ele>
        <time>2013-12-11T12:42:23Z</time>
      </trkpt>
      <trkpt lat="43.2575" lon="5.93295">
        <ele>398.3</ele>
        <time>2013-12-11T12:42:30Z</time>
      </trkpt>
      <trkpt lat="43.25753" lon="5.93298">
        <ele>396.8</ele>
        <time>2013-12-11T12:42:33Z</time>
      </trkpt>
      <trkpt lat="43.25756" lon="5.93302">
        <ele>393.7</ele>
        <time>2013-12-11T12:42:37Z</time>
      </trkpt>
      <trkpt lat="43.25759" lon="5.93305">
        <ele>391.8</ele>
        <time>2013-12-11T12:42:41Z</time>
      </trkpt>
      <trkpt lat="43.25762" lon="5.93307">
        <ele>392.8</ele>
        <time>2013-12-11T12:42:44Z</time>
      </trkpt>
      <trkpt lat="43.25766" lon="5.9331">
        <ele>394.3</ele>
        <time>2013-12-11T12:42:46Z</time>
      </trkpt>
      <trkpt lat="43.25769" lon="5.93313">
        <ele>393.8</ele>
        <time>2013-12-11T12:42:49Z</time>
      </trkpt>
      <trkpt lat="43.25772" lon="5.93316">
        <ele>392.7</ele>
        <time>2013-12-11T12:42:52Z</time>
      </trkpt>
      <trkpt lat="43.25775" lon="5.93318">
        <ele>393.6</ele>
        <time>2013-12-11T12:42:54Z</time>
      </trkpt>
      <trkpt lat="43.25779" lon="5.9332">
        <ele>395.2</ele>
        <time>2013-12-11T12:42:57Z</time>
      </trkpt>
      <trkpt lat="43.25782" lon="5.93323">
        <ele>396.7</ele>
        <time>2013-12-11T12:43:00Z</time>
      </trkpt>
      <trkpt lat="43.25786" lon="5.93327">
        <ele>396.2</ele>
        <time>2013-12-11T12:43:04Z</time>
      </trkpt>
      <trkpt lat="43.25789" lon="5.9333">
        <ele>395.7</ele>
        <time>2013-12-11T12:43:07Z</time>
      </trkpt>
      <trkpt lat="43.25791" lon="5.93335">
        <ele>394.8</ele>
        <time>2013-12-11T12:43:11Z</time>
      </trkpt>
      <trkpt lat="43.25794" lon="5.9334">
        <ele>395</ele>
        <time>2013-12-11T12:43:15Z</time>
      </trkpt>
      <trkpt lat="43.25796" lon="5.93343">
        <ele>394.1</ele>
        <time>2013-12-11T12:43:18Z</time>
      </trkpt>
      <trkpt lat="43.25799" lon="5.93347">
        <ele>393.8</ele>
        <time>2013-12-11T12:43:22Z</time>
      </trkpt>
      <trkpt lat="43.25803" lon="5.9335">
        <ele>392.2</ele>
        <time>2013-12-11T12:43:26Z</time>
      </trkpt>
      <trkpt lat="43.25803" lon="5.93351">
        <ele>391.6</ele>
        <time>2013-12-11T12:43:27Z</time>
      </trkpt>
      <trkpt lat="43.2581" lon="5.9335">
        <ele>391.3</ele>
        <time>2013-12-11T12:43:34Z</time>
      </trkpt>
      <trkpt lat="43.25814" lon="5.93349">
        <ele>391.6</ele>
        <time>2013-12-11T12:43:37Z</time>
      </trkpt>
      <trkpt lat="43.25818" lon="5.93349">
        <ele>393.2</ele>
        <time>2013-12-11T12:43:40Z</time>
      </trkpt>
      <trkpt lat="43.25822" lon="5.93349">
        <ele>395.5</ele>
        <time>2013-12-11T12:43:42Z</time>
      </trkpt>
      <trkpt lat="43.25825" lon="5.93349">
        <ele>396.8</ele>
        <time>2013-12-11T12:43:44Z</time>
      </trkpt>
      <trkpt lat="43.25829" lon="5.93349">
        <ele>398.5</ele>
        <time>2013-12-11T12:43:48Z</time>
      </trkpt>
      <trkpt lat="43.25833" lon="5.93351">
        <ele>398.2</ele>
        <time>2013-12-11T12:43:52Z</time>
      </trkpt>
      <trkpt lat="43.25837" lon="5.93353">
        <ele>399.5</ele>
        <time>2013-12-11T12:43:55Z</time>
      </trkpt>
      <trkpt lat="43.2584" lon="5.93356">
        <ele>400.5</ele>
        <time>2013-12-11T12:43:59Z</time>
      </trkpt>
      <trkpt lat="43.25843" lon="5.9336">
        <ele>400.7</ele>
        <time>2013-12-11T12:44:02Z</time>
      </trkpt>
      <trkpt lat="43.25845" lon="5.93363">
        <ele>401.3</ele>
        <time>2013-12-11T12:44:05Z</time>
      </trkpt>
      <trkpt lat="43.25847" lon="5.93368">
        <ele>402</ele>
        <time>2013-12-11T12:44:09Z</time>
      </trkpt>
      <trkpt lat="43.25848" lon="5.93372">
        <ele>401.1</ele>
        <time>2013-12-11T12:44:12Z</time>
      </trkpt>
      <trkpt lat="43.25848" lon="5.93378">
        <ele>400.2</ele>
        <time>2013-12-11T12:44:15Z</time>
      </trkpt>
      <trkpt lat="43.25849" lon="5.93382">
        <ele>399.1</ele>
        <time>2013-12-11T12:44:17Z</time>
      </trkpt>
      <trkpt lat="43.25849" lon="5.93388">
        <ele>398.6</ele>
        <time>2013-12-11T12:44:20Z</time>
      </trkpt>
      <trkpt lat="43.25849" lon="5.93394">
        <ele>398.8</ele>
        <time>2013-12-11T12:44:23Z</time>
      </trkpt>
      <trkpt lat="43.25849" lon="5.93399">
        <ele>399.2</ele>
        <time>2013-12-11T12:44:26Z</time>
      </trkpt>
      <trkpt lat="43.25848" lon="5.93405">
        <ele>400.2</ele>
        <time>2013-12-11T12:44:30Z</time>
      </trkpt>
      <trkpt lat="43.25848" lon="5.93406">
        <ele>400.3</ele>
        <time>2013-12-11T12:44:31Z</time>
      </trkpt>
      <trkpt lat="43.25848" lon="5.93416">
        <ele>401.6</ele>
        <time>2013-12-11T12:44:36Z</time>
      </trkpt>
      <trkpt lat="43.25848" lon="5.93421">
        <ele>401.7</ele>
        <time>2013-12-11T12:44:39Z</time>
      </trkpt>
      <trkpt lat="43.25848" lon="5.93427">
        <ele>402.5</ele>
        <time>2013-12-11T12:44:42Z</time>
      </trkpt>
      <trkpt lat="43.25848" lon="5.93431">
        <ele>402.6</ele>
        <time>2013-12-11T12:44:45Z</time>
      </trkpt>
      <trkpt lat="43.25848" lon="5.93437">
        <ele>401.1</ele>
        <time>2013-12-11T12:44:48Z</time>
      </trkpt>
      <trkpt lat="43.25848" lon="5.93441">
        <ele>400.7</ele>
        <time>2013-12-11T12:44:50Z</time>
      </trkpt>
      <trkpt lat="43.25847" lon="5.93446">
        <ele>401.2</ele>
        <time>2013-12-11T12:44:53Z</time>
      </trkpt>
      <trkpt lat="43.25848" lon="5.93452">
        <ele>400.2</ele>
        <time>2013-12-11T12:44:57Z</time>
      </trkpt>
      <trkpt lat="43.25848" lon="5.93457">
        <ele>399.2</ele>
        <time>2013-12-11T12:44:59Z</time>
      </trkpt>
      <trkpt lat="43.25848" lon="5.93463">
        <ele>398.8</ele>
        <time>2013-12-11T12:45:03Z</time>
      </trkpt>
      <trkpt lat="43.25848" lon="5.93468">
        <ele>399.2</ele>
        <time>2013-12-11T12:45:07Z</time>
      </trkpt>
      <trkpt lat="43.25848" lon="5.93473">
        <ele>398.8</ele>
        <time>2013-12-11T12:45:10Z</time>
      </trkpt>
      <trkpt lat="43.25849" lon="5.93478">
        <ele>400.5</ele>
        <time>2013-12-11T12:45:14Z</time>
      </trkpt>
      <trkpt lat="43.25851" lon="5.93483">
        <ele>399.2</ele>
        <time>2013-12-11T12:45:17Z</time>
      </trkpt>
      <trkpt lat="43.25854" lon="5.93487">
        <ele>400.7</ele>
        <time>2013-12-11T12:45:20Z</time>
      </trkpt>
      <trkpt lat="43.25857" lon="5.93489">
        <ele>402.7</ele>
        <time>2013-12-11T12:45:23Z</time>
      </trkpt>
      <trkpt lat="43.25862" lon="5.9349">
        <ele>405.3</ele>
        <time>2013-12-11T12:45:27Z</time>
      </trkpt>
      <trkpt lat="43.25865" lon="5.93491">
        <ele>405.1</ele>
        <time>2013-12-11T12:45:30Z</time>
      </trkpt>
      <trkpt lat="43.25869" lon="5.9349">
        <ele>407.6</ele>
        <time>2013-12-11T12:45:34Z</time>
      </trkpt>
      <trkpt lat="43.2587" lon="5.9349">
        <ele>407.8</ele>
        <time>2013-12-11T12:45:35Z</time>
      </trkpt>
      <trkpt lat="43.25876" lon="5.93491">
        <ele>408.7</ele>
        <time>2013-12-11T12:45:40Z</time>
      </trkpt>
      <trkpt lat="43.25879" lon="5.93492">
        <ele>408.8</ele>
        <time>2013-12-11T12:45:42Z</time>
      </trkpt>
      <trkpt lat="43.25881" lon="5.93492">
        <ele>410.2</ele>
        <time>2013-12-11T12:45:43Z</time>
      </trkpt>
      <trkpt lat="43.25885" lon="5.93492">
        <ele>412.1</ele>
        <time>2013-12-11T12:45:45Z</time>
      </trkpt>
      <trkpt lat="43.25888" lon="5.93493">
        <ele>412.2</ele>
        <time>2013-12-11T12:45:48Z</time>
      </trkpt>
      <trkpt lat="43.25891" lon="5.93496">
        <ele>411.7</ele>
        <time>2013-12-11T12:45:50Z</time>
      </trkpt>
      <trkpt lat="43.25893" lon="5.93499">
        <ele>411.7</ele>
        <time>2013-12-11T12:45:52Z</time>
      </trkpt>
      <trkpt lat="43.25895" lon="5.93503">
        <ele>410.8</ele>
        <time>2013-12-11T12:45:55Z</time>
      </trkpt>
      <trkpt lat="43.25897" lon="5.93507">
        <ele>408.5</ele>
        <time>2013-12-11T12:45:58Z</time>
      </trkpt>
      <trkpt lat="43.25899" lon="5.93511">
        <ele>407.1</ele>
        <time>2013-12-11T12:46:01Z</time>
      </trkpt>
      <trkpt lat="43.259" lon="5.93516">
        <ele>406</ele>
        <time>2013-12-11T12:46:04Z</time>
      </trkpt>
      <trkpt lat="43.25901" lon="5.93521">
        <ele>404.1</ele>
        <time>2013-12-11T12:46:07Z</time>
      </trkpt>
      <trkpt lat="43.25902" lon="5.93526">
        <ele>401.2</ele>
        <time>2013-12-11T12:46:09Z</time>
      </trkpt>
      <trkpt lat="43.25903" lon="5.93531">
        <ele>398.7</ele>
        <time>2013-12-11T12:46:11Z</time>
      </trkpt>
      <trkpt lat="43.25904" lon="5.93535">
        <ele>396</ele>
        <time>2013-12-11T12:46:13Z</time>
      </trkpt>
      <trkpt lat="43.25905" lon="5.9354">
        <ele>395.6</ele>
        <time>2013-12-11T12:46:16Z</time>
      </trkpt>
      <trkpt lat="43.25906" lon="5.93546">
        <ele>392.7</ele>
        <time>2013-12-11T12:46:19Z</time>
      </trkpt>
      <trkpt lat="43.25907" lon="5.93551">
        <ele>392.6</ele>
        <time>2013-12-11T12:46:22Z</time>
      </trkpt>
      <trkpt lat="43.25908" lon="5.93556">
        <ele>391.3</ele>
        <time>2013-12-11T12:46:25Z</time>
      </trkpt>
      <trkpt lat="43.25908" lon="5.93562">
        <ele>390.5</ele>
        <time>2013-12-11T12:46:28Z</time>
      </trkpt>
      <trkpt lat="43.25909" lon="5.93567">
        <ele>390.7</ele>
        <time>2013-12-11T12:46:32Z</time>
      </trkpt>
      <trkpt lat="43.2591" lon="5.93572">
        <ele>391.2</ele>
        <time>2013-12-11T12:46:34Z</time>
      </trkpt>
      <trkpt lat="43.25912" lon="5.93576">
        <ele>392.7</ele>
        <time>2013-12-11T12:46:38Z</time>
      </trkpt>
      <trkpt lat="43.25912" lon="5.93578">
        <ele>392.5</ele>
        <time>2013-12-11T12:46:39Z</time>
      </trkpt>
      <trkpt lat="43.25915" lon="5.93584">
        <ele>390.7</ele>
        <time>2013-12-11T12:46:43Z</time>
      </trkpt>
      <trkpt lat="43.25917" lon="5.93587">
        <ele>391.6</ele>
        <time>2013-12-11T12:46:46Z</time>
      </trkpt>
      <trkpt lat="43.2592" lon="5.9359">
        <ele>393.2</ele>
        <time>2013-12-11T12:46:48Z</time>
      </trkpt>
      <trkpt lat="43.25922" lon="5.93593">
        <ele>393.5</ele>
        <time>2013-12-11T12:46:50Z</time>
      </trkpt>
      <trkpt lat="43.25926" lon="5.93596">
        <ele>395.1</ele>
        <time>2013-12-11T12:46:54Z</time>
      </trkpt>
      <trkpt lat="43.25929" lon="5.93597">
        <ele>397.8</ele>
        <time>2013-12-11T12:46:57Z</time>
      </trkpt>
      <trkpt lat="43.25932" lon="5.93598">
        <ele>399.8</ele>
        <time>2013-12-11T12:46:59Z</time>
      </trkpt>
      <trkpt lat="43.25936" lon="5.93599">
        <ele>402.8</ele>
        <time>2013-12-11T12:47:02Z</time>
      </trkpt>
      <trkpt lat="43.2594" lon="5.93598">
        <ele>405.2</ele>
        <time>2013-12-11T12:47:05Z</time>
      </trkpt>
      <trkpt lat="43.25942" lon="5.93595">
        <ele>407.6</ele>
        <time>2013-12-11T12:47:08Z</time>
      </trkpt>
      <trkpt lat="43.25945" lon="5.93592">
        <ele>410.5</ele>
        <time>2013-12-11T12:47:11Z</time>
      </trkpt>
      <trkpt lat="43.25948" lon="5.9359">
        <ele>412.3</ele>
        <time>2013-12-11T12:47:14Z</time>
      </trkpt>
      <trkpt lat="43.25951" lon="5.93586">
        <ele>414.3</ele>
        <time>2013-12-11T12:47:17Z</time>
      </trkpt>
      <trkpt lat="43.25955" lon="5.93585">
        <ele>414.3</ele>
        <time>2013-12-11T12:47:20Z</time>
      </trkpt>
      <trkpt lat="43.25959" lon="5.93581">
        <ele>415.7</ele>
        <time>2013-12-11T12:47:23Z</time>
      </trkpt>
      <trkpt lat="43.25963" lon="5.93578">
        <ele>417.5</ele>
        <time>2013-12-11T12:47:26Z</time>
      </trkpt>
      <trkpt lat="43.25966" lon="5.93576">
        <ele>415.8</ele>
        <time>2013-12-11T12:47:31Z</time>
      </trkpt>
      <trkpt lat="43.2597" lon="5.93574">
        <ele>415.8</ele>
        <time>2013-12-11T12:47:35Z</time>
      </trkpt>
      <trkpt lat="43.25973" lon="5.93572">
        <ele>417.6</ele>
        <time>2013-12-11T12:47:38Z</time>
      </trkpt>
      <trkpt lat="43.25977" lon="5.9357">
        <ele>415.7</ele>
        <time>2013-12-11T12:47:43Z</time>
      </trkpt>
      <trkpt lat="43.25978" lon="5.9357">
        <ele>415.3</ele>
        <time>2013-12-11T12:47:44Z</time>
      </trkpt>
      <trkpt lat="43.25985" lon="5.93565">
        <ele>413.3</ele>
        <time>2013-12-11T12:47:53Z</time>
      </trkpt>
      <trkpt lat="43.25988" lon="5.93562">
        <ele>412.6</ele>
        <time>2013-12-11T12:47:57Z</time>
      </trkpt>
      <trkpt lat="43.25991" lon="5.93558">
        <ele>412.2</ele>
        <time>2013-12-11T12:48:02Z</time>
      </trkpt>
      <trkpt lat="43.25995" lon="5.93556">
        <ele>411.6</ele>
        <time>2013-12-11T12:48:06Z</time>
      </trkpt>
      <trkpt lat="43.25998" lon="5.93555">
        <ele>411</ele>
        <time>2013-12-11T12:48:09Z</time>
      </trkpt>
      <trkpt lat="43.26001" lon="5.93554">
        <ele>410.7</ele>
        <time>2013-12-11T12:48:12Z</time>
      </trkpt>
      <trkpt lat="43.26004" lon="5.93553">
        <ele>410.7</ele>
        <time>2013-12-11T12:48:14Z</time>
      </trkpt>
      <trkpt lat="43.26008" lon="5.93553">
        <ele>411.8</ele>
        <time>2013-12-11T12:48:17Z</time>
      </trkpt>
      <trkpt lat="43.26013" lon="5.93553">
        <ele>413.6</ele>
        <time>2013-12-11T12:48:20Z</time>
      </trkpt>
      <trkpt lat="43.26017" lon="5.93556">
        <ele>414.5</ele>
        <time>2013-12-11T12:48:25Z</time>
      </trkpt>
      <trkpt lat="43.2602" lon="5.93559">
        <ele>416.1</ele>
        <time>2013-12-11T12:48:29Z</time>
      </trkpt>
      <trkpt lat="43.26023" lon="5.93562">
        <ele>415.7</ele>
        <time>2013-12-11T12:48:32Z</time>
      </trkpt>
      <trkpt lat="43.26026" lon="5.93564">
        <ele>415.8</ele>
        <time>2013-12-11T12:48:34Z</time>
      </trkpt>
      <trkpt lat="43.2603" lon="5.93566">
        <ele>415.8</ele>
        <time>2013-12-11T12:48:37Z</time>
      </trkpt>
      <trkpt lat="43.26034" lon="5.93567">
        <ele>416.2</ele>
        <time>2013-12-11T12:48:41Z</time>
      </trkpt>
      <trkpt lat="43.26038" lon="5.93569">
        <ele>417</ele>
        <time>2013-12-11T12:48:45Z</time>
      </trkpt>
      <trkpt lat="43.2604" lon="5.9357">
        <ele>417.3</ele>
        <time>2013-12-11T12:48:46Z</time>
      </trkpt>
      <trkpt lat="43.26046" lon="5.93573">
        <ele>417.6</ele>
        <time>2013-12-11T12:48:53Z</time>
      </trkpt>
      <trkpt lat="43.26049" lon="5.93575">
        <ele>417.6</ele>
        <time>2013-12-11T12:48:56Z</time>
      </trkpt>
      <trkpt lat="43.26053" lon="5.93578">
        <ele>417.5</ele>
        <time>2013-12-11T12:48:59Z</time>
      </trkpt>
      <trkpt lat="43.26056" lon="5.9358">
        <ele>418.2</ele>
        <time>2013-12-11T12:49:02Z</time>
      </trkpt>
      <trkpt lat="43.26059" lon="5.93583">
        <ele>417.5</ele>
        <time>2013-12-11T12:49:05Z</time>
      </trkpt>
      <trkpt lat="43.26063" lon="5.93586">
        <ele>417.2</ele>
        <time>2013-12-11T12:49:08Z</time>
      </trkpt>
      <trkpt lat="43.26066" lon="5.93589">
        <ele>415</ele>
        <time>2013-12-11T12:49:12Z</time>
      </trkpt>
      <trkpt lat="43.26069" lon="5.93592">
        <ele>413.1</ele>
        <time>2013-12-11T12:49:16Z</time>
      </trkpt>
      <trkpt lat="43.26073" lon="5.93595">
        <ele>412.1</ele>
        <time>2013-12-11T12:49:19Z</time>
      </trkpt>
      <trkpt lat="43.26076" lon="5.93598">
        <ele>410.7</ele>
        <time>2013-12-11T12:49:23Z</time>
      </trkpt>
      <trkpt lat="43.2608" lon="5.936">
        <ele>409.7</ele>
        <time>2013-12-11T12:49:27Z</time>
      </trkpt>
      <trkpt lat="43.26083" lon="5.93604">
        <ele>409.1</ele>
        <time>2013-12-11T12:49:31Z</time>
      </trkpt>
      <trkpt lat="43.26086" lon="5.93607">
        <ele>409.1</ele>
        <time>2013-12-11T12:49:34Z</time>
      </trkpt>
      <trkpt lat="43.26089" lon="5.93611">
        <ele>409</ele>
        <time>2013-12-11T12:49:38Z</time>
      </trkpt>
      <trkpt lat="43.26091" lon="5.93614">
        <ele>408.8</ele>
        <time>2013-12-11T12:49:41Z</time>
      </trkpt>
      <trkpt lat="43.26094" lon="5.93618">
        <ele>409.5</ele>
        <time>2013-12-11T12:49:44Z</time>
      </trkpt>
      <trkpt lat="43.26096" lon="5.93622">
        <ele>409.5</ele>
        <time>2013-12-11T12:49:47Z</time>
      </trkpt>
      <trkpt lat="43.26097" lon="5.93624">
        <ele>409.5</ele>
        <time>2013-12-11T12:49:48Z</time>
      </trkpt>
      <trkpt lat="43.26101" lon="5.93629">
        <ele>409.7</ele>
        <time>2013-12-11T12:49:53Z</time>
      </trkpt>
      <trkpt lat="43.26105" lon="5.93633">
        <ele>409.7</ele>
        <time>2013-12-11T12:49:57Z</time>
      </trkpt>
      <trkpt lat="43.26107" lon="5.93637">
        <ele>409.7</ele>
        <time>2013-12-11T12:50:00Z</time>
      </trkpt>
      <trkpt lat="43.2611" lon="5.9364">
        <ele>410.1</ele>
        <time>2013-12-11T12:50:03Z</time>
      </trkpt>
      <trkpt lat="43.26113" lon="5.93644">
        <ele>411.2</ele>
        <time>2013-12-11T12:50:06Z</time>
      </trkpt>
      <trkpt lat="43.26116" lon="5.93648">
        <ele>410.8</ele>
        <time>2013-12-11T12:50:10Z</time>
      </trkpt>
      <trkpt lat="43.26119" lon="5.93653">
        <ele>410.7</ele>
        <time>2013-12-11T12:50:14Z</time>
      </trkpt>
      <trkpt lat="43.26122" lon="5.93657">
        <ele>410.7</ele>
        <time>2013-12-11T12:50:18Z</time>
      </trkpt>
      <trkpt lat="43.26125" lon="5.93662">
        <ele>410.5</ele>
        <time>2013-12-11T12:50:22Z</time>
      </trkpt>
      <trkpt lat="43.26128" lon="5.93666">
        <ele>410.1</ele>
        <time>2013-12-11T12:50:26Z</time>
      </trkpt>
      <trkpt lat="43.26131" lon="5.93669">
        <ele>410.2</ele>
        <time>2013-12-11T12:50:29Z</time>
      </trkpt>
      <trkpt lat="43.26135" lon="5.93672">
        <ele>410.7</ele>
        <time>2013-12-11T12:50:32Z</time>
      </trkpt>
      <trkpt lat="43.26137" lon="5.93675">
        <ele>410</ele>
        <time>2013-12-11T12:50:36Z</time>
      </trkpt>
      <trkpt lat="43.26141" lon="5.9368">
        <ele>410.2</ele>
        <time>2013-12-11T12:50:40Z</time>
      </trkpt>
      <trkpt lat="43.26143" lon="5.93683">
        <ele>410.7</ele>
        <time>2013-12-11T12:50:43Z</time>
      </trkpt>
      <trkpt lat="43.26146" lon="5.93685">
        <ele>410.7</ele>
        <time>2013-12-11T12:50:46Z</time>
      </trkpt>
      <trkpt lat="43.2615" lon="5.93688">
        <ele>410.7</ele>
        <time>2013-12-11T12:50:50Z</time>
      </trkpt>
      <trkpt lat="43.26151" lon="5.93689">
        <ele>410.7</ele>
        <time>2013-12-11T12:50:51Z</time>
      </trkpt>
      <trkpt lat="43.26156" lon="5.93694">
        <ele>410.5</ele>
        <time>2013-12-11T12:50:57Z</time>
      </trkpt>
      <trkpt lat="43.2616" lon="5.93697">
        <ele>411.5</ele>
        <time>2013-12-11T12:51:00Z</time>
      </trkpt>
      <trkpt lat="43.26163" lon="5.93699">
        <ele>412.2</ele>
        <time>2013-12-11T12:51:03Z</time>
      </trkpt>
      <trkpt lat="43.26166" lon="5.93703">
        <ele>414</ele>
        <time>2013-12-11T12:51:06Z</time>
      </trkpt>
      <trkpt lat="43.26169" lon="5.93707">
        <ele>415.2</ele>
        <time>2013-12-11T12:51:09Z</time>
      </trkpt>
      <trkpt lat="43.26171" lon="5.93711">
        <ele>416.1</ele>
        <time>2013-12-11T12:51:12Z</time>
      </trkpt>
      <trkpt lat="43.26173" lon="5.93715">
        <ele>416.1</ele>
        <time>2013-12-11T12:51:15Z</time>
      </trkpt>
      <trkpt lat="43.26176" lon="5.93718">
        <ele>416.2</ele>
        <time>2013-12-11T12:51:18Z</time>
      </trkpt>
      <trkpt lat="43.26178" lon="5.93722">
        <ele>416.2</ele>
        <time>2013-12-11T12:51:21Z</time>
      </trkpt>
      <trkpt lat="43.2618" lon="5.93727">
        <ele>416.7</ele>
        <time>2013-12-11T12:51:24Z</time>
      </trkpt>
      <trkpt lat="43.26182" lon="5.93731">
        <ele>416.6</ele>
        <time>2013-12-11T12:51:27Z</time>
      </trkpt>
      <trkpt lat="43.26185" lon="5.93736">
        <ele>415.6</ele>
        <time>2013-12-11T12:51:31Z</time>
      </trkpt>
      <trkpt lat="43.26187" lon="5.9374">
        <ele>414.5</ele>
        <time>2013-12-11T12:51:35Z</time>
      </trkpt>
      <trkpt lat="43.2619" lon="5.93743">
        <ele>415.7</ele>
        <time>2013-12-11T12:51:38Z</time>
      </trkpt>
      <trkpt lat="43.26193" lon="5.93748">
        <ele>415</ele>
        <time>2013-12-11T12:51:42Z</time>
      </trkpt>
      <trkpt lat="43.26194" lon="5.93753">
        <ele>414</ele>
        <time>2013-12-11T12:51:45Z</time>
      </trkpt>
      <trkpt lat="43.26197" lon="5.93758">
        <ele>415.2</ele>
        <time>2013-12-11T12:51:49Z</time>
      </trkpt>
      <trkpt lat="43.26198" lon="5.93764">
        <ele>415.7</ele>
        <time>2013-12-11T12:51:52Z</time>
      </trkpt>
      <trkpt lat="43.26198" lon="5.93765">
        <ele>415.7</ele>
        <time>2013-12-11T12:51:53Z</time>
      </trkpt>
      <trkpt lat="43.26201" lon="5.93775">
        <ele>415.2</ele>
        <time>2013-12-11T12:51:59Z</time>
      </trkpt>
      <trkpt lat="43.26203" lon="5.93779">
        <ele>415.3</ele>
        <time>2013-12-11T12:52:02Z</time>
      </trkpt>
      <trkpt lat="43.26205" lon="5.93783">
        <ele>415.2</ele>
        <time>2013-12-11T12:52:05Z</time>
      </trkpt>
      <trkpt lat="43.26206" lon="5.93789">
        <ele>415.7</ele>
        <time>2013-12-11T12:52:08Z</time>
      </trkpt>
      <trkpt lat="43.26207" lon="5.93793">
        <ele>416</ele>
        <time>2013-12-11T12:52:11Z</time>
      </trkpt>
      <trkpt lat="43.26209" lon="5.93799">
        <ele>416.1</ele>
        <time>2013-12-11T12:52:15Z</time>
      </trkpt>
      <trkpt lat="43.2621" lon="5.93803">
        <ele>416.7</ele>
        <time>2013-12-11T12:52:18Z</time>
      </trkpt>
      <trkpt lat="43.26212" lon="5.93808">
        <ele>417</ele>
        <time>2013-12-11T12:52:21Z</time>
      </trkpt>
      <trkpt lat="43.26213" lon="5.93813">
        <ele>418.5</ele>
        <time>2013-12-11T12:52:24Z</time>
      </trkpt>
      <trkpt lat="43.26214" lon="5.93817">
        <ele>418.3</ele>
        <time>2013-12-11T12:52:27Z</time>
      </trkpt>
      <trkpt lat="43.26216" lon="5.93822">
        <ele>417.5</ele>
        <time>2013-12-11T12:52:30Z</time>
      </trkpt>
      <trkpt lat="43.26216" lon="5.93827">
        <ele>417.3</ele>
        <time>2013-12-11T12:52:33Z</time>
      </trkpt>
      <trkpt lat="43.26217" lon="5.93832">
        <ele>416.7</ele>
        <time>2013-12-11T12:52:36Z</time>
      </trkpt>
      <trkpt lat="43.26217" lon="5.93837">
        <ele>415.8</ele>
        <time>2013-12-11T12:52:39Z</time>
      </trkpt>
      <trkpt lat="43.26218" lon="5.93842">
        <ele>414.8</ele>
        <time>2013-12-11T12:52:42Z</time>
      </trkpt>
      <trkpt lat="43.26217" lon="5.93848">
        <ele>417.2</ele>
        <time>2013-12-11T12:52:46Z</time>
      </trkpt>
      <trkpt lat="43.26217" lon="5.93853">
        <ele>418.2</ele>
        <time>2013-12-11T12:52:50Z</time>
      </trkpt>
      <trkpt lat="43.26216" lon="5.93858">
        <ele>418.2</ele>
        <time>2013-12-11T12:52:53Z</time>
      </trkpt>
      <trkpt lat="43.26216" lon="5.9386">
        <ele>418.2</ele>
        <time>2013-12-11T12:52:54Z</time>
      </trkpt>
      <trkpt lat="43.26216" lon="5.9387">
        <ele>418.7</ele>
        <time>2013-12-11T12:53:00Z</time>
      </trkpt>
      <trkpt lat="43.26216" lon="5.93874">
        <ele>419.7</ele>
        <time>2013-12-11T12:53:02Z</time>
      </trkpt>
      <trkpt lat="43.26215" lon="5.9388">
        <ele>419</ele>
        <time>2013-12-11T12:53:06Z</time>
      </trkpt>
      <trkpt lat="43.26214" lon="5.93886">
        <ele>419.6</ele>
        <time>2013-12-11T12:53:09Z</time>
      </trkpt>
      <trkpt lat="43.26213" lon="5.93891">
        <ele>420.2</ele>
        <time>2013-12-11T12:53:12Z</time>
      </trkpt>
      <trkpt lat="43.26212" lon="5.93897">
        <ele>419.8</ele>
        <time>2013-12-11T12:53:16Z</time>
      </trkpt>
      <trkpt lat="43.26211" lon="5.93902">
        <ele>419.2</ele>
        <time>2013-12-11T12:53:20Z</time>
      </trkpt>
      <trkpt lat="43.2621" lon="5.93908">
        <ele>419.7</ele>
        <time>2013-12-11T12:53:23Z</time>
      </trkpt>
      <trkpt lat="43.2621" lon="5.93913">
        <ele>419.8</ele>
        <time>2013-12-11T12:53:26Z</time>
      </trkpt>
      <trkpt lat="43.26209" lon="5.93917">
        <ele>419.8</ele>
        <time>2013-12-11T12:53:29Z</time>
      </trkpt>
      <trkpt lat="43.26208" lon="5.93922">
        <ele>420.2</ele>
        <time>2013-12-11T12:53:32Z</time>
      </trkpt>
      <trkpt lat="43.26206" lon="5.93927">
        <ele>420.3</ele>
        <time>2013-12-11T12:53:36Z</time>
      </trkpt>
      <trkpt lat="43.26205" lon="5.93932">
        <ele>420.2</ele>
        <time>2013-12-11T12:53:39Z</time>
      </trkpt>
      <trkpt lat="43.26203" lon="5.93937">
        <ele>420.6</ele>
        <time>2013-12-11T12:53:43Z</time>
      </trkpt>
      <trkpt lat="43.26201" lon="5.93942">
        <ele>420.2</ele>
        <time>2013-12-11T12:53:46Z</time>
      </trkpt>
      <trkpt lat="43.26199" lon="5.93947">
        <ele>419.6</ele>
        <time>2013-12-11T12:53:50Z</time>
      </trkpt>
      <trkpt lat="43.26196" lon="5.93951">
        <ele>420.1</ele>
        <time>2013-12-11T12:53:53Z</time>
      </trkpt>
      <trkpt lat="43.26194" lon="5.93955">
        <ele>420.2</ele>
        <time>2013-12-11T12:53:56Z</time>
      </trkpt>
      <trkpt lat="43.26194" lon="5.93957">
        <ele>420.5</ele>
        <time>2013-12-11T12:53:57Z</time>
      </trkpt>
      <trkpt lat="43.2619" lon="5.93965">
        <ele>420.7</ele>
        <time>2013-12-11T12:54:03Z</time>
      </trkpt>
      <trkpt lat="43.26188" lon="5.93969">
        <ele>420.7</ele>
        <time>2013-12-11T12:54:06Z</time>
      </trkpt>
      <trkpt lat="43.26186" lon="5.93973">
        <ele>421</ele>
        <time>2013-12-11T12:54:09Z</time>
      </trkpt>
      <trkpt lat="43.26184" lon="5.93978">
        <ele>422.2</ele>
        <time>2013-12-11T12:54:12Z</time>
      </trkpt>
      <trkpt lat="43.26182" lon="5.93983">
        <ele>422.2</ele>
        <time>2013-12-11T12:54:16Z</time>
      </trkpt>
      <trkpt lat="43.2618" lon="5.93987">
        <ele>422.7</ele>
        <time>2013-12-11T12:54:19Z</time>
      </trkpt>
      <trkpt lat="43.26178" lon="5.93992">
        <ele>422.6</ele>
        <time>2013-12-11T12:54:22Z</time>
      </trkpt>
      <trkpt lat="43.26178" lon="5.93997">
        <ele>423.2</ele>
        <time>2013-12-11T12:54:25Z</time>
      </trkpt>
      <trkpt lat="43.26178" lon="5.94003">
        <ele>423.3</ele>
        <time>2013-12-11T12:54:29Z</time>
      </trkpt>
      <trkpt lat="43.2618" lon="5.94008">
        <ele>423.6</ele>
        <time>2013-12-11T12:54:33Z</time>
      </trkpt>
      <trkpt lat="43.26182" lon="5.94013">
        <ele>422.8</ele>
        <time>2013-12-11T12:54:37Z</time>
      </trkpt>
      <trkpt lat="43.26184" lon="5.94017">
        <ele>422.7</ele>
        <time>2013-12-11T12:54:40Z</time>
      </trkpt>
      <trkpt lat="43.26185" lon="5.94023">
        <ele>423.3</ele>
        <time>2013-12-11T12:54:43Z</time>
      </trkpt>
      <trkpt lat="43.26187" lon="5.94028">
        <ele>423.2</ele>
        <time>2013-12-11T12:54:47Z</time>
      </trkpt>
      <trkpt lat="43.26188" lon="5.94034">
        <ele>423</ele>
        <time>2013-12-11T12:54:51Z</time>
      </trkpt>
      <trkpt lat="43.26188" lon="5.94039">
        <ele>423.6</ele>
        <time>2013-12-11T12:54:54Z</time>
      </trkpt>
      <trkpt lat="43.26188" lon="5.94044">
        <ele>423.7</ele>
        <time>2013-12-11T12:54:58Z</time>
      </trkpt>
      <trkpt lat="43.26188" lon="5.94046">
        <ele>424</ele>
        <time>2013-12-11T12:54:59Z</time>
      </trkpt>
      <trkpt lat="43.26187" lon="5.94054">
        <ele>425.3</ele>
        <time>2013-12-11T12:55:04Z</time>
      </trkpt>
      <trkpt lat="43.26187" lon="5.9406">
        <ele>425.3</ele>
        <time>2013-12-11T12:55:08Z</time>
      </trkpt>
      <trkpt lat="43.26187" lon="5.94066">
        <ele>426.1</ele>
        <time>2013-12-11T12:55:12Z</time>
      </trkpt>
      <trkpt lat="43.26186" lon="5.94072">
        <ele>426.7</ele>
        <time>2013-12-11T12:55:16Z</time>
      </trkpt>
      <trkpt lat="43.26185" lon="5.94077">
        <ele>427.1</ele>
        <time>2013-12-11T12:55:19Z</time>
      </trkpt>
      <trkpt lat="43.26185" lon="5.94083">
        <ele>426.8</ele>
        <time>2013-12-11T12:55:24Z</time>
      </trkpt>
      <trkpt lat="43.26184" lon="5.94088">
        <ele>427.6</ele>
        <time>2013-12-11T12:55:27Z</time>
      </trkpt>
      <trkpt lat="43.26183" lon="5.94093">
        <ele>428</ele>
        <time>2013-12-11T12:55:30Z</time>
      </trkpt>
      <trkpt lat="43.26182" lon="5.94098">
        <ele>428.6</ele>
        <time>2013-12-11T12:55:33Z</time>
      </trkpt>
      <trkpt lat="43.26181" lon="5.94103">
        <ele>428.8</ele>
        <time>2013-12-11T12:55:35Z</time>
      </trkpt>
      <trkpt lat="43.2618" lon="5.94108">
        <ele>428.8</ele>
        <time>2013-12-11T12:55:38Z</time>
      </trkpt>
      <trkpt lat="43.26178" lon="5.94113">
        <ele>428.8</ele>
        <time>2013-12-11T12:55:41Z</time>
      </trkpt>
      <trkpt lat="43.26177" lon="5.94117">
        <ele>428.8</ele>
        <time>2013-12-11T12:55:43Z</time>
      </trkpt>
      <trkpt lat="43.26176" lon="5.94122">
        <ele>428.8</ele>
        <time>2013-12-11T12:55:46Z</time>
      </trkpt>
      <trkpt lat="43.26175" lon="5.94127">
        <ele>429.7</ele>
        <time>2013-12-11T12:55:48Z</time>
      </trkpt>
      <trkpt lat="43.26174" lon="5.94133">
        <ele>429.5</ele>
        <time>2013-12-11T12:55:52Z</time>
      </trkpt>
      <trkpt lat="43.26173" lon="5.94138">
        <ele>428.8</ele>
        <time>2013-12-11T12:55:56Z</time>
      </trkpt>
      <trkpt lat="43.26172" lon="5.94144">
        <ele>428.5</ele>
        <time>2013-12-11T12:56:00Z</time>
      </trkpt>
      <trkpt lat="43.26172" lon="5.94145">
        <ele>428.2</ele>
        <time>2013-12-11T12:56:01Z</time>
      </trkpt>
      <trkpt lat="43.26169" lon="5.94153">
        <ele>428.7</ele>
        <time>2013-12-11T12:56:06Z</time>
      </trkpt>
      <trkpt lat="43.26167" lon="5.94158">
        <ele>430.1</ele>
        <time>2013-12-11T12:56:09Z</time>
      </trkpt>
      <trkpt lat="43.26165" lon="5.94164">
        <ele>430.3</ele>
        <time>2013-12-11T12:56:12Z</time>
      </trkpt>
      <trkpt lat="43.26163" lon="5.94169">
        <ele>430.7</ele>
        <time>2013-12-11T12:56:15Z</time>
      </trkpt>
      <trkpt lat="43.26161" lon="5.94174">
        <ele>430.3</ele>
        <time>2013-12-11T12:56:19Z</time>
      </trkpt>
      <trkpt lat="43.26159" lon="5.94178">
        <ele>430.5</ele>
        <time>2013-12-11T12:56:22Z</time>
      </trkpt>
      <trkpt lat="43.26157" lon="5.94181">
        <ele>431.2</ele>
        <time>2013-12-11T12:56:24Z</time>
      </trkpt>
      <trkpt lat="43.26155" lon="5.94186">
        <ele>431.3</ele>
        <time>2013-12-11T12:56:27Z</time>
      </trkpt>
      <trkpt lat="43.26152" lon="5.94191">
        <ele>431.7</ele>
        <time>2013-12-11T12:56:31Z</time>
      </trkpt>
      <trkpt lat="43.2615" lon="5.94196">
        <ele>432.3</ele>
        <time>2013-12-11T12:56:34Z</time>
      </trkpt>
      <trkpt lat="43.26148" lon="5.942">
        <ele>432.3</ele>
        <time>2013-12-11T12:56:37Z</time>
      </trkpt>
      <trkpt lat="43.26145" lon="5.94205">
        <ele>432.8</ele>
        <time>2013-12-11T12:56:40Z</time>
      </trkpt>
      <trkpt lat="43.26143" lon="5.9421">
        <ele>432.7</ele>
        <time>2013-12-11T12:56:43Z</time>
      </trkpt>
      <trkpt lat="43.26141" lon="5.94213">
        <ele>432.2</ele>
        <time>2013-12-11T12:56:47Z</time>
      </trkpt>
      <trkpt lat="43.26138" lon="5.94217">
        <ele>432.5</ele>
        <time>2013-12-11T12:56:50Z</time>
      </trkpt>
      <trkpt lat="43.26135" lon="5.94221">
        <ele>432.7</ele>
        <time>2013-12-11T12:56:53Z</time>
      </trkpt>
      <trkpt lat="43.26133" lon="5.94224">
        <ele>432.3</ele>
        <time>2013-12-11T12:56:56Z</time>
      </trkpt>
      <trkpt lat="43.2613" lon="5.94229">
        <ele>432.8</ele>
        <time>2013-12-11T12:56:59Z</time>
      </trkpt>
      <trkpt lat="43.26127" lon="5.94232">
        <ele>433</ele>
        <time>2013-12-11T12:57:02Z</time>
      </trkpt>
      <trkpt lat="43.26126" lon="5.94233">
        <ele>433.2</ele>
        <time>2013-12-11T12:57:03Z</time>
      </trkpt>
      <trkpt lat="43.26122" lon="5.9424">
        <ele>433.8</ele>
        <time>2013-12-11T12:57:08Z</time>
      </trkpt>
      <trkpt lat="43.2612" lon="5.94244">
        <ele>433.8</ele>
        <time>2013-12-11T12:57:11Z</time>
      </trkpt>
      <trkpt lat="43.26117" lon="5.94249">
        <ele>433.6</ele>
        <time>2013-12-11T12:57:15Z</time>
      </trkpt>
      <trkpt lat="43.26115" lon="5.94253">
        <ele>433.3</ele>
        <time>2013-12-11T12:57:19Z</time>
      </trkpt>
      <trkpt lat="43.26112" lon="5.94257">
        <ele>433.2</ele>
        <time>2013-12-11T12:57:23Z</time>
      </trkpt>
      <trkpt lat="43.26109" lon="5.94261">
        <ele>431.8</ele>
        <time>2013-12-11T12:57:27Z</time>
      </trkpt>
      <trkpt lat="43.26107" lon="5.94265">
        <ele>431.7</ele>
        <time>2013-12-11T12:57:31Z</time>
      </trkpt>
      <trkpt lat="43.26104" lon="5.9427">
        <ele>431.3</ele>
        <time>2013-12-11T12:57:35Z</time>
      </trkpt>
      <trkpt lat="43.26102" lon="5.94274">
        <ele>431.7</ele>
        <time>2013-12-11T12:57:39Z</time>
      </trkpt>
      <trkpt lat="43.26099" lon="5.94277">
        <ele>431.5</ele>
        <time>2013-12-11T12:57:42Z</time>
      </trkpt>
      <trkpt lat="43.26097" lon="5.94281">
        <ele>432.7</ele>
        <time>2013-12-11T12:57:44Z</time>
      </trkpt>
      <trkpt lat="43.26094" lon="5.94285">
        <ele>431.7</ele>
        <time>2013-12-11T12:57:48Z</time>
      </trkpt>
      <trkpt lat="43.26091" lon="5.94289">
        <ele>431.2</ele>
        <time>2013-12-11T12:57:52Z</time>
      </trkpt>
      <trkpt lat="43.26088" lon="5.94291">
        <ele>430.2</ele>
        <time>2013-12-11T12:57:57Z</time>
      </trkpt>
      <trkpt lat="43.26085" lon="5.94295">
        <ele>431.2</ele>
        <time>2013-12-11T12:58:00Z</time>
      </trkpt>
      <trkpt lat="43.26082" lon="5.94299">
        <ele>431.1</ele>
        <time>2013-12-11T12:58:04Z</time>
      </trkpt>
      <trkpt lat="43.26082" lon="5.94299">
        <ele>431.1</ele>
        <time>2013-12-11T12:58:05Z</time>
      </trkpt>
      <trkpt lat="43.26077" lon="5.94305">
        <ele>430.7</ele>
        <time>2013-12-11T12:58:10Z</time>
      </trkpt>
      <trkpt lat="43.26074" lon="5.9431">
        <ele>430.7</ele>
        <time>2013-12-11T12:58:14Z</time>
      </trkpt>
      <trkpt lat="43.26072" lon="5.94313">
        <ele>432.3</ele>
        <time>2013-12-11T12:58:16Z</time>
      </trkpt>
      <trkpt lat="43.26068" lon="5.94317">
        <ele>432.6</ele>
        <time>2013-12-11T12:58:20Z</time>
      </trkpt>
      <trkpt lat="43.26065" lon="5.94321">
        <ele>432.5</ele>
        <time>2013-12-11T12:58:24Z</time>
      </trkpt>
      <trkpt lat="43.26063" lon="5.94325">
        <ele>432.1</ele>
        <time>2013-12-11T12:58:28Z</time>
      </trkpt>
      <trkpt lat="43.2606" lon="5.94329">
        <ele>432.2</ele>
        <time>2013-12-11T12:58:32Z</time>
      </trkpt>
      <trkpt lat="43.26057" lon="5.94333">
        <ele>432.1</ele>
        <time>2013-12-11T12:58:35Z</time>
      </trkpt>
      <trkpt lat="43.26054" lon="5.94337">
        <ele>431.7</ele>
        <time>2013-12-11T12:58:39Z</time>
      </trkpt>
      <trkpt lat="43.26051" lon="5.9434">
        <ele>431.3</ele>
        <time>2013-12-11T12:58:43Z</time>
      </trkpt>
      <trkpt lat="43.26047" lon="5.94344">
        <ele>431.2</ele>
        <time>2013-12-11T12:58:47Z</time>
      </trkpt>
      <trkpt lat="43.26044" lon="5.94346">
        <ele>430.7</ele>
        <time>2013-12-11T12:58:50Z</time>
      </trkpt>
      <trkpt lat="43.2604" lon="5.9435">
        <ele>430.2</ele>
        <time>2013-12-11T12:58:54Z</time>
      </trkpt>
      <trkpt lat="43.26037" lon="5.94353">
        <ele>430</ele>
        <time>2013-12-11T12:58:58Z</time>
      </trkpt>
      <trkpt lat="43.26033" lon="5.94357">
        <ele>429</ele>
        <time>2013-12-11T12:59:02Z</time>
      </trkpt>
      <trkpt lat="43.2603" lon="5.9436">
        <ele>428.6</ele>
        <time>2013-12-11T12:59:05Z</time>
      </trkpt>
      <trkpt lat="43.26029" lon="5.94361">
        <ele>428.6</ele>
        <time>2013-12-11T12:59:06Z</time>
      </trkpt>
      <trkpt lat="43.26024" lon="5.94366">
        <ele>427.8</ele>
        <time>2013-12-11T12:59:11Z</time>
      </trkpt>
      <trkpt lat="43.26021" lon="5.94369">
        <ele>427.8</ele>
        <time>2013-12-11T12:59:14Z</time>
      </trkpt>
      <trkpt lat="43.26018" lon="5.94372">
        <ele>427.8</ele>
        <time>2013-12-11T12:59:18Z</time>
      </trkpt>
      <trkpt lat="43.26015" lon="5.94375">
        <ele>428.8</ele>
        <time>2013-12-11T12:59:20Z</time>
      </trkpt>
      <trkpt lat="43.26013" lon="5.94378">
        <ele>430.6</ele>
        <time>2013-12-11T12:59:22Z</time>
      </trkpt>
      <trkpt lat="43.2601" lon="5.94381">
        <ele>431.6</ele>
        <time>2013-12-11T12:59:25Z</time>
      </trkpt>
      <trkpt lat="43.26006" lon="5.94385">
        <ele>432.7</ele>
        <time>2013-12-11T12:59:28Z</time>
      </trkpt>
      <trkpt lat="43.26003" lon="5.94389">
        <ele>432.5</ele>
        <time>2013-12-11T12:59:32Z</time>
      </trkpt>
      <trkpt lat="43.26001" lon="5.94392">
        <ele>432.3</ele>
        <time>2013-12-11T12:59:35Z</time>
      </trkpt>
      <trkpt lat="43.25999" lon="5.94396">
        <ele>433.2</ele>
        <time>2013-12-11T12:59:37Z</time>
      </trkpt>
      <trkpt lat="43.25996" lon="5.94401">
        <ele>434.2</ele>
        <time>2013-12-11T12:59:40Z</time>
      </trkpt>
      <trkpt lat="43.25994" lon="5.94406">
        <ele>435.2</ele>
        <time>2013-12-11T12:59:43Z</time>
      </trkpt>
      <trkpt lat="43.25992" lon="5.9441">
        <ele>435.7</ele>
        <time>2013-12-11T12:59:46Z</time>
      </trkpt>
      <trkpt lat="43.2599" lon="5.94415">
        <ele>436.1</ele>
        <time>2013-12-11T12:59:49Z</time>
      </trkpt>
      <trkpt lat="43.25988" lon="5.94419">
        <ele>436.8</ele>
        <time>2013-12-11T12:59:52Z</time>
      </trkpt>
      <trkpt lat="43.25986" lon="5.94424">
        <ele>437.1</ele>
        <time>2013-12-11T12:59:56Z</time>
      </trkpt>
      <trkpt lat="43.25983" lon="5.94429">
        <ele>437.7</ele>
        <time>2013-12-11T13:00:00Z</time>
      </trkpt>
      <trkpt lat="43.2598" lon="5.94433">
        <ele>438.5</ele>
        <time>2013-12-11T13:00:04Z</time>
      </trkpt>
      <trkpt lat="43.25976" lon="5.94436">
        <ele>437.7</ele>
        <time>2013-12-11T13:00:09Z</time>
      </trkpt>
      <trkpt lat="43.25975" lon="5.94437">
        <ele>437.8</ele>
        <time>2013-12-11T13:00:10Z</time>
      </trkpt>
      <trkpt lat="43.25969" lon="5.94442">
        <ele>438.3</ele>
        <time>2013-12-11T13:00:52Z</time>
      </trkpt>
      <trkpt lat="43.25966" lon="5.94446">
        <ele>439.7</ele>
        <time>2013-12-11T13:00:58Z</time>
      </trkpt>
      <trkpt lat="43.25963" lon="5.94449">
        <ele>439.8</ele>
        <time>2013-12-11T13:01:03Z</time>
      </trkpt>
      <trkpt lat="43.2596" lon="5.94452">
        <ele>440.2</ele>
        <time>2013-12-11T13:01:07Z</time>
      </trkpt>
      <trkpt lat="43.25957" lon="5.94457">
        <ele>438.6</ele>
        <time>2013-12-11T13:01:12Z</time>
      </trkpt>
      <trkpt lat="43.25956" lon="5.94457">
        <ele>438</ele>
        <time>2013-12-11T13:01:13Z</time>
      </trkpt>
      <trkpt lat="43.25952" lon="5.94465">
        <ele>437</ele>
        <time>2013-12-11T13:01:21Z</time>
      </trkpt>
      <trkpt lat="43.2595" lon="5.9447">
        <ele>438.2</ele>
        <time>2013-12-11T13:01:25Z</time>
      </trkpt>
      <trkpt lat="43.25947" lon="5.94474">
        <ele>437.2</ele>
        <time>2013-12-11T13:01:30Z</time>
      </trkpt>
      <trkpt lat="43.25944" lon="5.94478">
        <ele>438.2</ele>
        <time>2013-12-11T13:01:34Z</time>
      </trkpt>
      <trkpt lat="43.25942" lon="5.94482">
        <ele>437.5</ele>
        <time>2013-12-11T13:01:39Z</time>
      </trkpt>
      <trkpt lat="43.25939" lon="5.94486">
        <ele>437.7</ele>
        <time>2013-12-11T13:01:43Z</time>
      </trkpt>
      <trkpt lat="43.25935" lon="5.94489">
        <ele>437.8</ele>
        <time>2013-12-11T13:01:48Z</time>
      </trkpt>
      <trkpt lat="43.25932" lon="5.94491">
        <ele>437.6</ele>
        <time>2013-12-11T13:01:53Z</time>
      </trkpt>
      <trkpt lat="43.25929" lon="5.94494">
        <ele>436.7</ele>
        <time>2013-12-11T13:01:57Z</time>
      </trkpt>
      <trkpt lat="43.25926" lon="5.94499">
        <ele>436.2</ele>
        <time>2013-12-11T13:02:01Z</time>
      </trkpt>
      <trkpt lat="43.25925" lon="5.94504">
        <ele>435.8</ele>
        <time>2013-12-11T13:02:04Z</time>
      </trkpt>
      <trkpt lat="43.25924" lon="5.94509">
        <ele>435.2</ele>
        <time>2013-12-11T13:02:07Z</time>
      </trkpt>
      <trkpt lat="43.25924" lon="5.94515">
        <ele>437.6</ele>
        <time>2013-12-11T13:02:10Z</time>
      </trkpt>
      <trkpt lat="43.25925" lon="5.9452">
        <ele>438.5</ele>
        <time>2013-12-11T13:02:14Z</time>
      </trkpt>
      <trkpt lat="43.25925" lon="5.94521">
        <ele>438.7</ele>
        <time>2013-12-11T13:02:15Z</time>
      </trkpt>
      <trkpt lat="43.25928" lon="5.9453">
        <ele>439.3</ele>
        <time>2013-12-11T13:02:22Z</time>
      </trkpt>
      <trkpt lat="43.2593" lon="5.94535">
        <ele>439.2</ele>
        <time>2013-12-11T13:02:26Z</time>
      </trkpt>
      <trkpt lat="43.25932" lon="5.9454">
        <ele>439.7</ele>
        <time>2013-12-11T13:02:29Z</time>
      </trkpt>
      <trkpt lat="43.25934" lon="5.94544">
        <ele>439.5</ele>
        <time>2013-12-11T13:02:32Z</time>
      </trkpt>
      <trkpt lat="43.25936" lon="5.94549">
        <ele>438.5</ele>
        <time>2013-12-11T13:02:36Z</time>
      </trkpt>
      <trkpt lat="43.25938" lon="5.94554">
        <ele>437</ele>
        <time>2013-12-11T13:02:40Z</time>
      </trkpt>
      <trkpt lat="43.2594" lon="5.94559">
        <ele>436.7</ele>
        <time>2013-12-11T13:02:44Z</time>
      </trkpt>
      <trkpt lat="43.25942" lon="5.94564">
        <ele>437</ele>
        <time>2013-12-11T13:02:47Z</time>
      </trkpt>
      <trkpt lat="43.25944" lon="5.94568">
        <ele>437.2</ele>
        <time>2013-12-11T13:02:50Z</time>
      </trkpt>
      <trkpt lat="43.25947" lon="5.94571">
        <ele>436.8</ele>
        <time>2013-12-11T13:02:53Z</time>
      </trkpt>
      <trkpt lat="43.2595" lon="5.94574">
        <ele>436.7</ele>
        <time>2013-12-11T13:02:56Z</time>
      </trkpt>
      <trkpt lat="43.25954" lon="5.94577">
        <ele>436.5</ele>
        <time>2013-12-11T13:02:59Z</time>
      </trkpt>
      <trkpt lat="43.25957" lon="5.94581">
        <ele>436.5</ele>
        <time>2013-12-11T13:03:02Z</time>
      </trkpt>
      <trkpt lat="43.2596" lon="5.94585">
        <ele>436.7</ele>
        <time>2013-12-11T13:03:05Z</time>
      </trkpt>
      <trkpt lat="43.25963" lon="5.94588">
        <ele>436.6</ele>
        <time>2013-12-11T13:03:08Z</time>
      </trkpt>
      <trkpt lat="43.25966" lon="5.94592">
        <ele>436.3</ele>
        <time>2013-12-11T13:03:11Z</time>
      </trkpt>
      <trkpt lat="43.25969" lon="5.94596">
        <ele>436.2</ele>
        <time>2013-12-11T13:03:14Z</time>
      </trkpt>
      <trkpt lat="43.25971" lon="5.946">
        <ele>436</ele>
        <time>2013-12-11T13:03:17Z</time>
      </trkpt>
      <trkpt lat="43.25971" lon="5.94601">
        <ele>435.7</ele>
        <time>2013-12-11T13:03:18Z</time>
      </trkpt>
      <trkpt lat="43.25974" lon="5.94609">
        <ele>435.2</ele>
        <time>2013-12-11T13:03:23Z</time>
      </trkpt>
      <trkpt lat="43.25975" lon="5.94614">
        <ele>435.3</ele>
        <time>2013-12-11T13:03:26Z</time>
      </trkpt>
      <trkpt lat="43.25975" lon="5.94619">
        <ele>435.8</ele>
        <time>2013-12-11T13:03:29Z</time>
      </trkpt>
      <trkpt lat="43.25975" lon="5.94625">
        <ele>435.7</ele>
        <time>2013-12-11T13:03:32Z</time>
      </trkpt>
      <trkpt lat="43.25974" lon="5.94629">
        <ele>436.2</ele>
        <time>2013-12-11T13:03:34Z</time>
      </trkpt>
      <trkpt lat="43.25973" lon="5.94633">
        <ele>437.1</ele>
        <time>2013-12-11T13:03:36Z</time>
      </trkpt>
      <trkpt lat="43.25971" lon="5.94638">
        <ele>437.2</ele>
        <time>2013-12-11T13:03:39Z</time>
      </trkpt>
      <trkpt lat="43.2597" lon="5.94643">
        <ele>436.1</ele>
        <time>2013-12-11T13:03:42Z</time>
      </trkpt>
      <trkpt lat="43.25969" lon="5.94647">
        <ele>436.2</ele>
        <time>2013-12-11T13:03:44Z</time>
      </trkpt>
      <trkpt lat="43.25967" lon="5.94651">
        <ele>436.2</ele>
        <time>2013-12-11T13:03:46Z</time>
      </trkpt>
      <trkpt lat="43.25966" lon="5.94656">
        <ele>437.7</ele>
        <time>2013-12-11T13:03:48Z</time>
      </trkpt>
      <trkpt lat="43.25965" lon="5.94659">
        <ele>439.1</ele>
        <time>2013-12-11T13:03:49Z</time>
      </trkpt>
      <trkpt lat="43.25964" lon="5.94662">
        <ele>439.8</ele>
        <time>2013-12-11T13:03:50Z</time>
      </trkpt>
      <trkpt lat="43.25963" lon="5.94667">
        <ele>441</ele>
        <time>2013-12-11T13:03:52Z</time>
      </trkpt>
      <trkpt lat="43.25962" lon="5.94671">
        <ele>440.8</ele>
        <time>2013-12-11T13:03:54Z</time>
      </trkpt>
      <trkpt lat="43.25962" lon="5.94676">
        <ele>440.3</ele>
        <time>2013-12-11T13:03:57Z</time>
      </trkpt>
      <trkpt lat="43.2596" lon="5.9468">
        <ele>439.7</ele>
        <time>2013-12-11T13:04:00Z</time>
      </trkpt>
      <trkpt lat="43.25959" lon="5.94684">
        <ele>438.2</ele>
        <time>2013-12-11T13:04:03Z</time>
      </trkpt>
      <trkpt lat="43.25958" lon="5.94688">
        <ele>439</ele>
        <time>2013-12-11T13:04:05Z</time>
      </trkpt>
      <trkpt lat="43.25957" lon="5.94693">
        <ele>437.2</ele>
        <time>2013-12-11T13:04:09Z</time>
      </trkpt>
      <trkpt lat="43.25956" lon="5.94698">
        <ele>436.7</ele>
        <time>2013-12-11T13:04:13Z</time>
      </trkpt>
      <trkpt lat="43.25954" lon="5.94703">
        <ele>434.8</ele>
        <time>2013-12-11T13:04:18Z</time>
      </trkpt>
      <trkpt lat="43.25953" lon="5.94705">
        <ele>434.7</ele>
        <time>2013-12-11T13:04:19Z</time>
      </trkpt>
      <trkpt lat="43.2595" lon="5.94712">
        <ele>434.2</ele>
        <time>2013-12-11T13:04:24Z</time>
      </trkpt>
      <trkpt lat="43.25949" lon="5.94716">
        <ele>434.5</ele>
        <time>2013-12-11T13:04:26Z</time>
      </trkpt>
      <trkpt lat="43.25947" lon="5.9472">
        <ele>434.7</ele>
        <time>2013-12-11T13:04:28Z</time>
      </trkpt>
      <trkpt lat="43.25945" lon="5.94725">
        <ele>435.1</ele>
        <time>2013-12-11T13:04:31Z</time>
      </trkpt>
      <trkpt lat="43.25942" lon="5.9473">
        <ele>435.5</ele>
        <time>2013-12-11T13:04:34Z</time>
      </trkpt>
      <trkpt lat="43.2594" lon="5.94734">
        <ele>435.7</ele>
        <time>2013-12-11T13:04:37Z</time>
      </trkpt>
      <trkpt lat="43.25938" lon="5.94738">
        <ele>435.2</ele>
        <time>2013-12-11T13:04:40Z</time>
      </trkpt>
      <trkpt lat="43.25936" lon="5.94741">
        <ele>435.5</ele>
        <time>2013-12-11T13:04:42Z</time>
      </trkpt>
      <trkpt lat="43.25933" lon="5.94745">
        <ele>434.3</ele>
        <time>2013-12-11T13:04:46Z</time>
      </trkpt>
      <trkpt lat="43.25929" lon="5.94749">
        <ele>433.7</ele>
        <time>2013-12-11T13:04:50Z</time>
      </trkpt>
      <trkpt lat="43.25926" lon="5.94752">
        <ele>432.8</ele>
        <time>2013-12-11T13:04:54Z</time>
      </trkpt>
      <trkpt lat="43.25923" lon="5.94755">
        <ele>432.1</ele>
        <time>2013-12-11T13:04:57Z</time>
      </trkpt>
      <trkpt lat="43.25921" lon="5.94759">
        <ele>430.6</ele>
        <time>2013-12-11T13:05:00Z</time>
      </trkpt>
      <trkpt lat="43.25918" lon="5.94763">
        <ele>429.7</ele>
        <time>2013-12-11T13:05:03Z</time>
      </trkpt>
      <trkpt lat="43.25916" lon="5.94767">
        <ele>429.3</ele>
        <time>2013-12-11T13:05:06Z</time>
      </trkpt>
      <trkpt lat="43.25913" lon="5.94771">
        <ele>428.7</ele>
        <time>2013-12-11T13:05:10Z</time>
      </trkpt>
      <trkpt lat="43.2591" lon="5.94775">
        <ele>428.6</ele>
        <time>2013-12-11T13:05:13Z</time>
      </trkpt>
      <trkpt lat="43.25908" lon="5.9478">
        <ele>428.2</ele>
        <time>2013-12-11T13:05:17Z</time>
      </trkpt>
      <trkpt lat="43.25906" lon="5.94784">
        <ele>428.5</ele>
        <time>2013-12-11T13:05:20Z</time>
      </trkpt>
      <trkpt lat="43.25906" lon="5.94785">
        <ele>428.5</ele>
        <time>2013-12-11T13:05:21Z</time>
      </trkpt>
      <trkpt lat="43.25902" lon="5.94792">
        <ele>427.2</ele>
        <time>2013-12-11T13:05:26Z</time>
      </trkpt>
      <trkpt lat="43.25899" lon="5.94795">
        <ele>426.7</ele>
        <time>2013-12-11T13:05:29Z</time>
      </trkpt>
      <trkpt lat="43.25897" lon="5.948">
        <ele>426.5</ele>
        <time>2013-12-11T13:05:32Z</time>
      </trkpt>
      <trkpt lat="43.25895" lon="5.94804">
        <ele>425.7</ele>
        <time>2013-12-11T13:05:35Z</time>
      </trkpt>
      <trkpt lat="43.25892" lon="5.94808">
        <ele>425.2</ele>
        <time>2013-12-11T13:05:38Z</time>
      </trkpt>
      <trkpt lat="43.25889" lon="5.94813">
        <ele>425</ele>
        <time>2013-12-11T13:05:41Z</time>
      </trkpt>
      <trkpt lat="43.25887" lon="5.94817">
        <ele>425.2</ele>
        <time>2013-12-11T13:05:44Z</time>
      </trkpt>
      <trkpt lat="43.25884" lon="5.94822">
        <ele>425.2</ele>
        <time>2013-12-11T13:05:47Z</time>
      </trkpt>
      <trkpt lat="43.25882" lon="5.94826">
        <ele>425</ele>
        <time>2013-12-11T13:05:50Z</time>
      </trkpt>
      <trkpt lat="43.2588" lon="5.9483">
        <ele>425.1</ele>
        <time>2013-12-11T13:05:53Z</time>
      </trkpt>
      <trkpt lat="43.25877" lon="5.94834">
        <ele>424.3</ele>
        <time>2013-12-11T13:05:56Z</time>
      </trkpt>
      <trkpt lat="43.25875" lon="5.94838">
        <ele>426.7</ele>
        <time>2013-12-11T13:05:58Z</time>
      </trkpt>
      <trkpt lat="43.25872" lon="5.94841">
        <ele>425.8</ele>
        <time>2013-12-11T13:06:01Z</time>
      </trkpt>
      <trkpt lat="43.25869" lon="5.94845">
        <ele>426.3</ele>
        <time>2013-12-11T13:06:04Z</time>
      </trkpt>
      <trkpt lat="43.25866" lon="5.94849">
        <ele>426.7</ele>
        <time>2013-12-11T13:06:07Z</time>
      </trkpt>
      <trkpt lat="43.25863" lon="5.94852">
        <ele>426.2</ele>
        <time>2013-12-11T13:06:10Z</time>
      </trkpt>
      <trkpt lat="43.2586" lon="5.94856">
        <ele>427.1</ele>
        <time>2013-12-11T13:06:13Z</time>
      </trkpt>
      <trkpt lat="43.25857" lon="5.94858">
        <ele>426.7</ele>
        <time>2013-12-11T13:06:16Z</time>
      </trkpt>
      <trkpt lat="43.25854" lon="5.94861">
        <ele>427.1</ele>
        <time>2013-12-11T13:06:19Z</time>
      </trkpt>
      <trkpt lat="43.2585" lon="5.94862">
        <ele>427</ele>
        <time>2013-12-11T13:06:22Z</time>
      </trkpt>
      <trkpt lat="43.25849" lon="5.94863">
        <ele>426.8</ele>
        <time>2013-12-11T13:06:23Z</time>
      </trkpt>
      <trkpt lat="43.25843" lon="5.94867">
        <ele>425.7</ele>
        <time>2013-12-11T13:06:29Z</time>
      </trkpt>
      <trkpt lat="43.2584" lon="5.9487">
        <ele>425.5</ele>
        <time>2013-12-11T13:06:32Z</time>
      </trkpt>
      <trkpt lat="43.25836" lon="5.94872">
        <ele>424.8</ele>
        <time>2013-12-11T13:06:36Z</time>
      </trkpt>
      <trkpt lat="43.25833" lon="5.94873">
        <ele>425.1</ele>
        <time>2013-12-11T13:06:39Z</time>
      </trkpt>
      <trkpt lat="43.25829" lon="5.94875">
        <ele>426.2</ele>
        <time>2013-12-11T13:06:42Z</time>
      </trkpt>
      <trkpt lat="43.25824" lon="5.94876">
        <ele>426.6</ele>
        <time>2013-12-11T13:06:45Z</time>
      </trkpt>
      <trkpt lat="43.2582" lon="5.94876">
        <ele>426.1</ele>
        <time>2013-12-11T13:06:49Z</time>
      </trkpt>
      <trkpt lat="43.25816" lon="5.94876">
        <ele>425.3</ele>
        <time>2013-12-11T13:06:53Z</time>
      </trkpt>
      <trkpt lat="43.25811" lon="5.94877">
        <ele>425</ele>
        <time>2013-12-11T13:06:57Z</time>
      </trkpt>
      <trkpt lat="43.25807" lon="5.94878">
        <ele>424.7</ele>
        <time>2013-12-11T13:07:00Z</time>
      </trkpt>
      <trkpt lat="43.25803" lon="5.9488">
        <ele>424.7</ele>
        <time>2013-12-11T13:07:03Z</time>
      </trkpt>
      <trkpt lat="43.25799" lon="5.94881">
        <ele>424</ele>
        <time>2013-12-11T13:07:07Z</time>
      </trkpt>
      <trkpt lat="43.25796" lon="5.94884">
        <ele>423.2</ele>
        <time>2013-12-11T13:07:10Z</time>
      </trkpt>
      <trkpt lat="43.25793" lon="5.94887">
        <ele>424.2</ele>
        <time>2013-12-11T13:07:12Z</time>
      </trkpt>
      <trkpt lat="43.2579" lon="5.9489">
        <ele>423.8</ele>
        <time>2013-12-11T13:07:15Z</time>
      </trkpt>
      <trkpt lat="43.25788" lon="5.94893">
        <ele>422.7</ele>
        <time>2013-12-11T13:07:17Z</time>
      </trkpt>
      <trkpt lat="43.25785" lon="5.94897">
        <ele>422</ele>
        <time>2013-12-11T13:07:20Z</time>
      </trkpt>
      <trkpt lat="43.25783" lon="5.94901">
        <ele>423.3</ele>
        <time>2013-12-11T13:07:22Z</time>
      </trkpt>
      <trkpt lat="43.25781" lon="5.94905">
        <ele>424.1</ele>
        <time>2013-12-11T13:07:25Z</time>
      </trkpt>
      <trkpt lat="43.2578" lon="5.94907">
        <ele>423.7</ele>
        <time>2013-12-11T13:07:26Z</time>
      </trkpt>
      <trkpt lat="43.25776" lon="5.94913">
        <ele>424.2</ele>
        <time>2013-12-11T13:07:30Z</time>
      </trkpt>
      <trkpt lat="43.25774" lon="5.94918">
        <ele>424.7</ele>
        <time>2013-12-11T13:07:33Z</time>
      </trkpt>
      <trkpt lat="43.25772" lon="5.94921">
        <ele>425</ele>
        <time>2013-12-11T13:07:35Z</time>
      </trkpt>
      <trkpt lat="43.2577" lon="5.94926">
        <ele>425.2</ele>
        <time>2013-12-11T13:07:38Z</time>
      </trkpt>
      <trkpt lat="43.25767" lon="5.9493">
        <ele>425.7</ele>
        <time>2013-12-11T13:07:41Z</time>
      </trkpt>
      <trkpt lat="43.25765" lon="5.94935">
        <ele>425.8</ele>
        <time>2013-12-11T13:07:45Z</time>
      </trkpt>
      <trkpt lat="43.25762" lon="5.94939">
        <ele>426.7</ele>
        <time>2013-12-11T13:07:49Z</time>
      </trkpt>
      <trkpt lat="43.2576" lon="5.94943">
        <ele>426.8</ele>
        <time>2013-12-11T13:07:52Z</time>
      </trkpt>
      <trkpt lat="43.25757" lon="5.94948">
        <ele>426</ele>
        <time>2013-12-11T13:07:56Z</time>
      </trkpt>
      <trkpt lat="43.25755" lon="5.94952">
        <ele>425.1</ele>
        <time>2013-12-11T13:07:59Z</time>
      </trkpt>
      <trkpt lat="43.25753" lon="5.94956">
        <ele>424.2</ele>
        <time>2013-12-11T13:08:02Z</time>
      </trkpt>
      <trkpt lat="43.2575" lon="5.9496">
        <ele>425.5</ele>
        <time>2013-12-11T13:08:04Z</time>
      </trkpt>
      <trkpt lat="43.25748" lon="5.94965">
        <ele>426.2</ele>
        <time>2013-12-11T13:08:07Z</time>
      </trkpt>
      <trkpt lat="43.25746" lon="5.94971">
        <ele>425</ele>
        <time>2013-12-11T13:08:11Z</time>
      </trkpt>
      <trkpt lat="43.25745" lon="5.94975">
        <ele>423.7</ele>
        <time>2013-12-11T13:08:14Z</time>
      </trkpt>
      <trkpt lat="43.25744" lon="5.94979">
        <ele>421.7</ele>
        <time>2013-12-11T13:08:18Z</time>
      </trkpt>
      <trkpt lat="43.25742" lon="5.94984">
        <ele>420.7</ele>
        <time>2013-12-11T13:08:21Z</time>
      </trkpt>
      <trkpt lat="43.2574" lon="5.94989">
        <ele>420.6</ele>
        <time>2013-12-11T13:08:24Z</time>
      </trkpt>
      <trkpt lat="43.25739" lon="5.94994">
        <ele>419.2</ele>
        <time>2013-12-11T13:08:28Z</time>
      </trkpt>
      <trkpt lat="43.25738" lon="5.94996">
        <ele>418.5</ele>
        <time>2013-12-11T13:08:29Z</time>
      </trkpt>
      <trkpt lat="43.25734" lon="5.95003">
        <ele>415.7</ele>
        <time>2013-12-11T13:08:36Z</time>
      </trkpt>
      <trkpt lat="43.25732" lon="5.95007">
        <ele>415.2</ele>
        <time>2013-12-11T13:08:39Z</time>
      </trkpt>
      <trkpt lat="43.25729" lon="5.95011">
        <ele>414.6</ele>
        <time>2013-12-11T13:08:42Z</time>
      </trkpt>
      <trkpt lat="43.25726" lon="5.95015">
        <ele>413</ele>
        <time>2013-12-11T13:08:46Z</time>
      </trkpt>
      <trkpt lat="43.25725" lon="5.95019">
        <ele>413.7</ele>
        <time>2013-12-11T13:08:49Z</time>
      </trkpt>
      <trkpt lat="43.25723" lon="5.95024">
        <ele>415</ele>
        <time>2013-12-11T13:08:51Z</time>
      </trkpt>
      <trkpt lat="43.25721" lon="5.95029">
        <ele>416.5</ele>
        <time>2013-12-11T13:08:54Z</time>
      </trkpt>
      <trkpt lat="43.25721" lon="5.95035">
        <ele>416.7</ele>
        <time>2013-12-11T13:08:57Z</time>
      </trkpt>
      <trkpt lat="43.25722" lon="5.95041">
        <ele>415.5</ele>
        <time>2013-12-11T13:09:01Z</time>
      </trkpt>
      <trkpt lat="43.25723" lon="5.95045">
        <ele>414.6</ele>
        <time>2013-12-11T13:09:04Z</time>
      </trkpt>
      <trkpt lat="43.25724" lon="5.9505">
        <ele>413</ele>
        <time>2013-12-11T13:09:08Z</time>
      </trkpt>
      <trkpt lat="43.25725" lon="5.95055">
        <ele>412.8</ele>
        <time>2013-12-11T13:09:12Z</time>
      </trkpt>
      <trkpt lat="43.25726" lon="5.95061">
        <ele>412.3</ele>
        <time>2013-12-11T13:09:15Z</time>
      </trkpt>
      <trkpt lat="43.25727" lon="5.95067">
        <ele>412.8</ele>
        <time>2013-12-11T13:09:18Z</time>
      </trkpt>
      <trkpt lat="43.25728" lon="5.95072">
        <ele>413.2</ele>
        <time>2013-12-11T13:09:21Z</time>
      </trkpt>
      <trkpt lat="43.2573" lon="5.95077">
        <ele>412.7</ele>
        <time>2013-12-11T13:09:24Z</time>
      </trkpt>
      <trkpt lat="43.2573" lon="5.95082">
        <ele>412.7</ele>
        <time>2013-12-11T13:09:27Z</time>
      </trkpt>
      <trkpt lat="43.25731" lon="5.95087">
        <ele>413</ele>
        <time>2013-12-11T13:09:30Z</time>
      </trkpt>
      <trkpt lat="43.25731" lon="5.95089">
        <ele>412.7</ele>
        <time>2013-12-11T13:09:31Z</time>
      </trkpt>
      <trkpt lat="43.25731" lon="5.95097">
        <ele>412.8</ele>
        <time>2013-12-11T13:09:36Z</time>
      </trkpt>
      <trkpt lat="43.25731" lon="5.95102">
        <ele>414</ele>
        <time>2013-12-11T13:09:39Z</time>
      </trkpt>
      <trkpt lat="43.2573" lon="5.95108">
        <ele>416.3</ele>
        <time>2013-12-11T13:09:42Z</time>
      </trkpt>
      <trkpt lat="43.25729" lon="5.95113">
        <ele>418.2</ele>
        <time>2013-12-11T13:09:45Z</time>
      </trkpt>
      <trkpt lat="43.25727" lon="5.95118">
        <ele>419.2</ele>
        <time>2013-12-11T13:09:48Z</time>
      </trkpt>
      <trkpt lat="43.25726" lon="5.95123">
        <ele>418.6</ele>
        <time>2013-12-11T13:09:51Z</time>
      </trkpt>
      <trkpt lat="43.25725" lon="5.95129">
        <ele>418.6</ele>
        <time>2013-12-11T13:09:54Z</time>
      </trkpt>
      <trkpt lat="43.25724" lon="5.95134">
        <ele>419</ele>
        <time>2013-12-11T13:09:56Z</time>
      </trkpt>
      <trkpt lat="43.25723" lon="5.95138">
        <ele>419.2</ele>
        <time>2013-12-11T13:09:58Z</time>
      </trkpt>
      <trkpt lat="43.25723" lon="5.95144">
        <ele>418.2</ele>
        <time>2013-12-11T13:10:01Z</time>
      </trkpt>
      <trkpt lat="43.25724" lon="5.95149">
        <ele>417.2</ele>
        <time>2013-12-11T13:10:05Z</time>
      </trkpt>
      <trkpt lat="43.25725" lon="5.95154">
        <ele>416.2</ele>
        <time>2013-12-11T13:10:08Z</time>
      </trkpt>
      <trkpt lat="43.25727" lon="5.95158">
        <ele>415.3</ele>
        <time>2013-12-11T13:10:11Z</time>
      </trkpt>
      <trkpt lat="43.2573" lon="5.95162">
        <ele>415.2</ele>
        <time>2013-12-11T13:10:14Z</time>
      </trkpt>
      <trkpt lat="43.25732" lon="5.95165">
        <ele>414.7</ele>
        <time>2013-12-11T13:10:17Z</time>
      </trkpt>
      <trkpt lat="43.25735" lon="5.95169">
        <ele>414.3</ele>
        <time>2013-12-11T13:10:20Z</time>
      </trkpt>
      <trkpt lat="43.25737" lon="5.95173">
        <ele>414.3</ele>
        <time>2013-12-11T13:10:23Z</time>
      </trkpt>
      <trkpt lat="43.25737" lon="5.95178">
        <ele>414.7</ele>
        <time>2013-12-11T13:10:26Z</time>
      </trkpt>
      <trkpt lat="43.25738" lon="5.95183">
        <ele>415.1</ele>
        <time>2013-12-11T13:10:29Z</time>
      </trkpt>
      <trkpt lat="43.25738" lon="5.95189">
        <ele>415.8</ele>
        <time>2013-12-11T13:10:32Z</time>
      </trkpt>
      <trkpt lat="43.25738" lon="5.95191">
        <ele>416.1</ele>
        <time>2013-12-11T13:10:33Z</time>
      </trkpt>
      <trkpt lat="43.25738" lon="5.95199">
        <ele>418.1</ele>
        <time>2013-12-11T13:10:37Z</time>
      </trkpt>
      <trkpt lat="43.25739" lon="5.95204">
        <ele>417.8</ele>
        <time>2013-12-11T13:10:40Z</time>
      </trkpt>
      <trkpt lat="43.2574" lon="5.95208">
        <ele>417.6</ele>
        <time>2013-12-11T13:10:43Z</time>
      </trkpt>
      <trkpt lat="43.25741" lon="5.95213">
        <ele>417.3</ele>
        <time>2013-12-11T13:10:46Z</time>
      </trkpt>
      <trkpt lat="43.25741" lon="5.95219">
        <ele>418.3</ele>
        <time>2013-12-11T13:10:49Z</time>
      </trkpt>
      <trkpt lat="43.25742" lon="5.95224">
        <ele>419.3</ele>
        <time>2013-12-11T13:10:52Z</time>
      </trkpt>
      <trkpt lat="43.25742" lon="5.95228">
        <ele>419.6</ele>
        <time>2013-12-11T13:10:55Z</time>
      </trkpt>
      <trkpt lat="43.25743" lon="5.95234">
        <ele>418.3</ele>
        <time>2013-12-11T13:10:59Z</time>
      </trkpt>
      <trkpt lat="43.25743" lon="5.9524">
        <ele>418.7</ele>
        <time>2013-12-11T13:11:02Z</time>
      </trkpt>
      <trkpt lat="43.25743" lon="5.95245">
        <ele>418.6</ele>
        <time>2013-12-11T13:11:05Z</time>
      </trkpt>
      <trkpt lat="43.25743" lon="5.9525">
        <ele>418.7</ele>
        <time>2013-12-11T13:11:08Z</time>
      </trkpt>
      <trkpt lat="43.25742" lon="5.95255">
        <ele>419.1</ele>
        <time>2013-12-11T13:11:11Z</time>
      </trkpt>
      <trkpt lat="43.25742" lon="5.9526">
        <ele>419.7</ele>
        <time>2013-12-11T13:11:14Z</time>
      </trkpt>
      <trkpt lat="43.25741" lon="5.95265">
        <ele>420.1</ele>
        <time>2013-12-11T13:11:21Z</time>
      </trkpt>
      <trkpt lat="43.2574" lon="5.9527">
        <ele>419.2</ele>
        <time>2013-12-11T13:11:25Z</time>
      </trkpt>
      <trkpt lat="43.2574" lon="5.95276">
        <ele>417.8</ele>
        <time>2013-12-11T13:11:29Z</time>
      </trkpt>
      <trkpt lat="43.25739" lon="5.95281">
        <ele>417.2</ele>
        <time>2013-12-11T13:11:32Z</time>
      </trkpt>
      <trkpt lat="43.25738" lon="5.95286">
        <ele>416.6</ele>
        <time>2013-12-11T13:11:35Z</time>
      </trkpt>
      <trkpt lat="43.25738" lon="5.95288">
        <ele>416.8</ele>
        <time>2013-12-11T13:11:36Z</time>
      </trkpt>
      <trkpt lat="43.25735" lon="5.95297">
        <ele>418.1</ele>
        <time>2013-12-11T13:11:42Z</time>
      </trkpt>
      <trkpt lat="43.25734" lon="5.95302">
        <ele>419.1</ele>
        <time>2013-12-11T13:11:45Z</time>
      </trkpt>
      <trkpt lat="43.25733" lon="5.95308">
        <ele>419.1</ele>
        <time>2013-12-11T13:11:48Z</time>
      </trkpt>
      <trkpt lat="43.25732" lon="5.95312">
        <ele>419.7</ele>
        <time>2013-12-11T13:11:50Z</time>
      </trkpt>
      <trkpt lat="43.2573" lon="5.95316">
        <ele>421.2</ele>
        <time>2013-12-11T13:11:52Z</time>
      </trkpt>
      <trkpt lat="43.25729" lon="5.95321">
        <ele>422</ele>
        <time>2013-12-11T13:11:55Z</time>
      </trkpt>
      <trkpt lat="43.25728" lon="5.95326">
        <ele>422</ele>
        <time>2013-12-11T13:11:58Z</time>
      </trkpt>
      <trkpt lat="43.25726" lon="5.95331">
        <ele>420.6</ele>
        <time>2013-12-11T13:12:02Z</time>
      </trkpt>
      <trkpt lat="43.25724" lon="5.95336">
        <ele>419.6</ele>
        <time>2013-12-11T13:12:06Z</time>
      </trkpt>
      <trkpt lat="43.25722" lon="5.9534">
        <ele>419.3</ele>
        <time>2013-12-11T13:12:09Z</time>
      </trkpt>
      <trkpt lat="43.2572" lon="5.95345">
        <ele>419.1</ele>
        <time>2013-12-11T13:12:12Z</time>
      </trkpt>
      <trkpt lat="43.25718" lon="5.9535">
        <ele>419.7</ele>
        <time>2013-12-11T13:12:16Z</time>
      </trkpt>
      <trkpt lat="43.25717" lon="5.95355">
        <ele>420</ele>
        <time>2013-12-11T13:12:19Z</time>
      </trkpt>
      <trkpt lat="43.25716" lon="5.95361">
        <ele>419.5</ele>
        <time>2013-12-11T13:12:22Z</time>
      </trkpt>
      <trkpt lat="43.25716" lon="5.95366">
        <ele>418.2</ele>
        <time>2013-12-11T13:12:26Z</time>
      </trkpt>
      <trkpt lat="43.25715" lon="5.95371">
        <ele>418</ele>
        <time>2013-12-11T13:12:29Z</time>
      </trkpt>
      <trkpt lat="43.25713" lon="5.95375">
        <ele>418.2</ele>
        <time>2013-12-11T13:12:31Z</time>
      </trkpt>
      <trkpt lat="43.25712" lon="5.95379">
        <ele>419.2</ele>
        <time>2013-12-11T13:12:33Z</time>
      </trkpt>
      <trkpt lat="43.25711" lon="5.95385">
        <ele>420.5</ele>
        <time>2013-12-11T13:12:36Z</time>
      </trkpt>
      <trkpt lat="43.25712" lon="5.95386">
        <ele>420.3</ele>
        <time>2013-12-11T13:12:37Z</time>
      </trkpt>
      <trkpt lat="43.25709" lon="5.95395">
        <ele>420.6</ele>
        <time>2013-12-11T13:12:42Z</time>
      </trkpt>
      <trkpt lat="43.25708" lon="5.95399">
        <ele>421.7</ele>
        <time>2013-12-11T13:12:44Z</time>
      </trkpt>
      <trkpt lat="43.25707" lon="5.95405">
        <ele>420.8</ele>
        <time>2013-12-11T13:12:47Z</time>
      </trkpt>
      <trkpt lat="43.25705" lon="5.9541">
        <ele>418.7</ele>
        <time>2013-12-11T13:12:51Z</time>
      </trkpt>
      <trkpt lat="43.25704" lon="5.95414">
        <ele>419.1</ele>
        <time>2013-12-11T13:12:53Z</time>
      </trkpt>
      <trkpt lat="43.25702" lon="5.9542">
        <ele>419.2</ele>
        <time>2013-12-11T13:12:56Z</time>
      </trkpt>
      <trkpt lat="43.25702" lon="5.95425">
        <ele>418.2</ele>
        <time>2013-12-11T13:13:00Z</time>
      </trkpt>
      <trkpt lat="43.257" lon="5.9543">
        <ele>417.8</ele>
        <time>2013-12-11T13:13:05Z</time>
      </trkpt>
      <trkpt lat="43.25699" lon="5.95435">
        <ele>417.5</ele>
        <time>2013-12-11T13:13:09Z</time>
      </trkpt>
      <trkpt lat="43.25698" lon="5.9544">
        <ele>418.1</ele>
        <time>2013-12-11T13:13:12Z</time>
      </trkpt>
      <trkpt lat="43.25696" lon="5.95445">
        <ele>417.2</ele>
        <time>2013-12-11T13:13:15Z</time>
      </trkpt>
      <trkpt lat="43.25694" lon="5.95449">
        <ele>416.2</ele>
        <time>2013-12-11T13:13:18Z</time>
      </trkpt>
      <trkpt lat="43.25692" lon="5.95454">
        <ele>415.2</ele>
        <time>2013-12-11T13:13:21Z</time>
      </trkpt>
      <trkpt lat="43.2569" lon="5.9546">
        <ele>414.7</ele>
        <time>2013-12-11T13:13:25Z</time>
      </trkpt>
      <trkpt lat="43.25689" lon="5.95464">
        <ele>416.2</ele>
        <time>2013-12-11T13:13:27Z</time>
      </trkpt>
      <trkpt lat="43.25688" lon="5.95469">
        <ele>417.2</ele>
        <time>2013-12-11T13:13:29Z</time>
      </trkpt>
      <trkpt lat="43.25687" lon="5.95473">
        <ele>418</ele>
        <time>2013-12-11T13:13:31Z</time>
      </trkpt>
      <trkpt lat="43.25686" lon="5.95478">
        <ele>417.3</ele>
        <time>2013-12-11T13:13:35Z</time>
      </trkpt>
      <trkpt lat="43.25687" lon="5.95483">
        <ele>416.7</ele>
        <time>2013-12-11T13:13:38Z</time>
      </trkpt>
      <trkpt lat="43.25686" lon="5.95485">
        <ele>417</ele>
        <time>2013-12-11T13:13:39Z</time>
      </trkpt>
      <trkpt lat="43.25687" lon="5.95495">
        <ele>414.5</ele>
        <time>2013-12-11T13:13:47Z</time>
      </trkpt>
      <trkpt lat="43.25688" lon="5.955">
        <ele>414.2</ele>
        <time>2013-12-11T13:13:50Z</time>
      </trkpt>
      <trkpt lat="43.25687" lon="5.95505">
        <ele>414.5</ele>
        <time>2013-12-11T13:13:53Z</time>
      </trkpt>
      <trkpt lat="43.25689" lon="5.9551">
        <ele>413.1</ele>
        <time>2013-12-11T13:13:57Z</time>
      </trkpt>
      <trkpt lat="43.25689" lon="5.95515">
        <ele>412.5</ele>
        <time>2013-12-11T13:14:00Z</time>
      </trkpt>
      <trkpt lat="43.25688" lon="5.9552">
        <ele>412.2</ele>
        <time>2013-12-11T13:14:03Z</time>
      </trkpt>
      <trkpt lat="43.25688" lon="5.95525">
        <ele>411.7</ele>
        <time>2013-12-11T13:14:06Z</time>
      </trkpt>
      <trkpt lat="43.25687" lon="5.9553">
        <ele>411.8</ele>
        <time>2013-12-11T13:14:09Z</time>
      </trkpt>
      <trkpt lat="43.25686" lon="5.95534">
        <ele>412.5</ele>
        <time>2013-12-11T13:14:11Z</time>
      </trkpt>
      <trkpt lat="43.25685" lon="5.9554">
        <ele>413.5</ele>
        <time>2013-12-11T13:14:13Z</time>
      </trkpt>
      <trkpt lat="43.25685" lon="5.95544">
        <ele>412.3</ele>
        <time>2013-12-11T13:14:16Z</time>
      </trkpt>
      <trkpt lat="43.25684" lon="5.9555">
        <ele>411.2</ele>
        <time>2013-12-11T13:14:19Z</time>
      </trkpt>
      <trkpt lat="43.25682" lon="5.95555">
        <ele>410.6</ele>
        <time>2013-12-11T13:14:22Z</time>
      </trkpt>
      <trkpt lat="43.25681" lon="5.9556">
        <ele>411.2</ele>
        <time>2013-12-11T13:14:25Z</time>
      </trkpt>
      <trkpt lat="43.25679" lon="5.95565">
        <ele>411</ele>
        <time>2013-12-11T13:14:28Z</time>
      </trkpt>
      <trkpt lat="43.25678" lon="5.9557">
        <ele>410.6</ele>
        <time>2013-12-11T13:14:31Z</time>
      </trkpt>
      <trkpt lat="43.25676" lon="5.95575">
        <ele>410.2</ele>
        <time>2013-12-11T13:14:34Z</time>
      </trkpt>
      <trkpt lat="43.25675" lon="5.9558">
        <ele>409.5</ele>
        <time>2013-12-11T13:14:38Z</time>
      </trkpt>
      <trkpt lat="43.25673" lon="5.95584">
        <ele>409.6</ele>
        <time>2013-12-11T13:14:41Z</time>
      </trkpt>
      <trkpt lat="43.25672" lon="5.95586">
        <ele>409.2</ele>
        <time>2013-12-11T13:14:42Z</time>
      </trkpt>
      <trkpt lat="43.25669" lon="5.95594">
        <ele>408.2</ele>
        <time>2013-12-11T13:14:47Z</time>
      </trkpt>
      <trkpt lat="43.25667" lon="5.95598">
        <ele>407.1</ele>
        <time>2013-12-11T13:14:50Z</time>
      </trkpt>
      <trkpt lat="43.25666" lon="5.95603">
        <ele>406.6</ele>
        <time>2013-12-11T13:14:53Z</time>
      </trkpt>
      <trkpt lat="43.25663" lon="5.95608">
        <ele>406</ele>
        <time>2013-12-11T13:14:57Z</time>
      </trkpt>
      <trkpt lat="43.2566" lon="5.95612">
        <ele>404.3</ele>
        <time>2013-12-11T13:15:01Z</time>
      </trkpt>
      <trkpt lat="43.25658" lon="5.95617">
        <ele>404.5</ele>
        <time>2013-12-11T13:15:04Z</time>
      </trkpt>
      <trkpt lat="43.25654" lon="5.9562">
        <ele>404.6</ele>
        <time>2013-12-11T13:15:08Z</time>
      </trkpt>
      <trkpt lat="43.25651" lon="5.95623">
        <ele>403.3</ele>
        <time>2013-12-11T13:15:12Z</time>
      </trkpt>
      <trkpt lat="43.25648" lon="5.95626">
        <ele>403</ele>
        <time>2013-12-11T13:15:15Z</time>
      </trkpt>
      <trkpt lat="43.25646" lon="5.95629">
        <ele>403.1</ele>
        <time>2013-12-11T13:15:18Z</time>
      </trkpt>
      <trkpt lat="43.25644" lon="5.95632">
        <ele>402.8</ele>
        <time>2013-12-11T13:15:20Z</time>
      </trkpt>
      <trkpt lat="43.25641" lon="5.95637">
        <ele>405.2</ele>
        <time>2013-12-11T13:15:22Z</time>
      </trkpt>
      <trkpt lat="43.2564" lon="5.95641">
        <ele>405.8</ele>
        <time>2013-12-11T13:15:24Z</time>
      </trkpt>
      <trkpt lat="43.25638" lon="5.95645">
        <ele>407.7</ele>
        <time>2013-12-11T13:15:26Z</time>
      </trkpt>
      <trkpt lat="43.25636" lon="5.95651">
        <ele>410.3</ele>
        <time>2013-12-11T13:15:29Z</time>
      </trkpt>
      <trkpt lat="43.25635" lon="5.95655">
        <ele>411.6</ele>
        <time>2013-12-11T13:15:31Z</time>
      </trkpt>
      <trkpt lat="43.25634" lon="5.95659">
        <ele>411.8</ele>
        <time>2013-12-11T13:15:33Z</time>
      </trkpt>
      <trkpt lat="43.25633" lon="5.95664">
        <ele>412</ele>
        <time>2013-12-11T13:15:36Z</time>
      </trkpt>
      <trkpt lat="43.25632" lon="5.9567">
        <ele>411.2</ele>
        <time>2013-12-11T13:15:39Z</time>
      </trkpt>
      <trkpt lat="43.25631" lon="5.95675">
        <ele>410.7</ele>
        <time>2013-12-11T13:15:42Z</time>
      </trkpt>
      <trkpt lat="43.2563" lon="5.95676">
        <ele>410.6</ele>
        <time>2013-12-11T13:15:43Z</time>
      </trkpt>
      <trkpt lat="43.25628" lon="5.95684">
        <ele>409.2</ele>
        <time>2013-12-11T13:15:48Z</time>
      </trkpt>
      <trkpt lat="43.25626" lon="5.95688">
        <ele>409</ele>
        <time>2013-12-11T13:15:51Z</time>
      </trkpt>
      <trkpt lat="43.25624" lon="5.95692">
        <ele>408.7</ele>
        <time>2013-12-11T13:15:54Z</time>
      </trkpt>
      <trkpt lat="43.25621" lon="5.95696">
        <ele>409.1</ele>
        <time>2013-12-11T13:15:57Z</time>
      </trkpt>
      <trkpt lat="43.25618" lon="5.95699">
        <ele>407</ele>
        <time>2013-12-11T13:16:01Z</time>
      </trkpt>
      <trkpt lat="43.25614" lon="5.95701">
        <ele>406.5</ele>
        <time>2013-12-11T13:16:04Z</time>
      </trkpt>
      <trkpt lat="43.25611" lon="5.95704">
        <ele>405.7</ele>
        <time>2013-12-11T13:16:08Z</time>
      </trkpt>
      <trkpt lat="43.25609" lon="5.95707">
        <ele>405.5</ele>
        <time>2013-12-11T13:16:10Z</time>
      </trkpt>
      <trkpt lat="43.25607" lon="5.95711">
        <ele>405.6</ele>
        <time>2013-12-11T13:16:12Z</time>
      </trkpt>
      <trkpt lat="43.25605" lon="5.95716">
        <ele>406.5</ele>
        <time>2013-12-11T13:16:14Z</time>
      </trkpt>
      <trkpt lat="43.25604" lon="5.9572">
        <ele>406.8</ele>
        <time>2013-12-11T13:16:16Z</time>
      </trkpt>
      <trkpt lat="43.25603" lon="5.95725">
        <ele>407.1</ele>
        <time>2013-12-11T13:16:18Z</time>
      </trkpt>
      <trkpt lat="43.25602" lon="5.95728">
        <ele>408.1</ele>
        <time>2013-12-11T13:16:19Z</time>
      </trkpt>
      <trkpt lat="43.256" lon="5.95733">
        <ele>409.6</ele>
        <time>2013-12-11T13:16:21Z</time>
      </trkpt>
      <trkpt lat="43.25599" lon="5.95737">
        <ele>409.6</ele>
        <time>2013-12-11T13:16:23Z</time>
      </trkpt>
      <trkpt lat="43.25598" lon="5.95743">
        <ele>409.7</ele>
        <time>2013-12-11T13:16:26Z</time>
      </trkpt>
      <trkpt lat="43.25598" lon="5.95749">
        <ele>407.2</ele>
        <time>2013-12-11T13:16:31Z</time>
      </trkpt>
      <trkpt lat="43.25597" lon="5.95755">
        <ele>406.5</ele>
        <time>2013-12-11T13:16:35Z</time>
      </trkpt>
      <trkpt lat="43.25596" lon="5.95759">
        <ele>406.2</ele>
        <time>2013-12-11T13:16:38Z</time>
      </trkpt>
      <trkpt lat="43.25594" lon="5.95765">
        <ele>405.1</ele>
        <time>2013-12-11T13:16:42Z</time>
      </trkpt>
      <trkpt lat="43.25592" lon="5.95769">
        <ele>404.5</ele>
        <time>2013-12-11T13:16:45Z</time>
      </trkpt>
      <trkpt lat="43.25592" lon="5.9577">
        <ele>404.3</ele>
        <time>2013-12-11T13:16:46Z</time>
      </trkpt>
      <trkpt lat="43.25587" lon="5.95778">
        <ele>402.7</ele>
        <time>2013-12-11T13:16:53Z</time>
      </trkpt>
      <trkpt lat="43.25583" lon="5.95781">
        <ele>401.7</ele>
        <time>2013-12-11T13:16:57Z</time>
      </trkpt>
      <trkpt lat="43.2558" lon="5.95785">
        <ele>401</ele>
        <time>2013-12-11T13:17:00Z</time>
      </trkpt>
      <trkpt lat="43.25577" lon="5.95788">
        <ele>400.5</ele>
        <time>2013-12-11T13:17:03Z</time>
      </trkpt>
      <trkpt lat="43.25574" lon="5.95792">
        <ele>400.8</ele>
        <time>2013-12-11T13:17:06Z</time>
      </trkpt>
      <trkpt lat="43.25571" lon="5.95795">
        <ele>400.8</ele>
        <time>2013-12-11T13:17:09Z</time>
      </trkpt>
      <trkpt lat="43.25568" lon="5.958">
        <ele>401.3</ele>
        <time>2013-12-11T13:17:12Z</time>
      </trkpt>
      <trkpt lat="43.25565" lon="5.95804">
        <ele>401.2</ele>
        <time>2013-12-11T13:17:15Z</time>
      </trkpt>
      <trkpt lat="43.25563" lon="5.95807">
        <ele>400.7</ele>
        <time>2013-12-11T13:17:18Z</time>
      </trkpt>
      <trkpt lat="43.25561" lon="5.9581">
        <ele>400.6</ele>
        <time>2013-12-11T13:17:21Z</time>
      </trkpt>
      <trkpt lat="43.25558" lon="5.95814">
        <ele>399.2</ele>
        <time>2013-12-11T13:17:24Z</time>
      </trkpt>
      <trkpt lat="43.25555" lon="5.95817">
        <ele>398.6</ele>
        <time>2013-12-11T13:17:27Z</time>
      </trkpt>
      <trkpt lat="43.25552" lon="5.95821">
        <ele>398.5</ele>
        <time>2013-12-11T13:17:30Z</time>
      </trkpt>
      <trkpt lat="43.2555" lon="5.95825">
        <ele>398.1</ele>
        <time>2013-12-11T13:17:33Z</time>
      </trkpt>
      <trkpt lat="43.25547" lon="5.95828">
        <ele>398.2</ele>
        <time>2013-12-11T13:17:36Z</time>
      </trkpt>
      <trkpt lat="43.25543" lon="5.95831">
        <ele>398.7</ele>
        <time>2013-12-11T13:17:39Z</time>
      </trkpt>
      <trkpt lat="43.2554" lon="5.95834">
        <ele>397.7</ele>
        <time>2013-12-11T13:17:43Z</time>
      </trkpt>
      <trkpt lat="43.25536" lon="5.95835">
        <ele>395.7</ele>
        <time>2013-12-11T13:17:48Z</time>
      </trkpt>
      <trkpt lat="43.25535" lon="5.95836">
        <ele>395.7</ele>
        <time>2013-12-11T13:17:49Z</time>
      </trkpt>
      <trkpt lat="43.25529" lon="5.95841">
        <ele>394.2</ele>
        <time>2013-12-11T13:17:56Z</time>
      </trkpt>
      <trkpt lat="43.25527" lon="5.95844">
        <ele>395.1</ele>
        <time>2013-12-11T13:17:58Z</time>
      </trkpt>
      <trkpt lat="43.25525" lon="5.95848">
        <ele>396.2</ele>
        <time>2013-12-11T13:18:00Z</time>
      </trkpt>
      <trkpt lat="43.25522" lon="5.95852">
        <ele>396.8</ele>
        <time>2013-12-11T13:18:03Z</time>
      </trkpt>
      <trkpt lat="43.2552" lon="5.95855">
        <ele>398</ele>
        <time>2013-12-11T13:18:05Z</time>
      </trkpt>
      <trkpt lat="43.25518" lon="5.95859">
        <ele>398.8</ele>
        <time>2013-12-11T13:18:07Z</time>
      </trkpt>
      <trkpt lat="43.25516" lon="5.95862">
        <ele>400.1</ele>
        <time>2013-12-11T13:18:09Z</time>
      </trkpt>
      <trkpt lat="43.25514" lon="5.95868">
        <ele>400.7</ele>
        <time>2013-12-11T13:18:12Z</time>
      </trkpt>
      <trkpt lat="43.25512" lon="5.95872">
        <ele>400.5</ele>
        <time>2013-12-11T13:18:15Z</time>
      </trkpt>
      <trkpt lat="43.25509" lon="5.95876">
        <ele>399.1</ele>
        <time>2013-12-11T13:18:19Z</time>
      </trkpt>
      <trkpt lat="43.25507" lon="5.9588">
        <ele>397.7</ele>
        <time>2013-12-11T13:18:22Z</time>
      </trkpt>
      <trkpt lat="43.25505" lon="5.95884">
        <ele>397.3</ele>
        <time>2013-12-11T13:18:25Z</time>
      </trkpt>
      <trkpt lat="43.25502" lon="5.95888">
        <ele>397</ele>
        <time>2013-12-11T13:18:29Z</time>
      </trkpt>
      <trkpt lat="43.255" lon="5.95893">
        <ele>394.7</ele>
        <time>2013-12-11T13:18:34Z</time>
      </trkpt>
      <trkpt lat="43.25498" lon="5.95898">
        <ele>392.5</ele>
        <time>2013-12-11T13:18:38Z</time>
      </trkpt>
      <trkpt lat="43.25496" lon="5.95902">
        <ele>392.5</ele>
        <time>2013-12-11T13:18:41Z</time>
      </trkpt>
      <trkpt lat="43.25495" lon="5.95908">
        <ele>390.2</ele>
        <time>2013-12-11T13:18:46Z</time>
      </trkpt>
      <trkpt lat="43.25494" lon="5.95913">
        <ele>388.8</ele>
        <time>2013-12-11T13:18:50Z</time>
      </trkpt>
      <trkpt lat="43.25494" lon="5.95915">
        <ele>388.7</ele>
        <time>2013-12-11T13:18:51Z</time>
      </trkpt>
      <trkpt lat="43.25493" lon="5.95925">
        <ele>387.2</ele>
        <time>2013-12-11T13:18:57Z</time>
      </trkpt>
      <trkpt lat="43.25493" lon="5.9593">
        <ele>386.5</ele>
        <time>2013-12-11T13:19:00Z</time>
      </trkpt>
      <trkpt lat="43.25493" lon="5.95934">
        <ele>388.1</ele>
        <time>2013-12-11T13:19:01Z</time>
      </trkpt>
      <trkpt lat="43.25493" lon="5.95936">
        <ele>389</ele>
        <time>2013-12-11T13:19:02Z</time>
      </trkpt>
      <trkpt lat="43.25492" lon="5.95942">
        <ele>391.2</ele>
        <time>2013-12-11T13:19:04Z</time>
      </trkpt>
      <trkpt lat="43.25493" lon="5.95948">
        <ele>389.3</ele>
        <time>2013-12-11T13:19:09Z</time>
      </trkpt>
      <trkpt lat="43.25495" lon="5.95953">
        <ele>387.2</ele>
        <time>2013-12-11T13:19:13Z</time>
      </trkpt>
      <trkpt lat="43.25495" lon="5.95958">
        <ele>386.8</ele>
        <time>2013-12-11T13:19:16Z</time>
      </trkpt>
      <trkpt lat="43.25496" lon="5.95963">
        <ele>386.3</ele>
        <time>2013-12-11T13:19:19Z</time>
      </trkpt>
      <trkpt lat="43.25497" lon="5.95968">
        <ele>386</ele>
        <time>2013-12-11T13:19:22Z</time>
      </trkpt>
      <trkpt lat="43.25497" lon="5.95973">
        <ele>385.5</ele>
        <time>2013-12-11T13:19:25Z</time>
      </trkpt>
      <trkpt lat="43.25499" lon="5.95978">
        <ele>383.8</ele>
        <time>2013-12-11T13:19:30Z</time>
      </trkpt>
      <trkpt lat="43.255" lon="5.95984">
        <ele>381.3</ele>
        <time>2013-12-11T13:19:36Z</time>
      </trkpt>
      <trkpt lat="43.25498" lon="5.95988">
        <ele>384</ele>
        <time>2013-12-11T13:20:00Z</time>
      </trkpt>
      <trkpt lat="43.25497" lon="5.95988">
        <ele>385.6</ele>
        <time>2013-12-11T13:20:01Z</time>
      </trkpt>
      <trkpt lat="43.255" lon="5.95983">
        <ele>381</ele>
        <time>2013-12-11T13:20:36Z</time>
      </trkpt>
      <trkpt lat="43.25503" lon="5.95987">
        <ele>383.3</ele>
        <time>2013-12-11T13:22:32Z</time>
      </trkpt>
      <trkpt lat="43.25504" lon="5.95987">
        <ele>383.5</ele>
        <time>2013-12-11T13:22:33Z</time>
      </trkpt>
      <trkpt lat="43.25502" lon="5.95987">
        <ele>388.3</ele>
        <time>2013-12-11T13:23:55Z</time>
      </trkpt>
      <trkpt lat="43.25502" lon="5.95987">
        <ele>388.2</ele>
        <time>2013-12-11T13:23:56Z</time>
      </trkpt>
      <trkpt lat="43.25498" lon="5.9599">
        <ele>380.7</ele>
        <time>2013-12-11T13:27:00Z</time>
      </trkpt>
      <trkpt lat="43.25505" lon="5.95993">
        <ele>384.7</ele>
        <time>2013-12-11T13:27:31Z</time>
      </trkpt>
      <trkpt lat="43.25509" lon="5.95993">
        <ele>383.7</ele>
        <time>2013-12-11T13:27:34Z</time>
      </trkpt>
      <trkpt lat="43.25512" lon="5.95991">
        <ele>383.2</ele>
        <time>2013-12-11T13:27:37Z</time>
      </trkpt>
      <trkpt lat="43.25516" lon="5.95989">
        <ele>380.5</ele>
        <time>2013-12-11T13:27:42Z</time>
      </trkpt>
      <trkpt lat="43.25519" lon="5.95985">
        <ele>378.7</ele>
        <time>2013-12-11T13:27:46Z</time>
      </trkpt>
      <trkpt lat="43.25522" lon="5.95981">
        <ele>377.6</ele>
        <time>2013-12-11T13:27:49Z</time>
      </trkpt>
      <trkpt lat="43.25524" lon="5.95977">
        <ele>377.2</ele>
        <time>2013-12-11T13:27:52Z</time>
      </trkpt>
      <trkpt lat="43.25527" lon="5.95973">
        <ele>378.7</ele>
        <time>2013-12-11T13:27:55Z</time>
      </trkpt>
      <trkpt lat="43.25529" lon="5.95968">
        <ele>377.5</ele>
        <time>2013-12-11T13:27:58Z</time>
      </trkpt>
      <trkpt lat="43.2553" lon="5.95963">
        <ele>377.8</ele>
        <time>2013-12-11T13:28:02Z</time>
      </trkpt>
      <trkpt lat="43.25531" lon="5.95961">
        <ele>377.7</ele>
        <time>2013-12-11T13:28:03Z</time>
      </trkpt>
      <trkpt lat="43.25532" lon="5.95953">
        <ele>374.2</ele>
        <time>2013-12-11T13:28:10Z</time>
      </trkpt>
      <trkpt lat="43.25533" lon="5.95947">
        <ele>372.8</ele>
        <time>2013-12-11T13:28:15Z</time>
      </trkpt>
      <trkpt lat="43.25535" lon="5.95943">
        <ele>374.6</ele>
        <time>2013-12-11T13:28:24Z</time>
      </trkpt>
      <trkpt lat="43.25537" lon="5.95938">
        <ele>374.7</ele>
        <time>2013-12-11T13:28:28Z</time>
      </trkpt>
      <trkpt lat="43.25541" lon="5.95934">
        <ele>375.7</ele>
        <time>2013-12-11T13:28:31Z</time>
      </trkpt>
      <trkpt lat="43.25544" lon="5.95932">
        <ele>377.8</ele>
        <time>2013-12-11T13:28:34Z</time>
      </trkpt>
      <trkpt lat="43.25548" lon="5.95931">
        <ele>376.8</ele>
        <time>2013-12-11T13:28:39Z</time>
      </trkpt>
      <trkpt lat="43.25551" lon="5.95931">
        <ele>375.7</ele>
        <time>2013-12-11T13:28:41Z</time>
      </trkpt>
      <trkpt lat="43.25555" lon="5.95932">
        <ele>373.2</ele>
        <time>2013-12-11T13:28:44Z</time>
      </trkpt>
      <trkpt lat="43.25558" lon="5.95936">
        <ele>369.1</ele>
        <time>2013-12-11T13:28:50Z</time>
      </trkpt>
      <trkpt lat="43.2556" lon="5.9594">
        <ele>365.5</ele>
        <time>2013-12-11T13:28:55Z</time>
      </trkpt>
      <trkpt lat="43.25561" lon="5.95945">
        <ele>362.5</ele>
        <time>2013-12-11T13:29:00Z</time>
      </trkpt>
      <trkpt lat="43.25561" lon="5.95951">
        <ele>361.8</ele>
        <time>2013-12-11T13:29:03Z</time>
      </trkpt>
      <trkpt lat="43.25561" lon="5.95953">
        <ele>362.1</ele>
        <time>2013-12-11T13:29:04Z</time>
      </trkpt>
      <trkpt lat="43.2556" lon="5.95959">
        <ele>363.7</ele>
        <time>2013-12-11T13:29:06Z</time>
      </trkpt>
      <trkpt lat="43.2556" lon="5.95964">
        <ele>365.2</ele>
        <time>2013-12-11T13:29:10Z</time>
      </trkpt>
      <trkpt lat="43.25559" lon="5.95966">
        <ele>365.2</ele>
        <time>2013-12-11T13:29:12Z</time>
      </trkpt>
      <trkpt lat="43.25559" lon="5.9597">
        <ele>367.2</ele>
        <time>2013-12-11T13:29:13Z</time>
      </trkpt>
      <trkpt lat="43.25558" lon="5.95974">
        <ele>368.7</ele>
        <time>2013-12-11T13:29:15Z</time>
      </trkpt>
      <trkpt lat="43.25558" lon="5.95978">
        <ele>369.2</ele>
        <time>2013-12-11T13:29:17Z</time>
      </trkpt>
      <trkpt lat="43.25558" lon="5.95983">
        <ele>370.6</ele>
        <time>2013-12-11T13:29:19Z</time>
      </trkpt>
      <trkpt lat="43.25558" lon="5.95986">
        <ele>370.5</ele>
        <time>2013-12-11T13:29:21Z</time>
      </trkpt>
      <trkpt lat="43.25557" lon="5.95991">
        <ele>373.2</ele>
        <time>2013-12-11T13:29:23Z</time>
      </trkpt>
      <trkpt lat="43.25558" lon="5.95996">
        <ele>373.3</ele>
        <time>2013-12-11T13:29:28Z</time>
      </trkpt>
      <trkpt lat="43.25559" lon="5.96002">
        <ele>373.3</ele>
        <time>2013-12-11T13:29:32Z</time>
      </trkpt>
      <trkpt lat="43.2556" lon="5.96006">
        <ele>371.8</ele>
        <time>2013-12-11T13:29:36Z</time>
      </trkpt>
      <trkpt lat="43.2556" lon="5.96012">
        <ele>373.2</ele>
        <time>2013-12-11T13:29:40Z</time>
      </trkpt>
      <trkpt lat="43.25562" lon="5.96017">
        <ele>372.7</ele>
        <time>2013-12-11T13:29:46Z</time>
      </trkpt>
      <trkpt lat="43.25563" lon="5.96022">
        <ele>372.1</ele>
        <time>2013-12-11T13:29:49Z</time>
      </trkpt>
      <trkpt lat="43.25564" lon="5.96028">
        <ele>372.8</ele>
        <time>2013-12-11T13:29:52Z</time>
      </trkpt>
      <trkpt lat="43.25567" lon="5.96032">
        <ele>370.3</ele>
        <time>2013-12-11T13:29:57Z</time>
      </trkpt>
      <trkpt lat="43.25568" lon="5.96037">
        <ele>370.2</ele>
        <time>2013-12-11T13:30:01Z</time>
      </trkpt>
      <trkpt lat="43.25569" lon="5.96042">
        <ele>370.5</ele>
        <time>2013-12-11T13:30:04Z</time>
      </trkpt>
      <trkpt lat="43.25569" lon="5.96043">
        <ele>369.7</ele>
        <time>2013-12-11T13:30:05Z</time>
      </trkpt>
      <trkpt lat="43.25572" lon="5.96051">
        <ele>368.5</ele>
        <time>2013-12-11T13:30:11Z</time>
      </trkpt>
      <trkpt lat="43.25572" lon="5.96057">
        <ele>367</ele>
        <time>2013-12-11T13:30:14Z</time>
      </trkpt>
      <trkpt lat="43.25572" lon="5.96062">
        <ele>365.5</ele>
        <time>2013-12-11T13:30:17Z</time>
      </trkpt>
      <trkpt lat="43.25571" lon="5.96068">
        <ele>365.2</ele>
        <time>2013-12-11T13:30:20Z</time>
      </trkpt>
      <trkpt lat="43.25569" lon="5.96073">
        <ele>365.6</ele>
        <time>2013-12-11T13:30:23Z</time>
      </trkpt>
      <trkpt lat="43.25567" lon="5.96078">
        <ele>363.7</ele>
        <time>2013-12-11T13:30:27Z</time>
      </trkpt>
      <trkpt lat="43.25563" lon="5.96081">
        <ele>362.6</ele>
        <time>2013-12-11T13:30:31Z</time>
      </trkpt>
      <trkpt lat="43.25559" lon="5.96083">
        <ele>361.6</ele>
        <time>2013-12-11T13:30:36Z</time>
      </trkpt>
      <trkpt lat="43.25556" lon="5.96085">
        <ele>361.2</ele>
        <time>2013-12-11T13:30:40Z</time>
      </trkpt>
      <trkpt lat="43.25551" lon="5.96087">
        <ele>360.6</ele>
        <time>2013-12-11T13:30:44Z</time>
      </trkpt>
      <trkpt lat="43.25547" lon="5.96089">
        <ele>361.5</ele>
        <time>2013-12-11T13:30:49Z</time>
      </trkpt>
      <trkpt lat="43.25543" lon="5.96092">
        <ele>362.2</ele>
        <time>2013-12-11T13:30:53Z</time>
      </trkpt>
      <trkpt lat="43.2554" lon="5.96094">
        <ele>361.7</ele>
        <time>2013-12-11T13:30:56Z</time>
      </trkpt>
      <trkpt lat="43.25536" lon="5.96095">
        <ele>359.7</ele>
        <time>2013-12-11T13:31:00Z</time>
      </trkpt>
      <trkpt lat="43.25532" lon="5.96095">
        <ele>357.5</ele>
        <time>2013-12-11T13:31:03Z</time>
      </trkpt>
      <trkpt lat="43.25528" lon="5.96097">
        <ele>356.8</ele>
        <time>2013-12-11T13:31:07Z</time>
      </trkpt>
      <trkpt lat="43.25528" lon="5.96097">
        <ele>356.5</ele>
        <time>2013-12-11T13:31:08Z</time>
      </trkpt>
      <trkpt lat="43.25521" lon="5.96102">
        <ele>357.3</ele>
        <time>2013-12-11T13:31:15Z</time>
      </trkpt>
      <trkpt lat="43.25517" lon="5.96103">
        <ele>354.7</ele>
        <time>2013-12-11T13:31:19Z</time>
      </trkpt>
      <trkpt lat="43.25514" lon="5.96106">
        <ele>357.2</ele>
        <time>2013-12-11T13:31:21Z</time>
      </trkpt>
      <trkpt lat="43.25511" lon="5.96109">
        <ele>358</ele>
        <time>2013-12-11T13:31:24Z</time>
      </trkpt>
      <trkpt lat="43.25508" lon="5.9611">
        <ele>357.2</ele>
        <time>2013-12-11T13:31:28Z</time>
      </trkpt>
      <trkpt lat="43.25503" lon="5.96113">
        <ele>358.2</ele>
        <time>2013-12-11T13:31:33Z</time>
      </trkpt>
      <trkpt lat="43.255" lon="5.96114">
        <ele>359.8</ele>
        <time>2013-12-11T13:31:37Z</time>
      </trkpt>
      <trkpt lat="43.25495" lon="5.96115">
        <ele>359.8</ele>
        <time>2013-12-11T13:31:42Z</time>
      </trkpt>
      <trkpt lat="43.25491" lon="5.96116">
        <ele>358.1</ele>
        <time>2013-12-11T13:31:46Z</time>
      </trkpt>
      <trkpt lat="43.25487" lon="5.96118">
        <ele>355.7</ele>
        <time>2013-12-11T13:31:50Z</time>
      </trkpt>
      <trkpt lat="43.25484" lon="5.96122">
        <ele>354.2</ele>
        <time>2013-12-11T13:31:54Z</time>
      </trkpt>
      <trkpt lat="43.25481" lon="5.96126">
        <ele>349.7</ele>
        <time>2013-12-11T13:31:59Z</time>
      </trkpt>
      <trkpt lat="43.25479" lon="5.96131">
        <ele>350.3</ele>
        <time>2013-12-11T13:32:02Z</time>
      </trkpt>
      <trkpt lat="43.25478" lon="5.96136">
        <ele>349.3</ele>
        <time>2013-12-11T13:32:06Z</time>
      </trkpt>
      <trkpt lat="43.25477" lon="5.96142">
        <ele>350.2</ele>
        <time>2013-12-11T13:32:09Z</time>
      </trkpt>
      <trkpt lat="43.25477" lon="5.96143">
        <ele>349.7</ele>
        <time>2013-12-11T13:32:10Z</time>
      </trkpt>
      <trkpt lat="43.25475" lon="5.96151">
        <ele>351.7</ele>
        <time>2013-12-11T13:32:13Z</time>
      </trkpt>
      <trkpt lat="43.25475" lon="5.96155">
        <ele>352.2</ele>
        <time>2013-12-11T13:32:15Z</time>
      </trkpt>
      <trkpt lat="43.25474" lon="5.96161">
        <ele>353.2</ele>
        <time>2013-12-11T13:32:18Z</time>
      </trkpt>
      <trkpt lat="43.25474" lon="5.96166">
        <ele>355</ele>
        <time>2013-12-11T13:32:22Z</time>
      </trkpt>
      <trkpt lat="43.25473" lon="5.96171">
        <ele>354.7</ele>
        <time>2013-12-11T13:32:26Z</time>
      </trkpt>
      <trkpt lat="43.25472" lon="5.96175">
        <ele>352.2</ele>
        <time>2013-12-11T13:32:31Z</time>
      </trkpt>
      <trkpt lat="43.2547" lon="5.96181">
        <ele>350.5</ele>
        <time>2013-12-11T13:32:36Z</time>
      </trkpt>
      <trkpt lat="43.2547" lon="5.96186">
        <ele>347.5</ele>
        <time>2013-12-11T13:32:42Z</time>
      </trkpt>
      <trkpt lat="43.2547" lon="5.96192">
        <ele>345.3</ele>
        <time>2013-12-11T13:32:48Z</time>
      </trkpt>
      <trkpt lat="43.25469" lon="5.96198">
        <ele>343.7</ele>
        <time>2013-12-11T13:32:52Z</time>
      </trkpt>
      <trkpt lat="43.2547" lon="5.962">
        <ele>343.7</ele>
        <time>2013-12-11T13:32:54Z</time>
      </trkpt>
      <trkpt lat="43.25469" lon="5.96206">
        <ele>344.8</ele>
        <time>2013-12-11T13:32:56Z</time>
      </trkpt>
      <trkpt lat="43.2547" lon="5.96211">
        <ele>343.6</ele>
        <time>2013-12-11T13:33:00Z</time>
      </trkpt>
      <trkpt lat="43.2547" lon="5.96216">
        <ele>342.2</ele>
        <time>2013-12-11T13:33:04Z</time>
      </trkpt>
      <trkpt lat="43.2547" lon="5.9622">
        <ele>341.3</ele>
        <time>2013-12-11T13:33:07Z</time>
      </trkpt>
      <trkpt lat="43.2547" lon="5.96226">
        <ele>342.1</ele>
        <time>2013-12-11T13:33:11Z</time>
      </trkpt>
      <trkpt lat="43.2547" lon="5.96227">
        <ele>341.7</ele>
        <time>2013-12-11T13:33:12Z</time>
      </trkpt>
      <trkpt lat="43.25472" lon="5.96236">
        <ele>340.1</ele>
        <time>2013-12-11T13:33:19Z</time>
      </trkpt>
      <trkpt lat="43.25473" lon="5.96242">
        <ele>340.8</ele>
        <time>2013-12-11T13:33:22Z</time>
      </trkpt>
      <trkpt lat="43.25474" lon="5.96247">
        <ele>338.6</ele>
        <time>2013-12-11T13:33:27Z</time>
      </trkpt>
      <trkpt lat="43.25475" lon="5.96252">
        <ele>338.5</ele>
        <time>2013-12-11T13:33:30Z</time>
      </trkpt>
      <trkpt lat="43.25475" lon="5.96257">
        <ele>338.3</ele>
        <time>2013-12-11T13:33:33Z</time>
      </trkpt>
      <trkpt lat="43.25476" lon="5.96263">
        <ele>337.2</ele>
        <time>2013-12-11T13:33:37Z</time>
      </trkpt>
      <trkpt lat="43.25476" lon="5.96266">
        <ele>336.7</ele>
        <time>2013-12-11T13:33:39Z</time>
      </trkpt>
      <trkpt lat="43.25475" lon="5.96272">
        <ele>339.1</ele>
        <time>2013-12-11T13:33:41Z</time>
      </trkpt>
      <trkpt lat="43.25475" lon="5.96277">
        <ele>337.2</ele>
        <time>2013-12-11T13:33:45Z</time>
      </trkpt>
      <trkpt lat="43.25476" lon="5.96282">
        <ele>335.8</ele>
        <time>2013-12-11T13:33:49Z</time>
      </trkpt>
      <trkpt lat="43.25476" lon="5.96287">
        <ele>334.5</ele>
        <time>2013-12-11T13:33:53Z</time>
      </trkpt>
      <trkpt lat="43.25477" lon="5.96292">
        <ele>333.2</ele>
        <time>2013-12-11T13:33:57Z</time>
      </trkpt>
      <trkpt lat="43.25477" lon="5.96295">
        <ele>335</ele>
        <time>2013-12-11T13:33:58Z</time>
      </trkpt>
      <trkpt lat="43.25476" lon="5.96301">
        <ele>337.7</ele>
        <time>2013-12-11T13:34:00Z</time>
      </trkpt>
      <trkpt lat="43.25476" lon="5.96307">
        <ele>338.6</ele>
        <time>2013-12-11T13:34:03Z</time>
      </trkpt>
      <trkpt lat="43.25476" lon="5.96311">
        <ele>338.2</ele>
        <time>2013-12-11T13:34:05Z</time>
      </trkpt>
      <trkpt lat="43.25476" lon="5.96317">
        <ele>338.2</ele>
        <time>2013-12-11T13:34:08Z</time>
      </trkpt>
      <trkpt lat="43.25476" lon="5.96322">
        <ele>337.1</ele>
        <time>2013-12-11T13:34:12Z</time>
      </trkpt>
      <trkpt lat="43.25476" lon="5.96324">
        <ele>337.6</ele>
        <time>2013-12-11T13:34:13Z</time>
      </trkpt>
      <trkpt lat="43.25478" lon="5.96333">
        <ele>336</ele>
        <time>2013-12-11T13:34:20Z</time>
      </trkpt>
      <trkpt lat="43.2548" lon="5.96338">
        <ele>334.8</ele>
        <time>2013-12-11T13:34:24Z</time>
      </trkpt>
      <trkpt lat="43.25481" lon="5.96342">
        <ele>333.8</ele>
        <time>2013-12-11T13:34:28Z</time>
      </trkpt>
      <trkpt lat="43.25481" lon="5.96347">
        <ele>332.7</ele>
        <time>2013-12-11T13:34:32Z</time>
      </trkpt>
      <trkpt lat="43.25482" lon="5.96353">
        <ele>332.3</ele>
        <time>2013-12-11T13:34:35Z</time>
      </trkpt>
      <trkpt lat="43.25482" lon="5.96358">
        <ele>332.1</ele>
        <time>2013-12-11T13:34:38Z</time>
      </trkpt>
      <trkpt lat="43.25482" lon="5.96364">
        <ele>331.7</ele>
        <time>2013-12-11T13:34:42Z</time>
      </trkpt>
      <trkpt lat="43.25483" lon="5.96369">
        <ele>331.5</ele>
        <time>2013-12-11T13:34:45Z</time>
      </trkpt>
      <trkpt lat="43.25483" lon="5.96375">
        <ele>331.3</ele>
        <time>2013-12-11T13:34:48Z</time>
      </trkpt>
      <trkpt lat="43.25483" lon="5.96379">
        <ele>331.2</ele>
        <time>2013-12-11T13:34:51Z</time>
      </trkpt>
      <trkpt lat="43.25483" lon="5.96385">
        <ele>331.1</ele>
        <time>2013-12-11T13:34:54Z</time>
      </trkpt>
      <trkpt lat="43.25482" lon="5.9639">
        <ele>330.8</ele>
        <time>2013-12-11T13:34:57Z</time>
      </trkpt>
      <trkpt lat="43.25482" lon="5.96394">
        <ele>330.1</ele>
        <time>2013-12-11T13:35:00Z</time>
      </trkpt>
      <trkpt lat="43.25481" lon="5.96398">
        <ele>332</ele>
        <time>2013-12-11T13:35:01Z</time>
      </trkpt>
      <trkpt lat="43.2548" lon="5.96403">
        <ele>334.1</ele>
        <time>2013-12-11T13:35:03Z</time>
      </trkpt>
      <trkpt lat="43.25479" lon="5.96409">
        <ele>334.2</ele>
        <time>2013-12-11T13:35:06Z</time>
      </trkpt>
      <trkpt lat="43.25478" lon="5.96413">
        <ele>333.5</ele>
        <time>2013-12-11T13:35:09Z</time>
      </trkpt>
      <trkpt lat="43.25477" lon="5.96418">
        <ele>334</ele>
        <time>2013-12-11T13:35:12Z</time>
      </trkpt>
      <trkpt lat="43.25476" lon="5.96423">
        <ele>333.7</ele>
        <time>2013-12-11T13:35:15Z</time>
      </trkpt>
      <trkpt lat="43.25475" lon="5.96425">
        <ele>333.7</ele>
        <time>2013-12-11T13:35:16Z</time>
      </trkpt>
      <trkpt lat="43.25474" lon="5.96434">
        <ele>333.6</ele>
        <time>2013-12-11T13:35:22Z</time>
      </trkpt>
      <trkpt lat="43.25473" lon="5.9644">
        <ele>332.8</ele>
        <time>2013-12-11T13:35:26Z</time>
      </trkpt>
      <trkpt lat="43.25472" lon="5.96445">
        <ele>332.1</ele>
        <time>2013-12-11T13:35:30Z</time>
      </trkpt>
      <trkpt lat="43.25473" lon="5.96451">
        <ele>332.1</ele>
        <time>2013-12-11T13:35:34Z</time>
      </trkpt>
      <trkpt lat="43.25474" lon="5.96456">
        <ele>330.7</ele>
        <time>2013-12-11T13:35:39Z</time>
      </trkpt>
      <trkpt lat="43.25477" lon="5.96461">
        <ele>329.7</ele>
        <time>2013-12-11T13:35:43Z</time>
      </trkpt>
      <trkpt lat="43.2548" lon="5.96465">
        <ele>328.2</ele>
        <time>2013-12-11T13:35:47Z</time>
      </trkpt>
      <trkpt lat="43.25483" lon="5.96469">
        <ele>327</ele>
        <time>2013-12-11T13:35:51Z</time>
      </trkpt>
      <trkpt lat="43.25486" lon="5.96472">
        <ele>325.5</ele>
        <time>2013-12-11T13:35:55Z</time>
      </trkpt>
      <trkpt lat="43.25488" lon="5.96476">
        <ele>324</ele>
        <time>2013-12-11T13:35:59Z</time>
      </trkpt>
      <trkpt lat="43.25491" lon="5.96479">
        <ele>322.5</ele>
        <time>2013-12-11T13:36:03Z</time>
      </trkpt>
      <trkpt lat="43.25493" lon="5.96484">
        <ele>320.8</ele>
        <time>2013-12-11T13:36:07Z</time>
      </trkpt>
      <trkpt lat="43.25496" lon="5.96488">
        <ele>319.6</ele>
        <time>2013-12-11T13:36:11Z</time>
      </trkpt>
      <trkpt lat="43.25497" lon="5.96492">
        <ele>318.7</ele>
        <time>2013-12-11T13:36:15Z</time>
      </trkpt>
      <trkpt lat="43.25499" lon="5.96497">
        <ele>317.2</ele>
        <time>2013-12-11T13:36:19Z</time>
      </trkpt>
      <trkpt lat="43.255" lon="5.96498">
        <ele>317.1</ele>
        <time>2013-12-11T13:36:20Z</time>
      </trkpt>
      <trkpt lat="43.25501" lon="5.96504">
        <ele>317.5</ele>
        <time>2013-12-11T13:36:24Z</time>
      </trkpt>
      <trkpt lat="43.25503" lon="5.96509">
        <ele>318.2</ele>
        <time>2013-12-11T13:36:27Z</time>
      </trkpt>
      <trkpt lat="43.25504" lon="5.96514">
        <ele>318.2</ele>
        <time>2013-12-11T13:36:30Z</time>
      </trkpt>
      <trkpt lat="43.25507" lon="5.96518">
        <ele>318.1</ele>
        <time>2013-12-11T13:36:34Z</time>
      </trkpt>
      <trkpt lat="43.25507" lon="5.96523">
        <ele>320.5</ele>
        <time>2013-12-11T13:36:40Z</time>
      </trkpt>
      <trkpt lat="43.25509" lon="5.96529">
        <ele>321.8</ele>
        <time>2013-12-11T13:36:50Z</time>
      </trkpt>
      <trkpt lat="43.25513" lon="5.96532">
        <ele>320.7</ele>
        <time>2013-12-11T13:36:57Z</time>
      </trkpt>
      <trkpt lat="43.25517" lon="5.96533">
        <ele>320.8</ele>
        <time>2013-12-11T13:37:03Z</time>
      </trkpt>
      <trkpt lat="43.25521" lon="5.96533">
        <ele>318.7</ele>
        <time>2013-12-11T13:37:09Z</time>
      </trkpt>
      <trkpt lat="43.25524" lon="5.96531">
        <ele>316.7</ele>
        <time>2013-12-11T13:37:15Z</time>
      </trkpt>
      <trkpt lat="43.25528" lon="5.96529">
        <ele>314.6</ele>
        <time>2013-12-11T13:37:20Z</time>
      </trkpt>
      <trkpt lat="43.25529" lon="5.96529">
        <ele>314.1</ele>
        <time>2013-12-11T13:37:21Z</time>
      </trkpt>
      <trkpt lat="43.25536" lon="5.96526">
        <ele>314.1</ele>
        <time>2013-12-11T13:37:27Z</time>
      </trkpt>
      <trkpt lat="43.25539" lon="5.96525">
        <ele>315.6</ele>
        <time>2013-12-11T13:37:30Z</time>
      </trkpt>
      <trkpt lat="43.25543" lon="5.96524">
        <ele>316.2</ele>
        <time>2013-12-11T13:37:33Z</time>
      </trkpt>
      <trkpt lat="43.25547" lon="5.96523">
        <ele>315.8</ele>
        <time>2013-12-11T13:37:38Z</time>
      </trkpt>
      <trkpt lat="43.2555" lon="5.9652">
        <ele>312.7</ele>
        <time>2013-12-11T13:37:45Z</time>
      </trkpt>
      <trkpt lat="43.25553" lon="5.96518">
        <ele>311.3</ele>
        <time>2013-12-11T13:37:50Z</time>
      </trkpt>
      <trkpt lat="43.25557" lon="5.96516">
        <ele>309.7</ele>
        <time>2013-12-11T13:37:54Z</time>
      </trkpt>
      <trkpt lat="43.2556" lon="5.96512">
        <ele>307.8</ele>
        <time>2013-12-11T13:37:59Z</time>
      </trkpt>
      <trkpt lat="43.25564" lon="5.96509">
        <ele>307.2</ele>
        <time>2013-12-11T13:38:03Z</time>
      </trkpt>
      <trkpt lat="43.25567" lon="5.96507">
        <ele>306.8</ele>
        <time>2013-12-11T13:38:06Z</time>
      </trkpt>
      <trkpt lat="43.25571" lon="5.96505">
        <ele>306.7</ele>
        <time>2013-12-11T13:38:09Z</time>
      </trkpt>
      <trkpt lat="43.25575" lon="5.96503">
        <ele>306.2</ele>
        <time>2013-12-11T13:38:12Z</time>
      </trkpt>
      <trkpt lat="43.25579" lon="5.96502">
        <ele>305.1</ele>
        <time>2013-12-11T13:38:15Z</time>
      </trkpt>
      <trkpt lat="43.25582" lon="5.965">
        <ele>304.7</ele>
        <time>2013-12-11T13:38:17Z</time>
      </trkpt>
      <trkpt lat="43.25585" lon="5.96497">
        <ele>304.3</ele>
        <time>2013-12-11T13:38:20Z</time>
      </trkpt>
      <trkpt lat="43.25588" lon="5.96494">
        <ele>303.5</ele>
        <time>2013-12-11T13:38:24Z</time>
      </trkpt>
      <trkpt lat="43.25589" lon="5.96494">
        <ele>303.3</ele>
        <time>2013-12-11T13:38:25Z</time>
      </trkpt>
      <trkpt lat="43.25594" lon="5.96487">
        <ele>301.6</ele>
        <time>2013-12-11T13:38:32Z</time>
      </trkpt>
      <trkpt lat="43.25597" lon="5.96483">
        <ele>300.3</ele>
        <time>2013-12-11T13:38:36Z</time>
      </trkpt>
      <trkpt lat="43.256" lon="5.9648">
        <ele>300</ele>
        <time>2013-12-11T13:38:40Z</time>
      </trkpt>
      <trkpt lat="43.25602" lon="5.96476">
        <ele>299.7</ele>
        <time>2013-12-11T13:38:43Z</time>
      </trkpt>
      <trkpt lat="43.25604" lon="5.96471">
        <ele>299.7</ele>
        <time>2013-12-11T13:38:46Z</time>
      </trkpt>
      <trkpt lat="43.25607" lon="5.96468">
        <ele>300</ele>
        <time>2013-12-11T13:38:49Z</time>
      </trkpt>
      <trkpt lat="43.25609" lon="5.96465">
        <ele>300.1</ele>
        <time>2013-12-11T13:38:51Z</time>
      </trkpt>
      <trkpt lat="43.25612" lon="5.96463">
        <ele>300.2</ele>
        <time>2013-12-11T13:38:53Z</time>
      </trkpt>
      <trkpt lat="43.25614" lon="5.9646">
        <ele>300.2</ele>
        <time>2013-12-11T13:38:55Z</time>
      </trkpt>
      <trkpt lat="43.25618" lon="5.96457">
        <ele>300.3</ele>
        <time>2013-12-11T13:38:58Z</time>
      </trkpt>
      <trkpt lat="43.25621" lon="5.96454">
        <ele>300.2</ele>
        <time>2013-12-11T13:39:01Z</time>
      </trkpt>
      <trkpt lat="43.25624" lon="5.96451">
        <ele>299.8</ele>
        <time>2013-12-11T13:39:04Z</time>
      </trkpt>
      <trkpt lat="43.25626" lon="5.96446">
        <ele>299.2</ele>
        <time>2013-12-11T13:39:08Z</time>
      </trkpt>
      <trkpt lat="43.2563" lon="5.96444">
        <ele>298.8</ele>
        <time>2013-12-11T13:39:11Z</time>
      </trkpt>
      <trkpt lat="43.25634" lon="5.96442">
        <ele>298.8</ele>
        <time>2013-12-11T13:39:14Z</time>
      </trkpt>
      <trkpt lat="43.25637" lon="5.96439">
        <ele>298.2</ele>
        <time>2013-12-11T13:39:17Z</time>
      </trkpt>
      <trkpt lat="43.25641" lon="5.96436">
        <ele>298.1</ele>
        <time>2013-12-11T13:39:20Z</time>
      </trkpt>
      <trkpt lat="43.25644" lon="5.96433">
        <ele>298.1</ele>
        <time>2013-12-11T13:39:23Z</time>
      </trkpt>
      <trkpt lat="43.25648" lon="5.9643">
        <ele>298.5</ele>
        <time>2013-12-11T13:39:26Z</time>
      </trkpt>
      <trkpt lat="43.2565" lon="5.9643">
        <ele>298.8</ele>
        <time>2013-12-11T13:39:27Z</time>
      </trkpt>
      <trkpt lat="43.25655" lon="5.96428">
        <ele>298.2</ele>
        <time>2013-12-11T13:39:31Z</time>
      </trkpt>
      <trkpt lat="43.25659" lon="5.96429">
        <ele>298.5</ele>
        <time>2013-12-11T13:39:34Z</time>
      </trkpt>
      <trkpt lat="43.25661" lon="5.96429">
        <ele>299.1</ele>
        <time>2013-12-11T13:39:35Z</time>
      </trkpt>
      <trkpt lat="43.25663" lon="5.9643">
        <ele>299.7</ele>
        <time>2013-12-11T13:39:36Z</time>
      </trkpt>
      <trkpt lat="43.25667" lon="5.96431">
        <ele>300.8</ele>
        <time>2013-12-11T13:39:38Z</time>
      </trkpt>
      <trkpt lat="43.2567" lon="5.96433">
        <ele>300.7</ele>
        <time>2013-12-11T13:39:40Z</time>
      </trkpt>
      <trkpt lat="43.25674" lon="5.96436">
        <ele>300.7</ele>
        <time>2013-12-11T13:39:43Z</time>
      </trkpt>
      <trkpt lat="43.25677" lon="5.96438">
        <ele>300.2</ele>
        <time>2013-12-11T13:39:46Z</time>
      </trkpt>
      <trkpt lat="43.25681" lon="5.96441">
        <ele>300</ele>
        <time>2013-12-11T13:39:49Z</time>
      </trkpt>
      <trkpt lat="43.25684" lon="5.96443">
        <ele>299.6</ele>
        <time>2013-12-11T13:39:52Z</time>
      </trkpt>
      <trkpt lat="43.25687" lon="5.96446">
        <ele>299.2</ele>
        <time>2013-12-11T13:39:55Z</time>
      </trkpt>
      <trkpt lat="43.2569" lon="5.96448">
        <ele>299</ele>
        <time>2013-12-11T13:39:58Z</time>
      </trkpt>
      <trkpt lat="43.25693" lon="5.96451">
        <ele>298.7</ele>
        <time>2013-12-11T13:40:01Z</time>
      </trkpt>
      <trkpt lat="43.25696" lon="5.96454">
        <ele>298.5</ele>
        <time>2013-12-11T13:40:04Z</time>
      </trkpt>
      <trkpt lat="43.25699" lon="5.96457">
        <ele>297.8</ele>
        <time>2013-12-11T13:40:07Z</time>
      </trkpt>
      <trkpt lat="43.25703" lon="5.96459">
        <ele>298.2</ele>
        <time>2013-12-11T13:40:10Z</time>
      </trkpt>
      <trkpt lat="43.25706" lon="5.96462">
        <ele>298.8</ele>
        <time>2013-12-11T13:40:13Z</time>
      </trkpt>
      <trkpt lat="43.25708" lon="5.96466">
        <ele>298.8</ele>
        <time>2013-12-11T13:40:16Z</time>
      </trkpt>
      <trkpt lat="43.25711" lon="5.96468">
        <ele>298.6</ele>
        <time>2013-12-11T13:40:19Z</time>
      </trkpt>
      <trkpt lat="43.25714" lon="5.96472">
        <ele>298</ele>
        <time>2013-12-11T13:40:22Z</time>
      </trkpt>
      <trkpt lat="43.25717" lon="5.96477">
        <ele>297.2</ele>
        <time>2013-12-11T13:40:26Z</time>
      </trkpt>
      <trkpt lat="43.25721" lon="5.9648">
        <ele>296.5</ele>
        <time>2013-12-11T13:40:30Z</time>
      </trkpt>
      <trkpt lat="43.25721" lon="5.96481">
        <ele>296.1</ele>
        <time>2013-12-11T13:40:31Z</time>
      </trkpt>
      <trkpt lat="43.25728" lon="5.96483">
        <ele>295.7</ele>
        <time>2013-12-11T13:40:36Z</time>
      </trkpt>
      <trkpt lat="43.25731" lon="5.96484">
        <ele>295.8</ele>
        <time>2013-12-11T13:40:38Z</time>
      </trkpt>
      <trkpt lat="43.25735" lon="5.96485">
        <ele>295.2</ele>
        <time>2013-12-11T13:40:41Z</time>
      </trkpt>
      <trkpt lat="43.25738" lon="5.96486">
        <ele>294.3</ele>
        <time>2013-12-11T13:40:44Z</time>
      </trkpt>
      <trkpt lat="43.25742" lon="5.96487">
        <ele>294.1</ele>
        <time>2013-12-11T13:40:47Z</time>
      </trkpt>
      <trkpt lat="43.25745" lon="5.96488">
        <ele>293.6</ele>
        <time>2013-12-11T13:40:50Z</time>
      </trkpt>
      <trkpt lat="43.25749" lon="5.96491">
        <ele>293.2</ele>
        <time>2013-12-11T13:40:54Z</time>
      </trkpt>
      <trkpt lat="43.25752" lon="5.96495">
        <ele>293</ele>
        <time>2013-12-11T13:40:58Z</time>
      </trkpt>
      <trkpt lat="43.25754" lon="5.965">
        <ele>292</ele>
        <time>2013-12-11T13:41:02Z</time>
      </trkpt>
      <trkpt lat="43.25756" lon="5.96505">
        <ele>291.1</ele>
        <time>2013-12-11T13:41:06Z</time>
      </trkpt>
      <trkpt lat="43.25757" lon="5.9651">
        <ele>289.7</ele>
        <time>2013-12-11T13:41:10Z</time>
      </trkpt>
      <trkpt lat="43.25759" lon="5.96515">
        <ele>288</ele>
        <time>2013-12-11T13:41:15Z</time>
      </trkpt>
      <trkpt lat="43.25761" lon="5.96519">
        <ele>286.6</ele>
        <time>2013-12-11T13:41:19Z</time>
      </trkpt>
      <trkpt lat="43.25763" lon="5.96524">
        <ele>285.2</ele>
        <time>2013-12-11T13:41:23Z</time>
      </trkpt>
      <trkpt lat="43.25766" lon="5.96529">
        <ele>284</ele>
        <time>2013-12-11T13:41:27Z</time>
      </trkpt>
      <trkpt lat="43.25768" lon="5.96533">
        <ele>282.7</ele>
        <time>2013-12-11T13:41:31Z</time>
      </trkpt>
      <trkpt lat="43.25768" lon="5.96534">
        <ele>282.3</ele>
        <time>2013-12-11T13:41:32Z</time>
      </trkpt>
      <trkpt lat="43.25772" lon="5.96543">
        <ele>280.5</ele>
        <time>2013-12-11T13:41:39Z</time>
      </trkpt>
      <trkpt lat="43.25774" lon="5.96549">
        <ele>279.6</ele>
        <time>2013-12-11T13:41:43Z</time>
      </trkpt>
      <trkpt lat="43.25776" lon="5.96553">
        <ele>278.7</ele>
        <time>2013-12-11T13:41:47Z</time>
      </trkpt>
      <trkpt lat="43.25778" lon="5.96558">
        <ele>277.7</ele>
        <time>2013-12-11T13:41:51Z</time>
      </trkpt>
      <trkpt lat="43.25779" lon="5.96562">
        <ele>279.7</ele>
        <time>2013-12-11T13:41:53Z</time>
      </trkpt>
      <trkpt lat="43.25781" lon="5.96568">
        <ele>282</ele>
        <time>2013-12-11T13:41:56Z</time>
      </trkpt>
      <trkpt lat="43.25781" lon="5.96571">
        <ele>283.7</ele>
        <time>2013-12-11T13:41:57Z</time>
      </trkpt>
      <trkpt lat="43.25781" lon="5.96577">
        <ele>286</ele>
        <time>2013-12-11T13:41:59Z</time>
      </trkpt>
      <trkpt lat="43.25781" lon="5.96582">
        <ele>286.7</ele>
        <time>2013-12-11T13:42:02Z</time>
      </trkpt>
      <trkpt lat="43.25784" lon="5.96586">
        <ele>287.2</ele>
        <time>2013-12-11T13:42:08Z</time>
      </trkpt>
      <trkpt lat="43.25786" lon="5.96592">
        <ele>287.2</ele>
        <time>2013-12-11T13:42:18Z</time>
      </trkpt>
      <trkpt lat="43.25786" lon="5.96597">
        <ele>291.2</ele>
        <time>2013-12-11T13:42:24Z</time>
      </trkpt>
      <trkpt lat="43.25788" lon="5.96603">
        <ele>298.3</ele>
        <time>2013-12-11T13:42:42Z</time>
      </trkpt>
      <trkpt lat="43.25789" lon="5.96603">
        <ele>298.1</ele>
        <time>2013-12-11T13:42:43Z</time>
      </trkpt>
      <trkpt lat="43.2579" lon="5.96606">
        <ele>300.6</ele>
        <time>2013-12-11T13:43:08Z</time>
      </trkpt>
      <trkpt lat="43.25788" lon="5.96602">
        <ele>309.2</ele>
        <time>2013-12-11T13:43:33Z</time>
      </trkpt>
      <trkpt lat="43.25784" lon="5.96601">
        <ele>304</ele>
        <time>2013-12-11T13:43:37Z</time>
      </trkpt>
      <trkpt lat="43.2578" lon="5.966">
        <ele>300.7</ele>
        <time>2013-12-11T13:43:40Z</time>
      </trkpt>
      <trkpt lat="43.25776" lon="5.96602">
        <ele>299.1</ele>
        <time>2013-12-11T13:43:47Z</time>
      </trkpt>
      <trkpt lat="43.25775" lon="5.96602">
        <ele>300.2</ele>
        <time>2013-12-11T13:43:48Z</time>
      </trkpt>
      <trkpt lat="43.25782" lon="5.96608">
        <ele>283.2</ele>
        <time>2013-12-11T13:44:24Z</time>
      </trkpt>
      <trkpt lat="43.25786" lon="5.96609">
        <ele>284.3</ele>
        <time>2013-12-11T13:44:31Z</time>
      </trkpt>
      <trkpt lat="43.2579" lon="5.96609">
        <ele>282.7</ele>
        <time>2013-12-11T13:44:49Z</time>
      </trkpt>
      <trkpt lat="43.25791" lon="5.96609">
        <ele>284.2</ele>
        <time>2013-12-11T13:44:50Z</time>
      </trkpt>
      <trkpt lat="43.25796" lon="5.96618">
        <ele>291.3</ele>
        <time>2013-12-11T13:45:25Z</time>
      </trkpt>
      <trkpt lat="43.25799" lon="5.96621">
        <ele>291.3</ele>
        <time>2013-12-11T13:45:29Z</time>
      </trkpt>
      <trkpt lat="43.25801" lon="5.96624">
        <ele>289.8</ele>
        <time>2013-12-11T13:45:32Z</time>
      </trkpt>
      <trkpt lat="43.25804" lon="5.96629">
        <ele>288.7</ele>
        <time>2013-12-11T13:45:37Z</time>
      </trkpt>
      <trkpt lat="43.25807" lon="5.96632">
        <ele>289.1</ele>
        <time>2013-12-11T13:45:41Z</time>
      </trkpt>
      <trkpt lat="43.25809" lon="5.96635">
        <ele>288.7</ele>
        <time>2013-12-11T13:45:44Z</time>
      </trkpt>
      <trkpt lat="43.25812" lon="5.96639">
        <ele>287.6</ele>
        <time>2013-12-11T13:45:47Z</time>
      </trkpt>
      <trkpt lat="43.25816" lon="5.96641">
        <ele>287.5</ele>
        <time>2013-12-11T13:45:50Z</time>
      </trkpt>
      <trkpt lat="43.25816" lon="5.96642">
        <ele>287.7</ele>
        <time>2013-12-11T13:45:51Z</time>
      </trkpt>
      <trkpt lat="43.25821" lon="5.96649">
        <ele>289.3</ele>
        <time>2013-12-11T13:45:58Z</time>
      </trkpt>
      <trkpt lat="43.25824" lon="5.96653">
        <ele>290</ele>
        <time>2013-12-11T13:46:02Z</time>
      </trkpt>
      <trkpt lat="43.25827" lon="5.96655">
        <ele>288.1</ele>
        <time>2013-12-11T13:46:06Z</time>
      </trkpt>
      <trkpt lat="43.25831" lon="5.96658">
        <ele>286.2</ele>
        <time>2013-12-11T13:46:10Z</time>
      </trkpt>
      <trkpt lat="43.25834" lon="5.96662">
        <ele>285.1</ele>
        <time>2013-12-11T13:46:15Z</time>
      </trkpt>
      <trkpt lat="43.25838" lon="5.96665">
        <ele>284.7</ele>
        <time>2013-12-11T13:46:19Z</time>
      </trkpt>
      <trkpt lat="43.2584" lon="5.96668">
        <ele>285.2</ele>
        <time>2013-12-11T13:46:22Z</time>
      </trkpt>
      <trkpt lat="43.25843" lon="5.96671">
        <ele>284.8</ele>
        <time>2013-12-11T13:46:25Z</time>
      </trkpt>
      <trkpt lat="43.25846" lon="5.96677">
        <ele>282.2</ele>
        <time>2013-12-11T13:46:30Z</time>
      </trkpt>
      <trkpt lat="43.25848" lon="5.9668">
        <ele>281.2</ele>
        <time>2013-12-11T13:46:33Z</time>
      </trkpt>
      <trkpt lat="43.25851" lon="5.96684">
        <ele>281.5</ele>
        <time>2013-12-11T13:46:37Z</time>
      </trkpt>
      <trkpt lat="43.25853" lon="5.96688">
        <ele>282.3</ele>
        <time>2013-12-11T13:46:41Z</time>
      </trkpt>
      <trkpt lat="43.25855" lon="5.96693">
        <ele>281.8</ele>
        <time>2013-12-11T13:46:44Z</time>
      </trkpt>
      <trkpt lat="43.25858" lon="5.96696">
        <ele>281.6</ele>
        <time>2013-12-11T13:46:48Z</time>
      </trkpt>
      <trkpt lat="43.25861" lon="5.96699">
        <ele>278.8</ele>
        <time>2013-12-11T13:46:52Z</time>
      </trkpt>
      <trkpt lat="43.25862" lon="5.967">
        <ele>278.6</ele>
        <time>2013-12-11T13:46:53Z</time>
      </trkpt>
      <trkpt lat="43.25867" lon="5.96706">
        <ele>276.2</ele>
        <time>2013-12-11T13:47:01Z</time>
      </trkpt>
      <trkpt lat="43.2587" lon="5.96711">
        <ele>276.1</ele>
        <time>2013-12-11T13:47:05Z</time>
      </trkpt>
      <trkpt lat="43.25873" lon="5.96714">
        <ele>275.6</ele>
        <time>2013-12-11T13:47:08Z</time>
      </trkpt>
      <trkpt lat="43.25876" lon="5.96717">
        <ele>276.5</ele>
        <time>2013-12-11T13:47:11Z</time>
      </trkpt>
      <trkpt lat="43.25877" lon="5.96722">
        <ele>277.2</ele>
        <time>2013-12-11T13:47:14Z</time>
      </trkpt>
      <trkpt lat="43.2588" lon="5.96724">
        <ele>277.3</ele>
        <time>2013-12-11T13:47:17Z</time>
      </trkpt>
      <trkpt lat="43.25883" lon="5.96728">
        <ele>277.8</ele>
        <time>2013-12-11T13:47:20Z</time>
      </trkpt>
      <trkpt lat="43.25885" lon="5.96733">
        <ele>277.2</ele>
        <time>2013-12-11T13:47:24Z</time>
      </trkpt>
      <trkpt lat="43.25888" lon="5.96739">
        <ele>276.2</ele>
        <time>2013-12-11T13:47:28Z</time>
      </trkpt>
      <trkpt lat="43.2589" lon="5.96743">
        <ele>276.5</ele>
        <time>2013-12-11T13:47:32Z</time>
      </trkpt>
      <trkpt lat="43.25892" lon="5.96748">
        <ele>277.5</ele>
        <time>2013-12-11T13:47:35Z</time>
      </trkpt>
      <trkpt lat="43.25894" lon="5.96752">
        <ele>278.2</ele>
        <time>2013-12-11T13:47:38Z</time>
      </trkpt>
      <trkpt lat="43.25898" lon="5.96755">
        <ele>278</ele>
        <time>2013-12-11T13:47:42Z</time>
      </trkpt>
      <trkpt lat="43.259" lon="5.9676">
        <ele>279.2</ele>
        <time>2013-12-11T13:47:45Z</time>
      </trkpt>
      <trkpt lat="43.25901" lon="5.96764">
        <ele>279.2</ele>
        <time>2013-12-11T13:47:48Z</time>
      </trkpt>
      <trkpt lat="43.25904" lon="5.96768">
        <ele>280.7</ele>
        <time>2013-12-11T13:47:51Z</time>
      </trkpt>
      <trkpt lat="43.25906" lon="5.96773">
        <ele>282.2</ele>
        <time>2013-12-11T13:47:54Z</time>
      </trkpt>
      <trkpt lat="43.25907" lon="5.96775">
        <ele>282.7</ele>
        <time>2013-12-11T13:47:55Z</time>
      </trkpt>
      <trkpt lat="43.2591" lon="5.96782">
        <ele>282</ele>
        <time>2013-12-11T13:48:02Z</time>
      </trkpt>
      <trkpt lat="43.25912" lon="5.96787">
        <ele>281.8</ele>
        <time>2013-12-11T13:48:06Z</time>
      </trkpt>
      <trkpt lat="43.25913" lon="5.96791">
        <ele>282.6</ele>
        <time>2013-12-11T13:48:09Z</time>
      </trkpt>
      <trkpt lat="43.25916" lon="5.96795">
        <ele>285.5</ele>
        <time>2013-12-11T13:48:13Z</time>
      </trkpt>
      <trkpt lat="43.25918" lon="5.968">
        <ele>286.7</ele>
        <time>2013-12-11T13:48:17Z</time>
      </trkpt>
      <trkpt lat="43.25921" lon="5.96805">
        <ele>284.7</ele>
        <time>2013-12-11T13:48:22Z</time>
      </trkpt>
      <trkpt lat="43.25924" lon="5.96809">
        <ele>283</ele>
        <time>2013-12-11T13:48:26Z</time>
      </trkpt>
      <trkpt lat="43.25927" lon="5.96813">
        <ele>281</ele>
        <time>2013-12-11T13:48:31Z</time>
      </trkpt>
      <trkpt lat="43.2593" lon="5.96818">
        <ele>280.7</ele>
        <time>2013-12-11T13:48:35Z</time>
      </trkpt>
      <trkpt lat="43.25933" lon="5.96821">
        <ele>279.7</ele>
        <time>2013-12-11T13:48:38Z</time>
      </trkpt>
      <trkpt lat="43.25936" lon="5.96825">
        <ele>277.7</ele>
        <time>2013-12-11T13:48:42Z</time>
      </trkpt>
      <trkpt lat="43.2594" lon="5.96828">
        <ele>276.7</ele>
        <time>2013-12-11T13:48:47Z</time>
      </trkpt>
      <trkpt lat="43.25943" lon="5.96831">
        <ele>275.7</ele>
        <time>2013-12-11T13:48:52Z</time>
      </trkpt>
      <trkpt lat="43.25946" lon="5.96836">
        <ele>276.1</ele>
        <time>2013-12-11T13:48:55Z</time>
      </trkpt>
      <trkpt lat="43.25946" lon="5.96836">
        <ele>276.2</ele>
        <time>2013-12-11T13:48:56Z</time>
      </trkpt>
      <trkpt lat="43.25952" lon="5.96843">
        <ele>276.5</ele>
        <time>2013-12-11T13:49:02Z</time>
      </trkpt>
      <trkpt lat="43.25955" lon="5.96846">
        <ele>277.2</ele>
        <time>2013-12-11T13:49:05Z</time>
      </trkpt>
      <trkpt lat="43.25958" lon="5.96849">
        <ele>276.7</ele>
        <time>2013-12-11T13:49:08Z</time>
      </trkpt>
      <trkpt lat="43.25962" lon="5.96852">
        <ele>276.7</ele>
        <time>2013-12-11T13:49:12Z</time>
      </trkpt>
      <trkpt lat="43.25964" lon="5.96856">
        <ele>275.7</ele>
        <time>2013-12-11T13:49:17Z</time>
      </trkpt>
      <trkpt lat="43.25967" lon="5.96861">
        <ele>273.2</ele>
        <time>2013-12-11T13:49:22Z</time>
      </trkpt>
      <trkpt lat="43.25968" lon="5.96866">
        <ele>273.8</ele>
        <time>2013-12-11T13:49:28Z</time>
      </trkpt>
      <trkpt lat="43.2597" lon="5.96871">
        <ele>274.1</ele>
        <time>2013-12-11T13:49:35Z</time>
      </trkpt>
      <trkpt lat="43.25973" lon="5.96874">
        <ele>273.8</ele>
        <time>2013-12-11T13:49:40Z</time>
      </trkpt>
      <trkpt lat="43.25976" lon="5.96877">
        <ele>273.2</ele>
        <time>2013-12-11T13:49:43Z</time>
      </trkpt>
      <trkpt lat="43.25979" lon="5.9688">
        <ele>272.7</ele>
        <time>2013-12-11T13:49:46Z</time>
      </trkpt>
      <trkpt lat="43.25982" lon="5.96883">
        <ele>272.1</ele>
        <time>2013-12-11T13:49:50Z</time>
      </trkpt>
      <trkpt lat="43.25986" lon="5.96886">
        <ele>272.3</ele>
        <time>2013-12-11T13:49:55Z</time>
      </trkpt>
      <trkpt lat="43.25989" lon="5.96889">
        <ele>270.8</ele>
        <time>2013-12-11T13:49:59Z</time>
      </trkpt>
      <trkpt lat="43.2599" lon="5.9689">
        <ele>270.5</ele>
        <time>2013-12-11T13:50:00Z</time>
      </trkpt>
      <trkpt lat="43.25997" lon="5.96895">
        <ele>267.8</ele>
        <time>2013-12-11T13:50:07Z</time>
      </trkpt>
      <trkpt lat="43.26" lon="5.96898">
        <ele>268.6</ele>
        <time>2013-12-11T13:50:11Z</time>
      </trkpt>
      <trkpt lat="43.26004" lon="5.96902">
        <ele>270.2</ele>
        <time>2013-12-11T13:50:15Z</time>
      </trkpt>
      <trkpt lat="43.26008" lon="5.96904">
        <ele>268.5</ele>
        <time>2013-12-11T13:50:19Z</time>
      </trkpt>
      <trkpt lat="43.26011" lon="5.96907">
        <ele>266.6</ele>
        <time>2013-12-11T13:50:23Z</time>
      </trkpt>
      <trkpt lat="43.26015" lon="5.96909">
        <ele>265.3</ele>
        <time>2013-12-11T13:50:27Z</time>
      </trkpt>
      <trkpt lat="43.26018" lon="5.96912">
        <ele>265.3</ele>
        <time>2013-12-11T13:50:30Z</time>
      </trkpt>
      <trkpt lat="43.26021" lon="5.96914">
        <ele>265.2</ele>
        <time>2013-12-11T13:50:33Z</time>
      </trkpt>
      <trkpt lat="43.26023" lon="5.96917">
        <ele>264</ele>
        <time>2013-12-11T13:50:35Z</time>
      </trkpt>
      <trkpt lat="43.26026" lon="5.9692">
        <ele>263.3</ele>
        <time>2013-12-11T13:50:37Z</time>
      </trkpt>
      <trkpt lat="43.26029" lon="5.96924">
        <ele>263.1</ele>
        <time>2013-12-11T13:50:40Z</time>
      </trkpt>
      <trkpt lat="43.26033" lon="5.96927">
        <ele>263.1</ele>
        <time>2013-12-11T13:50:44Z</time>
      </trkpt>
      <trkpt lat="43.26037" lon="5.96928">
        <ele>263</ele>
        <time>2013-12-11T13:50:48Z</time>
      </trkpt>
      <trkpt lat="43.26041" lon="5.9693">
        <ele>262</ele>
        <time>2013-12-11T13:50:52Z</time>
      </trkpt>
      <trkpt lat="43.26045" lon="5.96931">
        <ele>260.7</ele>
        <time>2013-12-11T13:50:56Z</time>
      </trkpt>
      <trkpt lat="43.26048" lon="5.96934">
        <ele>259.6</ele>
        <time>2013-12-11T13:51:00Z</time>
      </trkpt>
      <trkpt lat="43.26049" lon="5.96934">
        <ele>258.6</ele>
        <time>2013-12-11T13:51:01Z</time>
      </trkpt>
      <trkpt lat="43.26055" lon="5.96933">
        <ele>260.1</ele>
        <time>2013-12-11T13:51:09Z</time>
      </trkpt>
      <trkpt lat="43.26059" lon="5.9693">
        <ele>260.1</ele>
        <time>2013-12-11T13:51:13Z</time>
      </trkpt>
      <trkpt lat="43.26062" lon="5.96926">
        <ele>262.7</ele>
        <time>2013-12-11T13:51:17Z</time>
      </trkpt>
      <trkpt lat="43.26064" lon="5.96922">
        <ele>265.1</ele>
        <time>2013-12-11T13:51:20Z</time>
      </trkpt>
      <trkpt lat="43.26065" lon="5.96916">
        <ele>269.6</ele>
        <time>2013-12-11T13:51:23Z</time>
      </trkpt>
      <trkpt lat="43.26066" lon="5.9691">
        <ele>269.8</ele>
        <time>2013-12-11T13:51:28Z</time>
      </trkpt>
      <trkpt lat="43.26067" lon="5.96905">
        <ele>270.2</ele>
        <time>2013-12-11T13:51:32Z</time>
      </trkpt>
      <trkpt lat="43.26068" lon="5.969">
        <ele>270.1</ele>
        <time>2013-12-11T13:51:35Z</time>
      </trkpt>
      <trkpt lat="43.26069" lon="5.96895">
        <ele>269.3</ele>
        <time>2013-12-11T13:51:38Z</time>
      </trkpt>
      <trkpt lat="43.2607" lon="5.96889">
        <ele>269.1</ele>
        <time>2013-12-11T13:51:41Z</time>
      </trkpt>
      <trkpt lat="43.2607" lon="5.96884">
        <ele>268.6</ele>
        <time>2013-12-11T13:51:45Z</time>
      </trkpt>
      <trkpt lat="43.2607" lon="5.96878">
        <ele>268.6</ele>
        <time>2013-12-11T13:51:49Z</time>
      </trkpt>
      <trkpt lat="43.26072" lon="5.96873">
        <ele>269.7</ele>
        <time>2013-12-11T13:51:53Z</time>
      </trkpt>
      <trkpt lat="43.26073" lon="5.96869">
        <ele>270.6</ele>
        <time>2013-12-11T13:51:56Z</time>
      </trkpt>
      <trkpt lat="43.26072" lon="5.96864">
        <ele>270.3</ele>
        <time>2013-12-11T13:51:59Z</time>
      </trkpt>
      <trkpt lat="43.26072" lon="5.96859">
        <ele>269.7</ele>
        <time>2013-12-11T13:52:02Z</time>
      </trkpt>
      <trkpt lat="43.26071" lon="5.96857">
        <ele>269.5</ele>
        <time>2013-12-11T13:52:03Z</time>
      </trkpt>
      <trkpt lat="43.2607" lon="5.96849">
        <ele>267.2</ele>
        <time>2013-12-11T13:52:09Z</time>
      </trkpt>
      <trkpt lat="43.2607" lon="5.96844">
        <ele>267</ele>
        <time>2013-12-11T13:52:13Z</time>
      </trkpt>
      <trkpt lat="43.26069" lon="5.96839">
        <ele>266.3</ele>
        <time>2013-12-11T13:52:17Z</time>
      </trkpt>
      <trkpt lat="43.26069" lon="5.96833">
        <ele>267.2</ele>
        <time>2013-12-11T13:52:22Z</time>
      </trkpt>
      <trkpt lat="43.26071" lon="5.96827">
        <ele>268.2</ele>
        <time>2013-12-11T13:52:26Z</time>
      </trkpt>
      <trkpt lat="43.2607" lon="5.96822">
        <ele>270.2</ele>
        <time>2013-12-11T13:52:31Z</time>
      </trkpt>
      <trkpt lat="43.2607" lon="5.96817">
        <ele>271.3</ele>
        <time>2013-12-11T13:52:35Z</time>
      </trkpt>
      <trkpt lat="43.2607" lon="5.96811">
        <ele>271.2</ele>
        <time>2013-12-11T13:52:39Z</time>
      </trkpt>
      <trkpt lat="43.26071" lon="5.96806">
        <ele>271.8</ele>
        <time>2013-12-11T13:52:43Z</time>
      </trkpt>
      <trkpt lat="43.26072" lon="5.968">
        <ele>271.8</ele>
        <time>2013-12-11T13:52:47Z</time>
      </trkpt>
      <trkpt lat="43.26072" lon="5.96796">
        <ele>272.1</ele>
        <time>2013-12-11T13:52:50Z</time>
      </trkpt>
      <trkpt lat="43.26071" lon="5.9679">
        <ele>270.3</ele>
        <time>2013-12-11T13:52:54Z</time>
      </trkpt>
      <trkpt lat="43.26071" lon="5.96785">
        <ele>268.7</ele>
        <time>2013-12-11T13:52:58Z</time>
      </trkpt>
      <trkpt lat="43.26072" lon="5.9678">
        <ele>267.7</ele>
        <time>2013-12-11T13:53:01Z</time>
      </trkpt>
      <trkpt lat="43.26074" lon="5.96776">
        <ele>268.5</ele>
        <time>2013-12-11T13:53:04Z</time>
      </trkpt>
      <trkpt lat="43.26075" lon="5.96775">
        <ele>269</ele>
        <time>2013-12-11T13:53:05Z</time>
      </trkpt>
      <trkpt lat="43.26076" lon="5.96765">
        <ele>265.3</ele>
        <time>2013-12-11T13:53:12Z</time>
      </trkpt>
      <trkpt lat="43.26076" lon="5.9676">
        <ele>264.3</ele>
        <time>2013-12-11T13:53:16Z</time>
      </trkpt>
      <trkpt lat="43.26075" lon="5.96755">
        <ele>264.8</ele>
        <time>2013-12-11T13:53:20Z</time>
      </trkpt>
      <trkpt lat="43.26075" lon="5.9675">
        <ele>265</ele>
        <time>2013-12-11T13:53:24Z</time>
      </trkpt>
      <trkpt lat="43.26076" lon="5.96744">
        <ele>263.7</ele>
        <time>2013-12-11T13:53:28Z</time>
      </trkpt>
      <trkpt lat="43.26078" lon="5.96741">
        <ele>264.5</ele>
        <time>2013-12-11T13:53:30Z</time>
      </trkpt>
      <trkpt lat="43.26079" lon="5.96735">
        <ele>262.7</ele>
        <time>2013-12-11T13:53:34Z</time>
      </trkpt>
      <trkpt lat="43.2608" lon="5.9673">
        <ele>263.1</ele>
        <time>2013-12-11T13:53:37Z</time>
      </trkpt>
      <trkpt lat="43.26084" lon="5.96727">
        <ele>260.3</ele>
        <time>2013-12-11T13:53:39Z</time>
      </trkpt>
      <trkpt lat="43.26086" lon="5.96723">
        <ele>258.8</ele>
        <time>2013-12-11T13:53:42Z</time>
      </trkpt>
      <trkpt lat="43.26088" lon="5.96718">
        <ele>260.6</ele>
        <time>2013-12-11T13:53:46Z</time>
      </trkpt>
      <trkpt lat="43.26091" lon="5.96714">
        <ele>258.5</ele>
        <time>2013-12-11T13:53:49Z</time>
      </trkpt>
      <trkpt lat="43.26093" lon="5.9671">
        <ele>256.8</ele>
        <time>2013-12-11T13:53:52Z</time>
      </trkpt>
      <trkpt lat="43.26093" lon="5.96704">
        <ele>255.3</ele>
        <time>2013-12-11T13:53:56Z</time>
      </trkpt>
      <trkpt lat="43.26095" lon="5.96699">
        <ele>253.1</ele>
        <time>2013-12-11T13:54:01Z</time>
      </trkpt>
      <trkpt lat="43.26098" lon="5.96694">
        <ele>249.5</ele>
        <time>2013-12-11T13:54:05Z</time>
      </trkpt>
      <trkpt lat="43.26098" lon="5.96693">
        <ele>248.6</ele>
        <time>2013-12-11T13:54:06Z</time>
      </trkpt>
      <trkpt lat="43.26101" lon="5.96685">
        <ele>245</ele>
        <time>2013-12-11T13:54:11Z</time>
      </trkpt>
      <trkpt lat="43.26103" lon="5.96683">
        <ele>245.3</ele>
        <time>2013-12-11T13:54:14Z</time>
      </trkpt>
      <trkpt lat="43.26105" lon="5.96678">
        <ele>244.8</ele>
        <time>2013-12-11T13:54:17Z</time>
      </trkpt>
      <trkpt lat="43.26108" lon="5.96674">
        <ele>243.1</ele>
        <time>2013-12-11T13:54:22Z</time>
      </trkpt>
      <trkpt lat="43.26109" lon="5.96669">
        <ele>242.6</ele>
        <time>2013-12-11T13:54:26Z</time>
      </trkpt>
      <trkpt lat="43.26111" lon="5.96664">
        <ele>241.6</ele>
        <time>2013-12-11T13:54:29Z</time>
      </trkpt>
      <trkpt lat="43.26113" lon="5.96659">
        <ele>241.1</ele>
        <time>2013-12-11T13:54:32Z</time>
      </trkpt>
      <trkpt lat="43.26116" lon="5.96654">
        <ele>240</ele>
        <time>2013-12-11T13:54:35Z</time>
      </trkpt>
      <trkpt lat="43.26118" lon="5.96649">
        <ele>241.1</ele>
        <time>2013-12-11T13:54:39Z</time>
      </trkpt>
      <trkpt lat="43.26119" lon="5.96645">
        <ele>240.6</ele>
        <time>2013-12-11T13:54:42Z</time>
      </trkpt>
      <trkpt lat="43.26122" lon="5.96641">
        <ele>242.1</ele>
        <time>2013-12-11T13:54:46Z</time>
      </trkpt>
      <trkpt lat="43.26124" lon="5.96636">
        <ele>242.8</ele>
        <time>2013-12-11T13:54:50Z</time>
      </trkpt>
      <trkpt lat="43.26126" lon="5.96632">
        <ele>240.8</ele>
        <time>2013-12-11T13:54:54Z</time>
      </trkpt>
      <trkpt lat="43.26127" lon="5.96627">
        <ele>239.3</ele>
        <time>2013-12-11T13:54:57Z</time>
      </trkpt>
      <trkpt lat="43.26128" lon="5.96622">
        <ele>238.6</ele>
        <time>2013-12-11T13:55:00Z</time>
      </trkpt>
      <trkpt lat="43.26129" lon="5.96617">
        <ele>236.3</ele>
        <time>2013-12-11T13:55:03Z</time>
      </trkpt>
      <trkpt lat="43.26129" lon="5.96613">
        <ele>233.5</ele>
        <time>2013-12-11T13:55:06Z</time>
      </trkpt>
      <trkpt lat="43.26129" lon="5.96611">
        <ele>233.6</ele>
        <time>2013-12-11T13:55:07Z</time>
      </trkpt>
      <trkpt lat="43.2613" lon="5.96602">
        <ele>226.3</ele>
        <time>2013-12-11T13:55:16Z</time>
      </trkpt>
      <trkpt lat="43.26132" lon="5.96597">
        <ele>219.3</ele>
        <time>2013-12-11T13:55:22Z</time>
      </trkpt>
      <trkpt lat="43.26134" lon="5.96594">
        <ele>216.5</ele>
        <time>2013-12-11T13:55:26Z</time>
      </trkpt>
      <trkpt lat="43.26138" lon="5.96592">
        <ele>216.6</ele>
        <time>2013-12-11T13:55:29Z</time>
      </trkpt>
      <trkpt lat="43.26142" lon="5.96588">
        <ele>217.6</ele>
        <time>2013-12-11T13:55:33Z</time>
      </trkpt>
      <trkpt lat="43.26145" lon="5.96586">
        <ele>216.5</ele>
        <time>2013-12-11T13:55:37Z</time>
      </trkpt>
      <trkpt lat="43.26147" lon="5.96582">
        <ele>218.8</ele>
        <time>2013-12-11T13:55:40Z</time>
      </trkpt>
      <trkpt lat="43.26151" lon="5.96579">
        <ele>219.6</ele>
        <time>2013-12-11T13:55:44Z</time>
      </trkpt>
      <trkpt lat="43.26153" lon="5.96575">
        <ele>222.3</ele>
        <time>2013-12-11T13:55:47Z</time>
      </trkpt>
      <trkpt lat="43.26156" lon="5.96573">
        <ele>222.3</ele>
        <time>2013-12-11T13:55:50Z</time>
      </trkpt>
      <trkpt lat="43.2616" lon="5.96571">
        <ele>222.6</ele>
        <time>2013-12-11T13:55:52Z</time>
      </trkpt>
      <trkpt lat="43.26163" lon="5.96569">
        <ele>223.1</ele>
        <time>2013-12-11T13:55:55Z</time>
      </trkpt>
      <trkpt lat="43.26167" lon="5.96567">
        <ele>222.8</ele>
        <time>2013-12-11T13:55:59Z</time>
      </trkpt>
      <trkpt lat="43.2617" lon="5.96564">
        <ele>224.3</ele>
        <time>2013-12-11T13:56:02Z</time>
      </trkpt>
      <trkpt lat="43.26174" lon="5.96563">
        <ele>224.1</ele>
        <time>2013-12-11T13:56:04Z</time>
      </trkpt>
      <trkpt lat="43.26176" lon="5.9656">
        <ele>225.8</ele>
        <time>2013-12-11T13:56:06Z</time>
      </trkpt>
      <trkpt lat="43.2618" lon="5.96558">
        <ele>226.1</ele>
        <time>2013-12-11T13:56:09Z</time>
      </trkpt>
      <trkpt lat="43.26182" lon="5.96558">
        <ele>226.8</ele>
        <time>2013-12-11T13:56:10Z</time>
      </trkpt>
      <trkpt lat="43.26187" lon="5.96556">
        <ele>225.8</ele>
        <time>2013-12-11T13:56:15Z</time>
      </trkpt>
      <trkpt lat="43.2619" lon="5.96553">
        <ele>227</ele>
        <time>2013-12-11T13:56:17Z</time>
      </trkpt>
      <trkpt lat="43.26193" lon="5.9655">
        <ele>229.8</ele>
        <time>2013-12-11T13:56:19Z</time>
      </trkpt>
      <trkpt lat="43.26194" lon="5.96547">
        <ele>231.6</ele>
        <time>2013-12-11T13:56:21Z</time>
      </trkpt>
      <trkpt lat="43.26196" lon="5.96541">
        <ele>236.3</ele>
        <time>2013-12-11T13:56:23Z</time>
      </trkpt>
      <trkpt lat="43.26198" lon="5.96536">
        <ele>239.6</ele>
        <time>2013-12-11T13:56:25Z</time>
      </trkpt>
      <trkpt lat="43.26198" lon="5.96531">
        <ele>240.1</ele>
        <time>2013-12-11T13:56:28Z</time>
      </trkpt>
      <trkpt lat="43.26197" lon="5.96525">
        <ele>241</ele>
        <time>2013-12-11T13:56:32Z</time>
      </trkpt>
      <trkpt lat="43.26196" lon="5.96519">
        <ele>239.8</ele>
        <time>2013-12-11T13:56:36Z</time>
      </trkpt>
      <trkpt lat="43.26195" lon="5.96514">
        <ele>240.1</ele>
        <time>2013-12-11T13:56:39Z</time>
      </trkpt>
      <trkpt lat="43.26194" lon="5.96509">
        <ele>241.1</ele>
        <time>2013-12-11T13:56:41Z</time>
      </trkpt>
      <trkpt lat="43.26193" lon="5.96503">
        <ele>240.8</ele>
        <time>2013-12-11T13:56:44Z</time>
      </trkpt>
      <trkpt lat="43.26193" lon="5.96497">
        <ele>238.3</ele>
        <time>2013-12-11T13:56:48Z</time>
      </trkpt>
      <trkpt lat="43.26194" lon="5.96491">
        <ele>235.6</ele>
        <time>2013-12-11T13:56:53Z</time>
      </trkpt>
      <trkpt lat="43.26196" lon="5.96486">
        <ele>232.8</ele>
        <time>2013-12-11T13:56:58Z</time>
      </trkpt>
      <trkpt lat="43.26198" lon="5.96481">
        <ele>230.8</ele>
        <time>2013-12-11T13:57:03Z</time>
      </trkpt>
      <trkpt lat="43.262" lon="5.96477">
        <ele>228.8</ele>
        <time>2013-12-11T13:57:07Z</time>
      </trkpt>
      <trkpt lat="43.26202" lon="5.96473">
        <ele>226.8</ele>
        <time>2013-12-11T13:57:11Z</time>
      </trkpt>
      <trkpt lat="43.26203" lon="5.96471">
        <ele>226.8</ele>
        <time>2013-12-11T13:57:12Z</time>
      </trkpt>
    </trkseg>
  </trk>
</gpx>